<?xml version="1.0" encoding="UTF-8" standalone="no" ?>
<gpx xmlns="http://www.topografix.com/GPX/1/1" xmlns:xsi="http://www.w3.org/2001/XMLSchema-instance" xsi:schemaLocation="http://www.topografix.com/GPX/1/1 http://www.topografix.com/GPX/1/1/gpx.xsd" version="1.1" creator="VisuGPX - https://www.visugpx.com">
  <metadata>
    <name>Road trip fait P/E</name>
  </metadata>
  <trk>
    <name><![CDATA[Road trip fait P/E_1]]></name>
    <extensions>
      <line xmlns="http://www.topografix.com/GPX/gpx_style/0/2">
        <color>0000FF</color>
        <width>4</width>
      </line>
    </extensions>
    <trkseg>
      <trkpt lat="43.55316" lon="1.33599">
        <ele>169.0817</ele>
        <time>2021-07-05T07:58:46Z</time>
      </trkpt>
      <trkpt lat="43.55316" lon="1.33599">
        <ele>169.0817</ele>
        <time>2021-07-05T07:58:46Z</time>
      </trkpt>
      <trkpt lat="43.55318" lon="1.33595">
        <ele>167.4424</ele>
        <time>2021-07-05T07:59:29Z</time>
      </trkpt>
      <trkpt lat="43.55321" lon="1.33592">
        <ele>166.0543</ele>
        <time>2021-07-05T07:59:40Z</time>
      </trkpt>
      <trkpt lat="43.55318" lon="1.33594">
        <ele>165.7838</ele>
        <time>2021-07-05T08:00:15Z</time>
      </trkpt>
      <trkpt lat="43.55319" lon="1.33597">
        <ele>166.5641</ele>
        <time>2021-07-05T08:01:14Z</time>
      </trkpt>
      <trkpt lat="43.55286" lon="1.33544">
        <ele>165.4854</ele>
        <time>2021-07-05T08:01:25Z</time>
      </trkpt>
      <trkpt lat="43.55246" lon="1.33543">
        <ele>165.7818</ele>
        <time>2021-07-05T08:01:36Z</time>
      </trkpt>
      <trkpt lat="43.55241" lon="1.33537">
        <ele>166.0416</ele>
        <time>2021-07-05T08:01:54Z</time>
      </trkpt>
      <trkpt lat="43.55184" lon="1.33554">
        <ele>166.8869</ele>
        <time>2021-07-05T08:02:05Z</time>
      </trkpt>
      <trkpt lat="43.55042" lon="1.33619">
        <ele>165.5732</ele>
        <time>2021-07-05T08:02:16Z</time>
      </trkpt>
      <trkpt lat="43.54886" lon="1.33699">
        <ele>166.3222</ele>
        <time>2021-07-05T08:02:27Z</time>
      </trkpt>
      <trkpt lat="43.54747" lon="1.33763">
        <ele>165.8345</ele>
        <time>2021-07-05T08:02:38Z</time>
      </trkpt>
      <trkpt lat="43.54592" lon="1.33801">
        <ele>165.9655</ele>
        <time>2021-07-05T08:02:49Z</time>
      </trkpt>
      <trkpt lat="43.54433" lon="1.3381">
        <ele>166.6302</ele>
        <time>2021-07-05T08:03:00Z</time>
      </trkpt>
      <trkpt lat="43.54276" lon="1.3382">
        <ele>166.8108</ele>
        <time>2021-07-05T08:03:11Z</time>
      </trkpt>
      <trkpt lat="43.5416" lon="1.33805">
        <ele>166.539</ele>
        <time>2021-07-05T08:03:22Z</time>
      </trkpt>
      <trkpt lat="43.54041" lon="1.33884">
        <ele>166.6037</ele>
        <time>2021-07-05T08:03:33Z</time>
      </trkpt>
      <trkpt lat="43.53938" lon="1.33912">
        <ele>168.1534</ele>
        <time>2021-07-05T08:03:44Z</time>
      </trkpt>
      <trkpt lat="43.53866" lon="1.33986">
        <ele>166.3161</ele>
        <time>2021-07-05T08:03:55Z</time>
      </trkpt>
      <trkpt lat="43.53811" lon="1.34029">
        <ele>166.4003</ele>
        <time>2021-07-05T08:04:06Z</time>
      </trkpt>
      <trkpt lat="43.5376" lon="1.33922">
        <ele>167.4099</ele>
        <time>2021-07-05T08:04:17Z</time>
      </trkpt>
      <trkpt lat="43.53711" lon="1.33822">
        <ele>167.0787</ele>
        <time>2021-07-05T08:04:28Z</time>
      </trkpt>
      <trkpt lat="43.53651" lon="1.33704">
        <ele>167.9399</ele>
        <time>2021-07-05T08:04:39Z</time>
      </trkpt>
      <trkpt lat="43.53681" lon="1.33587">
        <ele>168.4587</ele>
        <time>2021-07-05T08:04:50Z</time>
      </trkpt>
      <trkpt lat="43.53649" lon="1.3349">
        <ele>168.7426</ele>
        <time>2021-07-05T08:05:01Z</time>
      </trkpt>
      <trkpt lat="43.53551" lon="1.33373">
        <ele>169.9245</ele>
        <time>2021-07-05T08:05:12Z</time>
      </trkpt>
      <trkpt lat="43.53455" lon="1.3327">
        <ele>168.833</ele>
        <time>2021-07-05T08:05:23Z</time>
      </trkpt>
      <trkpt lat="43.53358" lon="1.33181">
        <ele>168.6028</ele>
        <time>2021-07-05T08:05:34Z</time>
      </trkpt>
      <trkpt lat="43.53266" lon="1.3308">
        <ele>167.8311</ele>
        <time>2021-07-05T08:05:45Z</time>
      </trkpt>
      <trkpt lat="43.53178" lon="1.32985">
        <ele>169.876</ele>
        <time>2021-07-05T08:05:56Z</time>
      </trkpt>
      <trkpt lat="43.53068" lon="1.32882">
        <ele>169.6293</ele>
        <time>2021-07-05T08:06:07Z</time>
      </trkpt>
      <trkpt lat="43.52965" lon="1.32768">
        <ele>169.3794</ele>
        <time>2021-07-05T08:06:18Z</time>
      </trkpt>
      <trkpt lat="43.52839" lon="1.32645">
        <ele>168.957</ele>
        <time>2021-07-05T08:06:29Z</time>
      </trkpt>
      <trkpt lat="43.52747" lon="1.32536">
        <ele>168.9309</ele>
        <time>2021-07-05T08:06:40Z</time>
      </trkpt>
      <trkpt lat="43.52665" lon="1.32426">
        <ele>171.7377</ele>
        <time>2021-07-05T08:06:51Z</time>
      </trkpt>
      <trkpt lat="43.52588" lon="1.32342">
        <ele>171.9249</ele>
        <time>2021-07-05T08:07:02Z</time>
      </trkpt>
      <trkpt lat="43.525" lon="1.32312">
        <ele>170.5963</ele>
        <time>2021-07-05T08:07:13Z</time>
      </trkpt>
      <trkpt lat="43.52454" lon="1.32318">
        <ele>170.5522</ele>
        <time>2021-07-05T08:07:24Z</time>
      </trkpt>
      <trkpt lat="43.52532" lon="1.32372">
        <ele>171.074</ele>
        <time>2021-07-05T08:07:35Z</time>
      </trkpt>
      <trkpt lat="43.52545" lon="1.32364">
        <ele>172.6157</ele>
        <time>2021-07-05T08:07:46Z</time>
      </trkpt>
      <trkpt lat="43.52539" lon="1.32363">
        <ele>171.1813</ele>
        <time>2021-07-05T08:07:57Z</time>
      </trkpt>
      <trkpt lat="43.52536" lon="1.32365">
        <ele>170.1828</ele>
        <time>2021-07-05T08:08:08Z</time>
      </trkpt>
      <trkpt lat="43.52538" lon="1.3236">
        <ele>170.2456</ele>
        <time>2021-07-05T08:08:42Z</time>
      </trkpt>
      <trkpt lat="43.52537" lon="1.32355">
        <ele>170.442</ele>
        <time>2021-07-05T08:09:32Z</time>
      </trkpt>
      <trkpt lat="43.52538" lon="1.32358">
        <ele>171.2093</ele>
        <time>2021-07-05T08:10:31Z</time>
      </trkpt>
      <trkpt lat="43.52536" lon="1.32357">
        <ele>170.8216</ele>
        <time>2021-07-05T08:11:31Z</time>
      </trkpt>
      <trkpt lat="43.52534" lon="1.32353">
        <ele>171.0715</ele>
        <time>2021-07-05T08:11:47Z</time>
      </trkpt>
      <trkpt lat="43.52486" lon="1.32342">
        <ele>170.3512</ele>
        <time>2021-07-05T08:11:58Z</time>
      </trkpt>
      <trkpt lat="43.52453" lon="1.32301">
        <ele>171.6465</ele>
        <time>2021-07-05T08:12:09Z</time>
      </trkpt>
      <trkpt lat="43.52401" lon="1.32296">
        <ele>171.4468</ele>
        <time>2021-07-05T08:12:20Z</time>
      </trkpt>
      <trkpt lat="43.52286" lon="1.32233">
        <ele>171.8465</ele>
        <time>2021-07-05T08:12:31Z</time>
      </trkpt>
      <trkpt lat="43.52176" lon="1.32148">
        <ele>170.7166</ele>
        <time>2021-07-05T08:12:42Z</time>
      </trkpt>
      <trkpt lat="43.52061" lon="1.32057">
        <ele>172.0601</ele>
        <time>2021-07-05T08:12:53Z</time>
      </trkpt>
      <trkpt lat="43.51947" lon="1.32007">
        <ele>172.7011</ele>
        <time>2021-07-05T08:13:04Z</time>
      </trkpt>
      <trkpt lat="43.5188" lon="1.31999">
        <ele>173.0496</ele>
        <time>2021-07-05T08:13:15Z</time>
      </trkpt>
      <trkpt lat="43.51858" lon="1.3211">
        <ele>173.3882</ele>
        <time>2021-07-05T08:13:26Z</time>
      </trkpt>
      <trkpt lat="43.51831" lon="1.32199">
        <ele>173.1821</ele>
        <time>2021-07-05T08:13:37Z</time>
      </trkpt>
      <trkpt lat="43.51806" lon="1.32303">
        <ele>171.6674</ele>
        <time>2021-07-05T08:13:48Z</time>
      </trkpt>
      <trkpt lat="43.51776" lon="1.32381">
        <ele>172.1655</ele>
        <time>2021-07-05T08:13:59Z</time>
      </trkpt>
      <trkpt lat="43.51696" lon="1.32327">
        <ele>172.8244</ele>
        <time>2021-07-05T08:14:10Z</time>
      </trkpt>
      <trkpt lat="43.5163" lon="1.32267">
        <ele>172.7007</ele>
        <time>2021-07-05T08:14:21Z</time>
      </trkpt>
      <trkpt lat="43.51562" lon="1.32206">
        <ele>172.49</ele>
        <time>2021-07-05T08:14:32Z</time>
      </trkpt>
      <trkpt lat="43.51558" lon="1.32123">
        <ele>173.1464</ele>
        <time>2021-07-05T08:14:43Z</time>
      </trkpt>
      <trkpt lat="43.51504" lon="1.32102">
        <ele>172.4853</ele>
        <time>2021-07-05T08:14:54Z</time>
      </trkpt>
      <trkpt lat="43.51459" lon="1.32042">
        <ele>172.8588</ele>
        <time>2021-07-05T08:15:05Z</time>
      </trkpt>
      <trkpt lat="43.51446" lon="1.32032">
        <ele>174.1466</ele>
        <time>2021-07-05T08:15:16Z</time>
      </trkpt>
      <trkpt lat="43.51473" lon="1.31921">
        <ele>173.0646</ele>
        <time>2021-07-05T08:15:27Z</time>
      </trkpt>
      <trkpt lat="43.51518" lon="1.3174">
        <ele>172.4689</ele>
        <time>2021-07-05T08:15:38Z</time>
      </trkpt>
      <trkpt lat="43.51618" lon="1.31707">
        <ele>172.8399</ele>
        <time>2021-07-05T08:15:49Z</time>
      </trkpt>
      <trkpt lat="43.51642" lon="1.31521">
        <ele>172.756</ele>
        <time>2021-07-05T08:16:00Z</time>
      </trkpt>
      <trkpt lat="43.51641" lon="1.31309">
        <ele>172.3964</ele>
        <time>2021-07-05T08:16:11Z</time>
      </trkpt>
      <trkpt lat="43.51642" lon="1.31117">
        <ele>172.1072</ele>
        <time>2021-07-05T08:16:22Z</time>
      </trkpt>
      <trkpt lat="43.51657" lon="1.30892">
        <ele>172.0853</ele>
        <time>2021-07-05T08:16:33Z</time>
      </trkpt>
      <trkpt lat="43.51675" lon="1.30656">
        <ele>172.7043</ele>
        <time>2021-07-05T08:16:44Z</time>
      </trkpt>
      <trkpt lat="43.51687" lon="1.30411">
        <ele>173.3673</ele>
        <time>2021-07-05T08:16:55Z</time>
      </trkpt>
      <trkpt lat="43.51708" lon="1.30186">
        <ele>173.0824</ele>
        <time>2021-07-05T08:17:06Z</time>
      </trkpt>
      <trkpt lat="43.51735" lon="1.29961">
        <ele>173.2541</ele>
        <time>2021-07-05T08:17:17Z</time>
      </trkpt>
      <trkpt lat="43.5174" lon="1.29674">
        <ele>172.542</ele>
        <time>2021-07-05T08:17:28Z</time>
      </trkpt>
      <trkpt lat="43.51774" lon="1.29389">
        <ele>172.8788</ele>
        <time>2021-07-05T08:17:39Z</time>
      </trkpt>
      <trkpt lat="43.51772" lon="1.29094">
        <ele>173.556</ele>
        <time>2021-07-05T08:17:50Z</time>
      </trkpt>
      <trkpt lat="43.51827" lon="1.28788">
        <ele>175.3666</ele>
        <time>2021-07-05T08:18:01Z</time>
      </trkpt>
      <trkpt lat="43.5192" lon="1.28487">
        <ele>173.7413</ele>
        <time>2021-07-05T08:18:12Z</time>
      </trkpt>
      <trkpt lat="43.52045" lon="1.28249">
        <ele>173.2398</ele>
        <time>2021-07-05T08:18:23Z</time>
      </trkpt>
      <trkpt lat="43.52168" lon="1.28022">
        <ele>174.0081</ele>
        <time>2021-07-05T08:18:34Z</time>
      </trkpt>
      <trkpt lat="43.52266" lon="1.27836">
        <ele>174.02</ele>
        <time>2021-07-05T08:18:45Z</time>
      </trkpt>
      <trkpt lat="43.52338" lon="1.27681">
        <ele>172.9154</ele>
        <time>2021-07-05T08:18:56Z</time>
      </trkpt>
      <trkpt lat="43.52394" lon="1.27478">
        <ele>173.6576</ele>
        <time>2021-07-05T08:19:07Z</time>
      </trkpt>
      <trkpt lat="43.52461" lon="1.27258">
        <ele>174.4975</ele>
        <time>2021-07-05T08:19:18Z</time>
      </trkpt>
      <trkpt lat="43.52511" lon="1.27043">
        <ele>174.545</ele>
        <time>2021-07-05T08:19:29Z</time>
      </trkpt>
      <trkpt lat="43.52524" lon="1.26875">
        <ele>173.8627</ele>
        <time>2021-07-05T08:19:40Z</time>
      </trkpt>
      <trkpt lat="43.52533" lon="1.26748">
        <ele>174.0435</ele>
        <time>2021-07-05T08:19:51Z</time>
      </trkpt>
      <trkpt lat="43.5253" lon="1.2675">
        <ele>174.3162</ele>
        <time>2021-07-05T08:20:16Z</time>
      </trkpt>
      <trkpt lat="43.52541" lon="1.26623">
        <ele>172.6928</ele>
        <time>2021-07-05T08:20:27Z</time>
      </trkpt>
      <trkpt lat="43.52533" lon="1.2642">
        <ele>173.8367</ele>
        <time>2021-07-05T08:20:38Z</time>
      </trkpt>
      <trkpt lat="43.52441" lon="1.26272">
        <ele>173.1469</ele>
        <time>2021-07-05T08:20:49Z</time>
      </trkpt>
      <trkpt lat="43.52439" lon="1.2608">
        <ele>174.3788</ele>
        <time>2021-07-05T08:21:00Z</time>
      </trkpt>
      <trkpt lat="43.52466" lon="1.25881">
        <ele>172.2935</ele>
        <time>2021-07-05T08:21:11Z</time>
      </trkpt>
      <trkpt lat="43.5248" lon="1.25652">
        <ele>173.4158</ele>
        <time>2021-07-05T08:21:22Z</time>
      </trkpt>
      <trkpt lat="43.52535" lon="1.255">
        <ele>173.0798</ele>
        <time>2021-07-05T08:21:33Z</time>
      </trkpt>
      <trkpt lat="43.52554" lon="1.25328">
        <ele>174.614</ele>
        <time>2021-07-05T08:21:44Z</time>
      </trkpt>
      <trkpt lat="43.52554" lon="1.25039">
        <ele>173.556</ele>
        <time>2021-07-05T08:21:55Z</time>
      </trkpt>
      <trkpt lat="43.52512" lon="1.24723">
        <ele>175.0114</ele>
        <time>2021-07-05T08:22:06Z</time>
      </trkpt>
      <trkpt lat="43.52427" lon="1.24377">
        <ele>174.3685</ele>
        <time>2021-07-05T08:22:17Z</time>
      </trkpt>
      <trkpt lat="43.5237" lon="1.24048">
        <ele>174.0078</ele>
        <time>2021-07-05T08:22:28Z</time>
      </trkpt>
      <trkpt lat="43.52274" lon="1.23744">
        <ele>176.3529</ele>
        <time>2021-07-05T08:22:39Z</time>
      </trkpt>
      <trkpt lat="43.5213" lon="1.23451">
        <ele>176.9993</ele>
        <time>2021-07-05T08:22:50Z</time>
      </trkpt>
      <trkpt lat="43.51998" lon="1.23188">
        <ele>178.948</ele>
        <time>2021-07-05T08:23:01Z</time>
      </trkpt>
      <trkpt lat="43.51945" lon="1.23059">
        <ele>180.3106</ele>
        <time>2021-07-05T08:23:12Z</time>
      </trkpt>
      <trkpt lat="43.51842" lon="1.22932">
        <ele>180.5205</ele>
        <time>2021-07-05T08:23:23Z</time>
      </trkpt>
      <trkpt lat="43.51675" lon="1.22804">
        <ele>180.8833</ele>
        <time>2021-07-05T08:23:34Z</time>
      </trkpt>
      <trkpt lat="43.51608" lon="1.22593">
        <ele>180.1561</ele>
        <time>2021-07-05T08:23:45Z</time>
      </trkpt>
      <trkpt lat="43.5156" lon="1.22311">
        <ele>180.2623</ele>
        <time>2021-07-05T08:23:56Z</time>
      </trkpt>
      <trkpt lat="43.51475" lon="1.22155">
        <ele>183.2564</ele>
        <time>2021-07-05T08:24:07Z</time>
      </trkpt>
      <trkpt lat="43.51285" lon="1.22112">
        <ele>182.661</ele>
        <time>2021-07-05T08:24:18Z</time>
      </trkpt>
      <trkpt lat="43.51117" lon="1.22014">
        <ele>185.0286</ele>
        <time>2021-07-05T08:24:29Z</time>
      </trkpt>
      <trkpt lat="43.51089" lon="1.21975">
        <ele>185.3256</ele>
        <time>2021-07-05T08:24:40Z</time>
      </trkpt>
      <trkpt lat="43.51138" lon="1.21767">
        <ele>194.8784</ele>
        <time>2021-07-05T08:24:51Z</time>
      </trkpt>
      <trkpt lat="43.51228" lon="1.21486">
        <ele>205.4363</ele>
        <time>2021-07-05T08:25:03Z</time>
      </trkpt>
      <trkpt lat="43.51311" lon="1.21267">
        <ele>207.486</ele>
        <time>2021-07-05T08:25:14Z</time>
      </trkpt>
      <trkpt lat="43.51377" lon="1.2103">
        <ele>209.0539</ele>
        <time>2021-07-05T08:25:25Z</time>
      </trkpt>
      <trkpt lat="43.51434" lon="1.20745">
        <ele>209.2231</ele>
        <time>2021-07-05T08:25:36Z</time>
      </trkpt>
      <trkpt lat="43.51454" lon="1.20493">
        <ele>209.6291</ele>
        <time>2021-07-05T08:25:47Z</time>
      </trkpt>
      <trkpt lat="43.51441" lon="1.20281">
        <ele>210.4971</ele>
        <time>2021-07-05T08:25:58Z</time>
      </trkpt>
      <trkpt lat="43.5141" lon="1.20053">
        <ele>212.138</ele>
        <time>2021-07-05T08:26:09Z</time>
      </trkpt>
      <trkpt lat="43.5136" lon="1.1985">
        <ele>214.589</ele>
        <time>2021-07-05T08:26:20Z</time>
      </trkpt>
      <trkpt lat="43.51304" lon="1.19691">
        <ele>212.6848</ele>
        <time>2021-07-05T08:26:31Z</time>
      </trkpt>
      <trkpt lat="43.51227" lon="1.19498">
        <ele>209.8124</ele>
        <time>2021-07-05T08:26:42Z</time>
      </trkpt>
      <trkpt lat="43.51149" lon="1.19298">
        <ele>204.4984</ele>
        <time>2021-07-05T08:26:53Z</time>
      </trkpt>
      <trkpt lat="43.51149" lon="1.19064">
        <ele>213.6319</ele>
        <time>2021-07-05T08:27:04Z</time>
      </trkpt>
      <trkpt lat="43.5117" lon="1.18912">
        <ele>214.5249</ele>
        <time>2021-07-05T08:27:15Z</time>
      </trkpt>
      <trkpt lat="43.51202" lon="1.18701">
        <ele>213.5934</ele>
        <time>2021-07-05T08:27:26Z</time>
      </trkpt>
      <trkpt lat="43.51224" lon="1.18494">
        <ele>214.1984</ele>
        <time>2021-07-05T08:27:37Z</time>
      </trkpt>
      <trkpt lat="43.51231" lon="1.18426">
        <ele>213.5592</ele>
        <time>2021-07-05T08:27:48Z</time>
      </trkpt>
      <trkpt lat="43.51231" lon="1.18418">
        <ele>213.8295</ele>
        <time>2021-07-05T08:28:08Z</time>
      </trkpt>
      <trkpt lat="43.51291" lon="1.18266">
        <ele>212.7761</ele>
        <time>2021-07-05T08:28:19Z</time>
      </trkpt>
      <trkpt lat="43.51355" lon="1.18124">
        <ele>211.8983</ele>
        <time>2021-07-05T08:28:30Z</time>
      </trkpt>
      <trkpt lat="43.51303" lon="1.17988">
        <ele>210.4187</ele>
        <time>2021-07-05T08:28:41Z</time>
      </trkpt>
      <trkpt lat="43.51286" lon="1.17862">
        <ele>209.1179</ele>
        <time>2021-07-05T08:28:52Z</time>
      </trkpt>
      <trkpt lat="43.51362" lon="1.1774">
        <ele>212.7026</ele>
        <time>2021-07-05T08:29:03Z</time>
      </trkpt>
      <trkpt lat="43.51398" lon="1.17655">
        <ele>214.2725</ele>
        <time>2021-07-05T08:29:14Z</time>
      </trkpt>
      <trkpt lat="43.51397" lon="1.17643">
        <ele>214.3889</ele>
        <time>2021-07-05T08:29:25Z</time>
      </trkpt>
      <trkpt lat="43.51396" lon="1.17637">
        <ele>214.7946</ele>
        <time>2021-07-05T08:29:36Z</time>
      </trkpt>
      <trkpt lat="43.51345" lon="1.17613">
        <ele>214.6067</ele>
        <time>2021-07-05T08:29:47Z</time>
      </trkpt>
      <trkpt lat="43.51282" lon="1.17547">
        <ele>212.8403</ele>
        <time>2021-07-05T08:29:58Z</time>
      </trkpt>
      <trkpt lat="43.51213" lon="1.17468">
        <ele>215.0963</ele>
        <time>2021-07-05T08:30:09Z</time>
      </trkpt>
      <trkpt lat="43.51177" lon="1.17425">
        <ele>214.2512</ele>
        <time>2021-07-05T08:30:20Z</time>
      </trkpt>
      <trkpt lat="43.51096" lon="1.17335">
        <ele>215.0788</ele>
        <time>2021-07-05T08:30:31Z</time>
      </trkpt>
      <trkpt lat="43.50993" lon="1.17221">
        <ele>216.3236</ele>
        <time>2021-07-05T08:30:42Z</time>
      </trkpt>
      <trkpt lat="43.50874" lon="1.17115">
        <ele>217.0233</ele>
        <time>2021-07-05T08:30:53Z</time>
      </trkpt>
      <trkpt lat="43.50732" lon="1.17035">
        <ele>214.8262</ele>
        <time>2021-07-05T08:31:04Z</time>
      </trkpt>
      <trkpt lat="43.50556" lon="1.16907">
        <ele>212.4759</ele>
        <time>2021-07-05T08:31:15Z</time>
      </trkpt>
      <trkpt lat="43.50401" lon="1.16693">
        <ele>216.3265</ele>
        <time>2021-07-05T08:31:26Z</time>
      </trkpt>
      <trkpt lat="43.50299" lon="1.16517">
        <ele>217.2171</ele>
        <time>2021-07-05T08:31:37Z</time>
      </trkpt>
      <trkpt lat="43.50188" lon="1.16339">
        <ele>217.7616</ele>
        <time>2021-07-05T08:31:48Z</time>
      </trkpt>
      <trkpt lat="43.50066" lon="1.16139">
        <ele>217.9465</ele>
        <time>2021-07-05T08:31:59Z</time>
      </trkpt>
      <trkpt lat="43.49961" lon="1.15968">
        <ele>218.4661</ele>
        <time>2021-07-05T08:32:10Z</time>
      </trkpt>
      <trkpt lat="43.49842" lon="1.15779">
        <ele>220.2781</ele>
        <time>2021-07-05T08:32:21Z</time>
      </trkpt>
      <trkpt lat="43.49694" lon="1.15537">
        <ele>223.5768</ele>
        <time>2021-07-05T08:32:32Z</time>
      </trkpt>
      <trkpt lat="43.49566" lon="1.15333">
        <ele>225.48</ele>
        <time>2021-07-05T08:32:43Z</time>
      </trkpt>
      <trkpt lat="43.4947" lon="1.15145">
        <ele>229.5783</ele>
        <time>2021-07-05T08:32:54Z</time>
      </trkpt>
      <trkpt lat="43.49423" lon="1.14932">
        <ele>242.9783</ele>
        <time>2021-07-05T08:33:05Z</time>
      </trkpt>
      <trkpt lat="43.49385" lon="1.14751">
        <ele>256.124</ele>
        <time>2021-07-05T08:33:16Z</time>
      </trkpt>
      <trkpt lat="43.49334" lon="1.14622">
        <ele>261.1927</ele>
        <time>2021-07-05T08:33:27Z</time>
      </trkpt>
      <trkpt lat="43.49287" lon="1.14539">
        <ele>262.2984</ele>
        <time>2021-07-05T08:33:38Z</time>
      </trkpt>
      <trkpt lat="43.49249" lon="1.14451">
        <ele>262.5933</ele>
        <time>2021-07-05T08:33:49Z</time>
      </trkpt>
      <trkpt lat="43.49215" lon="1.14332">
        <ele>262.9847</ele>
        <time>2021-07-05T08:34:00Z</time>
      </trkpt>
      <trkpt lat="43.49194" lon="1.1417">
        <ele>261.8276</ele>
        <time>2021-07-05T08:34:11Z</time>
      </trkpt>
      <trkpt lat="43.49178" lon="1.1398">
        <ele>263.0485</ele>
        <time>2021-07-05T08:34:22Z</time>
      </trkpt>
      <trkpt lat="43.49151" lon="1.13689">
        <ele>265.034</ele>
        <time>2021-07-05T08:34:33Z</time>
      </trkpt>
      <trkpt lat="43.49126" lon="1.13396">
        <ele>262.4811</ele>
        <time>2021-07-05T08:34:44Z</time>
      </trkpt>
      <trkpt lat="43.49106" lon="1.13114">
        <ele>265.6962</ele>
        <time>2021-07-05T08:34:55Z</time>
      </trkpt>
      <trkpt lat="43.49073" lon="1.12816">
        <ele>267.4898</ele>
        <time>2021-07-05T08:35:06Z</time>
      </trkpt>
      <trkpt lat="43.49045" lon="1.1251">
        <ele>269.8766</ele>
        <time>2021-07-05T08:35:17Z</time>
      </trkpt>
      <trkpt lat="43.49014" lon="1.12178">
        <ele>271.5584</ele>
        <time>2021-07-05T08:35:28Z</time>
      </trkpt>
      <trkpt lat="43.4899" lon="1.11883">
        <ele>282.8449</ele>
        <time>2021-07-05T08:35:39Z</time>
      </trkpt>
      <trkpt lat="43.48967" lon="1.1159">
        <ele>295.4738</ele>
        <time>2021-07-05T08:35:50Z</time>
      </trkpt>
      <trkpt lat="43.48937" lon="1.11281">
        <ele>307.1535</ele>
        <time>2021-07-05T08:36:01Z</time>
      </trkpt>
      <trkpt lat="43.48904" lon="1.10969">
        <ele>310.8135</ele>
        <time>2021-07-05T08:36:12Z</time>
      </trkpt>
      <trkpt lat="43.48906" lon="1.10654">
        <ele>311.3362</ele>
        <time>2021-07-05T08:36:23Z</time>
      </trkpt>
      <trkpt lat="43.48912" lon="1.10336">
        <ele>313.5949</ele>
        <time>2021-07-05T08:36:34Z</time>
      </trkpt>
      <trkpt lat="43.48918" lon="1.10025">
        <ele>314.1037</ele>
        <time>2021-07-05T08:36:45Z</time>
      </trkpt>
      <trkpt lat="43.48923" lon="1.09714">
        <ele>313.6614</ele>
        <time>2021-07-05T08:36:56Z</time>
      </trkpt>
      <trkpt lat="43.48927" lon="1.09391">
        <ele>316.5423</ele>
        <time>2021-07-05T08:37:07Z</time>
      </trkpt>
      <trkpt lat="43.48932" lon="1.09084">
        <ele>316.3366</ele>
        <time>2021-07-05T08:37:18Z</time>
      </trkpt>
      <trkpt lat="43.48939" lon="1.08793">
        <ele>313.1393</ele>
        <time>2021-07-05T08:37:29Z</time>
      </trkpt>
      <trkpt lat="43.48905" lon="1.08521">
        <ele>315.5468</ele>
        <time>2021-07-05T08:37:40Z</time>
      </trkpt>
      <trkpt lat="43.48797" lon="1.08264">
        <ele>308.0481</ele>
        <time>2021-07-05T08:37:51Z</time>
      </trkpt>
      <trkpt lat="43.48683" lon="1.07994">
        <ele>305.2421</ele>
        <time>2021-07-05T08:38:02Z</time>
      </trkpt>
      <trkpt lat="43.48573" lon="1.07727">
        <ele>288.5832</ele>
        <time>2021-07-05T08:38:13Z</time>
      </trkpt>
      <trkpt lat="43.48461" lon="1.07452">
        <ele>272.3525</ele>
        <time>2021-07-05T08:38:24Z</time>
      </trkpt>
      <trkpt lat="43.48367" lon="1.0722">
        <ele>268.2696</ele>
        <time>2021-07-05T08:38:35Z</time>
      </trkpt>
      <trkpt lat="43.48297" lon="1.07079">
        <ele>273.1435</ele>
        <time>2021-07-05T08:38:46Z</time>
      </trkpt>
      <trkpt lat="43.48255" lon="1.06992">
        <ele>274.8413</ele>
        <time>2021-07-05T08:38:57Z</time>
      </trkpt>
      <trkpt lat="43.48229" lon="1.06835">
        <ele>279.1532</ele>
        <time>2021-07-05T08:39:08Z</time>
      </trkpt>
      <trkpt lat="43.48242" lon="1.06658">
        <ele>286.0634</ele>
        <time>2021-07-05T08:39:19Z</time>
      </trkpt>
      <trkpt lat="43.48289" lon="1.06417">
        <ele>286.7475</ele>
        <time>2021-07-05T08:39:30Z</time>
      </trkpt>
      <trkpt lat="43.48373" lon="1.06191">
        <ele>275.3523</ele>
        <time>2021-07-05T08:39:41Z</time>
      </trkpt>
      <trkpt lat="43.48483" lon="1.05957">
        <ele>265.8575</ele>
        <time>2021-07-05T08:39:52Z</time>
      </trkpt>
      <trkpt lat="43.48561" lon="1.05679">
        <ele>258.9693</ele>
        <time>2021-07-05T08:40:03Z</time>
      </trkpt>
      <trkpt lat="43.48639" lon="1.05396">
        <ele>262.0933</ele>
        <time>2021-07-05T08:40:14Z</time>
      </trkpt>
      <trkpt lat="43.48712" lon="1.05124">
        <ele>256.1187</ele>
        <time>2021-07-05T08:40:25Z</time>
      </trkpt>
      <trkpt lat="43.48693" lon="1.04846">
        <ele>251.9501</ele>
        <time>2021-07-05T08:40:36Z</time>
      </trkpt>
      <trkpt lat="43.48717" lon="1.0458">
        <ele>247.4146</ele>
        <time>2021-07-05T08:40:47Z</time>
      </trkpt>
      <trkpt lat="43.48786" lon="1.04304">
        <ele>235.9991</ele>
        <time>2021-07-05T08:40:58Z</time>
      </trkpt>
      <trkpt lat="43.48851" lon="1.04029">
        <ele>225.165</ele>
        <time>2021-07-05T08:41:09Z</time>
      </trkpt>
      <trkpt lat="43.48823" lon="1.03728">
        <ele>214.3558</ele>
        <time>2021-07-05T08:41:20Z</time>
      </trkpt>
      <trkpt lat="43.48779" lon="1.03447">
        <ele>209.3852</ele>
        <time>2021-07-05T08:41:31Z</time>
      </trkpt>
      <trkpt lat="43.4883" lon="1.03145">
        <ele>199.0242</ele>
        <time>2021-07-05T08:41:42Z</time>
      </trkpt>
      <trkpt lat="43.48896" lon="1.02852">
        <ele>194.5852</ele>
        <time>2021-07-05T08:41:53Z</time>
      </trkpt>
      <trkpt lat="43.4896" lon="1.02556">
        <ele>194.0992</ele>
        <time>2021-07-05T08:42:04Z</time>
      </trkpt>
      <trkpt lat="43.49007" lon="1.02281">
        <ele>196.3976</ele>
        <time>2021-07-05T08:42:15Z</time>
      </trkpt>
      <trkpt lat="43.48889" lon="1.02059">
        <ele>209.0271</ele>
        <time>2021-07-05T08:42:26Z</time>
      </trkpt>
      <trkpt lat="43.48843" lon="1.01773">
        <ele>222.4535</ele>
        <time>2021-07-05T08:42:37Z</time>
      </trkpt>
      <trkpt lat="43.48914" lon="1.01517">
        <ele>236.5186</ele>
        <time>2021-07-05T08:42:48Z</time>
      </trkpt>
      <trkpt lat="43.49008" lon="1.01249">
        <ele>228.3525</ele>
        <time>2021-07-05T08:42:59Z</time>
      </trkpt>
      <trkpt lat="43.49057" lon="1.00939">
        <ele>221.6758</ele>
        <time>2021-07-05T08:43:10Z</time>
      </trkpt>
      <trkpt lat="43.49102" lon="1.0064">
        <ele>214.0599</ele>
        <time>2021-07-05T08:43:21Z</time>
      </trkpt>
      <trkpt lat="43.4918" lon="1.00323">
        <ele>205.5043</ele>
        <time>2021-07-05T08:43:32Z</time>
      </trkpt>
      <trkpt lat="43.49299" lon="1.00068">
        <ele>198.5191</ele>
        <time>2021-07-05T08:43:43Z</time>
      </trkpt>
      <trkpt lat="43.49312" lon="0.998">
        <ele>192.412</ele>
        <time>2021-07-05T08:43:54Z</time>
      </trkpt>
      <trkpt lat="43.49162" lon="0.9956">
        <ele>187.7779</ele>
        <time>2021-07-05T08:44:05Z</time>
      </trkpt>
      <trkpt lat="43.49082" lon="0.99287">
        <ele>180.5132</ele>
        <time>2021-07-05T08:44:16Z</time>
      </trkpt>
      <trkpt lat="43.48986" lon="0.99002">
        <ele>177.1853</ele>
        <time>2021-07-05T08:44:27Z</time>
      </trkpt>
      <trkpt lat="43.48891" lon="0.98707">
        <ele>175.3081</ele>
        <time>2021-07-05T08:44:38Z</time>
      </trkpt>
      <trkpt lat="43.48853" lon="0.98401">
        <ele>175.5023</ele>
        <time>2021-07-05T08:44:49Z</time>
      </trkpt>
      <trkpt lat="43.48842" lon="0.98095">
        <ele>173.8355</ele>
        <time>2021-07-05T08:45:00Z</time>
      </trkpt>
      <trkpt lat="43.48904" lon="0.97809">
        <ele>171.6372</ele>
        <time>2021-07-05T08:45:11Z</time>
      </trkpt>
      <trkpt lat="43.49032" lon="0.97562">
        <ele>172.1929</ele>
        <time>2021-07-05T08:45:22Z</time>
      </trkpt>
      <trkpt lat="43.49184" lon="0.97336">
        <ele>171.018</ele>
        <time>2021-07-05T08:45:33Z</time>
      </trkpt>
      <trkpt lat="43.49363" lon="0.97117">
        <ele>169.5723</ele>
        <time>2021-07-05T08:45:44Z</time>
      </trkpt>
      <trkpt lat="43.49522" lon="0.96951">
        <ele>167.9984</ele>
        <time>2021-07-05T08:45:55Z</time>
      </trkpt>
      <trkpt lat="43.49653" lon="0.9689">
        <ele>162.8399</ele>
        <time>2021-07-05T08:46:06Z</time>
      </trkpt>
      <trkpt lat="43.49652" lon="0.96841">
        <ele>157.5565</ele>
        <time>2021-07-05T08:46:17Z</time>
      </trkpt>
      <trkpt lat="43.49666" lon="0.96532">
        <ele>161.5282</ele>
        <time>2021-07-05T08:46:28Z</time>
      </trkpt>
      <trkpt lat="43.49662" lon="0.96226">
        <ele>162.8323</ele>
        <time>2021-07-05T08:46:39Z</time>
      </trkpt>
      <trkpt lat="43.49657" lon="0.95902">
        <ele>164.8777</ele>
        <time>2021-07-05T08:46:50Z</time>
      </trkpt>
      <trkpt lat="43.49652" lon="0.95574">
        <ele>170.029</ele>
        <time>2021-07-05T08:47:01Z</time>
      </trkpt>
      <trkpt lat="43.49641" lon="0.95259">
        <ele>165.0526</ele>
        <time>2021-07-05T08:47:12Z</time>
      </trkpt>
      <trkpt lat="43.49512" lon="0.94983">
        <ele>162.1987</ele>
        <time>2021-07-05T08:47:23Z</time>
      </trkpt>
      <trkpt lat="43.49354" lon="0.9474">
        <ele>161.4189</ele>
        <time>2021-07-05T08:47:34Z</time>
      </trkpt>
      <trkpt lat="43.49193" lon="0.94481">
        <ele>161.9232</ele>
        <time>2021-07-05T08:47:45Z</time>
      </trkpt>
      <trkpt lat="43.49069" lon="0.94282">
        <ele>163.5903</ele>
        <time>2021-07-05T08:47:56Z</time>
      </trkpt>
      <trkpt lat="43.48973" lon="0.9407">
        <ele>162.9271</ele>
        <time>2021-07-05T08:48:07Z</time>
      </trkpt>
      <trkpt lat="43.48896" lon="0.93864">
        <ele>163.566</ele>
        <time>2021-07-05T08:48:18Z</time>
      </trkpt>
      <trkpt lat="43.48821" lon="0.93657">
        <ele>164.8463</ele>
        <time>2021-07-05T08:48:29Z</time>
      </trkpt>
      <trkpt lat="43.48756" lon="0.93473">
        <ele>164.4012</ele>
        <time>2021-07-05T08:48:40Z</time>
      </trkpt>
      <trkpt lat="43.48648" lon="0.93418">
        <ele>162.4772</ele>
        <time>2021-07-05T08:48:51Z</time>
      </trkpt>
      <trkpt lat="43.48515" lon="0.93192">
        <ele>164.3816</ele>
        <time>2021-07-05T08:49:02Z</time>
      </trkpt>
      <trkpt lat="43.48335" lon="0.92969">
        <ele>163.5541</ele>
        <time>2021-07-05T08:49:13Z</time>
      </trkpt>
      <trkpt lat="43.48161" lon="0.9274">
        <ele>164.8874</ele>
        <time>2021-07-05T08:49:24Z</time>
      </trkpt>
      <trkpt lat="43.47977" lon="0.92512">
        <ele>165.1802</ele>
        <time>2021-07-05T08:49:35Z</time>
      </trkpt>
      <trkpt lat="43.47778" lon="0.92266">
        <ele>166.5331</ele>
        <time>2021-07-05T08:49:46Z</time>
      </trkpt>
      <trkpt lat="43.47597" lon="0.92039">
        <ele>167.1034</ele>
        <time>2021-07-05T08:49:57Z</time>
      </trkpt>
      <trkpt lat="43.47455" lon="0.91852">
        <ele>167.3799</ele>
        <time>2021-07-05T08:50:08Z</time>
      </trkpt>
      <trkpt lat="43.47422" lon="0.91608">
        <ele>167.5134</ele>
        <time>2021-07-05T08:50:19Z</time>
      </trkpt>
      <trkpt lat="43.47483" lon="0.91436">
        <ele>169.7874</ele>
        <time>2021-07-05T08:50:30Z</time>
      </trkpt>
      <trkpt lat="43.47524" lon="0.91295">
        <ele>170.4209</ele>
        <time>2021-07-05T08:50:41Z</time>
      </trkpt>
      <trkpt lat="43.47566" lon="0.91152">
        <ele>172.6392</ele>
        <time>2021-07-05T08:50:52Z</time>
      </trkpt>
      <trkpt lat="43.4758" lon="0.90991">
        <ele>172.4305</ele>
        <time>2021-07-05T08:51:03Z</time>
      </trkpt>
      <trkpt lat="43.4751" lon="0.90862">
        <ele>175.1058</ele>
        <time>2021-07-05T08:51:14Z</time>
      </trkpt>
      <trkpt lat="43.4741" lon="0.90722">
        <ele>177.7867</ele>
        <time>2021-07-05T08:51:25Z</time>
      </trkpt>
      <trkpt lat="43.47296" lon="0.90577">
        <ele>175.8888</ele>
        <time>2021-07-05T08:51:36Z</time>
      </trkpt>
      <trkpt lat="43.47196" lon="0.90412">
        <ele>170.6475</ele>
        <time>2021-07-05T08:51:47Z</time>
      </trkpt>
      <trkpt lat="43.47115" lon="0.90197">
        <ele>173.839</ele>
        <time>2021-07-05T08:51:58Z</time>
      </trkpt>
      <trkpt lat="43.47025" lon="0.89931">
        <ele>175.793</ele>
        <time>2021-07-05T08:52:09Z</time>
      </trkpt>
      <trkpt lat="43.46952" lon="0.89712">
        <ele>171.8078</ele>
        <time>2021-07-05T08:52:20Z</time>
      </trkpt>
      <trkpt lat="43.4693" lon="0.89639">
        <ele>174.0552</ele>
        <time>2021-07-05T08:52:31Z</time>
      </trkpt>
      <trkpt lat="43.46927" lon="0.89636">
        <ele>174.2356</ele>
        <time>2021-07-05T08:52:42Z</time>
      </trkpt>
      <trkpt lat="43.46923" lon="0.89636">
        <ele>174.7469</ele>
        <time>2021-07-05T08:53:00Z</time>
      </trkpt>
      <trkpt lat="43.46842" lon="0.89493">
        <ele>178.8416</ele>
        <time>2021-07-05T08:53:11Z</time>
      </trkpt>
      <trkpt lat="43.46682" lon="0.89302">
        <ele>173.1237</ele>
        <time>2021-07-05T08:53:22Z</time>
      </trkpt>
      <trkpt lat="43.465" lon="0.89081">
        <ele>169.9019</ele>
        <time>2021-07-05T08:53:33Z</time>
      </trkpt>
      <trkpt lat="43.46313" lon="0.8885">
        <ele>170.6954</ele>
        <time>2021-07-05T08:53:44Z</time>
      </trkpt>
      <trkpt lat="43.46108" lon="0.88592">
        <ele>173.5472</ele>
        <time>2021-07-05T08:53:55Z</time>
      </trkpt>
      <trkpt lat="43.45925" lon="0.88365">
        <ele>173.122</ele>
        <time>2021-07-05T08:54:06Z</time>
      </trkpt>
      <trkpt lat="43.45776" lon="0.88173">
        <ele>172.3574</ele>
        <time>2021-07-05T08:54:17Z</time>
      </trkpt>
      <trkpt lat="43.45614" lon="0.87971">
        <ele>173.0467</ele>
        <time>2021-07-05T08:54:28Z</time>
      </trkpt>
      <trkpt lat="43.45443" lon="0.87759">
        <ele>173.6651</ele>
        <time>2021-07-05T08:54:39Z</time>
      </trkpt>
      <trkpt lat="43.45257" lon="0.8752">
        <ele>175.9489</ele>
        <time>2021-07-05T08:54:50Z</time>
      </trkpt>
      <trkpt lat="43.45064" lon="0.87282">
        <ele>179.1538</ele>
        <time>2021-07-05T08:55:01Z</time>
      </trkpt>
      <trkpt lat="43.44882" lon="0.87045">
        <ele>180.4604</ele>
        <time>2021-07-05T08:55:12Z</time>
      </trkpt>
      <trkpt lat="43.4482" lon="0.86715">
        <ele>190.2728</ele>
        <time>2021-07-05T08:55:23Z</time>
      </trkpt>
      <trkpt lat="43.44786" lon="0.86396">
        <ele>190.9367</ele>
        <time>2021-07-05T08:55:34Z</time>
      </trkpt>
      <trkpt lat="43.44663" lon="0.8608">
        <ele>186.6409</ele>
        <time>2021-07-05T08:55:45Z</time>
      </trkpt>
      <trkpt lat="43.44496" lon="0.85787">
        <ele>179.9552</ele>
        <time>2021-07-05T08:55:56Z</time>
      </trkpt>
      <trkpt lat="43.44297" lon="0.85567">
        <ele>179.541</ele>
        <time>2021-07-05T08:56:07Z</time>
      </trkpt>
      <trkpt lat="43.44111" lon="0.8532">
        <ele>179.5212</ele>
        <time>2021-07-05T08:56:18Z</time>
      </trkpt>
      <trkpt lat="43.43931" lon="0.85088">
        <ele>178.5281</ele>
        <time>2021-07-05T08:56:29Z</time>
      </trkpt>
      <trkpt lat="43.4373" lon="0.84903">
        <ele>181.5002</ele>
        <time>2021-07-05T08:56:40Z</time>
      </trkpt>
      <trkpt lat="43.43529" lon="0.84728">
        <ele>186.5721</ele>
        <time>2021-07-05T08:56:51Z</time>
      </trkpt>
      <trkpt lat="43.43364" lon="0.84535">
        <ele>184.7707</ele>
        <time>2021-07-05T08:57:02Z</time>
      </trkpt>
      <trkpt lat="43.43241" lon="0.84276">
        <ele>187.9771</ele>
        <time>2021-07-05T08:57:13Z</time>
      </trkpt>
      <trkpt lat="43.4319" lon="0.83965">
        <ele>186.3419</ele>
        <time>2021-07-05T08:57:24Z</time>
      </trkpt>
      <trkpt lat="43.42981" lon="0.83794">
        <ele>186.0489</ele>
        <time>2021-07-05T08:57:35Z</time>
      </trkpt>
      <trkpt lat="43.42844" lon="0.83535">
        <ele>188.2918</ele>
        <time>2021-07-05T08:57:46Z</time>
      </trkpt>
      <trkpt lat="43.42725" lon="0.83212">
        <ele>188.8017</ele>
        <time>2021-07-05T08:57:57Z</time>
      </trkpt>
      <trkpt lat="43.4266" lon="0.82884">
        <ele>188.4758</ele>
        <time>2021-07-05T08:58:08Z</time>
      </trkpt>
      <trkpt lat="43.42541" lon="0.82579">
        <ele>191.3994</ele>
        <time>2021-07-05T08:58:19Z</time>
      </trkpt>
      <trkpt lat="43.42487" lon="0.82239">
        <ele>196.7444</ele>
        <time>2021-07-05T08:58:30Z</time>
      </trkpt>
      <trkpt lat="43.42416" lon="0.81906">
        <ele>197.3815</ele>
        <time>2021-07-05T08:58:41Z</time>
      </trkpt>
      <trkpt lat="43.42306" lon="0.8165">
        <ele>191.797</ele>
        <time>2021-07-05T08:58:52Z</time>
      </trkpt>
      <trkpt lat="43.42226" lon="0.81474">
        <ele>192.0865</ele>
        <time>2021-07-05T08:59:03Z</time>
      </trkpt>
      <trkpt lat="43.42286" lon="0.8123">
        <ele>203.8005</ele>
        <time>2021-07-05T08:59:14Z</time>
      </trkpt>
      <trkpt lat="43.42351" lon="0.80944">
        <ele>217.9755</ele>
        <time>2021-07-05T08:59:25Z</time>
      </trkpt>
      <trkpt lat="43.42451" lon="0.80638">
        <ele>227.2285</ele>
        <time>2021-07-05T08:59:36Z</time>
      </trkpt>
      <trkpt lat="43.4252" lon="0.80358">
        <ele>244.2694</ele>
        <time>2021-07-05T08:59:47Z</time>
      </trkpt>
      <trkpt lat="43.42637" lon="0.80087">
        <ele>254.3787</ele>
        <time>2021-07-05T08:59:58Z</time>
      </trkpt>
      <trkpt lat="43.42805" lon="0.79814">
        <ele>246.9353</ele>
        <time>2021-07-05T09:00:09Z</time>
      </trkpt>
      <trkpt lat="43.42895" lon="0.79511">
        <ele>258.3993</ele>
        <time>2021-07-05T09:00:20Z</time>
      </trkpt>
      <trkpt lat="43.43004" lon="0.79238">
        <ele>263.9184</ele>
        <time>2021-07-05T09:00:31Z</time>
      </trkpt>
      <trkpt lat="43.43118" lon="0.78962">
        <ele>268.0214</ele>
        <time>2021-07-05T09:00:42Z</time>
      </trkpt>
      <trkpt lat="43.43209" lon="0.78695">
        <ele>267.6905</ele>
        <time>2021-07-05T09:00:53Z</time>
      </trkpt>
      <trkpt lat="43.43207" lon="0.78479">
        <ele>268.5118</ele>
        <time>2021-07-05T09:01:04Z</time>
      </trkpt>
      <trkpt lat="43.43197" lon="0.78299">
        <ele>273.7517</ele>
        <time>2021-07-05T09:01:15Z</time>
      </trkpt>
      <trkpt lat="43.43102" lon="0.78059">
        <ele>265.3854</ele>
        <time>2021-07-05T09:01:26Z</time>
      </trkpt>
      <trkpt lat="43.43017" lon="0.77779">
        <ele>261.002</ele>
        <time>2021-07-05T09:01:37Z</time>
      </trkpt>
      <trkpt lat="43.42901" lon="0.7749">
        <ele>270.2687</ele>
        <time>2021-07-05T09:01:48Z</time>
      </trkpt>
      <trkpt lat="43.42824" lon="0.77202">
        <ele>282.1214</ele>
        <time>2021-07-05T09:01:59Z</time>
      </trkpt>
      <trkpt lat="43.42881" lon="0.76895">
        <ele>288.3596</ele>
        <time>2021-07-05T09:02:10Z</time>
      </trkpt>
      <trkpt lat="43.43005" lon="0.76629">
        <ele>299.6337</ele>
        <time>2021-07-05T09:02:21Z</time>
      </trkpt>
      <trkpt lat="43.43143" lon="0.76362">
        <ele>302.1713</ele>
        <time>2021-07-05T09:02:32Z</time>
      </trkpt>
      <trkpt lat="43.43219" lon="0.76133">
        <ele>301.0672</ele>
        <time>2021-07-05T09:02:43Z</time>
      </trkpt>
      <trkpt lat="43.43212" lon="0.75846">
        <ele>305.2604</ele>
        <time>2021-07-05T09:02:54Z</time>
      </trkpt>
      <trkpt lat="43.43141" lon="0.75568">
        <ele>295.53</ele>
        <time>2021-07-05T09:03:05Z</time>
      </trkpt>
      <trkpt lat="43.43037" lon="0.75316">
        <ele>301.0055</ele>
        <time>2021-07-05T09:03:16Z</time>
      </trkpt>
      <trkpt lat="43.42957" lon="0.75083">
        <ele>286.3214</ele>
        <time>2021-07-05T09:03:27Z</time>
      </trkpt>
      <trkpt lat="43.42874" lon="0.7496">
        <ele>272.312</ele>
        <time>2021-07-05T09:03:39Z</time>
      </trkpt>
      <trkpt lat="43.4296" lon="0.74784">
        <ele>257.7007</ele>
        <time>2021-07-05T09:03:50Z</time>
      </trkpt>
      <trkpt lat="43.42967" lon="0.7454">
        <ele>243.7674</ele>
        <time>2021-07-05T09:04:01Z</time>
      </trkpt>
      <trkpt lat="43.42944" lon="0.74293">
        <ele>227.8635</ele>
        <time>2021-07-05T09:04:12Z</time>
      </trkpt>
      <trkpt lat="43.42927" lon="0.74051">
        <ele>215.5377</ele>
        <time>2021-07-05T09:04:23Z</time>
      </trkpt>
      <trkpt lat="43.42989" lon="0.73794">
        <ele>209.6314</ele>
        <time>2021-07-05T09:04:34Z</time>
      </trkpt>
      <trkpt lat="43.43027" lon="0.73573">
        <ele>203.9306</ele>
        <time>2021-07-05T09:04:45Z</time>
      </trkpt>
      <trkpt lat="43.42912" lon="0.73329">
        <ele>204.377</ele>
        <time>2021-07-05T09:04:56Z</time>
      </trkpt>
      <trkpt lat="43.42852" lon="0.73113">
        <ele>202.7641</ele>
        <time>2021-07-05T09:05:07Z</time>
      </trkpt>
      <trkpt lat="43.42751" lon="0.72964">
        <ele>201.5748</ele>
        <time>2021-07-05T09:05:18Z</time>
      </trkpt>
      <trkpt lat="43.42689" lon="0.72811">
        <ele>203.4721</ele>
        <time>2021-07-05T09:05:29Z</time>
      </trkpt>
      <trkpt lat="43.42674" lon="0.72768">
        <ele>204.2896</ele>
        <time>2021-07-05T09:05:40Z</time>
      </trkpt>
      <trkpt lat="43.42533" lon="0.72735">
        <ele>206.2669</ele>
        <time>2021-07-05T09:05:51Z</time>
      </trkpt>
      <trkpt lat="43.4241" lon="0.72734">
        <ele>213.2479</ele>
        <time>2021-07-05T09:06:02Z</time>
      </trkpt>
      <trkpt lat="43.42368" lon="0.72671">
        <ele>220.9261</ele>
        <time>2021-07-05T09:06:13Z</time>
      </trkpt>
      <trkpt lat="43.42349" lon="0.72418">
        <ele>240.5379</ele>
        <time>2021-07-05T09:06:24Z</time>
      </trkpt>
      <trkpt lat="43.42318" lon="0.72106">
        <ele>250.8347</ele>
        <time>2021-07-05T09:06:35Z</time>
      </trkpt>
      <trkpt lat="43.42282" lon="0.71793">
        <ele>258.0743</ele>
        <time>2021-07-05T09:06:46Z</time>
      </trkpt>
      <trkpt lat="43.42232" lon="0.7148">
        <ele>272.5866</ele>
        <time>2021-07-05T09:06:57Z</time>
      </trkpt>
      <trkpt lat="43.42147" lon="0.71223">
        <ele>272.4152</ele>
        <time>2021-07-05T09:07:08Z</time>
      </trkpt>
      <trkpt lat="43.4209" lon="0.70953">
        <ele>259.9667</ele>
        <time>2021-07-05T09:07:19Z</time>
      </trkpt>
      <trkpt lat="43.42062" lon="0.70769">
        <ele>252.9873</ele>
        <time>2021-07-05T09:07:30Z</time>
      </trkpt>
      <trkpt lat="43.42008" lon="0.70593">
        <ele>243.3789</ele>
        <time>2021-07-05T09:07:41Z</time>
      </trkpt>
      <trkpt lat="43.4207" lon="0.703">
        <ele>258.5747</ele>
        <time>2021-07-05T09:07:52Z</time>
      </trkpt>
      <trkpt lat="43.42076" lon="0.70033">
        <ele>267.2507</ele>
        <time>2021-07-05T09:08:03Z</time>
      </trkpt>
      <trkpt lat="43.42058" lon="0.69728">
        <ele>280.1291</ele>
        <time>2021-07-05T09:08:14Z</time>
      </trkpt>
      <trkpt lat="43.42069" lon="0.6954">
        <ele>285.6406</ele>
        <time>2021-07-05T09:08:25Z</time>
      </trkpt>
      <trkpt lat="43.42196" lon="0.69338">
        <ele>262.3386</ele>
        <time>2021-07-05T09:08:36Z</time>
      </trkpt>
      <trkpt lat="43.42257" lon="0.69162">
        <ele>234.1653</ele>
        <time>2021-07-05T09:08:47Z</time>
      </trkpt>
      <trkpt lat="43.42251" lon="0.69019">
        <ele>234.8903</ele>
        <time>2021-07-05T09:08:58Z</time>
      </trkpt>
      <trkpt lat="43.42263" lon="0.6874">
        <ele>250.3546</ele>
        <time>2021-07-05T09:09:09Z</time>
      </trkpt>
      <trkpt lat="43.42297" lon="0.6848">
        <ele>267.837</ele>
        <time>2021-07-05T09:09:20Z</time>
      </trkpt>
      <trkpt lat="43.42311" lon="0.68259">
        <ele>283.6183</ele>
        <time>2021-07-05T09:09:31Z</time>
      </trkpt>
      <trkpt lat="43.4232" lon="0.68034">
        <ele>296.6494</ele>
        <time>2021-07-05T09:09:42Z</time>
      </trkpt>
      <trkpt lat="43.42348" lon="0.67753">
        <ele>304.8479</ele>
        <time>2021-07-05T09:09:53Z</time>
      </trkpt>
      <trkpt lat="43.4225" lon="0.67468">
        <ele>311.7505</ele>
        <time>2021-07-05T09:10:04Z</time>
      </trkpt>
      <trkpt lat="43.42121" lon="0.67172">
        <ele>305.0181</ele>
        <time>2021-07-05T09:10:15Z</time>
      </trkpt>
      <trkpt lat="43.42068" lon="0.66844">
        <ele>300.9336</ele>
        <time>2021-07-05T09:10:26Z</time>
      </trkpt>
      <trkpt lat="43.4199" lon="0.66636">
        <ele>293.9989</ele>
        <time>2021-07-05T09:10:37Z</time>
      </trkpt>
      <trkpt lat="43.41864" lon="0.66555">
        <ele>285.2668</ele>
        <time>2021-07-05T09:10:48Z</time>
      </trkpt>
      <trkpt lat="43.41918" lon="0.66405">
        <ele>279.4581</ele>
        <time>2021-07-05T09:10:59Z</time>
      </trkpt>
      <trkpt lat="43.42039" lon="0.66246">
        <ele>269.9371</ele>
        <time>2021-07-05T09:11:10Z</time>
      </trkpt>
      <trkpt lat="43.42156" lon="0.66023">
        <ele>271.5225</ele>
        <time>2021-07-05T09:11:22Z</time>
      </trkpt>
      <trkpt lat="43.42195" lon="0.6571">
        <ele>242.74</ele>
        <time>2021-07-05T09:11:33Z</time>
      </trkpt>
      <trkpt lat="43.4231" lon="0.65451">
        <ele>240.2114</ele>
        <time>2021-07-05T09:11:44Z</time>
      </trkpt>
      <trkpt lat="43.42319" lon="0.65275">
        <ele>230.0057</ele>
        <time>2021-07-05T09:11:55Z</time>
      </trkpt>
      <trkpt lat="43.42217" lon="0.65062">
        <ele>221.2578</ele>
        <time>2021-07-05T09:12:06Z</time>
      </trkpt>
      <trkpt lat="43.42148" lon="0.64778">
        <ele>223.5458</ele>
        <time>2021-07-05T09:12:17Z</time>
      </trkpt>
      <trkpt lat="43.42125" lon="0.64482">
        <ele>234.0853</ele>
        <time>2021-07-05T09:12:28Z</time>
      </trkpt>
      <trkpt lat="43.42181" lon="0.64148">
        <ele>243.899</ele>
        <time>2021-07-05T09:12:39Z</time>
      </trkpt>
      <trkpt lat="43.42083" lon="0.63943">
        <ele>244.2409</ele>
        <time>2021-07-05T09:12:50Z</time>
      </trkpt>
      <trkpt lat="43.42022" lon="0.6363">
        <ele>249.0635</ele>
        <time>2021-07-05T09:13:01Z</time>
      </trkpt>
      <trkpt lat="43.4199" lon="0.63342">
        <ele>261.7262</ele>
        <time>2021-07-05T09:13:12Z</time>
      </trkpt>
      <trkpt lat="43.41965" lon="0.63033">
        <ele>274.023</ele>
        <time>2021-07-05T09:13:23Z</time>
      </trkpt>
      <trkpt lat="43.41989" lon="0.62707">
        <ele>285.0493</ele>
        <time>2021-07-05T09:13:34Z</time>
      </trkpt>
      <trkpt lat="43.41993" lon="0.62366">
        <ele>295.1941</ele>
        <time>2021-07-05T09:13:45Z</time>
      </trkpt>
      <trkpt lat="43.42039" lon="0.62065">
        <ele>303.8729</ele>
        <time>2021-07-05T09:13:56Z</time>
      </trkpt>
      <trkpt lat="43.42038" lon="0.61751">
        <ele>308.7012</ele>
        <time>2021-07-05T09:14:07Z</time>
      </trkpt>
      <trkpt lat="43.42048" lon="0.61465">
        <ele>305.0803</ele>
        <time>2021-07-05T09:14:18Z</time>
      </trkpt>
      <trkpt lat="43.42208" lon="0.61255">
        <ele>294.2602</ele>
        <time>2021-07-05T09:14:29Z</time>
      </trkpt>
      <trkpt lat="43.4239" lon="0.61203">
        <ele>290.5224</ele>
        <time>2021-07-05T09:14:40Z</time>
      </trkpt>
      <trkpt lat="43.4248" lon="0.6098">
        <ele>279.8659</ele>
        <time>2021-07-05T09:14:51Z</time>
      </trkpt>
      <trkpt lat="43.42527" lon="0.60745">
        <ele>262.4433</ele>
        <time>2021-07-05T09:15:02Z</time>
      </trkpt>
      <trkpt lat="43.42507" lon="0.60501">
        <ele>255.3634</ele>
        <time>2021-07-05T09:15:13Z</time>
      </trkpt>
      <trkpt lat="43.42517" lon="0.60188">
        <ele>239.2411</ele>
        <time>2021-07-05T09:15:24Z</time>
      </trkpt>
      <trkpt lat="43.42569" lon="0.59877">
        <ele>227.0096</ele>
        <time>2021-07-05T09:15:35Z</time>
      </trkpt>
      <trkpt lat="43.42681" lon="0.59562">
        <ele>215.9284</ele>
        <time>2021-07-05T09:15:46Z</time>
      </trkpt>
      <trkpt lat="43.42791" lon="0.59258">
        <ele>208.3243</ele>
        <time>2021-07-05T09:15:57Z</time>
      </trkpt>
      <trkpt lat="43.42871" lon="0.58967">
        <ele>202.3754</ele>
        <time>2021-07-05T09:16:08Z</time>
      </trkpt>
      <trkpt lat="43.42903" lon="0.58671">
        <ele>199.3055</ele>
        <time>2021-07-05T09:16:19Z</time>
      </trkpt>
      <trkpt lat="43.42923" lon="0.58447">
        <ele>199.1136</ele>
        <time>2021-07-05T09:16:30Z</time>
      </trkpt>
      <trkpt lat="43.42939" lon="0.58233">
        <ele>201.0549</ele>
        <time>2021-07-05T09:16:41Z</time>
      </trkpt>
      <trkpt lat="43.42952" lon="0.58077">
        <ele>203.4884</ele>
        <time>2021-07-05T09:16:52Z</time>
      </trkpt>
      <trkpt lat="43.42965" lon="0.57953">
        <ele>205.9581</ele>
        <time>2021-07-05T09:17:03Z</time>
      </trkpt>
      <trkpt lat="43.43015" lon="0.5796">
        <ele>205.3214</ele>
        <time>2021-07-05T09:17:14Z</time>
      </trkpt>
      <trkpt lat="43.43077" lon="0.57979">
        <ele>204.0567</ele>
        <time>2021-07-05T09:17:25Z</time>
      </trkpt>
      <trkpt lat="43.43133" lon="0.57994">
        <ele>203.9287</ele>
        <time>2021-07-05T09:17:36Z</time>
      </trkpt>
      <trkpt lat="43.43153" lon="0.57999">
        <ele>202.6626</ele>
        <time>2021-07-05T09:17:47Z</time>
      </trkpt>
      <trkpt lat="43.43155" lon="0.57976">
        <ele>201.3624</ele>
        <time>2021-07-05T09:17:58Z</time>
      </trkpt>
      <trkpt lat="43.43154" lon="0.57948">
        <ele>201.9889</ele>
        <time>2021-07-05T09:18:09Z</time>
      </trkpt>
      <trkpt lat="43.43137" lon="0.57933">
        <ele>202.84</ele>
        <time>2021-07-05T09:18:20Z</time>
      </trkpt>
      <trkpt lat="43.43034" lon="0.57904">
        <ele>206.2955</ele>
        <time>2021-07-05T09:18:31Z</time>
      </trkpt>
      <trkpt lat="43.4297" lon="0.57874">
        <ele>208.4174</ele>
        <time>2021-07-05T09:18:42Z</time>
      </trkpt>
      <trkpt lat="43.42982" lon="0.57767">
        <ele>207.016</ele>
        <time>2021-07-05T09:18:53Z</time>
      </trkpt>
      <trkpt lat="43.42997" lon="0.57596">
        <ele>207.0883</ele>
        <time>2021-07-05T09:19:04Z</time>
      </trkpt>
      <trkpt lat="43.43024" lon="0.57405">
        <ele>206.0964</ele>
        <time>2021-07-05T09:19:15Z</time>
      </trkpt>
      <trkpt lat="43.43034" lon="0.57184">
        <ele>207.1739</ele>
        <time>2021-07-05T09:19:26Z</time>
      </trkpt>
      <trkpt lat="43.43006" lon="0.56941">
        <ele>208.9541</ele>
        <time>2021-07-05T09:19:37Z</time>
      </trkpt>
      <trkpt lat="43.43019" lon="0.56687">
        <ele>207.91</ele>
        <time>2021-07-05T09:19:48Z</time>
      </trkpt>
      <trkpt lat="43.43004" lon="0.56382">
        <ele>210.5431</ele>
        <time>2021-07-05T09:19:59Z</time>
      </trkpt>
      <trkpt lat="43.42937" lon="0.56024">
        <ele>225.2104</ele>
        <time>2021-07-05T09:20:10Z</time>
      </trkpt>
      <trkpt lat="43.42915" lon="0.55673">
        <ele>234.0363</ele>
        <time>2021-07-05T09:20:21Z</time>
      </trkpt>
      <trkpt lat="43.42929" lon="0.55296">
        <ele>247.8723</ele>
        <time>2021-07-05T09:20:32Z</time>
      </trkpt>
      <trkpt lat="43.42928" lon="0.54916">
        <ele>258.1208</ele>
        <time>2021-07-05T09:20:43Z</time>
      </trkpt>
      <trkpt lat="43.42917" lon="0.54565">
        <ele>274.237</ele>
        <time>2021-07-05T09:20:54Z</time>
      </trkpt>
      <trkpt lat="43.42861" lon="0.54305">
        <ele>271.9609</ele>
        <time>2021-07-05T09:21:05Z</time>
      </trkpt>
      <trkpt lat="43.42782" lon="0.54065">
        <ele>280.972</ele>
        <time>2021-07-05T09:21:16Z</time>
      </trkpt>
      <trkpt lat="43.42777" lon="0.53757">
        <ele>285.7077</ele>
        <time>2021-07-05T09:21:27Z</time>
      </trkpt>
      <trkpt lat="43.42771" lon="0.53473">
        <ele>285.446</ele>
        <time>2021-07-05T09:21:38Z</time>
      </trkpt>
      <trkpt lat="43.4277" lon="0.53231">
        <ele>281.14</ele>
        <time>2021-07-05T09:21:49Z</time>
      </trkpt>
      <trkpt lat="43.42762" lon="0.52956">
        <ele>268.5314</ele>
        <time>2021-07-05T09:22:00Z</time>
      </trkpt>
      <trkpt lat="43.42698" lon="0.52727">
        <ele>265.4366</ele>
        <time>2021-07-05T09:22:11Z</time>
      </trkpt>
      <trkpt lat="43.42695" lon="0.52526">
        <ele>245.5167</ele>
        <time>2021-07-05T09:22:22Z</time>
      </trkpt>
      <trkpt lat="43.42769" lon="0.52431">
        <ele>242.6759</ele>
        <time>2021-07-05T09:22:33Z</time>
      </trkpt>
      <trkpt lat="43.42806" lon="0.52232">
        <ele>232.4783</ele>
        <time>2021-07-05T09:22:44Z</time>
      </trkpt>
      <trkpt lat="43.42965" lon="0.52337">
        <ele>226.0055</ele>
        <time>2021-07-05T09:22:55Z</time>
      </trkpt>
      <trkpt lat="43.4305" lon="0.52303">
        <ele>211.1596</ele>
        <time>2021-07-05T09:23:06Z</time>
      </trkpt>
      <trkpt lat="43.43075" lon="0.5196">
        <ele>209.1007</ele>
        <time>2021-07-05T09:23:17Z</time>
      </trkpt>
      <trkpt lat="43.43103" lon="0.51616">
        <ele>218.3198</ele>
        <time>2021-07-05T09:23:28Z</time>
      </trkpt>
      <trkpt lat="43.43133" lon="0.51273">
        <ele>228.9038</ele>
        <time>2021-07-05T09:23:39Z</time>
      </trkpt>
      <trkpt lat="43.43193" lon="0.50976">
        <ele>238.351</ele>
        <time>2021-07-05T09:23:50Z</time>
      </trkpt>
      <trkpt lat="43.43237" lon="0.50705">
        <ele>242.5302</ele>
        <time>2021-07-05T09:24:01Z</time>
      </trkpt>
      <trkpt lat="43.43234" lon="0.50357">
        <ele>250.535</ele>
        <time>2021-07-05T09:24:12Z</time>
      </trkpt>
      <trkpt lat="43.43167" lon="0.50018">
        <ele>257.4338</ele>
        <time>2021-07-05T09:24:23Z</time>
      </trkpt>
      <trkpt lat="43.43121" lon="0.49729">
        <ele>264.4325</ele>
        <time>2021-07-05T09:24:34Z</time>
      </trkpt>
      <trkpt lat="43.43162" lon="0.49422">
        <ele>267.5343</ele>
        <time>2021-07-05T09:24:45Z</time>
      </trkpt>
      <trkpt lat="43.43152" lon="0.49105">
        <ele>281.7112</ele>
        <time>2021-07-05T09:24:56Z</time>
      </trkpt>
      <trkpt lat="43.4311" lon="0.48837">
        <ele>277.6842</ele>
        <time>2021-07-05T09:25:07Z</time>
      </trkpt>
      <trkpt lat="43.42958" lon="0.48631">
        <ele>258.4552</ele>
        <time>2021-07-05T09:25:18Z</time>
      </trkpt>
      <trkpt lat="43.43002" lon="0.48512">
        <ele>250.6691</ele>
        <time>2021-07-05T09:25:29Z</time>
      </trkpt>
      <trkpt lat="43.43076" lon="0.48409">
        <ele>246.4042</ele>
        <time>2021-07-05T09:25:41Z</time>
      </trkpt>
      <trkpt lat="43.42907" lon="0.48316">
        <ele>224.5196</ele>
        <time>2021-07-05T09:25:52Z</time>
      </trkpt>
      <trkpt lat="43.42928" lon="0.48186">
        <ele>211.0479</ele>
        <time>2021-07-05T09:26:03Z</time>
      </trkpt>
      <trkpt lat="43.42905" lon="0.47978">
        <ele>197.7606</ele>
        <time>2021-07-05T09:26:14Z</time>
      </trkpt>
      <trkpt lat="43.42901" lon="0.47951">
        <ele>198.5373</ele>
        <time>2021-07-05T09:26:25Z</time>
      </trkpt>
      <trkpt lat="43.42902" lon="0.47947">
        <ele>198.862</ele>
        <time>2021-07-05T09:26:42Z</time>
      </trkpt>
      <trkpt lat="43.42899" lon="0.47949">
        <ele>199.3103</ele>
        <time>2021-07-05T09:27:14Z</time>
      </trkpt>
      <trkpt lat="43.42895" lon="0.47939">
        <ele>200.1942</ele>
        <time>2021-07-05T09:27:42Z</time>
      </trkpt>
      <trkpt lat="43.42861" lon="0.47743">
        <ele>200.4485</ele>
        <time>2021-07-05T09:27:53Z</time>
      </trkpt>
      <trkpt lat="43.42854" lon="0.47465">
        <ele>199.916</ele>
        <time>2021-07-05T09:28:04Z</time>
      </trkpt>
      <trkpt lat="43.42862" lon="0.47172">
        <ele>203.5684</ele>
        <time>2021-07-05T09:28:15Z</time>
      </trkpt>
      <trkpt lat="43.42866" lon="0.46965">
        <ele>207.3301</ele>
        <time>2021-07-05T09:28:26Z</time>
      </trkpt>
      <trkpt lat="43.42846" lon="0.4689">
        <ele>208.1687</ele>
        <time>2021-07-05T09:28:37Z</time>
      </trkpt>
      <trkpt lat="43.42825" lon="0.46629">
        <ele>217.2132</ele>
        <time>2021-07-05T09:28:48Z</time>
      </trkpt>
      <trkpt lat="43.42736" lon="0.46409">
        <ele>222.177</ele>
        <time>2021-07-05T09:28:59Z</time>
      </trkpt>
      <trkpt lat="43.42677" lon="0.46085">
        <ele>228.401</ele>
        <time>2021-07-05T09:29:10Z</time>
      </trkpt>
      <trkpt lat="43.4267" lon="0.45718">
        <ele>241.5134</ele>
        <time>2021-07-05T09:29:21Z</time>
      </trkpt>
      <trkpt lat="43.42649" lon="0.45355">
        <ele>251.0782</ele>
        <time>2021-07-05T09:29:32Z</time>
      </trkpt>
      <trkpt lat="43.42618" lon="0.45004">
        <ele>255.7165</ele>
        <time>2021-07-05T09:29:43Z</time>
      </trkpt>
      <trkpt lat="43.42587" lon="0.44655">
        <ele>268.9483</ele>
        <time>2021-07-05T09:29:54Z</time>
      </trkpt>
      <trkpt lat="43.42539" lon="0.44383">
        <ele>276.4523</ele>
        <time>2021-07-05T09:30:05Z</time>
      </trkpt>
      <trkpt lat="43.42584" lon="0.44205">
        <ele>275.4886</ele>
        <time>2021-07-05T09:30:16Z</time>
      </trkpt>
      <trkpt lat="43.42625" lon="0.43985">
        <ele>267.9985</ele>
        <time>2021-07-05T09:30:27Z</time>
      </trkpt>
      <trkpt lat="43.4265" lon="0.43822">
        <ele>254.9188</ele>
        <time>2021-07-05T09:30:38Z</time>
      </trkpt>
      <trkpt lat="43.42742" lon="0.43633">
        <ele>237.017</ele>
        <time>2021-07-05T09:30:49Z</time>
      </trkpt>
      <trkpt lat="43.4283" lon="0.43486">
        <ele>220.7859</ele>
        <time>2021-07-05T09:31:00Z</time>
      </trkpt>
      <trkpt lat="43.42828" lon="0.43262">
        <ele>209.4358</ele>
        <time>2021-07-05T09:31:11Z</time>
      </trkpt>
      <trkpt lat="43.4274" lon="0.43114">
        <ele>200.6094</ele>
        <time>2021-07-05T09:31:22Z</time>
      </trkpt>
      <trkpt lat="43.42609" lon="0.43059">
        <ele>195.9178</ele>
        <time>2021-07-05T09:31:33Z</time>
      </trkpt>
      <trkpt lat="43.42594" lon="0.42715">
        <ele>185.0553</ele>
        <time>2021-07-05T09:31:44Z</time>
      </trkpt>
      <trkpt lat="43.42574" lon="0.42346">
        <ele>180.6878</ele>
        <time>2021-07-05T09:31:55Z</time>
      </trkpt>
      <trkpt lat="43.42582" lon="0.42073">
        <ele>178.4326</ele>
        <time>2021-07-05T09:32:06Z</time>
      </trkpt>
      <trkpt lat="43.42603" lon="0.41915">
        <ele>176.1189</ele>
        <time>2021-07-05T09:32:17Z</time>
      </trkpt>
      <trkpt lat="43.42682" lon="0.41672">
        <ele>179.4449</ele>
        <time>2021-07-05T09:32:28Z</time>
      </trkpt>
      <trkpt lat="43.4278" lon="0.41528">
        <ele>177.9956</ele>
        <time>2021-07-05T09:32:39Z</time>
      </trkpt>
      <trkpt lat="43.42776" lon="0.41292">
        <ele>176.0892</ele>
        <time>2021-07-05T09:32:50Z</time>
      </trkpt>
      <trkpt lat="43.42727" lon="0.40982">
        <ele>182.2461</ele>
        <time>2021-07-05T09:33:01Z</time>
      </trkpt>
      <trkpt lat="43.42555" lon="0.40763">
        <ele>184.4891</ele>
        <time>2021-07-05T09:33:12Z</time>
      </trkpt>
      <trkpt lat="43.42356" lon="0.40641">
        <ele>184.1841</ele>
        <time>2021-07-05T09:33:23Z</time>
      </trkpt>
      <trkpt lat="43.42267" lon="0.40451">
        <ele>187.2676</ele>
        <time>2021-07-05T09:33:34Z</time>
      </trkpt>
      <trkpt lat="43.42209" lon="0.4013">
        <ele>190.2618</ele>
        <time>2021-07-05T09:33:45Z</time>
      </trkpt>
      <trkpt lat="43.4215" lon="0.39795">
        <ele>192.8304</ele>
        <time>2021-07-05T09:33:56Z</time>
      </trkpt>
      <trkpt lat="43.42095" lon="0.39435">
        <ele>207.3738</ele>
        <time>2021-07-05T09:34:07Z</time>
      </trkpt>
      <trkpt lat="43.4205" lon="0.39064">
        <ele>219.1301</ele>
        <time>2021-07-05T09:34:18Z</time>
      </trkpt>
      <trkpt lat="43.42016" lon="0.38738">
        <ele>224.6549</ele>
        <time>2021-07-05T09:34:29Z</time>
      </trkpt>
      <trkpt lat="43.42001" lon="0.38404">
        <ele>228.1934</ele>
        <time>2021-07-05T09:34:40Z</time>
      </trkpt>
      <trkpt lat="43.41946" lon="0.38056">
        <ele>230.6712</ele>
        <time>2021-07-05T09:34:51Z</time>
      </trkpt>
      <trkpt lat="43.41888" lon="0.37725">
        <ele>233.2398</ele>
        <time>2021-07-05T09:35:02Z</time>
      </trkpt>
      <trkpt lat="43.41842" lon="0.37414">
        <ele>235.9941</ele>
        <time>2021-07-05T09:35:13Z</time>
      </trkpt>
      <trkpt lat="43.4183" lon="0.37104">
        <ele>243.5898</ele>
        <time>2021-07-05T09:35:24Z</time>
      </trkpt>
      <trkpt lat="43.41882" lon="0.36764">
        <ele>254.0637</ele>
        <time>2021-07-05T09:35:35Z</time>
      </trkpt>
      <trkpt lat="43.41928" lon="0.36474">
        <ele>262.8955</ele>
        <time>2021-07-05T09:35:46Z</time>
      </trkpt>
      <trkpt lat="43.42013" lon="0.36332">
        <ele>269.1177</ele>
        <time>2021-07-05T09:35:57Z</time>
      </trkpt>
      <trkpt lat="43.4207" lon="0.36137">
        <ele>275.3055</ele>
        <time>2021-07-05T09:36:08Z</time>
      </trkpt>
      <trkpt lat="43.42114" lon="0.35929">
        <ele>275.5883</ele>
        <time>2021-07-05T09:36:19Z</time>
      </trkpt>
      <trkpt lat="43.4208" lon="0.35642">
        <ele>274.2825</ele>
        <time>2021-07-05T09:36:30Z</time>
      </trkpt>
      <trkpt lat="43.42088" lon="0.35296">
        <ele>285.4854</ele>
        <time>2021-07-05T09:36:41Z</time>
      </trkpt>
      <trkpt lat="43.42102" lon="0.34983">
        <ele>302.8504</ele>
        <time>2021-07-05T09:36:52Z</time>
      </trkpt>
      <trkpt lat="43.42134" lon="0.34683">
        <ele>316.6828</ele>
        <time>2021-07-05T09:37:03Z</time>
      </trkpt>
      <trkpt lat="43.42036" lon="0.34479">
        <ele>320.0865</ele>
        <time>2021-07-05T09:37:14Z</time>
      </trkpt>
      <trkpt lat="43.41901" lon="0.34469">
        <ele>322.3407</ele>
        <time>2021-07-05T09:37:25Z</time>
      </trkpt>
      <trkpt lat="43.41788" lon="0.34396">
        <ele>317.8884</ele>
        <time>2021-07-05T09:37:36Z</time>
      </trkpt>
      <trkpt lat="43.41797" lon="0.34185">
        <ele>309.9534</ele>
        <time>2021-07-05T09:37:47Z</time>
      </trkpt>
      <trkpt lat="43.41771" lon="0.33968">
        <ele>298.6386</ele>
        <time>2021-07-05T09:37:58Z</time>
      </trkpt>
      <trkpt lat="43.41645" lon="0.33895">
        <ele>293.9485</ele>
        <time>2021-07-05T09:38:09Z</time>
      </trkpt>
      <trkpt lat="43.41661" lon="0.33717">
        <ele>277.7122</ele>
        <time>2021-07-05T09:38:20Z</time>
      </trkpt>
      <trkpt lat="43.41681" lon="0.33502">
        <ele>271.199</ele>
        <time>2021-07-05T09:38:31Z</time>
      </trkpt>
      <trkpt lat="43.41767" lon="0.33324">
        <ele>259.9496</ele>
        <time>2021-07-05T09:38:42Z</time>
      </trkpt>
      <trkpt lat="43.41884" lon="0.33132">
        <ele>241.1368</ele>
        <time>2021-07-05T09:38:53Z</time>
      </trkpt>
      <trkpt lat="43.42086" lon="0.33056">
        <ele>230.7099</ele>
        <time>2021-07-05T09:39:04Z</time>
      </trkpt>
      <trkpt lat="43.42304" lon="0.32929">
        <ele>229.6123</ele>
        <time>2021-07-05T09:39:15Z</time>
      </trkpt>
      <trkpt lat="43.42385" lon="0.3261">
        <ele>225.9719</ele>
        <time>2021-07-05T09:39:26Z</time>
      </trkpt>
      <trkpt lat="43.42492" lon="0.32291">
        <ele>235.4843</ele>
        <time>2021-07-05T09:39:37Z</time>
      </trkpt>
      <trkpt lat="43.42461" lon="0.31965">
        <ele>249.1407</ele>
        <time>2021-07-05T09:39:48Z</time>
      </trkpt>
      <trkpt lat="43.42463" lon="0.31663">
        <ele>254.7744</ele>
        <time>2021-07-05T09:39:59Z</time>
      </trkpt>
      <trkpt lat="43.42493" lon="0.31403">
        <ele>261.8352</ele>
        <time>2021-07-05T09:40:10Z</time>
      </trkpt>
      <trkpt lat="43.42594" lon="0.31224">
        <ele>264.8044</ele>
        <time>2021-07-05T09:40:21Z</time>
      </trkpt>
      <trkpt lat="43.42654" lon="0.30997">
        <ele>272.3023</ele>
        <time>2021-07-05T09:40:32Z</time>
      </trkpt>
      <trkpt lat="43.42655" lon="0.30769">
        <ele>279.3945</ele>
        <time>2021-07-05T09:40:43Z</time>
      </trkpt>
      <trkpt lat="43.42688" lon="0.30737">
        <ele>281.3233</ele>
        <time>2021-07-05T09:40:54Z</time>
      </trkpt>
      <trkpt lat="43.42671" lon="0.3068">
        <ele>282.1241</ele>
        <time>2021-07-05T09:41:05Z</time>
      </trkpt>
      <trkpt lat="43.4258" lon="0.30528">
        <ele>279.7234</ele>
        <time>2021-07-05T09:41:16Z</time>
      </trkpt>
      <trkpt lat="43.42492" lon="0.30279">
        <ele>262.7019</ele>
        <time>2021-07-05T09:41:27Z</time>
      </trkpt>
      <trkpt lat="43.42455" lon="0.29987">
        <ele>244.8187</ele>
        <time>2021-07-05T09:41:38Z</time>
      </trkpt>
      <trkpt lat="43.42383" lon="0.29704">
        <ele>233.0253</ele>
        <time>2021-07-05T09:41:49Z</time>
      </trkpt>
      <trkpt lat="43.42485" lon="0.29537">
        <ele>216.4009</ele>
        <time>2021-07-05T09:42:00Z</time>
      </trkpt>
      <trkpt lat="43.42649" lon="0.29413">
        <ele>203.1613</ele>
        <time>2021-07-05T09:42:11Z</time>
      </trkpt>
      <trkpt lat="43.42616" lon="0.29136">
        <ele>203.9131</ele>
        <time>2021-07-05T09:42:22Z</time>
      </trkpt>
      <trkpt lat="43.42574" lon="0.28903">
        <ele>208.0722</ele>
        <time>2021-07-05T09:42:33Z</time>
      </trkpt>
      <trkpt lat="43.42524" lon="0.28623">
        <ele>212.1343</ele>
        <time>2021-07-05T09:42:44Z</time>
      </trkpt>
      <trkpt lat="43.42472" lon="0.28339">
        <ele>215.6573</ele>
        <time>2021-07-05T09:42:55Z</time>
      </trkpt>
      <trkpt lat="43.42414" lon="0.28004">
        <ele>223.5921</ele>
        <time>2021-07-05T09:43:06Z</time>
      </trkpt>
      <trkpt lat="43.42354" lon="0.27661">
        <ele>233.1382</ele>
        <time>2021-07-05T09:43:17Z</time>
      </trkpt>
      <trkpt lat="43.42287" lon="0.27278">
        <ele>247.3459</ele>
        <time>2021-07-05T09:43:28Z</time>
      </trkpt>
      <trkpt lat="43.42234" lon="0.26979">
        <ele>246.3202</ele>
        <time>2021-07-05T09:43:39Z</time>
      </trkpt>
      <trkpt lat="43.42205" lon="0.26807">
        <ele>234.686</ele>
        <time>2021-07-05T09:43:50Z</time>
      </trkpt>
      <trkpt lat="43.42182" lon="0.26675">
        <ele>232.0317</ele>
        <time>2021-07-05T09:44:01Z</time>
      </trkpt>
      <trkpt lat="43.42161" lon="0.26553">
        <ele>236.6645</ele>
        <time>2021-07-05T09:44:12Z</time>
      </trkpt>
      <trkpt lat="43.42139" lon="0.26432">
        <ele>244.9012</ele>
        <time>2021-07-05T09:44:23Z</time>
      </trkpt>
      <trkpt lat="43.42117" lon="0.26306">
        <ele>252.6311</ele>
        <time>2021-07-05T09:44:34Z</time>
      </trkpt>
      <trkpt lat="43.42094" lon="0.26174">
        <ele>257.7081</ele>
        <time>2021-07-05T09:44:45Z</time>
      </trkpt>
      <trkpt lat="43.42072" lon="0.26045">
        <ele>258.2344</ele>
        <time>2021-07-05T09:44:56Z</time>
      </trkpt>
      <trkpt lat="43.42051" lon="0.25928">
        <ele>262.6277</ele>
        <time>2021-07-05T09:45:07Z</time>
      </trkpt>
      <trkpt lat="43.42025" lon="0.25794">
        <ele>268.9831</ele>
        <time>2021-07-05T09:45:18Z</time>
      </trkpt>
      <trkpt lat="43.42004" lon="0.25664">
        <ele>277.1466</ele>
        <time>2021-07-05T09:45:29Z</time>
      </trkpt>
      <trkpt lat="43.41981" lon="0.25546">
        <ele>284.4169</ele>
        <time>2021-07-05T09:45:40Z</time>
      </trkpt>
      <trkpt lat="43.41928" lon="0.25239">
        <ele>301.3074</ele>
        <time>2021-07-05T09:45:51Z</time>
      </trkpt>
      <trkpt lat="43.4187" lon="0.24909">
        <ele>301.6187</ele>
        <time>2021-07-05T09:46:02Z</time>
      </trkpt>
      <trkpt lat="43.41812" lon="0.24589">
        <ele>321.638</ele>
        <time>2021-07-05T09:46:13Z</time>
      </trkpt>
      <trkpt lat="43.41799" lon="0.24287">
        <ele>333.3431</ele>
        <time>2021-07-05T09:46:24Z</time>
      </trkpt>
      <trkpt lat="43.41907" lon="0.23961">
        <ele>323.7575</ele>
        <time>2021-07-05T09:46:35Z</time>
      </trkpt>
      <trkpt lat="43.41831" lon="0.23688">
        <ele>311.4005</ele>
        <time>2021-07-05T09:46:46Z</time>
      </trkpt>
      <trkpt lat="43.41813" lon="0.23366">
        <ele>295.9389</ele>
        <time>2021-07-05T09:46:57Z</time>
      </trkpt>
      <trkpt lat="43.41883" lon="0.23019">
        <ele>301.9963</ele>
        <time>2021-07-05T09:47:08Z</time>
      </trkpt>
      <trkpt lat="43.41762" lon="0.22723">
        <ele>297.4351</ele>
        <time>2021-07-05T09:47:19Z</time>
      </trkpt>
      <trkpt lat="43.41648" lon="0.22465">
        <ele>277.2434</ele>
        <time>2021-07-05T09:47:30Z</time>
      </trkpt>
      <trkpt lat="43.4147" lon="0.22289">
        <ele>270.5018</ele>
        <time>2021-07-05T09:47:41Z</time>
      </trkpt>
      <trkpt lat="43.4132" lon="0.22077">
        <ele>267.6015</ele>
        <time>2021-07-05T09:47:52Z</time>
      </trkpt>
      <trkpt lat="43.41141" lon="0.21869">
        <ele>261.1271</ele>
        <time>2021-07-05T09:48:03Z</time>
      </trkpt>
      <trkpt lat="43.41" lon="0.21668">
        <ele>256.3149</ele>
        <time>2021-07-05T09:48:14Z</time>
      </trkpt>
      <trkpt lat="43.40845" lon="0.21449">
        <ele>235.6111</ele>
        <time>2021-07-05T09:48:25Z</time>
      </trkpt>
      <trkpt lat="43.40717" lon="0.21259">
        <ele>215.0374</ele>
        <time>2021-07-05T09:48:36Z</time>
      </trkpt>
      <trkpt lat="43.40578" lon="0.20988">
        <ele>189.2605</ele>
        <time>2021-07-05T09:48:47Z</time>
      </trkpt>
      <trkpt lat="43.40465" lon="0.20757">
        <ele>176.2836</ele>
        <time>2021-07-05T09:48:58Z</time>
      </trkpt>
      <trkpt lat="43.40371" lon="0.20556">
        <ele>174.1107</ele>
        <time>2021-07-05T09:49:09Z</time>
      </trkpt>
      <trkpt lat="43.40297" lon="0.20378">
        <ele>171.8068</ele>
        <time>2021-07-05T09:49:20Z</time>
      </trkpt>
      <trkpt lat="43.40228" lon="0.20212">
        <ele>173.1619</ele>
        <time>2021-07-05T09:49:31Z</time>
      </trkpt>
      <trkpt lat="43.40199" lon="0.2008">
        <ele>173.1396</ele>
        <time>2021-07-05T09:49:42Z</time>
      </trkpt>
      <trkpt lat="43.40171" lon="0.19916">
        <ele>174.7324</ele>
        <time>2021-07-05T09:49:53Z</time>
      </trkpt>
      <trkpt lat="43.40141" lon="0.19764">
        <ele>171.2428</ele>
        <time>2021-07-05T09:50:04Z</time>
      </trkpt>
      <trkpt lat="43.40114" lon="0.1959">
        <ele>169.6895</ele>
        <time>2021-07-05T09:50:15Z</time>
      </trkpt>
      <trkpt lat="43.40051" lon="0.1937">
        <ele>174.6875</ele>
        <time>2021-07-05T09:50:26Z</time>
      </trkpt>
      <trkpt lat="43.39991" lon="0.19173">
        <ele>177.8662</ele>
        <time>2021-07-05T09:50:37Z</time>
      </trkpt>
      <trkpt lat="43.39929" lon="0.18969">
        <ele>178.1706</ele>
        <time>2021-07-05T09:50:48Z</time>
      </trkpt>
      <trkpt lat="43.39863" lon="0.18751">
        <ele>178.4167</ele>
        <time>2021-07-05T09:50:59Z</time>
      </trkpt>
      <trkpt lat="43.39796" lon="0.18533">
        <ele>181.4188</ele>
        <time>2021-07-05T09:51:10Z</time>
      </trkpt>
      <trkpt lat="43.39726" lon="0.18303">
        <ele>185.3312</ele>
        <time>2021-07-05T09:51:21Z</time>
      </trkpt>
      <trkpt lat="43.39633" lon="0.17997">
        <ele>188.0149</ele>
        <time>2021-07-05T09:51:32Z</time>
      </trkpt>
      <trkpt lat="43.39536" lon="0.17671">
        <ele>188.3583</ele>
        <time>2021-07-05T09:51:43Z</time>
      </trkpt>
      <trkpt lat="43.39453" lon="0.17396">
        <ele>193.6041</ele>
        <time>2021-07-05T09:51:54Z</time>
      </trkpt>
      <trkpt lat="43.39361" lon="0.17096">
        <ele>200.9099</ele>
        <time>2021-07-05T09:52:05Z</time>
      </trkpt>
      <trkpt lat="43.39279" lon="0.16761">
        <ele>206.3961</ele>
        <time>2021-07-05T09:52:16Z</time>
      </trkpt>
      <trkpt lat="43.3922" lon="0.16491">
        <ele>220.3751</ele>
        <time>2021-07-05T09:52:27Z</time>
      </trkpt>
      <trkpt lat="43.39147" lon="0.16254">
        <ele>224.3145</ele>
        <time>2021-07-05T09:52:38Z</time>
      </trkpt>
      <trkpt lat="43.3906" lon="0.16116">
        <ele>216.5317</ele>
        <time>2021-07-05T09:52:49Z</time>
      </trkpt>
      <trkpt lat="43.38927" lon="0.16042">
        <ele>215.4329</ele>
        <time>2021-07-05T09:53:00Z</time>
      </trkpt>
      <trkpt lat="43.38903" lon="0.15841">
        <ele>213.9408</ele>
        <time>2021-07-05T09:53:11Z</time>
      </trkpt>
      <trkpt lat="43.38881" lon="0.15645">
        <ele>214.1695</ele>
        <time>2021-07-05T09:53:22Z</time>
      </trkpt>
      <trkpt lat="43.38867" lon="0.1551">
        <ele>214.611</ele>
        <time>2021-07-05T09:53:33Z</time>
      </trkpt>
      <trkpt lat="43.38853" lon="0.15394">
        <ele>215.6641</ele>
        <time>2021-07-05T09:53:44Z</time>
      </trkpt>
      <trkpt lat="43.3884" lon="0.1528">
        <ele>216.1905</ele>
        <time>2021-07-05T09:53:55Z</time>
      </trkpt>
      <trkpt lat="43.38823" lon="0.15164">
        <ele>216.9744</ele>
        <time>2021-07-05T09:54:06Z</time>
      </trkpt>
      <trkpt lat="43.38812" lon="0.15093">
        <ele>216.3507</ele>
        <time>2021-07-05T09:54:17Z</time>
      </trkpt>
      <trkpt lat="43.38802" lon="0.15007">
        <ele>216.4562</ele>
        <time>2021-07-05T09:54:28Z</time>
      </trkpt>
      <trkpt lat="43.38787" lon="0.14854">
        <ele>215.4971</ele>
        <time>2021-07-05T09:54:39Z</time>
      </trkpt>
      <trkpt lat="43.38771" lon="0.14644">
        <ele>216.9369</ele>
        <time>2021-07-05T09:54:50Z</time>
      </trkpt>
      <trkpt lat="43.38762" lon="0.14426">
        <ele>216.098</ele>
        <time>2021-07-05T09:55:01Z</time>
      </trkpt>
      <trkpt lat="43.38756" lon="0.14244">
        <ele>216.5421</ele>
        <time>2021-07-05T09:55:12Z</time>
      </trkpt>
      <trkpt lat="43.38747" lon="0.1406">
        <ele>216.7987</ele>
        <time>2021-07-05T09:55:23Z</time>
      </trkpt>
      <trkpt lat="43.38729" lon="0.13744">
        <ele>215.6994</ele>
        <time>2021-07-05T09:55:34Z</time>
      </trkpt>
      <trkpt lat="43.38716" lon="0.13413">
        <ele>216.3708</ele>
        <time>2021-07-05T09:55:45Z</time>
      </trkpt>
      <trkpt lat="43.38709" lon="0.1325">
        <ele>217.1171</ele>
        <time>2021-07-05T09:55:56Z</time>
      </trkpt>
      <trkpt lat="43.38701" lon="0.13064">
        <ele>217.1104</ele>
        <time>2021-07-05T09:56:07Z</time>
      </trkpt>
      <trkpt lat="43.38687" lon="0.12845">
        <ele>216.9688</ele>
        <time>2021-07-05T09:56:18Z</time>
      </trkpt>
      <trkpt lat="43.38677" lon="0.1259">
        <ele>217.5069</ele>
        <time>2021-07-05T09:56:29Z</time>
      </trkpt>
      <trkpt lat="43.38666" lon="0.12316">
        <ele>217.9179</ele>
        <time>2021-07-05T09:56:40Z</time>
      </trkpt>
      <trkpt lat="43.38649" lon="0.11996">
        <ele>216.9987</ele>
        <time>2021-07-05T09:56:51Z</time>
      </trkpt>
      <trkpt lat="43.38636" lon="0.11725">
        <ele>218.5033</ele>
        <time>2021-07-05T09:57:02Z</time>
      </trkpt>
      <trkpt lat="43.38621" lon="0.11415">
        <ele>218.5277</ele>
        <time>2021-07-05T09:57:13Z</time>
      </trkpt>
      <trkpt lat="43.38606" lon="0.11087">
        <ele>219.7071</ele>
        <time>2021-07-05T09:57:24Z</time>
      </trkpt>
      <trkpt lat="43.38589" lon="0.10738">
        <ele>219.2862</ele>
        <time>2021-07-05T09:57:35Z</time>
      </trkpt>
      <trkpt lat="43.38574" lon="0.10392">
        <ele>218.9487</ele>
        <time>2021-07-05T09:57:46Z</time>
      </trkpt>
      <trkpt lat="43.38556" lon="0.10049">
        <ele>218.7166</ele>
        <time>2021-07-05T09:57:57Z</time>
      </trkpt>
      <trkpt lat="43.38542" lon="0.09722">
        <ele>219.2039</ele>
        <time>2021-07-05T09:58:08Z</time>
      </trkpt>
      <trkpt lat="43.38527" lon="0.09399">
        <ele>218.8325</ele>
        <time>2021-07-05T09:58:19Z</time>
      </trkpt>
      <trkpt lat="43.38514" lon="0.09204">
        <ele>220.9626</ele>
        <time>2021-07-05T09:58:30Z</time>
      </trkpt>
      <trkpt lat="43.38522" lon="0.08943">
        <ele>217.8394</ele>
        <time>2021-07-05T09:58:41Z</time>
      </trkpt>
      <trkpt lat="43.38559" lon="0.08628">
        <ele>217.853</ele>
        <time>2021-07-05T09:58:52Z</time>
      </trkpt>
      <trkpt lat="43.38599" lon="0.08312">
        <ele>216.9451</ele>
        <time>2021-07-05T09:59:03Z</time>
      </trkpt>
      <trkpt lat="43.38638" lon="0.07985">
        <ele>217.6503</ele>
        <time>2021-07-05T09:59:14Z</time>
      </trkpt>
      <trkpt lat="43.38675" lon="0.07664">
        <ele>217.3312</ele>
        <time>2021-07-05T09:59:25Z</time>
      </trkpt>
      <trkpt lat="43.3871" lon="0.07389">
        <ele>217.4619</ele>
        <time>2021-07-05T09:59:36Z</time>
      </trkpt>
      <trkpt lat="43.38734" lon="0.07148">
        <ele>217.9261</ele>
        <time>2021-07-05T09:59:47Z</time>
      </trkpt>
      <trkpt lat="43.38723" lon="0.06918">
        <ele>217.7776</ele>
        <time>2021-07-05T09:59:58Z</time>
      </trkpt>
      <trkpt lat="43.38719" lon="0.06756">
        <ele>217.1056</ele>
        <time>2021-07-05T10:00:09Z</time>
      </trkpt>
      <trkpt lat="43.3871" lon="0.06644">
        <ele>217.0846</ele>
        <time>2021-07-05T10:00:20Z</time>
      </trkpt>
      <trkpt lat="43.38707" lon="0.06512">
        <ele>217.5645</ele>
        <time>2021-07-05T10:00:31Z</time>
      </trkpt>
      <trkpt lat="43.38706" lon="0.06397">
        <ele>217.8139</ele>
        <time>2021-07-05T10:00:42Z</time>
      </trkpt>
      <trkpt lat="43.38696" lon="0.06274">
        <ele>217.2451</ele>
        <time>2021-07-05T10:00:53Z</time>
      </trkpt>
      <trkpt lat="43.38688" lon="0.06176">
        <ele>217.9392</ele>
        <time>2021-07-05T10:01:04Z</time>
      </trkpt>
      <trkpt lat="43.38696" lon="0.06032">
        <ele>216.2516</ele>
        <time>2021-07-05T10:01:15Z</time>
      </trkpt>
      <trkpt lat="43.38703" lon="0.05924">
        <ele>215.9084</ele>
        <time>2021-07-05T10:01:26Z</time>
      </trkpt>
      <trkpt lat="43.38718" lon="0.05766">
        <ele>217.2445</ele>
        <time>2021-07-05T10:01:37Z</time>
      </trkpt>
      <trkpt lat="43.38724" lon="0.05667">
        <ele>216.7769</ele>
        <time>2021-07-05T10:01:48Z</time>
      </trkpt>
      <trkpt lat="43.38657" lon="0.0563">
        <ele>216.2382</ele>
        <time>2021-07-05T10:01:59Z</time>
      </trkpt>
      <trkpt lat="43.38618" lon="0.05562">
        <ele>217.6546</ele>
        <time>2021-07-05T10:02:10Z</time>
      </trkpt>
      <trkpt lat="43.38614" lon="0.05555">
        <ele>217.3621</ele>
        <time>2021-07-05T10:02:21Z</time>
      </trkpt>
      <trkpt lat="43.38615" lon="0.0555">
        <ele>218.1684</ele>
        <time>2021-07-05T10:02:37Z</time>
      </trkpt>
      <trkpt lat="43.3861" lon="0.05531">
        <ele>217.7273</ele>
        <time>2021-07-05T10:02:48Z</time>
      </trkpt>
      <trkpt lat="43.38613" lon="0.05515">
        <ele>217.7042</ele>
        <time>2021-07-05T10:02:59Z</time>
      </trkpt>
      <trkpt lat="43.3863" lon="0.05503">
        <ele>217.3275</ele>
        <time>2021-07-05T10:03:10Z</time>
      </trkpt>
      <trkpt lat="43.38632" lon="0.055">
        <ele>217.8983</ele>
        <time>2021-07-05T10:04:10Z</time>
      </trkpt>
      <trkpt lat="43.38632" lon="0.055">
        <ele>217.8983</ele>
        <time>2021-07-05T10:05:10Z</time>
      </trkpt>
      <trkpt lat="43.38637" lon="0.05496">
        <ele>217.96</ele>
        <time>2021-07-05T10:05:21Z</time>
      </trkpt>
      <trkpt lat="43.38633" lon="0.05488">
        <ele>218.2083</ele>
        <time>2021-07-05T10:05:32Z</time>
      </trkpt>
      <trkpt lat="43.38633" lon="0.05488">
        <ele>218.2083</ele>
        <time>2021-07-05T10:06:32Z</time>
      </trkpt>
      <trkpt lat="43.3863" lon="0.05491">
        <ele>217.882</ele>
        <time>2021-07-05T10:07:02Z</time>
      </trkpt>
      <trkpt lat="43.38629" lon="0.05487">
        <ele>217.6021</ele>
        <time>2021-07-05T10:07:28Z</time>
      </trkpt>
      <trkpt lat="43.38629" lon="0.05481">
        <ele>217.5866</ele>
        <time>2021-07-05T10:07:50Z</time>
      </trkpt>
      <trkpt lat="43.38634" lon="0.05473">
        <ele>217.8943</ele>
        <time>2021-07-05T10:08:02Z</time>
      </trkpt>
      <trkpt lat="43.3863" lon="0.05398">
        <ele>218.0287</ele>
        <time>2021-07-05T10:08:13Z</time>
      </trkpt>
      <trkpt lat="43.38593" lon="0.05235">
        <ele>217.7353</ele>
        <time>2021-07-05T10:08:24Z</time>
      </trkpt>
      <trkpt lat="43.38528" lon="0.05126">
        <ele>218.4281</ele>
        <time>2021-07-05T10:08:35Z</time>
      </trkpt>
      <trkpt lat="43.38473" lon="0.05117">
        <ele>216.6123</ele>
        <time>2021-07-05T10:08:46Z</time>
      </trkpt>
      <trkpt lat="43.38449" lon="0.05038">
        <ele>216.1912</ele>
        <time>2021-07-05T10:08:57Z</time>
      </trkpt>
      <trkpt lat="43.38429" lon="0.05055">
        <ele>216.7805</ele>
        <time>2021-07-05T10:09:08Z</time>
      </trkpt>
      <trkpt lat="43.38427" lon="0.0506">
        <ele>217.0491</ele>
        <time>2021-07-05T10:09:23Z</time>
      </trkpt>
      <trkpt lat="43.38428" lon="0.05059">
        <ele>216.7719</ele>
        <time>2021-07-05T10:10:23Z</time>
      </trkpt>
      <trkpt lat="43.38429" lon="0.05054">
        <ele>216.5544</ele>
        <time>2021-07-05T10:11:19Z</time>
      </trkpt>
      <trkpt lat="43.38428" lon="0.05056">
        <ele>217.4596</ele>
        <time>2021-07-05T10:12:19Z</time>
      </trkpt>
      <trkpt lat="43.38428" lon="0.05062">
        <ele>216.4087</ele>
        <time>2021-07-05T10:12:34Z</time>
      </trkpt>
      <trkpt lat="43.38427" lon="0.05059">
        <ele>216.9017</ele>
        <time>2021-07-05T10:13:33Z</time>
      </trkpt>
      <trkpt lat="43.38427" lon="0.05064">
        <ele>217.0096</ele>
        <time>2021-07-05T10:13:56Z</time>
      </trkpt>
      <trkpt lat="43.38427" lon="0.05061">
        <ele>216.767</ele>
        <time>2021-07-05T10:14:55Z</time>
      </trkpt>
      <trkpt lat="43.38428" lon="0.05062">
        <ele>216.2996</ele>
        <time>2021-07-05T10:15:54Z</time>
      </trkpt>
      <trkpt lat="43.38428" lon="0.05057">
        <ele>218.3997</ele>
        <time>2021-07-05T10:16:43Z</time>
      </trkpt>
      <trkpt lat="43.38428" lon="0.05062">
        <ele>216.6811</ele>
        <time>2021-07-05T10:16:54Z</time>
      </trkpt>
      <trkpt lat="43.38426" lon="0.05063">
        <ele>216.9015</ele>
        <time>2021-07-05T10:17:54Z</time>
      </trkpt>
      <trkpt lat="43.38428" lon="0.05058">
        <ele>216.9424</ele>
        <time>2021-07-05T10:18:35Z</time>
      </trkpt>
      <trkpt lat="43.38427" lon="0.0506">
        <ele>216.6008</ele>
        <time>2021-07-05T10:19:34Z</time>
      </trkpt>
      <trkpt lat="43.38431" lon="0.05061">
        <ele>215.8631</ele>
        <time>2021-07-05T10:19:59Z</time>
      </trkpt>
      <trkpt lat="43.38428" lon="0.05063">
        <ele>216.7164</ele>
        <time>2021-07-05T10:20:11Z</time>
      </trkpt>
      <trkpt lat="43.38432" lon="0.05062">
        <ele>217.0795</ele>
        <time>2021-07-05T10:20:54Z</time>
      </trkpt>
      <trkpt lat="43.38435" lon="0.0506">
        <ele>217.1281</ele>
        <time>2021-07-05T10:21:24Z</time>
      </trkpt>
      <trkpt lat="43.38431" lon="0.05062">
        <ele>218.1263</ele>
        <time>2021-07-05T10:21:43Z</time>
      </trkpt>
      <trkpt lat="43.38434" lon="0.05058">
        <ele>217.7894</ele>
        <time>2021-07-05T10:22:24Z</time>
      </trkpt>
      <trkpt lat="43.3843" lon="0.0506">
        <ele>218.1529</ele>
        <time>2021-07-05T10:22:52Z</time>
      </trkpt>
      <trkpt lat="43.38432" lon="0.05059">
        <ele>217.6126</ele>
        <time>2021-07-05T10:23:51Z</time>
      </trkpt>
      <trkpt lat="43.38429" lon="0.05062">
        <ele>217.3589</ele>
        <time>2021-07-05T10:24:08Z</time>
      </trkpt>
      <trkpt lat="43.3843" lon="0.0506">
        <ele>217.07</ele>
        <time>2021-07-05T10:25:08Z</time>
      </trkpt>
      <trkpt lat="43.3843" lon="0.05062">
        <ele>217.8133</ele>
        <time>2021-07-05T10:26:08Z</time>
      </trkpt>
      <trkpt lat="43.3843" lon="0.05069">
        <ele>217.598</ele>
        <time>2021-07-05T10:26:58Z</time>
      </trkpt>
      <trkpt lat="43.38437" lon="0.05096">
        <ele>218.2395</ele>
        <time>2021-07-05T10:27:09Z</time>
      </trkpt>
      <trkpt lat="43.38479" lon="0.05134">
        <ele>217.4744</ele>
        <time>2021-07-05T10:27:20Z</time>
      </trkpt>
      <trkpt lat="43.38486" lon="0.05045">
        <ele>217.6706</ele>
        <time>2021-07-05T10:27:31Z</time>
      </trkpt>
      <trkpt lat="43.38501" lon="0.04846">
        <ele>216.1453</ele>
        <time>2021-07-05T10:27:42Z</time>
      </trkpt>
      <trkpt lat="43.38547" lon="0.04643">
        <ele>215.6917</ele>
        <time>2021-07-05T10:27:53Z</time>
      </trkpt>
      <trkpt lat="43.38622" lon="0.04422">
        <ele>214.4661</ele>
        <time>2021-07-05T10:28:04Z</time>
      </trkpt>
      <trkpt lat="43.38697" lon="0.0419">
        <ele>213.8318</ele>
        <time>2021-07-05T10:28:15Z</time>
      </trkpt>
      <trkpt lat="43.38778" lon="0.03943">
        <ele>214.5763</ele>
        <time>2021-07-05T10:28:26Z</time>
      </trkpt>
      <trkpt lat="43.38846" lon="0.03734">
        <ele>214.1372</ele>
        <time>2021-07-05T10:28:37Z</time>
      </trkpt>
      <trkpt lat="43.38912" lon="0.03534">
        <ele>214.3905</ele>
        <time>2021-07-05T10:28:48Z</time>
      </trkpt>
      <trkpt lat="43.39017" lon="0.03228">
        <ele>213.606</ele>
        <time>2021-07-05T10:28:59Z</time>
      </trkpt>
      <trkpt lat="43.39116" lon="0.02912">
        <ele>211.9414</ele>
        <time>2021-07-05T10:29:10Z</time>
      </trkpt>
      <trkpt lat="43.39215" lon="0.02601">
        <ele>210.7708</ele>
        <time>2021-07-05T10:29:21Z</time>
      </trkpt>
      <trkpt lat="43.3921" lon="0.02267">
        <ele>213.0317</ele>
        <time>2021-07-05T10:29:32Z</time>
      </trkpt>
      <trkpt lat="43.39116" lon="0.0195">
        <ele>213.2826</ele>
        <time>2021-07-05T10:29:43Z</time>
      </trkpt>
      <trkpt lat="43.39025" lon="0.01632">
        <ele>215.0807</ele>
        <time>2021-07-05T10:29:54Z</time>
      </trkpt>
      <trkpt lat="43.38923" lon="0.01291">
        <ele>214.9771</ele>
        <time>2021-07-05T10:30:05Z</time>
      </trkpt>
      <trkpt lat="43.38824" lon="0.00956">
        <ele>218.1655</ele>
        <time>2021-07-05T10:30:16Z</time>
      </trkpt>
      <trkpt lat="43.38723" lon="0.00608">
        <ele>222.0707</ele>
        <time>2021-07-05T10:30:27Z</time>
      </trkpt>
      <trkpt lat="43.38619" lon="0.00255">
        <ele>227.6302</ele>
        <time>2021-07-05T10:30:38Z</time>
      </trkpt>
      <trkpt lat="43.38517" lon="-0.00102">
        <ele>232.4675</ele>
        <time>2021-07-05T10:30:49Z</time>
      </trkpt>
      <trkpt lat="43.38414" lon="-0.00451">
        <ele>238.5953</ele>
        <time>2021-07-05T10:31:00Z</time>
      </trkpt>
      <trkpt lat="43.38329" lon="-0.00743">
        <ele>245.4875</ele>
        <time>2021-07-05T10:31:11Z</time>
      </trkpt>
      <trkpt lat="43.38258" lon="-0.00992">
        <ele>252.3378</ele>
        <time>2021-07-05T10:31:22Z</time>
      </trkpt>
      <trkpt lat="43.38183" lon="-0.01242">
        <ele>261.3068</ele>
        <time>2021-07-05T10:31:33Z</time>
      </trkpt>
      <trkpt lat="43.38112" lon="-0.01488">
        <ele>271.1148</ele>
        <time>2021-07-05T10:31:44Z</time>
      </trkpt>
      <trkpt lat="43.37993" lon="-0.01763">
        <ele>284.6017</ele>
        <time>2021-07-05T10:31:55Z</time>
      </trkpt>
      <trkpt lat="43.37819" lon="-0.01965">
        <ele>300.1793</ele>
        <time>2021-07-05T10:32:06Z</time>
      </trkpt>
      <trkpt lat="43.37617" lon="-0.02137">
        <ele>319.1814</ele>
        <time>2021-07-05T10:32:17Z</time>
      </trkpt>
      <trkpt lat="43.3752" lon="-0.02431">
        <ele>328.2191</ele>
        <time>2021-07-05T10:32:28Z</time>
      </trkpt>
      <trkpt lat="43.37435" lon="-0.02804">
        <ele>335.0402</ele>
        <time>2021-07-05T10:32:39Z</time>
      </trkpt>
      <trkpt lat="43.37354" lon="-0.03159">
        <ele>338.0982</ele>
        <time>2021-07-05T10:32:50Z</time>
      </trkpt>
      <trkpt lat="43.3727" lon="-0.03526">
        <ele>336.3899</ele>
        <time>2021-07-05T10:33:01Z</time>
      </trkpt>
      <trkpt lat="43.37185" lon="-0.03903">
        <ele>331.4769</ele>
        <time>2021-07-05T10:33:12Z</time>
      </trkpt>
      <trkpt lat="43.37098" lon="-0.04272">
        <ele>331.1521</ele>
        <time>2021-07-05T10:33:23Z</time>
      </trkpt>
      <trkpt lat="43.37059" lon="-0.04658">
        <ele>325.5238</ele>
        <time>2021-07-05T10:33:34Z</time>
      </trkpt>
      <trkpt lat="43.36999" lon="-0.04998">
        <ele>336.128</ele>
        <time>2021-07-05T10:33:45Z</time>
      </trkpt>
      <trkpt lat="43.37045" lon="-0.05292">
        <ele>321.222</ele>
        <time>2021-07-05T10:33:56Z</time>
      </trkpt>
      <trkpt lat="43.37287" lon="-0.05423">
        <ele>306.3931</ele>
        <time>2021-07-05T10:34:07Z</time>
      </trkpt>
      <trkpt lat="43.3746" lon="-0.05651">
        <ele>275.1501</ele>
        <time>2021-07-05T10:34:18Z</time>
      </trkpt>
      <trkpt lat="43.37379" lon="-0.05996">
        <ele>265.6036</ele>
        <time>2021-07-05T10:34:29Z</time>
      </trkpt>
      <trkpt lat="43.37233" lon="-0.0633">
        <ele>278.2191</ele>
        <time>2021-07-05T10:34:40Z</time>
      </trkpt>
      <trkpt lat="43.37107" lon="-0.06682">
        <ele>283.5867</ele>
        <time>2021-07-05T10:34:51Z</time>
      </trkpt>
      <trkpt lat="43.36996" lon="-0.07005">
        <ele>280.5884</ele>
        <time>2021-07-05T10:35:02Z</time>
      </trkpt>
      <trkpt lat="43.36965" lon="-0.07356">
        <ele>268.0582</ele>
        <time>2021-07-05T10:35:13Z</time>
      </trkpt>
      <trkpt lat="43.37024" lon="-0.07676">
        <ele>279.1282</ele>
        <time>2021-07-05T10:35:24Z</time>
      </trkpt>
      <trkpt lat="43.37139" lon="-0.0798">
        <ele>298.1074</ele>
        <time>2021-07-05T10:35:35Z</time>
      </trkpt>
      <trkpt lat="43.37324" lon="-0.08184">
        <ele>322.1621</ele>
        <time>2021-07-05T10:35:46Z</time>
      </trkpt>
      <trkpt lat="43.37388" lon="-0.08446">
        <ele>335.8921</ele>
        <time>2021-07-05T10:35:57Z</time>
      </trkpt>
      <trkpt lat="43.37529" lon="-0.08754">
        <ele>345.1109</ele>
        <time>2021-07-05T10:36:08Z</time>
      </trkpt>
      <trkpt lat="43.37594" lon="-0.09008">
        <ele>350.4188</ele>
        <time>2021-07-05T10:36:19Z</time>
      </trkpt>
      <trkpt lat="43.37627" lon="-0.09341">
        <ele>351.1903</ele>
        <time>2021-07-05T10:36:30Z</time>
      </trkpt>
      <trkpt lat="43.37665" lon="-0.09695">
        <ele>345.0129</ele>
        <time>2021-07-05T10:36:41Z</time>
      </trkpt>
      <trkpt lat="43.3771" lon="-0.10126">
        <ele>349.4418</ele>
        <time>2021-07-05T10:36:52Z</time>
      </trkpt>
      <trkpt lat="43.37682" lon="-0.10368">
        <ele>347.7227</ele>
        <time>2021-07-05T10:37:03Z</time>
      </trkpt>
      <trkpt lat="43.3749" lon="-0.10488">
        <ele>326.4948</ele>
        <time>2021-07-05T10:37:14Z</time>
      </trkpt>
      <trkpt lat="43.37326" lon="-0.10565">
        <ele>317.2525</ele>
        <time>2021-07-05T10:37:26Z</time>
      </trkpt>
      <trkpt lat="43.37347" lon="-0.10716">
        <ele>295.6607</ele>
        <time>2021-07-05T10:37:37Z</time>
      </trkpt>
      <trkpt lat="43.37559" lon="-0.1077">
        <ele>273.9067</ele>
        <time>2021-07-05T10:37:48Z</time>
      </trkpt>
      <trkpt lat="43.37679" lon="-0.10914">
        <ele>255.5533</ele>
        <time>2021-07-05T10:37:59Z</time>
      </trkpt>
      <trkpt lat="43.37708" lon="-0.11298">
        <ele>239.8268</ele>
        <time>2021-07-05T10:38:10Z</time>
      </trkpt>
      <trkpt lat="43.37732" lon="-0.11691">
        <ele>241.7896</ele>
        <time>2021-07-05T10:38:21Z</time>
      </trkpt>
      <trkpt lat="43.37756" lon="-0.12087">
        <ele>244.0965</ele>
        <time>2021-07-05T10:38:32Z</time>
      </trkpt>
      <trkpt lat="43.37778" lon="-0.12472">
        <ele>251.1428</ele>
        <time>2021-07-05T10:38:43Z</time>
      </trkpt>
      <trkpt lat="43.378" lon="-0.12801">
        <ele>254.0889</ele>
        <time>2021-07-05T10:38:54Z</time>
      </trkpt>
      <trkpt lat="43.37806" lon="-0.12997">
        <ele>264.9976</ele>
        <time>2021-07-05T10:39:05Z</time>
      </trkpt>
      <trkpt lat="43.37761" lon="-0.13207">
        <ele>277.7996</ele>
        <time>2021-07-05T10:39:16Z</time>
      </trkpt>
      <trkpt lat="43.37779" lon="-0.13386">
        <ele>286.4426</ele>
        <time>2021-07-05T10:39:27Z</time>
      </trkpt>
      <trkpt lat="43.37762" lon="-0.13654">
        <ele>312.1942</ele>
        <time>2021-07-05T10:39:38Z</time>
      </trkpt>
      <trkpt lat="43.37742" lon="-0.13913">
        <ele>337.0531</ele>
        <time>2021-07-05T10:39:49Z</time>
      </trkpt>
      <trkpt lat="43.37746" lon="-0.14177">
        <ele>347.6871</ele>
        <time>2021-07-05T10:40:00Z</time>
      </trkpt>
      <trkpt lat="43.37722" lon="-0.14487">
        <ele>346.1014</ele>
        <time>2021-07-05T10:40:11Z</time>
      </trkpt>
      <trkpt lat="43.3766" lon="-0.14857">
        <ele>340.8433</ele>
        <time>2021-07-05T10:40:22Z</time>
      </trkpt>
      <trkpt lat="43.37595" lon="-0.15241">
        <ele>344.5345</ele>
        <time>2021-07-05T10:40:33Z</time>
      </trkpt>
      <trkpt lat="43.37531" lon="-0.15635">
        <ele>346.9554</ele>
        <time>2021-07-05T10:40:44Z</time>
      </trkpt>
      <trkpt lat="43.37465" lon="-0.16028">
        <ele>345.8951</ele>
        <time>2021-07-05T10:40:55Z</time>
      </trkpt>
      <trkpt lat="43.37402" lon="-0.16409">
        <ele>343.4489</ele>
        <time>2021-07-05T10:41:06Z</time>
      </trkpt>
      <trkpt lat="43.37339" lon="-0.16805">
        <ele>337.162</ele>
        <time>2021-07-05T10:41:17Z</time>
      </trkpt>
      <trkpt lat="43.37277" lon="-0.17189">
        <ele>341.0865</ele>
        <time>2021-07-05T10:41:28Z</time>
      </trkpt>
      <trkpt lat="43.37207" lon="-0.17504">
        <ele>345.7644</ele>
        <time>2021-07-05T10:41:39Z</time>
      </trkpt>
      <trkpt lat="43.371" lon="-0.17819">
        <ele>328.4076</ele>
        <time>2021-07-05T10:41:50Z</time>
      </trkpt>
      <trkpt lat="43.37042" lon="-0.18207">
        <ele>313.5966</ele>
        <time>2021-07-05T10:42:01Z</time>
      </trkpt>
      <trkpt lat="43.36947" lon="-0.18575">
        <ele>332.4305</ele>
        <time>2021-07-05T10:42:12Z</time>
      </trkpt>
      <trkpt lat="43.36809" lon="-0.1892">
        <ele>342.2819</ele>
        <time>2021-07-05T10:42:23Z</time>
      </trkpt>
      <trkpt lat="43.36719" lon="-0.19271">
        <ele>333.6279</ele>
        <time>2021-07-05T10:42:34Z</time>
      </trkpt>
      <trkpt lat="43.36568" lon="-0.19439">
        <ele>313.3237</ele>
        <time>2021-07-05T10:42:45Z</time>
      </trkpt>
      <trkpt lat="43.3661" lon="-0.19698">
        <ele>291.44</ele>
        <time>2021-07-05T10:42:56Z</time>
      </trkpt>
      <trkpt lat="43.36694" lon="-0.19932">
        <ele>274.4081</ele>
        <time>2021-07-05T10:43:07Z</time>
      </trkpt>
      <trkpt lat="43.36548" lon="-0.20088">
        <ele>281.4031</ele>
        <time>2021-07-05T10:43:18Z</time>
      </trkpt>
      <trkpt lat="43.36474" lon="-0.2033">
        <ele>290.1564</ele>
        <time>2021-07-05T10:43:29Z</time>
      </trkpt>
      <trkpt lat="43.36458" lon="-0.20567">
        <ele>296.4505</ele>
        <time>2021-07-05T10:43:40Z</time>
      </trkpt>
      <trkpt lat="43.36467" lon="-0.20825">
        <ele>297.1347</ele>
        <time>2021-07-05T10:43:51Z</time>
      </trkpt>
      <trkpt lat="43.36412" lon="-0.21075">
        <ele>303.9346</ele>
        <time>2021-07-05T10:44:02Z</time>
      </trkpt>
      <trkpt lat="43.36344" lon="-0.21313">
        <ele>307.808</ele>
        <time>2021-07-05T10:44:13Z</time>
      </trkpt>
      <trkpt lat="43.36239" lon="-0.21538">
        <ele>305.2504</ele>
        <time>2021-07-05T10:44:24Z</time>
      </trkpt>
      <trkpt lat="43.36158" lon="-0.21781">
        <ele>307.1678</ele>
        <time>2021-07-05T10:44:35Z</time>
      </trkpt>
      <trkpt lat="43.36087" lon="-0.22021">
        <ele>307.7757</ele>
        <time>2021-07-05T10:44:46Z</time>
      </trkpt>
      <trkpt lat="43.36008" lon="-0.2228">
        <ele>307.9856</ele>
        <time>2021-07-05T10:44:57Z</time>
      </trkpt>
      <trkpt lat="43.35926" lon="-0.22546">
        <ele>305.3681</ele>
        <time>2021-07-05T10:45:08Z</time>
      </trkpt>
      <trkpt lat="43.35884" lon="-0.22829">
        <ele>296.2264</ele>
        <time>2021-07-05T10:45:19Z</time>
      </trkpt>
      <trkpt lat="43.3585" lon="-0.23072">
        <ele>294.838</ele>
        <time>2021-07-05T10:45:30Z</time>
      </trkpt>
      <trkpt lat="43.35858" lon="-0.23323">
        <ele>301.7467</ele>
        <time>2021-07-05T10:45:41Z</time>
      </trkpt>
      <trkpt lat="43.35872" lon="-0.23603">
        <ele>299.2066</ele>
        <time>2021-07-05T10:45:52Z</time>
      </trkpt>
      <trkpt lat="43.35882" lon="-0.23891">
        <ele>302.1154</ele>
        <time>2021-07-05T10:46:03Z</time>
      </trkpt>
      <trkpt lat="43.35892" lon="-0.24175">
        <ele>300.6047</ele>
        <time>2021-07-05T10:46:14Z</time>
      </trkpt>
      <trkpt lat="43.35902" lon="-0.24402">
        <ele>299.6683</ele>
        <time>2021-07-05T10:46:25Z</time>
      </trkpt>
      <trkpt lat="43.35892" lon="-0.24526">
        <ele>300.7733</ele>
        <time>2021-07-05T10:46:36Z</time>
      </trkpt>
      <trkpt lat="43.35802" lon="-0.24728">
        <ele>297.6238</ele>
        <time>2021-07-05T10:46:47Z</time>
      </trkpt>
      <trkpt lat="43.35744" lon="-0.24911">
        <ele>295.1158</ele>
        <time>2021-07-05T10:46:58Z</time>
      </trkpt>
      <trkpt lat="43.35783" lon="-0.25081">
        <ele>295.1835</ele>
        <time>2021-07-05T10:47:09Z</time>
      </trkpt>
      <trkpt lat="43.35803" lon="-0.25236">
        <ele>291.582</ele>
        <time>2021-07-05T10:47:20Z</time>
      </trkpt>
      <trkpt lat="43.35675" lon="-0.25252">
        <ele>284.9761</ele>
        <time>2021-07-05T10:47:31Z</time>
      </trkpt>
      <trkpt lat="43.35549" lon="-0.25167">
        <ele>278.4987</ele>
        <time>2021-07-05T10:47:42Z</time>
      </trkpt>
      <trkpt lat="43.35439" lon="-0.25284">
        <ele>267.833</ele>
        <time>2021-07-05T10:47:53Z</time>
      </trkpt>
      <trkpt lat="43.35298" lon="-0.25451">
        <ele>272.9516</ele>
        <time>2021-07-05T10:48:04Z</time>
      </trkpt>
      <trkpt lat="43.35166" lon="-0.25599">
        <ele>286.6629</ele>
        <time>2021-07-05T10:48:15Z</time>
      </trkpt>
      <trkpt lat="43.35107" lon="-0.25691">
        <ele>288.2996</ele>
        <time>2021-07-05T10:48:26Z</time>
      </trkpt>
      <trkpt lat="43.35029" lon="-0.25668">
        <ele>287.8551</ele>
        <time>2021-07-05T10:48:37Z</time>
      </trkpt>
      <trkpt lat="43.34884" lon="-0.25525">
        <ele>287.8942</ele>
        <time>2021-07-05T10:48:48Z</time>
      </trkpt>
      <trkpt lat="43.34684" lon="-0.25436">
        <ele>289.54</ele>
        <time>2021-07-05T10:48:59Z</time>
      </trkpt>
      <trkpt lat="43.3446" lon="-0.253">
        <ele>292.0035</ele>
        <time>2021-07-05T10:49:10Z</time>
      </trkpt>
      <trkpt lat="43.34251" lon="-0.25141">
        <ele>294.0908</ele>
        <time>2021-07-05T10:49:21Z</time>
      </trkpt>
      <trkpt lat="43.34026" lon="-0.25078">
        <ele>296.2774</ele>
        <time>2021-07-05T10:49:32Z</time>
      </trkpt>
      <trkpt lat="43.33888" lon="-0.25184">
        <ele>299.4336</ele>
        <time>2021-07-05T10:49:43Z</time>
      </trkpt>
      <trkpt lat="43.33797" lon="-0.25331">
        <ele>299.6762</ele>
        <time>2021-07-05T10:49:54Z</time>
      </trkpt>
      <trkpt lat="43.33776" lon="-0.25617">
        <ele>298.2275</ele>
        <time>2021-07-05T10:50:05Z</time>
      </trkpt>
      <trkpt lat="43.33826" lon="-0.25887">
        <ele>295.5064</ele>
        <time>2021-07-05T10:50:16Z</time>
      </trkpt>
      <trkpt lat="43.33851" lon="-0.26165">
        <ele>295.8951</ele>
        <time>2021-07-05T10:50:27Z</time>
      </trkpt>
      <trkpt lat="43.33816" lon="-0.26435">
        <ele>301.6419</ele>
        <time>2021-07-05T10:50:38Z</time>
      </trkpt>
      <trkpt lat="43.33749" lon="-0.26695">
        <ele>309.6538</ele>
        <time>2021-07-05T10:50:49Z</time>
      </trkpt>
      <trkpt lat="43.33699" lon="-0.2697">
        <ele>320.7912</ele>
        <time>2021-07-05T10:51:00Z</time>
      </trkpt>
      <trkpt lat="43.33755" lon="-0.27219">
        <ele>333.2486</ele>
        <time>2021-07-05T10:51:11Z</time>
      </trkpt>
      <trkpt lat="43.33701" lon="-0.27388">
        <ele>335.4627</ele>
        <time>2021-07-05T10:51:22Z</time>
      </trkpt>
      <trkpt lat="43.33622" lon="-0.2751">
        <ele>338.2461</ele>
        <time>2021-07-05T10:51:33Z</time>
      </trkpt>
      <trkpt lat="43.33627" lon="-0.27567">
        <ele>338.822</ele>
        <time>2021-07-05T10:51:44Z</time>
      </trkpt>
      <trkpt lat="43.33563" lon="-0.27706">
        <ele>330.1759</ele>
        <time>2021-07-05T10:51:55Z</time>
      </trkpt>
      <trkpt lat="43.33461" lon="-0.27835">
        <ele>319.9694</ele>
        <time>2021-07-05T10:52:06Z</time>
      </trkpt>
      <trkpt lat="43.33308" lon="-0.27816">
        <ele>312.4077</ele>
        <time>2021-07-05T10:52:17Z</time>
      </trkpt>
      <trkpt lat="43.33148" lon="-0.27686">
        <ele>297.4678</ele>
        <time>2021-07-05T10:52:28Z</time>
      </trkpt>
      <trkpt lat="43.33064" lon="-0.27619">
        <ele>280.5663</ele>
        <time>2021-07-05T10:52:39Z</time>
      </trkpt>
      <trkpt lat="43.33122" lon="-0.27851">
        <ele>277.9945</ele>
        <time>2021-07-05T10:52:50Z</time>
      </trkpt>
      <trkpt lat="43.33224" lon="-0.28062">
        <ele>264.4432</ele>
        <time>2021-07-05T10:53:01Z</time>
      </trkpt>
      <trkpt lat="43.3314" lon="-0.28262">
        <ele>251.2546</ele>
        <time>2021-07-05T10:53:12Z</time>
      </trkpt>
      <trkpt lat="43.32983" lon="-0.28438">
        <ele>245.6173</ele>
        <time>2021-07-05T10:53:23Z</time>
      </trkpt>
      <trkpt lat="43.32899" lon="-0.28637">
        <ele>243.5323</ele>
        <time>2021-07-05T10:53:34Z</time>
      </trkpt>
      <trkpt lat="43.32891" lon="-0.28658">
        <ele>242.9737</ele>
        <time>2021-07-05T10:53:45Z</time>
      </trkpt>
      <trkpt lat="43.32885" lon="-0.28669">
        <ele>243.7978</ele>
        <time>2021-07-05T10:53:57Z</time>
      </trkpt>
      <trkpt lat="43.32814" lon="-0.28853">
        <ele>241.68</ele>
        <time>2021-07-05T10:54:08Z</time>
      </trkpt>
      <trkpt lat="43.32726" lon="-0.2904">
        <ele>239.9103</ele>
        <time>2021-07-05T10:54:19Z</time>
      </trkpt>
      <trkpt lat="43.32616" lon="-0.29271">
        <ele>237.6193</ele>
        <time>2021-07-05T10:54:30Z</time>
      </trkpt>
      <trkpt lat="43.32504" lon="-0.29504">
        <ele>239.6047</ele>
        <time>2021-07-05T10:54:41Z</time>
      </trkpt>
      <trkpt lat="43.32388" lon="-0.29746">
        <ele>239.6121</ele>
        <time>2021-07-05T10:54:52Z</time>
      </trkpt>
      <trkpt lat="43.32324" lon="-0.29901">
        <ele>238.5596</ele>
        <time>2021-07-05T10:55:03Z</time>
      </trkpt>
      <trkpt lat="43.32325" lon="-0.29919">
        <ele>239.9519</ele>
        <time>2021-07-05T10:55:14Z</time>
      </trkpt>
      <trkpt lat="43.32239" lon="-0.30084">
        <ele>241.0361</ele>
        <time>2021-07-05T10:55:25Z</time>
      </trkpt>
      <trkpt lat="43.32135" lon="-0.30287">
        <ele>239.5927</ele>
        <time>2021-07-05T10:55:36Z</time>
      </trkpt>
      <trkpt lat="43.32058" lon="-0.30424">
        <ele>239.5675</ele>
        <time>2021-07-05T10:55:47Z</time>
      </trkpt>
      <trkpt lat="43.32046" lon="-0.30448">
        <ele>239.5121</ele>
        <time>2021-07-05T10:55:59Z</time>
      </trkpt>
      <trkpt lat="43.32044" lon="-0.30452">
        <ele>240.243</ele>
        <time>2021-07-05T10:56:12Z</time>
      </trkpt>
      <trkpt lat="43.32032" lon="-0.3042">
        <ele>239.91</ele>
        <time>2021-07-05T10:56:23Z</time>
      </trkpt>
      <trkpt lat="43.32032" lon="-0.30421">
        <ele>239.3902</ele>
        <time>2021-07-05T10:57:23Z</time>
      </trkpt>
      <trkpt lat="43.32028" lon="-0.30421">
        <ele>239.4267</ele>
        <time>2021-07-05T10:57:47Z</time>
      </trkpt>
      <trkpt lat="43.32015" lon="-0.30418">
        <ele>239.7126</ele>
        <time>2021-07-05T10:57:58Z</time>
      </trkpt>
      <trkpt lat="43.32019" lon="-0.30421">
        <ele>239.3351</ele>
        <time>2021-07-05T10:58:09Z</time>
      </trkpt>
      <trkpt lat="43.32025" lon="-0.30421">
        <ele>239.5571</ele>
        <time>2021-07-05T10:58:24Z</time>
      </trkpt>
      <trkpt lat="43.32035" lon="-0.30422">
        <ele>239.3202</ele>
        <time>2021-07-05T10:58:35Z</time>
      </trkpt>
      <trkpt lat="43.32033" lon="-0.30426">
        <ele>238.9548</ele>
        <time>2021-07-05T10:58:51Z</time>
      </trkpt>
      <trkpt lat="43.32036" lon="-0.30428">
        <ele>238.9119</ele>
        <time>2021-07-05T10:59:02Z</time>
      </trkpt>
      <trkpt lat="43.32032" lon="-0.30429">
        <ele>239.6665</ele>
        <time>2021-07-05T10:59:13Z</time>
      </trkpt>
      <trkpt lat="43.3204" lon="-0.30422">
        <ele>239.3125</ele>
        <time>2021-07-05T10:59:40Z</time>
      </trkpt>
      <trkpt lat="43.32034" lon="-0.30428">
        <ele>239.3125</ele>
        <time>2021-07-05T10:59:52Z</time>
      </trkpt>
      <trkpt lat="43.32037" lon="-0.30424">
        <ele>239.4613</ele>
        <time>2021-07-05T11:00:08Z</time>
      </trkpt>
      <trkpt lat="43.32034" lon="-0.30428">
        <ele>239.9638</ele>
        <time>2021-07-05T11:00:43Z</time>
      </trkpt>
      <trkpt lat="43.32037" lon="-0.30424">
        <ele>238.4035</ele>
        <time>2021-07-05T11:01:00Z</time>
      </trkpt>
      <trkpt lat="43.32034" lon="-0.30428">
        <ele>239.3905</ele>
        <time>2021-07-05T11:01:14Z</time>
      </trkpt>
      <trkpt lat="43.3204" lon="-0.30418">
        <ele>240.8916</ele>
        <time>2021-07-05T11:01:35Z</time>
      </trkpt>
      <trkpt lat="43.3203" lon="-0.30419">
        <ele>240.4681</ele>
        <time>2021-07-05T11:01:46Z</time>
      </trkpt>
      <trkpt lat="43.32029" lon="-0.30418">
        <ele>239.1742</ele>
        <time>2021-07-05T11:02:45Z</time>
      </trkpt>
      <trkpt lat="43.32027" lon="-0.30418">
        <ele>239.5118</ele>
        <time>2021-07-05T11:03:45Z</time>
      </trkpt>
      <trkpt lat="43.32029" lon="-0.30416">
        <ele>240.5913</ele>
        <time>2021-07-05T11:04:45Z</time>
      </trkpt>
      <trkpt lat="43.32028" lon="-0.30416">
        <ele>239.3403</ele>
        <time>2021-07-05T11:05:44Z</time>
      </trkpt>
      <trkpt lat="43.32029" lon="-0.30421">
        <ele>238.6926</ele>
        <time>2021-07-05T11:06:27Z</time>
      </trkpt>
      <trkpt lat="43.32026" lon="-0.30425">
        <ele>241.7203</ele>
        <time>2021-07-05T11:06:42Z</time>
      </trkpt>
      <trkpt lat="43.32021" lon="-0.30434">
        <ele>239.0234</ele>
        <time>2021-07-05T11:06:53Z</time>
      </trkpt>
      <trkpt lat="43.32007" lon="-0.30423">
        <ele>239.1458</ele>
        <time>2021-07-05T11:07:04Z</time>
      </trkpt>
      <trkpt lat="43.32004" lon="-0.3042">
        <ele>238.8627</ele>
        <time>2021-07-05T11:07:15Z</time>
      </trkpt>
      <trkpt lat="43.32017" lon="-0.3043">
        <ele>240.1912</ele>
        <time>2021-07-05T11:07:26Z</time>
      </trkpt>
      <trkpt lat="43.3202" lon="-0.30438">
        <ele>239.9</ele>
        <time>2021-07-05T11:07:37Z</time>
      </trkpt>
      <trkpt lat="43.32022" lon="-0.30443">
        <ele>239.6243</ele>
        <time>2021-07-05T11:08:03Z</time>
      </trkpt>
      <trkpt lat="43.32024" lon="-0.30435">
        <ele>239.1575</ele>
        <time>2021-07-05T11:08:14Z</time>
      </trkpt>
      <trkpt lat="43.32025" lon="-0.30437">
        <ele>238.9424</ele>
        <time>2021-07-05T11:09:13Z</time>
      </trkpt>
      <trkpt lat="43.32025" lon="-0.30432">
        <ele>239.7699</ele>
        <time>2021-07-05T11:09:24Z</time>
      </trkpt>
      <trkpt lat="43.32022" lon="-0.30428">
        <ele>239.6138</ele>
        <time>2021-07-05T11:09:35Z</time>
      </trkpt>
      <trkpt lat="43.32024" lon="-0.30432">
        <ele>239.3884</ele>
        <time>2021-07-05T11:10:15Z</time>
      </trkpt>
      <trkpt lat="43.3202" lon="-0.30438">
        <ele>239.7135</ele>
        <time>2021-07-05T11:10:26Z</time>
      </trkpt>
      <trkpt lat="43.32024" lon="-0.30438">
        <ele>239.4234</ele>
        <time>2021-07-05T11:10:47Z</time>
      </trkpt>
      <trkpt lat="43.32023" lon="-0.30433">
        <ele>239.5525</ele>
        <time>2021-07-05T11:11:00Z</time>
      </trkpt>
      <trkpt lat="43.32022" lon="-0.30428">
        <ele>239.3527</ele>
        <time>2021-07-05T11:11:18Z</time>
      </trkpt>
      <trkpt lat="43.32023" lon="-0.3043">
        <ele>239.2037</ele>
        <time>2021-07-05T11:12:17Z</time>
      </trkpt>
      <trkpt lat="43.3202" lon="-0.30428">
        <ele>239.5427</ele>
        <time>2021-07-05T11:13:16Z</time>
      </trkpt>
      <trkpt lat="43.32023" lon="-0.30429">
        <ele>239.2573</ele>
        <time>2021-07-05T11:13:54Z</time>
      </trkpt>
      <trkpt lat="43.32027" lon="-0.30432">
        <ele>239.0259</ele>
        <time>2021-07-05T11:14:49Z</time>
      </trkpt>
      <trkpt lat="43.32024" lon="-0.30429">
        <ele>239.5141</ele>
        <time>2021-07-05T11:15:04Z</time>
      </trkpt>
      <trkpt lat="43.32028" lon="-0.3043">
        <ele>239.772</ele>
        <time>2021-07-05T11:15:29Z</time>
      </trkpt>
      <trkpt lat="43.32031" lon="-0.30433">
        <ele>239.8246</ele>
        <time>2021-07-05T11:15:53Z</time>
      </trkpt>
      <trkpt lat="43.3203" lon="-0.30438">
        <ele>239.1165</ele>
        <time>2021-07-05T11:16:45Z</time>
      </trkpt>
      <trkpt lat="43.32028" lon="-0.30433">
        <ele>239.6816</ele>
        <time>2021-07-05T11:17:22Z</time>
      </trkpt>
      <trkpt lat="43.32022" lon="-0.30429">
        <ele>239.4801</ele>
        <time>2021-07-05T11:17:33Z</time>
      </trkpt>
      <trkpt lat="43.32022" lon="-0.30434">
        <ele>239.1497</ele>
        <time>2021-07-05T11:17:58Z</time>
      </trkpt>
      <trkpt lat="43.32021" lon="-0.30439">
        <ele>239.4362</ele>
        <time>2021-07-05T11:18:23Z</time>
      </trkpt>
      <trkpt lat="43.32021" lon="-0.30438">
        <ele>239.2634</ele>
        <time>2021-07-05T11:19:22Z</time>
      </trkpt>
      <trkpt lat="43.32022" lon="-0.30432">
        <ele>238.8869</ele>
        <time>2021-07-05T11:19:39Z</time>
      </trkpt>
      <trkpt lat="43.32026" lon="-0.30434">
        <ele>238.4982</ele>
        <time>2021-07-05T11:19:52Z</time>
      </trkpt>
      <trkpt lat="43.32024" lon="-0.30434">
        <ele>239.5952</ele>
        <time>2021-07-05T11:20:50Z</time>
      </trkpt>
      <trkpt lat="43.32021" lon="-0.30431">
        <ele>238.1042</ele>
        <time>2021-07-05T11:21:14Z</time>
      </trkpt>
      <trkpt lat="43.32024" lon="-0.30432">
        <ele>239.6125</ele>
        <time>2021-07-05T11:22:12Z</time>
      </trkpt>
      <trkpt lat="43.32021" lon="-0.30436">
        <ele>239.608</ele>
        <time>2021-07-05T11:22:41Z</time>
      </trkpt>
      <trkpt lat="43.32019" lon="-0.30441">
        <ele>240.5375</ele>
        <time>2021-07-05T11:22:52Z</time>
      </trkpt>
      <trkpt lat="43.32021" lon="-0.30437">
        <ele>238.5145</ele>
        <time>2021-07-05T11:23:27Z</time>
      </trkpt>
      <trkpt lat="43.32025" lon="-0.30421">
        <ele>237.3485</ele>
        <time>2021-07-05T11:23:38Z</time>
      </trkpt>
      <trkpt lat="43.32028" lon="-0.30419">
        <ele>238.812</ele>
        <time>2021-07-05T11:23:55Z</time>
      </trkpt>
      <trkpt lat="43.3203" lon="-0.3042">
        <ele>239.9576</ele>
        <time>2021-07-05T11:24:54Z</time>
      </trkpt>
      <trkpt lat="43.32034" lon="-0.30417">
        <ele>240.1657</ele>
        <time>2021-07-05T11:25:24Z</time>
      </trkpt>
      <trkpt lat="43.32061" lon="-0.30391">
        <ele>240.2997</ele>
        <time>2021-07-05T11:25:35Z</time>
      </trkpt>
      <trkpt lat="43.32047" lon="-0.30449">
        <ele>239.9737</ele>
        <time>2021-07-05T11:25:46Z</time>
      </trkpt>
      <trkpt lat="43.31974" lon="-0.306">
        <ele>238.7954</ele>
        <time>2021-07-05T11:25:57Z</time>
      </trkpt>
      <trkpt lat="43.31923" lon="-0.30719">
        <ele>235.5757</ele>
        <time>2021-07-05T11:26:08Z</time>
      </trkpt>
      <trkpt lat="43.31919" lon="-0.30774">
        <ele>235.9051</ele>
        <time>2021-07-05T11:26:19Z</time>
      </trkpt>
      <trkpt lat="43.31975" lon="-0.30894">
        <ele>234.7942</ele>
        <time>2021-07-05T11:26:30Z</time>
      </trkpt>
      <trkpt lat="43.32062" lon="-0.31055">
        <ele>235.2641</ele>
        <time>2021-07-05T11:26:41Z</time>
      </trkpt>
      <trkpt lat="43.3215" lon="-0.31216">
        <ele>235.096</ele>
        <time>2021-07-05T11:26:52Z</time>
      </trkpt>
      <trkpt lat="43.32256" lon="-0.31414">
        <ele>233.9947</ele>
        <time>2021-07-05T11:27:03Z</time>
      </trkpt>
      <trkpt lat="43.32381" lon="-0.31644">
        <ele>233.2176</ele>
        <time>2021-07-05T11:27:14Z</time>
      </trkpt>
      <trkpt lat="43.3251" lon="-0.31882">
        <ele>233.4612</ele>
        <time>2021-07-05T11:27:25Z</time>
      </trkpt>
      <trkpt lat="43.32613" lon="-0.32151">
        <ele>232.7258</ele>
        <time>2021-07-05T11:27:36Z</time>
      </trkpt>
      <trkpt lat="43.32636" lon="-0.32401">
        <ele>230.4734</ele>
        <time>2021-07-05T11:27:47Z</time>
      </trkpt>
      <trkpt lat="43.3265" lon="-0.32582">
        <ele>229.4954</ele>
        <time>2021-07-05T11:27:58Z</time>
      </trkpt>
      <trkpt lat="43.3267" lon="-0.32824">
        <ele>227.3306</ele>
        <time>2021-07-05T11:28:09Z</time>
      </trkpt>
      <trkpt lat="43.32692" lon="-0.3306">
        <ele>226.2587</ele>
        <time>2021-07-05T11:28:20Z</time>
      </trkpt>
      <trkpt lat="43.32716" lon="-0.33307">
        <ele>224.9697</ele>
        <time>2021-07-05T11:28:31Z</time>
      </trkpt>
      <trkpt lat="43.32755" lon="-0.3355">
        <ele>222.7221</ele>
        <time>2021-07-05T11:28:42Z</time>
      </trkpt>
      <trkpt lat="43.32798" lon="-0.33787">
        <ele>221.2801</ele>
        <time>2021-07-05T11:28:53Z</time>
      </trkpt>
      <trkpt lat="43.32848" lon="-0.34013">
        <ele>221.5355</ele>
        <time>2021-07-05T11:29:04Z</time>
      </trkpt>
      <trkpt lat="43.32901" lon="-0.34242">
        <ele>221.2706</ele>
        <time>2021-07-05T11:29:15Z</time>
      </trkpt>
      <trkpt lat="43.32963" lon="-0.34475">
        <ele>219.5941</ele>
        <time>2021-07-05T11:29:26Z</time>
      </trkpt>
      <trkpt lat="43.32907" lon="-0.3469">
        <ele>218.1657</ele>
        <time>2021-07-05T11:29:37Z</time>
      </trkpt>
      <trkpt lat="43.32866" lon="-0.34916">
        <ele>219.0208</ele>
        <time>2021-07-05T11:29:48Z</time>
      </trkpt>
      <trkpt lat="43.32876" lon="-0.35121">
        <ele>218.1638</ele>
        <time>2021-07-05T11:29:59Z</time>
      </trkpt>
      <trkpt lat="43.32935" lon="-0.3531">
        <ele>217.7459</ele>
        <time>2021-07-05T11:30:10Z</time>
      </trkpt>
      <trkpt lat="43.32982" lon="-0.35453">
        <ele>215.9264</ele>
        <time>2021-07-05T11:30:21Z</time>
      </trkpt>
      <trkpt lat="43.32998" lon="-0.35502">
        <ele>216.2915</ele>
        <time>2021-07-05T11:30:32Z</time>
      </trkpt>
      <trkpt lat="43.33008" lon="-0.3552">
        <ele>216.8348</ele>
        <time>2021-07-05T11:30:43Z</time>
      </trkpt>
      <trkpt lat="43.33034" lon="-0.35613">
        <ele>216.1199</ele>
        <time>2021-07-05T11:30:54Z</time>
      </trkpt>
      <trkpt lat="43.33093" lon="-0.35769">
        <ele>216.6811</ele>
        <time>2021-07-05T11:31:05Z</time>
      </trkpt>
      <trkpt lat="43.33213" lon="-0.35838">
        <ele>215.6732</ele>
        <time>2021-07-05T11:31:16Z</time>
      </trkpt>
      <trkpt lat="43.33382" lon="-0.35813">
        <ele>213.8251</ele>
        <time>2021-07-05T11:31:27Z</time>
      </trkpt>
      <trkpt lat="43.33479" lon="-0.35997">
        <ele>212.2946</ele>
        <time>2021-07-05T11:31:38Z</time>
      </trkpt>
      <trkpt lat="43.33552" lon="-0.36224">
        <ele>211.9535</ele>
        <time>2021-07-05T11:31:49Z</time>
      </trkpt>
      <trkpt lat="43.33636" lon="-0.36468">
        <ele>211.5773</ele>
        <time>2021-07-05T11:32:00Z</time>
      </trkpt>
      <trkpt lat="43.33721" lon="-0.3672">
        <ele>210.8788</ele>
        <time>2021-07-05T11:32:11Z</time>
      </trkpt>
      <trkpt lat="43.33809" lon="-0.36975">
        <ele>209.041</ele>
        <time>2021-07-05T11:32:22Z</time>
      </trkpt>
      <trkpt lat="43.33895" lon="-0.37224">
        <ele>207.2671</ele>
        <time>2021-07-05T11:32:33Z</time>
      </trkpt>
      <trkpt lat="43.33973" lon="-0.37456">
        <ele>206.7547</ele>
        <time>2021-07-05T11:32:44Z</time>
      </trkpt>
      <trkpt lat="43.33994" lon="-0.37685">
        <ele>206.5602</ele>
        <time>2021-07-05T11:32:55Z</time>
      </trkpt>
      <trkpt lat="43.33898" lon="-0.37852">
        <ele>208.2434</ele>
        <time>2021-07-05T11:33:06Z</time>
      </trkpt>
      <trkpt lat="43.33865" lon="-0.3794">
        <ele>207.4256</ele>
        <time>2021-07-05T11:33:17Z</time>
      </trkpt>
      <trkpt lat="43.33859" lon="-0.38086">
        <ele>207.6604</ele>
        <time>2021-07-05T11:33:28Z</time>
      </trkpt>
      <trkpt lat="43.33914" lon="-0.38301">
        <ele>206.7922</ele>
        <time>2021-07-05T11:33:39Z</time>
      </trkpt>
      <trkpt lat="43.33987" lon="-0.38478">
        <ele>204.3805</ele>
        <time>2021-07-05T11:33:50Z</time>
      </trkpt>
      <trkpt lat="43.34025" lon="-0.38589">
        <ele>203.5103</ele>
        <time>2021-07-05T11:34:01Z</time>
      </trkpt>
      <trkpt lat="43.3408" lon="-0.38799">
        <ele>202.8532</ele>
        <time>2021-07-05T11:34:12Z</time>
      </trkpt>
      <trkpt lat="43.34102" lon="-0.39049">
        <ele>204.0667</ele>
        <time>2021-07-05T11:34:23Z</time>
      </trkpt>
      <trkpt lat="43.34021" lon="-0.39287">
        <ele>202.5734</ele>
        <time>2021-07-05T11:34:34Z</time>
      </trkpt>
      <trkpt lat="43.33917" lon="-0.39529">
        <ele>201.1888</ele>
        <time>2021-07-05T11:34:45Z</time>
      </trkpt>
      <trkpt lat="43.33938" lon="-0.39815">
        <ele>200.4506</ele>
        <time>2021-07-05T11:34:56Z</time>
      </trkpt>
      <trkpt lat="43.33978" lon="-0.40074">
        <ele>199.1777</ele>
        <time>2021-07-05T11:35:07Z</time>
      </trkpt>
      <trkpt lat="43.34025" lon="-0.40356">
        <ele>198.0118</ele>
        <time>2021-07-05T11:35:18Z</time>
      </trkpt>
      <trkpt lat="43.3409" lon="-0.40635">
        <ele>197.6623</ele>
        <time>2021-07-05T11:35:29Z</time>
      </trkpt>
      <trkpt lat="43.34173" lon="-0.40882">
        <ele>196.2861</ele>
        <time>2021-07-05T11:35:40Z</time>
      </trkpt>
      <trkpt lat="43.34246" lon="-0.41133">
        <ele>195.8873</ele>
        <time>2021-07-05T11:35:51Z</time>
      </trkpt>
      <trkpt lat="43.34325" lon="-0.41396">
        <ele>194.7387</ele>
        <time>2021-07-05T11:36:02Z</time>
      </trkpt>
      <trkpt lat="43.3442" lon="-0.41713">
        <ele>193.5899</ele>
        <time>2021-07-05T11:36:13Z</time>
      </trkpt>
      <trkpt lat="43.34483" lon="-0.4203">
        <ele>192.3323</ele>
        <time>2021-07-05T11:36:24Z</time>
      </trkpt>
      <trkpt lat="43.34529" lon="-0.42233">
        <ele>191.5043</ele>
        <time>2021-07-05T11:36:35Z</time>
      </trkpt>
      <trkpt lat="43.34507" lon="-0.42486">
        <ele>188.2194</ele>
        <time>2021-07-05T11:36:46Z</time>
      </trkpt>
      <trkpt lat="43.34406" lon="-0.4274">
        <ele>188.5446</ele>
        <time>2021-07-05T11:36:57Z</time>
      </trkpt>
      <trkpt lat="43.34443" lon="-0.42963">
        <ele>187.9632</ele>
        <time>2021-07-05T11:37:08Z</time>
      </trkpt>
      <trkpt lat="43.34467" lon="-0.43103">
        <ele>188.4838</ele>
        <time>2021-07-05T11:37:19Z</time>
      </trkpt>
      <trkpt lat="43.34443" lon="-0.43315">
        <ele>185.4016</ele>
        <time>2021-07-05T11:37:30Z</time>
      </trkpt>
      <trkpt lat="43.34453" lon="-0.43462">
        <ele>184.5354</ele>
        <time>2021-07-05T11:37:41Z</time>
      </trkpt>
      <trkpt lat="43.34465" lon="-0.437">
        <ele>179.6975</ele>
        <time>2021-07-05T11:37:52Z</time>
      </trkpt>
      <trkpt lat="43.34465" lon="-0.43939">
        <ele>175.6305</ele>
        <time>2021-07-05T11:38:03Z</time>
      </trkpt>
      <trkpt lat="43.34465" lon="-0.44215">
        <ele>170.4777</ele>
        <time>2021-07-05T11:38:14Z</time>
      </trkpt>
      <trkpt lat="43.34477" lon="-0.44531">
        <ele>163.6474</ele>
        <time>2021-07-05T11:38:25Z</time>
      </trkpt>
      <trkpt lat="43.34538" lon="-0.44843">
        <ele>158.495</ele>
        <time>2021-07-05T11:38:36Z</time>
      </trkpt>
      <trkpt lat="43.34603" lon="-0.45131">
        <ele>156.6847</ele>
        <time>2021-07-05T11:38:47Z</time>
      </trkpt>
      <trkpt lat="43.3456" lon="-0.45418">
        <ele>160.876</ele>
        <time>2021-07-05T11:38:58Z</time>
      </trkpt>
      <trkpt lat="43.34417" lon="-0.45647">
        <ele>161.3472</ele>
        <time>2021-07-05T11:39:09Z</time>
      </trkpt>
      <trkpt lat="43.34226" lon="-0.45792">
        <ele>156.9294</ele>
        <time>2021-07-05T11:39:20Z</time>
      </trkpt>
      <trkpt lat="43.34003" lon="-0.45824">
        <ele>152.2184</ele>
        <time>2021-07-05T11:39:31Z</time>
      </trkpt>
      <trkpt lat="43.33838" lon="-0.4595">
        <ele>146.5667</ele>
        <time>2021-07-05T11:39:42Z</time>
      </trkpt>
      <trkpt lat="43.33732" lon="-0.46036">
        <ele>144.6612</ele>
        <time>2021-07-05T11:39:53Z</time>
      </trkpt>
      <trkpt lat="43.33659" lon="-0.46083">
        <ele>145.4063</ele>
        <time>2021-07-05T11:40:04Z</time>
      </trkpt>
      <trkpt lat="43.33523" lon="-0.46159">
        <ele>146.1715</ele>
        <time>2021-07-05T11:40:15Z</time>
      </trkpt>
      <trkpt lat="43.3335" lon="-0.46347">
        <ele>150.3509</ele>
        <time>2021-07-05T11:40:26Z</time>
      </trkpt>
      <trkpt lat="43.33165" lon="-0.46519">
        <ele>149.4771</ele>
        <time>2021-07-05T11:40:37Z</time>
      </trkpt>
      <trkpt lat="43.3298" lon="-0.46676">
        <ele>149.5421</ele>
        <time>2021-07-05T11:40:48Z</time>
      </trkpt>
      <trkpt lat="43.32785" lon="-0.4688">
        <ele>147.2377</ele>
        <time>2021-07-05T11:40:59Z</time>
      </trkpt>
      <trkpt lat="43.32642" lon="-0.46993">
        <ele>145.3886</ele>
        <time>2021-07-05T11:41:10Z</time>
      </trkpt>
      <trkpt lat="43.32626" lon="-0.47069">
        <ele>149.2764</ele>
        <time>2021-07-05T11:41:21Z</time>
      </trkpt>
      <trkpt lat="43.32695" lon="-0.47238">
        <ele>146.5492</ele>
        <time>2021-07-05T11:41:32Z</time>
      </trkpt>
      <trkpt lat="43.32768" lon="-0.47443">
        <ele>145.6992</ele>
        <time>2021-07-05T11:41:43Z</time>
      </trkpt>
      <trkpt lat="43.3286" lon="-0.47706">
        <ele>143.7616</ele>
        <time>2021-07-05T11:41:54Z</time>
      </trkpt>
      <trkpt lat="43.32942" lon="-0.47942">
        <ele>143.4436</ele>
        <time>2021-07-05T11:42:05Z</time>
      </trkpt>
      <trkpt lat="43.33027" lon="-0.48218">
        <ele>140.6397</ele>
        <time>2021-07-05T11:42:16Z</time>
      </trkpt>
      <trkpt lat="43.33097" lon="-0.48492">
        <ele>140.9314</ele>
        <time>2021-07-05T11:42:27Z</time>
      </trkpt>
      <trkpt lat="43.3317" lon="-0.48779">
        <ele>139.7544</ele>
        <time>2021-07-05T11:42:38Z</time>
      </trkpt>
      <trkpt lat="43.33242" lon="-0.49065">
        <ele>139.2193</ele>
        <time>2021-07-05T11:42:49Z</time>
      </trkpt>
      <trkpt lat="43.33386" lon="-0.49382">
        <ele>138.0169</ele>
        <time>2021-07-05T11:43:00Z</time>
      </trkpt>
      <trkpt lat="43.33569" lon="-0.49625">
        <ele>136.5555</ele>
        <time>2021-07-05T11:43:11Z</time>
      </trkpt>
      <trkpt lat="43.33712" lon="-0.49872">
        <ele>136.1627</ele>
        <time>2021-07-05T11:43:22Z</time>
      </trkpt>
      <trkpt lat="43.3378" lon="-0.50205">
        <ele>135.3623</ele>
        <time>2021-07-05T11:43:33Z</time>
      </trkpt>
      <trkpt lat="43.33809" lon="-0.50599">
        <ele>133.7589</ele>
        <time>2021-07-05T11:43:44Z</time>
      </trkpt>
      <trkpt lat="43.33931" lon="-0.5094">
        <ele>133.5093</ele>
        <time>2021-07-05T11:43:55Z</time>
      </trkpt>
      <trkpt lat="43.34124" lon="-0.51197">
        <ele>131.2833</ele>
        <time>2021-07-05T11:44:06Z</time>
      </trkpt>
      <trkpt lat="43.34319" lon="-0.51451">
        <ele>130.481</ele>
        <time>2021-07-05T11:44:17Z</time>
      </trkpt>
      <trkpt lat="43.34517" lon="-0.51708">
        <ele>130.055</ele>
        <time>2021-07-05T11:44:28Z</time>
      </trkpt>
      <trkpt lat="43.34711" lon="-0.51954">
        <ele>128.8712</ele>
        <time>2021-07-05T11:44:39Z</time>
      </trkpt>
      <trkpt lat="43.34862" lon="-0.52154">
        <ele>130.2492</ele>
        <time>2021-07-05T11:44:50Z</time>
      </trkpt>
      <trkpt lat="43.34994" lon="-0.52333">
        <ele>130.2704</ele>
        <time>2021-07-05T11:45:01Z</time>
      </trkpt>
      <trkpt lat="43.35111" lon="-0.52508">
        <ele>130.694</ele>
        <time>2021-07-05T11:45:12Z</time>
      </trkpt>
      <trkpt lat="43.35167" lon="-0.52623">
        <ele>129.256</ele>
        <time>2021-07-05T11:45:23Z</time>
      </trkpt>
      <trkpt lat="43.35241" lon="-0.52829">
        <ele>130.0983</ele>
        <time>2021-07-05T11:45:34Z</time>
      </trkpt>
      <trkpt lat="43.35331" lon="-0.53065">
        <ele>128.2133</ele>
        <time>2021-07-05T11:45:45Z</time>
      </trkpt>
      <trkpt lat="43.35422" lon="-0.53303">
        <ele>128.3413</ele>
        <time>2021-07-05T11:45:56Z</time>
      </trkpt>
      <trkpt lat="43.35513" lon="-0.53539">
        <ele>128.1574</ele>
        <time>2021-07-05T11:46:07Z</time>
      </trkpt>
      <trkpt lat="43.35618" lon="-0.53849">
        <ele>127.8853</ele>
        <time>2021-07-05T11:46:18Z</time>
      </trkpt>
      <trkpt lat="43.35729" lon="-0.54228">
        <ele>125.8053</ele>
        <time>2021-07-05T11:46:29Z</time>
      </trkpt>
      <trkpt lat="43.35814" lon="-0.5461">
        <ele>122.6854</ele>
        <time>2021-07-05T11:46:40Z</time>
      </trkpt>
      <trkpt lat="43.35885" lon="-0.54965">
        <ele>119.4063</ele>
        <time>2021-07-05T11:46:51Z</time>
      </trkpt>
      <trkpt lat="43.35948" lon="-0.55208">
        <ele>116.7046</ele>
        <time>2021-07-05T11:47:02Z</time>
      </trkpt>
      <trkpt lat="43.3599" lon="-0.55306">
        <ele>119.7275</ele>
        <time>2021-07-05T11:47:13Z</time>
      </trkpt>
      <trkpt lat="43.35994" lon="-0.5544">
        <ele>120.0998</ele>
        <time>2021-07-05T11:47:24Z</time>
      </trkpt>
      <trkpt lat="43.36023" lon="-0.55639">
        <ele>121.3497</ele>
        <time>2021-07-05T11:47:35Z</time>
      </trkpt>
      <trkpt lat="43.36065" lon="-0.55888">
        <ele>119.8715</ele>
        <time>2021-07-05T11:47:46Z</time>
      </trkpt>
      <trkpt lat="43.36124" lon="-0.56186">
        <ele>119.8683</ele>
        <time>2021-07-05T11:47:57Z</time>
      </trkpt>
      <trkpt lat="43.362" lon="-0.56614">
        <ele>118.2394</ele>
        <time>2021-07-05T11:48:08Z</time>
      </trkpt>
      <trkpt lat="43.36196" lon="-0.56992">
        <ele>116.9951</ele>
        <time>2021-07-05T11:48:19Z</time>
      </trkpt>
      <trkpt lat="43.36234" lon="-0.57322">
        <ele>117.0278</ele>
        <time>2021-07-05T11:48:30Z</time>
      </trkpt>
      <trkpt lat="43.36384" lon="-0.57589">
        <ele>115.0949</ele>
        <time>2021-07-05T11:48:41Z</time>
      </trkpt>
      <trkpt lat="43.36489" lon="-0.57719">
        <ele>114.4411</ele>
        <time>2021-07-05T11:48:52Z</time>
      </trkpt>
      <trkpt lat="43.36586" lon="-0.57948">
        <ele>114.0845</ele>
        <time>2021-07-05T11:49:03Z</time>
      </trkpt>
      <trkpt lat="43.36698" lon="-0.5814">
        <ele>113.1478</ele>
        <time>2021-07-05T11:49:14Z</time>
      </trkpt>
      <trkpt lat="43.3681" lon="-0.58339">
        <ele>113.2701</ele>
        <time>2021-07-05T11:49:25Z</time>
      </trkpt>
      <trkpt lat="43.36923" lon="-0.58541">
        <ele>114.7515</ele>
        <time>2021-07-05T11:49:36Z</time>
      </trkpt>
      <trkpt lat="43.37043" lon="-0.58755">
        <ele>114.1838</ele>
        <time>2021-07-05T11:49:47Z</time>
      </trkpt>
      <trkpt lat="43.37148" lon="-0.58943">
        <ele>111.7594</ele>
        <time>2021-07-05T11:49:58Z</time>
      </trkpt>
      <trkpt lat="43.37263" lon="-0.59149">
        <ele>111.5095</ele>
        <time>2021-07-05T11:50:09Z</time>
      </trkpt>
      <trkpt lat="43.37361" lon="-0.59367">
        <ele>112.3221</ele>
        <time>2021-07-05T11:50:20Z</time>
      </trkpt>
      <trkpt lat="43.3738" lon="-0.5963">
        <ele>109.7513</ele>
        <time>2021-07-05T11:50:31Z</time>
      </trkpt>
      <trkpt lat="43.37403" lon="-0.59856">
        <ele>108.6585</ele>
        <time>2021-07-05T11:50:42Z</time>
      </trkpt>
      <trkpt lat="43.37506" lon="-0.60037">
        <ele>108.6773</ele>
        <time>2021-07-05T11:50:53Z</time>
      </trkpt>
      <trkpt lat="43.376" lon="-0.60176">
        <ele>109.7179</ele>
        <time>2021-07-05T11:51:04Z</time>
      </trkpt>
      <trkpt lat="43.37683" lon="-0.60287">
        <ele>109.1799</ele>
        <time>2021-07-05T11:51:15Z</time>
      </trkpt>
      <trkpt lat="43.37751" lon="-0.6032">
        <ele>107.7066</ele>
        <time>2021-07-05T11:51:26Z</time>
      </trkpt>
      <trkpt lat="43.37782" lon="-0.60423">
        <ele>109.0759</ele>
        <time>2021-07-05T11:51:37Z</time>
      </trkpt>
      <trkpt lat="43.37884" lon="-0.60557">
        <ele>106.9545</ele>
        <time>2021-07-05T11:51:48Z</time>
      </trkpt>
      <trkpt lat="43.37984" lon="-0.60694">
        <ele>105.5207</ele>
        <time>2021-07-05T11:51:59Z</time>
      </trkpt>
      <trkpt lat="43.38106" lon="-0.60865">
        <ele>104.5303</ele>
        <time>2021-07-05T11:52:10Z</time>
      </trkpt>
      <trkpt lat="43.38209" lon="-0.61005">
        <ele>104.1956</ele>
        <time>2021-07-05T11:52:21Z</time>
      </trkpt>
      <trkpt lat="43.38307" lon="-0.61086">
        <ele>104.0495</ele>
        <time>2021-07-05T11:52:32Z</time>
      </trkpt>
      <trkpt lat="43.38364" lon="-0.61108">
        <ele>104.7125</ele>
        <time>2021-07-05T11:52:43Z</time>
      </trkpt>
      <trkpt lat="43.38295" lon="-0.61231">
        <ele>104.1968</ele>
        <time>2021-07-05T11:52:54Z</time>
      </trkpt>
      <trkpt lat="43.38229" lon="-0.61372">
        <ele>104.1854</ele>
        <time>2021-07-05T11:53:05Z</time>
      </trkpt>
      <trkpt lat="43.38153" lon="-0.61522">
        <ele>106.1079</ele>
        <time>2021-07-05T11:53:16Z</time>
      </trkpt>
      <trkpt lat="43.38074" lon="-0.61682">
        <ele>102.9936</ele>
        <time>2021-07-05T11:53:27Z</time>
      </trkpt>
      <trkpt lat="43.3799" lon="-0.61849">
        <ele>107.2713</ele>
        <time>2021-07-05T11:53:38Z</time>
      </trkpt>
      <trkpt lat="43.37911" lon="-0.62009">
        <ele>106.4606</ele>
        <time>2021-07-05T11:53:49Z</time>
      </trkpt>
      <trkpt lat="43.37825" lon="-0.62156">
        <ele>108.3385</ele>
        <time>2021-07-05T11:54:00Z</time>
      </trkpt>
      <trkpt lat="43.37732" lon="-0.62248">
        <ele>108.4115</ele>
        <time>2021-07-05T11:54:11Z</time>
      </trkpt>
      <trkpt lat="43.37614" lon="-0.62274">
        <ele>109.3221</ele>
        <time>2021-07-05T11:54:22Z</time>
      </trkpt>
      <trkpt lat="43.37501" lon="-0.62347">
        <ele>107.7725</ele>
        <time>2021-07-05T11:54:33Z</time>
      </trkpt>
      <trkpt lat="43.37422" lon="-0.62409">
        <ele>106.4367</ele>
        <time>2021-07-05T11:54:44Z</time>
      </trkpt>
      <trkpt lat="43.37333" lon="-0.6248">
        <ele>107.5215</ele>
        <time>2021-07-05T11:54:55Z</time>
      </trkpt>
      <trkpt lat="43.37284" lon="-0.62569">
        <ele>107.691</ele>
        <time>2021-07-05T11:55:06Z</time>
      </trkpt>
      <trkpt lat="43.37223" lon="-0.62691">
        <ele>108.8962</ele>
        <time>2021-07-05T11:55:17Z</time>
      </trkpt>
      <trkpt lat="43.37269" lon="-0.62829">
        <ele>119.6175</ele>
        <time>2021-07-05T11:55:28Z</time>
      </trkpt>
      <trkpt lat="43.37243" lon="-0.62965">
        <ele>124.7448</ele>
        <time>2021-07-05T11:55:39Z</time>
      </trkpt>
      <trkpt lat="43.37173" lon="-0.63076">
        <ele>137.4708</ele>
        <time>2021-07-05T11:55:50Z</time>
      </trkpt>
      <trkpt lat="43.37146" lon="-0.63178">
        <ele>143.5266</ele>
        <time>2021-07-05T11:56:01Z</time>
      </trkpt>
      <trkpt lat="43.37202" lon="-0.6326">
        <ele>142.8275</ele>
        <time>2021-07-05T11:56:12Z</time>
      </trkpt>
      <trkpt lat="43.37106" lon="-0.63288">
        <ele>146.1146</ele>
        <time>2021-07-05T11:56:23Z</time>
      </trkpt>
      <trkpt lat="43.36986" lon="-0.63345">
        <ele>149.2839</ele>
        <time>2021-07-05T11:56:34Z</time>
      </trkpt>
      <trkpt lat="43.36887" lon="-0.63457">
        <ele>150.4326</ele>
        <time>2021-07-05T11:56:45Z</time>
      </trkpt>
      <trkpt lat="43.36751" lon="-0.63502">
        <ele>144.1621</ele>
        <time>2021-07-05T11:56:56Z</time>
      </trkpt>
      <trkpt lat="43.36623" lon="-0.63527">
        <ele>137.538</ele>
        <time>2021-07-05T11:57:07Z</time>
      </trkpt>
      <trkpt lat="43.36494" lon="-0.63625">
        <ele>127.3998</ele>
        <time>2021-07-05T11:57:18Z</time>
      </trkpt>
      <trkpt lat="43.36517" lon="-0.63823">
        <ele>122.9334</ele>
        <time>2021-07-05T11:57:29Z</time>
      </trkpt>
      <trkpt lat="43.3659" lon="-0.64168">
        <ele>135.7217</ele>
        <time>2021-07-05T11:57:40Z</time>
      </trkpt>
      <trkpt lat="43.36698" lon="-0.6453">
        <ele>151.4902</ele>
        <time>2021-07-05T11:57:51Z</time>
      </trkpt>
      <trkpt lat="43.36746" lon="-0.64917">
        <ele>159.7395</ele>
        <time>2021-07-05T11:58:02Z</time>
      </trkpt>
      <trkpt lat="43.36726" lon="-0.65233">
        <ele>169.786</ele>
        <time>2021-07-05T11:58:13Z</time>
      </trkpt>
      <trkpt lat="43.36557" lon="-0.65367">
        <ele>166.429</ele>
        <time>2021-07-05T11:58:24Z</time>
      </trkpt>
      <trkpt lat="43.36296" lon="-0.65447">
        <ele>178.1572</ele>
        <time>2021-07-05T11:58:35Z</time>
      </trkpt>
      <trkpt lat="43.36062" lon="-0.65626">
        <ele>190.0483</ele>
        <time>2021-07-05T11:58:46Z</time>
      </trkpt>
      <trkpt lat="43.35883" lon="-0.6591">
        <ele>209.8716</ele>
        <time>2021-07-05T11:58:57Z</time>
      </trkpt>
      <trkpt lat="43.35804" lon="-0.66167">
        <ele>203.6533</ele>
        <time>2021-07-05T11:59:08Z</time>
      </trkpt>
      <trkpt lat="43.3577" lon="-0.6653">
        <ele>186.1291</ele>
        <time>2021-07-05T11:59:19Z</time>
      </trkpt>
      <trkpt lat="43.35699" lon="-0.66886">
        <ele>163.6666</ele>
        <time>2021-07-05T11:59:30Z</time>
      </trkpt>
      <trkpt lat="43.35737" lon="-0.67171">
        <ele>145.5067</ele>
        <time>2021-07-05T11:59:41Z</time>
      </trkpt>
      <trkpt lat="43.35676" lon="-0.67428">
        <ele>134.3125</ele>
        <time>2021-07-05T11:59:52Z</time>
      </trkpt>
      <trkpt lat="43.35631" lon="-0.67689">
        <ele>138.5527</ele>
        <time>2021-07-05T12:00:03Z</time>
      </trkpt>
      <trkpt lat="43.35582" lon="-0.67955">
        <ele>142.5892</ele>
        <time>2021-07-05T12:00:14Z</time>
      </trkpt>
      <trkpt lat="43.35498" lon="-0.68195">
        <ele>144.0465</ele>
        <time>2021-07-05T12:00:25Z</time>
      </trkpt>
      <trkpt lat="43.35347" lon="-0.68436">
        <ele>143.3684</ele>
        <time>2021-07-05T12:00:36Z</time>
      </trkpt>
      <trkpt lat="43.35173" lon="-0.68592">
        <ele>144.6008</ele>
        <time>2021-07-05T12:00:47Z</time>
      </trkpt>
      <trkpt lat="43.34996" lon="-0.68629">
        <ele>149.7606</ele>
        <time>2021-07-05T12:00:58Z</time>
      </trkpt>
      <trkpt lat="43.34717" lon="-0.68674">
        <ele>155.8279</ele>
        <time>2021-07-05T12:01:09Z</time>
      </trkpt>
      <trkpt lat="43.34428" lon="-0.68742">
        <ele>169.3223</ele>
        <time>2021-07-05T12:01:20Z</time>
      </trkpt>
      <trkpt lat="43.34195" lon="-0.68929">
        <ele>185.8758</ele>
        <time>2021-07-05T12:01:31Z</time>
      </trkpt>
      <trkpt lat="43.33949" lon="-0.68915">
        <ele>202.1489</ele>
        <time>2021-07-05T12:01:42Z</time>
      </trkpt>
      <trkpt lat="43.33857" lon="-0.69161">
        <ele>217.1462</ele>
        <time>2021-07-05T12:01:53Z</time>
      </trkpt>
      <trkpt lat="43.33739" lon="-0.6944">
        <ele>239.1231</ele>
        <time>2021-07-05T12:02:04Z</time>
      </trkpt>
      <trkpt lat="43.336" lon="-0.69372">
        <ele>248.2681</ele>
        <time>2021-07-05T12:02:15Z</time>
      </trkpt>
      <trkpt lat="43.33459" lon="-0.69612">
        <ele>260.086</ele>
        <time>2021-07-05T12:02:26Z</time>
      </trkpt>
      <trkpt lat="43.33308" lon="-0.69895">
        <ele>262.8222</ele>
        <time>2021-07-05T12:02:37Z</time>
      </trkpt>
      <trkpt lat="43.33252" lon="-0.70224">
        <ele>265.7189</ele>
        <time>2021-07-05T12:02:48Z</time>
      </trkpt>
      <trkpt lat="43.33248" lon="-0.70481">
        <ele>271.7686</ele>
        <time>2021-07-05T12:02:59Z</time>
      </trkpt>
      <trkpt lat="43.33149" lon="-0.70778">
        <ele>263.6565</ele>
        <time>2021-07-05T12:03:10Z</time>
      </trkpt>
      <trkpt lat="43.33192" lon="-0.71095">
        <ele>248.9155</ele>
        <time>2021-07-05T12:03:21Z</time>
      </trkpt>
      <trkpt lat="43.3319" lon="-0.71406">
        <ele>227.5179</ele>
        <time>2021-07-05T12:03:32Z</time>
      </trkpt>
      <trkpt lat="43.33011" lon="-0.71624">
        <ele>209.1954</ele>
        <time>2021-07-05T12:03:43Z</time>
      </trkpt>
      <trkpt lat="43.32889" lon="-0.71861">
        <ele>192.6185</ele>
        <time>2021-07-05T12:03:54Z</time>
      </trkpt>
      <trkpt lat="43.3298" lon="-0.7215">
        <ele>175.4134</ele>
        <time>2021-07-05T12:04:05Z</time>
      </trkpt>
      <trkpt lat="43.33001" lon="-0.72467">
        <ele>171.9954</ele>
        <time>2021-07-05T12:04:16Z</time>
      </trkpt>
      <trkpt lat="43.32957" lon="-0.72849">
        <ele>160.3062</ele>
        <time>2021-07-05T12:04:27Z</time>
      </trkpt>
      <trkpt lat="43.32951" lon="-0.73288">
        <ele>153.2633</ele>
        <time>2021-07-05T12:04:38Z</time>
      </trkpt>
      <trkpt lat="43.33022" lon="-0.73681">
        <ele>154.6596</ele>
        <time>2021-07-05T12:04:49Z</time>
      </trkpt>
      <trkpt lat="43.32965" lon="-0.74033">
        <ele>153.0221</ele>
        <time>2021-07-05T12:05:00Z</time>
      </trkpt>
      <trkpt lat="43.32784" lon="-0.74314">
        <ele>148.1079</ele>
        <time>2021-07-05T12:05:11Z</time>
      </trkpt>
      <trkpt lat="43.32655" lon="-0.74617">
        <ele>151.4585</ele>
        <time>2021-07-05T12:05:22Z</time>
      </trkpt>
      <trkpt lat="43.32729" lon="-0.74975">
        <ele>156.5195</ele>
        <time>2021-07-05T12:05:33Z</time>
      </trkpt>
      <trkpt lat="43.32755" lon="-0.75294">
        <ele>143.1686</ele>
        <time>2021-07-05T12:05:44Z</time>
      </trkpt>
      <trkpt lat="43.32637" lon="-0.75605">
        <ele>132.6789</ele>
        <time>2021-07-05T12:05:55Z</time>
      </trkpt>
      <trkpt lat="43.32503" lon="-0.75786">
        <ele>129.0372</ele>
        <time>2021-07-05T12:06:06Z</time>
      </trkpt>
      <trkpt lat="43.32452" lon="-0.75907">
        <ele>128.8785</ele>
        <time>2021-07-05T12:06:17Z</time>
      </trkpt>
      <trkpt lat="43.32407" lon="-0.76093">
        <ele>123.9983</ele>
        <time>2021-07-05T12:06:28Z</time>
      </trkpt>
      <trkpt lat="43.32414" lon="-0.76287">
        <ele>126.1684</ele>
        <time>2021-07-05T12:06:39Z</time>
      </trkpt>
      <trkpt lat="43.32263" lon="-0.7628">
        <ele>121.5525</ele>
        <time>2021-07-05T12:06:50Z</time>
      </trkpt>
      <trkpt lat="43.32257" lon="-0.76416">
        <ele>118.1882</ele>
        <time>2021-07-05T12:07:01Z</time>
      </trkpt>
      <trkpt lat="43.32293" lon="-0.76547">
        <ele>115.07</ele>
        <time>2021-07-05T12:07:12Z</time>
      </trkpt>
      <trkpt lat="43.32413" lon="-0.76685">
        <ele>123.7825</ele>
        <time>2021-07-05T12:07:23Z</time>
      </trkpt>
      <trkpt lat="43.32471" lon="-0.7689">
        <ele>124.1365</ele>
        <time>2021-07-05T12:07:34Z</time>
      </trkpt>
      <trkpt lat="43.32501" lon="-0.77108">
        <ele>125.8746</ele>
        <time>2021-07-05T12:07:45Z</time>
      </trkpt>
      <trkpt lat="43.32508" lon="-0.77303">
        <ele>127.1346</ele>
        <time>2021-07-05T12:07:56Z</time>
      </trkpt>
      <trkpt lat="43.3248" lon="-0.77462">
        <ele>126.9147</ele>
        <time>2021-07-05T12:08:07Z</time>
      </trkpt>
      <trkpt lat="43.32439" lon="-0.77692">
        <ele>127.9275</ele>
        <time>2021-07-05T12:08:18Z</time>
      </trkpt>
      <trkpt lat="43.32401" lon="-0.77904">
        <ele>128.8579</ele>
        <time>2021-07-05T12:08:29Z</time>
      </trkpt>
      <trkpt lat="43.32276" lon="-0.78012">
        <ele>145.1919</ele>
        <time>2021-07-05T12:08:40Z</time>
      </trkpt>
      <trkpt lat="43.32176" lon="-0.78155">
        <ele>158.9698</ele>
        <time>2021-07-05T12:08:51Z</time>
      </trkpt>
      <trkpt lat="43.32136" lon="-0.78329">
        <ele>156.537</ele>
        <time>2021-07-05T12:09:02Z</time>
      </trkpt>
      <trkpt lat="43.321" lon="-0.78554">
        <ele>145.1344</ele>
        <time>2021-07-05T12:09:13Z</time>
      </trkpt>
      <trkpt lat="43.32082" lon="-0.78846">
        <ele>135.7702</ele>
        <time>2021-07-05T12:09:24Z</time>
      </trkpt>
      <trkpt lat="43.32096" lon="-0.7915">
        <ele>125.3566</ele>
        <time>2021-07-05T12:09:35Z</time>
      </trkpt>
      <trkpt lat="43.32071" lon="-0.7946">
        <ele>121.0857</ele>
        <time>2021-07-05T12:09:46Z</time>
      </trkpt>
      <trkpt lat="43.32006" lon="-0.79739">
        <ele>112.9356</ele>
        <time>2021-07-05T12:09:57Z</time>
      </trkpt>
      <trkpt lat="43.31903" lon="-0.7996">
        <ele>119.5642</ele>
        <time>2021-07-05T12:10:08Z</time>
      </trkpt>
      <trkpt lat="43.31854" lon="-0.80254">
        <ele>136.7884</ele>
        <time>2021-07-05T12:10:19Z</time>
      </trkpt>
      <trkpt lat="43.31787" lon="-0.80531">
        <ele>156.7882</ele>
        <time>2021-07-05T12:10:30Z</time>
      </trkpt>
      <trkpt lat="43.31709" lon="-0.8083">
        <ele>164.6966</ele>
        <time>2021-07-05T12:10:41Z</time>
      </trkpt>
      <trkpt lat="43.31622" lon="-0.81137">
        <ele>168.1448</ele>
        <time>2021-07-05T12:10:52Z</time>
      </trkpt>
      <trkpt lat="43.31529" lon="-0.81456">
        <ele>170.5297</ele>
        <time>2021-07-05T12:11:03Z</time>
      </trkpt>
      <trkpt lat="43.31445" lon="-0.81743">
        <ele>180.4637</ele>
        <time>2021-07-05T12:11:14Z</time>
      </trkpt>
      <trkpt lat="43.31405" lon="-0.82025">
        <ele>194.6593</ele>
        <time>2021-07-05T12:11:25Z</time>
      </trkpt>
      <trkpt lat="43.3128" lon="-0.82256">
        <ele>190.7295</ele>
        <time>2021-07-05T12:11:36Z</time>
      </trkpt>
      <trkpt lat="43.31282" lon="-0.82564">
        <ele>190.1862</ele>
        <time>2021-07-05T12:11:47Z</time>
      </trkpt>
      <trkpt lat="43.31433" lon="-0.82757">
        <ele>190.3885</ele>
        <time>2021-07-05T12:11:58Z</time>
      </trkpt>
      <trkpt lat="43.31598" lon="-0.82947">
        <ele>192.45</ele>
        <time>2021-07-05T12:12:09Z</time>
      </trkpt>
      <trkpt lat="43.31679" lon="-0.83177">
        <ele>194.0572</ele>
        <time>2021-07-05T12:12:20Z</time>
      </trkpt>
      <trkpt lat="43.31726" lon="-0.83567">
        <ele>191.6483</ele>
        <time>2021-07-05T12:12:31Z</time>
      </trkpt>
      <trkpt lat="43.31824" lon="-0.83823">
        <ele>193.699</ele>
        <time>2021-07-05T12:12:42Z</time>
      </trkpt>
      <trkpt lat="43.3199" lon="-0.84016">
        <ele>194.1637</ele>
        <time>2021-07-05T12:12:53Z</time>
      </trkpt>
      <trkpt lat="43.32144" lon="-0.84368">
        <ele>189.2751</ele>
        <time>2021-07-05T12:13:04Z</time>
      </trkpt>
      <trkpt lat="43.32246" lon="-0.8463">
        <ele>185.8539</ele>
        <time>2021-07-05T12:13:15Z</time>
      </trkpt>
      <trkpt lat="43.32474" lon="-0.84624">
        <ele>176.8295</ele>
        <time>2021-07-05T12:13:26Z</time>
      </trkpt>
      <trkpt lat="43.32654" lon="-0.84759">
        <ele>170.7134</ele>
        <time>2021-07-05T12:13:37Z</time>
      </trkpt>
      <trkpt lat="43.32613" lon="-0.85032">
        <ele>162.5834</ele>
        <time>2021-07-05T12:13:49Z</time>
      </trkpt>
      <trkpt lat="43.32592" lon="-0.85309">
        <ele>154.7683</ele>
        <time>2021-07-05T12:14:00Z</time>
      </trkpt>
      <trkpt lat="43.32609" lon="-0.85557">
        <ele>149.0993</ele>
        <time>2021-07-05T12:14:11Z</time>
      </trkpt>
      <trkpt lat="43.32658" lon="-0.85824">
        <ele>145.6267</ele>
        <time>2021-07-05T12:14:22Z</time>
      </trkpt>
      <trkpt lat="43.32696" lon="-0.86088">
        <ele>140.8407</ele>
        <time>2021-07-05T12:14:33Z</time>
      </trkpt>
      <trkpt lat="43.32824" lon="-0.86303">
        <ele>124.6761</ele>
        <time>2021-07-05T12:14:44Z</time>
      </trkpt>
      <trkpt lat="43.33003" lon="-0.86591">
        <ele>110.8462</ele>
        <time>2021-07-05T12:14:55Z</time>
      </trkpt>
      <trkpt lat="43.33138" lon="-0.86856">
        <ele>99.94966</ele>
        <time>2021-07-05T12:15:06Z</time>
      </trkpt>
      <trkpt lat="43.3319" lon="-0.87095">
        <ele>97.51396</ele>
        <time>2021-07-05T12:15:17Z</time>
      </trkpt>
      <trkpt lat="43.33181" lon="-0.87144">
        <ele>98.5922</ele>
        <time>2021-07-05T12:15:28Z</time>
      </trkpt>
      <trkpt lat="43.33188" lon="-0.87207">
        <ele>98.51332</ele>
        <time>2021-07-05T12:15:39Z</time>
      </trkpt>
      <trkpt lat="43.33241" lon="-0.87378">
        <ele>94.31439</ele>
        <time>2021-07-05T12:15:50Z</time>
      </trkpt>
      <trkpt lat="43.33234" lon="-0.87576">
        <ele>97.92909</ele>
        <time>2021-07-05T12:16:01Z</time>
      </trkpt>
      <trkpt lat="43.33197" lon="-0.87742">
        <ele>95.04558</ele>
        <time>2021-07-05T12:16:12Z</time>
      </trkpt>
      <trkpt lat="43.32998" lon="-0.87843">
        <ele>102.9031</ele>
        <time>2021-07-05T12:16:23Z</time>
      </trkpt>
      <trkpt lat="43.3276" lon="-0.87966">
        <ele>107.1701</ele>
        <time>2021-07-05T12:16:34Z</time>
      </trkpt>
      <trkpt lat="43.32555" lon="-0.87961">
        <ele>105.9264</ele>
        <time>2021-07-05T12:16:45Z</time>
      </trkpt>
      <trkpt lat="43.3238" lon="-0.88033">
        <ele>108.4524</ele>
        <time>2021-07-05T12:16:56Z</time>
      </trkpt>
      <trkpt lat="43.32295" lon="-0.88307">
        <ele>112.2001</ele>
        <time>2021-07-05T12:17:07Z</time>
      </trkpt>
      <trkpt lat="43.32221" lon="-0.88548">
        <ele>123.76</ele>
        <time>2021-07-05T12:17:18Z</time>
      </trkpt>
      <trkpt lat="43.32044" lon="-0.88779">
        <ele>132.7449</ele>
        <time>2021-07-05T12:17:29Z</time>
      </trkpt>
      <trkpt lat="43.31892" lon="-0.88994">
        <ele>131.3227</ele>
        <time>2021-07-05T12:17:40Z</time>
      </trkpt>
      <trkpt lat="43.31891" lon="-0.89194">
        <ele>130.1691</ele>
        <time>2021-07-05T12:17:51Z</time>
      </trkpt>
      <trkpt lat="43.32014" lon="-0.89306">
        <ele>138.6219</ele>
        <time>2021-07-05T12:18:02Z</time>
      </trkpt>
      <trkpt lat="43.3204" lon="-0.89607">
        <ele>147.5773</ele>
        <time>2021-07-05T12:18:13Z</time>
      </trkpt>
      <trkpt lat="43.32047" lon="-0.8988">
        <ele>149.3982</ele>
        <time>2021-07-05T12:18:24Z</time>
      </trkpt>
      <trkpt lat="43.32058" lon="-0.90074">
        <ele>137.5712</ele>
        <time>2021-07-05T12:18:35Z</time>
      </trkpt>
      <trkpt lat="43.32211" lon="-0.90184">
        <ele>127.4715</ele>
        <time>2021-07-05T12:18:46Z</time>
      </trkpt>
      <trkpt lat="43.32294" lon="-0.9043">
        <ele>110.3444</ele>
        <time>2021-07-05T12:18:57Z</time>
      </trkpt>
      <trkpt lat="43.32235" lon="-0.90693">
        <ele>107.1665</ele>
        <time>2021-07-05T12:19:08Z</time>
      </trkpt>
      <trkpt lat="43.32191" lon="-0.90973">
        <ele>100.443</ele>
        <time>2021-07-05T12:19:19Z</time>
      </trkpt>
      <trkpt lat="43.32036" lon="-0.91234">
        <ele>107.4516</ele>
        <time>2021-07-05T12:19:30Z</time>
      </trkpt>
      <trkpt lat="43.31884" lon="-0.91387">
        <ele>117.3652</ele>
        <time>2021-07-05T12:19:41Z</time>
      </trkpt>
      <trkpt lat="43.31832" lon="-0.91501">
        <ele>126.4203</ele>
        <time>2021-07-05T12:19:52Z</time>
      </trkpt>
      <trkpt lat="43.31836" lon="-0.91688">
        <ele>130.0186</ele>
        <time>2021-07-05T12:20:03Z</time>
      </trkpt>
      <trkpt lat="43.31765" lon="-0.91785">
        <ele>130.2743</ele>
        <time>2021-07-05T12:20:14Z</time>
      </trkpt>
      <trkpt lat="43.31808" lon="-0.91929">
        <ele>137.3807</ele>
        <time>2021-07-05T12:20:25Z</time>
      </trkpt>
      <trkpt lat="43.31915" lon="-0.92167">
        <ele>140.4575</ele>
        <time>2021-07-05T12:20:36Z</time>
      </trkpt>
      <trkpt lat="43.31997" lon="-0.92384">
        <ele>150.964</ele>
        <time>2021-07-05T12:20:47Z</time>
      </trkpt>
      <trkpt lat="43.32075" lon="-0.92626">
        <ele>145.051</ele>
        <time>2021-07-05T12:20:58Z</time>
      </trkpt>
      <trkpt lat="43.32163" lon="-0.92878">
        <ele>147.0651</ele>
        <time>2021-07-05T12:21:09Z</time>
      </trkpt>
      <trkpt lat="43.32163" lon="-0.93209">
        <ele>130.1289</ele>
        <time>2021-07-05T12:21:20Z</time>
      </trkpt>
      <trkpt lat="43.3217" lon="-0.93604">
        <ele>109.857</ele>
        <time>2021-07-05T12:21:32Z</time>
      </trkpt>
      <trkpt lat="43.32181" lon="-0.93969">
        <ele>103.808</ele>
        <time>2021-07-05T12:21:43Z</time>
      </trkpt>
      <trkpt lat="43.3219" lon="-0.94383">
        <ele>121.2886</ele>
        <time>2021-07-05T12:21:54Z</time>
      </trkpt>
      <trkpt lat="43.32244" lon="-0.94675">
        <ele>125.2295</ele>
        <time>2021-07-05T12:22:05Z</time>
      </trkpt>
      <trkpt lat="43.32372" lon="-0.94958">
        <ele>110.1278</ele>
        <time>2021-07-05T12:22:16Z</time>
      </trkpt>
      <trkpt lat="43.32447" lon="-0.95255">
        <ele>92.51203</ele>
        <time>2021-07-05T12:22:27Z</time>
      </trkpt>
      <trkpt lat="43.32439" lon="-0.95584">
        <ele>96.01815</ele>
        <time>2021-07-05T12:22:38Z</time>
      </trkpt>
      <trkpt lat="43.32491" lon="-0.95925">
        <ele>105.6364</ele>
        <time>2021-07-05T12:22:49Z</time>
      </trkpt>
      <trkpt lat="43.32542" lon="-0.9626">
        <ele>119.2722</ele>
        <time>2021-07-05T12:23:00Z</time>
      </trkpt>
      <trkpt lat="43.32575" lon="-0.96491">
        <ele>131.1978</ele>
        <time>2021-07-05T12:23:11Z</time>
      </trkpt>
      <trkpt lat="43.3254" lon="-0.96711">
        <ele>133.0748</ele>
        <time>2021-07-05T12:23:22Z</time>
      </trkpt>
      <trkpt lat="43.32522" lon="-0.96961">
        <ele>121.4706</ele>
        <time>2021-07-05T12:23:33Z</time>
      </trkpt>
      <trkpt lat="43.32579" lon="-0.97314">
        <ele>132.0416</ele>
        <time>2021-07-05T12:23:44Z</time>
      </trkpt>
      <trkpt lat="43.32632" lon="-0.97614">
        <ele>128.6887</ele>
        <time>2021-07-05T12:23:55Z</time>
      </trkpt>
      <trkpt lat="43.32648" lon="-0.97938">
        <ele>128.0833</ele>
        <time>2021-07-05T12:24:06Z</time>
      </trkpt>
      <trkpt lat="43.32638" lon="-0.98277">
        <ele>124.5133</ele>
        <time>2021-07-05T12:24:17Z</time>
      </trkpt>
      <trkpt lat="43.32627" lon="-0.98623">
        <ele>113.3249</ele>
        <time>2021-07-05T12:24:28Z</time>
      </trkpt>
      <trkpt lat="43.32618" lon="-0.98965">
        <ele>112.374</ele>
        <time>2021-07-05T12:24:39Z</time>
      </trkpt>
      <trkpt lat="43.32619" lon="-0.99308">
        <ele>110.7798</ele>
        <time>2021-07-05T12:24:50Z</time>
      </trkpt>
      <trkpt lat="43.32616" lon="-0.99529">
        <ele>109.5683</ele>
        <time>2021-07-05T12:25:01Z</time>
      </trkpt>
      <trkpt lat="43.32524" lon="-0.99601">
        <ele>103.1315</ele>
        <time>2021-07-05T12:25:12Z</time>
      </trkpt>
      <trkpt lat="43.32398" lon="-0.99712">
        <ele>99.29576</ele>
        <time>2021-07-05T12:25:23Z</time>
      </trkpt>
      <trkpt lat="43.32286" lon="-0.99872">
        <ele>97.0873</ele>
        <time>2021-07-05T12:25:34Z</time>
      </trkpt>
      <trkpt lat="43.3213" lon="-1.00008">
        <ele>87.82483</ele>
        <time>2021-07-05T12:25:45Z</time>
      </trkpt>
      <trkpt lat="43.32018" lon="-1.00114">
        <ele>74.57187</ele>
        <time>2021-07-05T12:25:56Z</time>
      </trkpt>
      <trkpt lat="43.31914" lon="-1.00182">
        <ele>60.21684</ele>
        <time>2021-07-05T12:26:07Z</time>
      </trkpt>
      <trkpt lat="43.3177" lon="-1.00103">
        <ele>58.61071</ele>
        <time>2021-07-05T12:26:18Z</time>
      </trkpt>
      <trkpt lat="43.31605" lon="-1.00236">
        <ele>54.95299</ele>
        <time>2021-07-05T12:26:29Z</time>
      </trkpt>
      <trkpt lat="43.31426" lon="-1.00337">
        <ele>59.31601</ele>
        <time>2021-07-05T12:26:40Z</time>
      </trkpt>
      <trkpt lat="43.31297" lon="-1.00363">
        <ele>56.84044</ele>
        <time>2021-07-05T12:26:51Z</time>
      </trkpt>
      <trkpt lat="43.31218" lon="-1.00326">
        <ele>55.79394</ele>
        <time>2021-07-05T12:27:02Z</time>
      </trkpt>
      <trkpt lat="43.31157" lon="-1.00342">
        <ele>61.17741</ele>
        <time>2021-07-05T12:27:13Z</time>
      </trkpt>
      <trkpt lat="43.31083" lon="-1.00427">
        <ele>60.06395</ele>
        <time>2021-07-05T12:27:24Z</time>
      </trkpt>
      <trkpt lat="43.31023" lon="-1.00487">
        <ele>57.50702</ele>
        <time>2021-07-05T12:27:35Z</time>
      </trkpt>
      <trkpt lat="43.30884" lon="-1.00617">
        <ele>61.63978</ele>
        <time>2021-07-05T12:27:46Z</time>
      </trkpt>
      <trkpt lat="43.30707" lon="-1.00737">
        <ele>59.4406</ele>
        <time>2021-07-05T12:27:57Z</time>
      </trkpt>
      <trkpt lat="43.30609" lon="-1.00768">
        <ele>60.83961</ele>
        <time>2021-07-05T12:28:08Z</time>
      </trkpt>
      <trkpt lat="43.30611" lon="-1.00775">
        <ele>63.32488</ele>
        <time>2021-07-05T12:28:20Z</time>
      </trkpt>
      <trkpt lat="43.30609" lon="-1.0092">
        <ele>63.01353</ele>
        <time>2021-07-05T12:28:31Z</time>
      </trkpt>
      <trkpt lat="43.30576" lon="-1.0098">
        <ele>63.37558</ele>
        <time>2021-07-05T12:28:42Z</time>
      </trkpt>
      <trkpt lat="43.30484" lon="-1.01066">
        <ele>64.89051</ele>
        <time>2021-07-05T12:28:53Z</time>
      </trkpt>
      <trkpt lat="43.30309" lon="-1.01283">
        <ele>65.47805</ele>
        <time>2021-07-05T12:29:04Z</time>
      </trkpt>
      <trkpt lat="43.30147" lon="-1.01512">
        <ele>72.02202</ele>
        <time>2021-07-05T12:29:15Z</time>
      </trkpt>
      <trkpt lat="43.29937" lon="-1.01677">
        <ele>80.36054</ele>
        <time>2021-07-05T12:29:26Z</time>
      </trkpt>
      <trkpt lat="43.29722" lon="-1.01669">
        <ele>85.32844</ele>
        <time>2021-07-05T12:29:37Z</time>
      </trkpt>
      <trkpt lat="43.29497" lon="-1.01726">
        <ele>89.07681</ele>
        <time>2021-07-05T12:29:48Z</time>
      </trkpt>
      <trkpt lat="43.29225" lon="-1.01747">
        <ele>80.83112</ele>
        <time>2021-07-05T12:29:59Z</time>
      </trkpt>
      <trkpt lat="43.28967" lon="-1.01801">
        <ele>73.79992</ele>
        <time>2021-07-05T12:30:10Z</time>
      </trkpt>
      <trkpt lat="43.28725" lon="-1.01759">
        <ele>75.34893</ele>
        <time>2021-07-05T12:30:21Z</time>
      </trkpt>
      <trkpt lat="43.28574" lon="-1.01615">
        <ele>77.0471</ele>
        <time>2021-07-05T12:30:32Z</time>
      </trkpt>
      <trkpt lat="43.28426" lon="-1.01458">
        <ele>79.61295</ele>
        <time>2021-07-05T12:30:43Z</time>
      </trkpt>
      <trkpt lat="43.28247" lon="-1.0151">
        <ele>81.90256</ele>
        <time>2021-07-05T12:30:54Z</time>
      </trkpt>
      <trkpt lat="43.28206" lon="-1.01789">
        <ele>81.76058</ele>
        <time>2021-07-05T12:31:05Z</time>
      </trkpt>
      <trkpt lat="43.28089" lon="-1.02">
        <ele>82.9259</ele>
        <time>2021-07-05T12:31:16Z</time>
      </trkpt>
      <trkpt lat="43.27973" lon="-1.0212">
        <ele>85.80508</ele>
        <time>2021-07-05T12:31:27Z</time>
      </trkpt>
      <trkpt lat="43.27854" lon="-1.02198">
        <ele>85.65945</ele>
        <time>2021-07-05T12:31:38Z</time>
      </trkpt>
      <trkpt lat="43.27733" lon="-1.02269">
        <ele>87.58266</ele>
        <time>2021-07-05T12:31:49Z</time>
      </trkpt>
      <trkpt lat="43.27621" lon="-1.02484">
        <ele>88.03289</ele>
        <time>2021-07-05T12:32:00Z</time>
      </trkpt>
      <trkpt lat="43.27576" lon="-1.02741">
        <ele>87.33179</ele>
        <time>2021-07-05T12:32:11Z</time>
      </trkpt>
      <trkpt lat="43.27402" lon="-1.02899">
        <ele>86.30735</ele>
        <time>2021-07-05T12:32:22Z</time>
      </trkpt>
      <trkpt lat="43.27223" lon="-1.03079">
        <ele>88.78143</ele>
        <time>2021-07-05T12:32:33Z</time>
      </trkpt>
      <trkpt lat="43.27055" lon="-1.03235">
        <ele>99.10188</ele>
        <time>2021-07-05T12:32:44Z</time>
      </trkpt>
      <trkpt lat="43.26901" lon="-1.03443">
        <ele>101.4468</ele>
        <time>2021-07-05T12:32:55Z</time>
      </trkpt>
      <trkpt lat="43.26793" lon="-1.03712">
        <ele>90.71189</ele>
        <time>2021-07-05T12:33:06Z</time>
      </trkpt>
      <trkpt lat="43.26602" lon="-1.03877">
        <ele>91.12963</ele>
        <time>2021-07-05T12:33:17Z</time>
      </trkpt>
      <trkpt lat="43.26388" lon="-1.03952">
        <ele>91.87548</ele>
        <time>2021-07-05T12:33:28Z</time>
      </trkpt>
      <trkpt lat="43.2618" lon="-1.04021">
        <ele>100.1069</ele>
        <time>2021-07-05T12:33:39Z</time>
      </trkpt>
      <trkpt lat="43.25962" lon="-1.04093">
        <ele>96.82344</ele>
        <time>2021-07-05T12:33:50Z</time>
      </trkpt>
      <trkpt lat="43.25761" lon="-1.04205">
        <ele>97.13182</ele>
        <time>2021-07-05T12:34:01Z</time>
      </trkpt>
      <trkpt lat="43.25556" lon="-1.04374">
        <ele>97.52698</ele>
        <time>2021-07-05T12:34:12Z</time>
      </trkpt>
      <trkpt lat="43.25358" lon="-1.04512">
        <ele>98.69476</ele>
        <time>2021-07-05T12:34:23Z</time>
      </trkpt>
      <trkpt lat="43.2519" lon="-1.04699">
        <ele>109.149</ele>
        <time>2021-07-05T12:34:34Z</time>
      </trkpt>
      <trkpt lat="43.25124" lon="-1.04953">
        <ele>111.5142</ele>
        <time>2021-07-05T12:34:45Z</time>
      </trkpt>
      <trkpt lat="43.25181" lon="-1.05215">
        <ele>115.944</ele>
        <time>2021-07-05T12:34:56Z</time>
      </trkpt>
      <trkpt lat="43.25224" lon="-1.05463">
        <ele>127.4472</ele>
        <time>2021-07-05T12:35:07Z</time>
      </trkpt>
      <trkpt lat="43.25164" lon="-1.05748">
        <ele>128.6656</ele>
        <time>2021-07-05T12:35:18Z</time>
      </trkpt>
      <trkpt lat="43.25134" lon="-1.06058">
        <ele>118.6664</ele>
        <time>2021-07-05T12:35:29Z</time>
      </trkpt>
      <trkpt lat="43.25066" lon="-1.06352">
        <ele>115.5252</ele>
        <time>2021-07-05T12:35:40Z</time>
      </trkpt>
      <trkpt lat="43.24942" lon="-1.06598">
        <ele>119.6374</ele>
        <time>2021-07-05T12:35:51Z</time>
      </trkpt>
      <trkpt lat="43.24796" lon="-1.06829">
        <ele>127.4987</ele>
        <time>2021-07-05T12:36:02Z</time>
      </trkpt>
      <trkpt lat="43.24645" lon="-1.07097">
        <ele>126.4137</ele>
        <time>2021-07-05T12:36:13Z</time>
      </trkpt>
      <trkpt lat="43.24515" lon="-1.07355">
        <ele>125.3435</ele>
        <time>2021-07-05T12:36:24Z</time>
      </trkpt>
      <trkpt lat="43.24386" lon="-1.07607">
        <ele>133.1955</ele>
        <time>2021-07-05T12:36:35Z</time>
      </trkpt>
      <trkpt lat="43.24252" lon="-1.0785">
        <ele>139.7031</ele>
        <time>2021-07-05T12:36:46Z</time>
      </trkpt>
      <trkpt lat="43.24128" lon="-1.08078">
        <ele>141.4562</ele>
        <time>2021-07-05T12:36:57Z</time>
      </trkpt>
      <trkpt lat="43.23994" lon="-1.08339">
        <ele>141.9537</ele>
        <time>2021-07-05T12:37:08Z</time>
      </trkpt>
      <trkpt lat="43.23868" lon="-1.08604">
        <ele>146.2336</ele>
        <time>2021-07-05T12:37:19Z</time>
      </trkpt>
      <trkpt lat="43.23736" lon="-1.08836">
        <ele>146.7224</ele>
        <time>2021-07-05T12:37:30Z</time>
      </trkpt>
      <trkpt lat="43.23612" lon="-1.09066">
        <ele>148.2154</ele>
        <time>2021-07-05T12:37:41Z</time>
      </trkpt>
      <trkpt lat="43.2353" lon="-1.09226">
        <ele>154.7543</ele>
        <time>2021-07-05T12:37:52Z</time>
      </trkpt>
      <trkpt lat="43.23457" lon="-1.09368">
        <ele>152.0577</ele>
        <time>2021-07-05T12:38:03Z</time>
      </trkpt>
      <trkpt lat="43.23386" lon="-1.09502">
        <ele>159.5258</ele>
        <time>2021-07-05T12:38:14Z</time>
      </trkpt>
      <trkpt lat="43.23347" lon="-1.09613">
        <ele>161.4533</ele>
        <time>2021-07-05T12:38:25Z</time>
      </trkpt>
      <trkpt lat="43.23279" lon="-1.09704">
        <ele>158.3072</ele>
        <time>2021-07-05T12:38:36Z</time>
      </trkpt>
      <trkpt lat="43.23203" lon="-1.09848">
        <ele>159.0969</ele>
        <time>2021-07-05T12:38:47Z</time>
      </trkpt>
      <trkpt lat="43.23123" lon="-1.10002">
        <ele>166.7557</ele>
        <time>2021-07-05T12:38:58Z</time>
      </trkpt>
      <trkpt lat="43.2303" lon="-1.10176">
        <ele>169.4367</ele>
        <time>2021-07-05T12:39:09Z</time>
      </trkpt>
      <trkpt lat="43.22905" lon="-1.10389">
        <ele>158.3676</ele>
        <time>2021-07-05T12:39:20Z</time>
      </trkpt>
      <trkpt lat="43.22776" lon="-1.10634">
        <ele>159.2181</ele>
        <time>2021-07-05T12:39:31Z</time>
      </trkpt>
      <trkpt lat="43.22641" lon="-1.10893">
        <ele>156.8407</ele>
        <time>2021-07-05T12:39:42Z</time>
      </trkpt>
      <trkpt lat="43.22514" lon="-1.11139">
        <ele>157.803</ele>
        <time>2021-07-05T12:39:53Z</time>
      </trkpt>
      <trkpt lat="43.22387" lon="-1.11389">
        <ele>163.8356</ele>
        <time>2021-07-05T12:40:04Z</time>
      </trkpt>
      <trkpt lat="43.22257" lon="-1.11637">
        <ele>163.4637</ele>
        <time>2021-07-05T12:40:15Z</time>
      </trkpt>
      <trkpt lat="43.22129" lon="-1.11874">
        <ele>166.1788</ele>
        <time>2021-07-05T12:40:26Z</time>
      </trkpt>
      <trkpt lat="43.21988" lon="-1.12083">
        <ele>169.9245</ele>
        <time>2021-07-05T12:40:37Z</time>
      </trkpt>
      <trkpt lat="43.21814" lon="-1.12277">
        <ele>176.1262</ele>
        <time>2021-07-05T12:40:48Z</time>
      </trkpt>
      <trkpt lat="43.21664" lon="-1.12428">
        <ele>182.4376</ele>
        <time>2021-07-05T12:40:59Z</time>
      </trkpt>
      <trkpt lat="43.21492" lon="-1.12664">
        <ele>193.9792</ele>
        <time>2021-07-05T12:41:10Z</time>
      </trkpt>
      <trkpt lat="43.21369" lon="-1.12954">
        <ele>211.0027</ele>
        <time>2021-07-05T12:41:21Z</time>
      </trkpt>
      <trkpt lat="43.21358" lon="-1.13291">
        <ele>233.5889</ele>
        <time>2021-07-05T12:41:32Z</time>
      </trkpt>
      <trkpt lat="43.21223" lon="-1.13574">
        <ele>252.4668</ele>
        <time>2021-07-05T12:41:43Z</time>
      </trkpt>
      <trkpt lat="43.21061" lon="-1.13739">
        <ele>267.7933</ele>
        <time>2021-07-05T12:41:54Z</time>
      </trkpt>
      <trkpt lat="43.20904" lon="-1.13946">
        <ele>254.5149</ele>
        <time>2021-07-05T12:42:05Z</time>
      </trkpt>
      <trkpt lat="43.20746" lon="-1.14151">
        <ele>242.1546</ele>
        <time>2021-07-05T12:42:16Z</time>
      </trkpt>
      <trkpt lat="43.20593" lon="-1.14403">
        <ele>233.8391</ele>
        <time>2021-07-05T12:42:27Z</time>
      </trkpt>
      <trkpt lat="43.20446" lon="-1.14614">
        <ele>233.8831</ele>
        <time>2021-07-05T12:42:38Z</time>
      </trkpt>
      <trkpt lat="43.20292" lon="-1.14805">
        <ele>233.2627</ele>
        <time>2021-07-05T12:42:49Z</time>
      </trkpt>
      <trkpt lat="43.20117" lon="-1.14973">
        <ele>228.5198</ele>
        <time>2021-07-05T12:43:00Z</time>
      </trkpt>
      <trkpt lat="43.19942" lon="-1.15083">
        <ele>231.2723</ele>
        <time>2021-07-05T12:43:11Z</time>
      </trkpt>
      <trkpt lat="43.1981" lon="-1.15295">
        <ele>232.3592</ele>
        <time>2021-07-05T12:43:22Z</time>
      </trkpt>
      <trkpt lat="43.19758" lon="-1.15598">
        <ele>225.4162</ele>
        <time>2021-07-05T12:43:33Z</time>
      </trkpt>
      <trkpt lat="43.19634" lon="-1.15857">
        <ele>218.8993</ele>
        <time>2021-07-05T12:43:44Z</time>
      </trkpt>
      <trkpt lat="43.19508" lon="-1.1612">
        <ele>207.105</ele>
        <time>2021-07-05T12:43:55Z</time>
      </trkpt>
      <trkpt lat="43.19386" lon="-1.16357">
        <ele>216.6681</ele>
        <time>2021-07-05T12:44:06Z</time>
      </trkpt>
      <trkpt lat="43.19275" lon="-1.16484">
        <ele>229.7036</ele>
        <time>2021-07-05T12:44:17Z</time>
      </trkpt>
      <trkpt lat="43.19158" lon="-1.16508">
        <ele>234.3117</ele>
        <time>2021-07-05T12:44:28Z</time>
      </trkpt>
      <trkpt lat="43.19049" lon="-1.16578">
        <ele>227.2161</ele>
        <time>2021-07-05T12:44:39Z</time>
      </trkpt>
      <trkpt lat="43.18946" lon="-1.16694">
        <ele>222.8679</ele>
        <time>2021-07-05T12:44:50Z</time>
      </trkpt>
      <trkpt lat="43.18845" lon="-1.16805">
        <ele>221.2452</ele>
        <time>2021-07-05T12:45:01Z</time>
      </trkpt>
      <trkpt lat="43.18725" lon="-1.16911">
        <ele>210.9317</ele>
        <time>2021-07-05T12:45:12Z</time>
      </trkpt>
      <trkpt lat="43.18607" lon="-1.17011">
        <ele>202.4328</ele>
        <time>2021-07-05T12:45:23Z</time>
      </trkpt>
      <trkpt lat="43.18482" lon="-1.17117">
        <ele>198.4732</ele>
        <time>2021-07-05T12:45:34Z</time>
      </trkpt>
      <trkpt lat="43.18364" lon="-1.17277">
        <ele>198.7929</ele>
        <time>2021-07-05T12:45:45Z</time>
      </trkpt>
      <trkpt lat="43.18315" lon="-1.17543">
        <ele>203.014</ele>
        <time>2021-07-05T12:45:56Z</time>
      </trkpt>
      <trkpt lat="43.18186" lon="-1.1776">
        <ele>200.1945</ele>
        <time>2021-07-05T12:46:07Z</time>
      </trkpt>
      <trkpt lat="43.17999" lon="-1.17912">
        <ele>204.0498</ele>
        <time>2021-07-05T12:46:18Z</time>
      </trkpt>
      <trkpt lat="43.17832" lon="-1.1805">
        <ele>210.3236</ele>
        <time>2021-07-05T12:46:29Z</time>
      </trkpt>
      <trkpt lat="43.17647" lon="-1.18199">
        <ele>197.0017</ele>
        <time>2021-07-05T12:46:40Z</time>
      </trkpt>
      <trkpt lat="43.17456" lon="-1.1835">
        <ele>190.2263</ele>
        <time>2021-07-05T12:46:51Z</time>
      </trkpt>
      <trkpt lat="43.17264" lon="-1.18504">
        <ele>191.4297</ele>
        <time>2021-07-05T12:47:02Z</time>
      </trkpt>
      <trkpt lat="43.17083" lon="-1.18652">
        <ele>194.0992</ele>
        <time>2021-07-05T12:47:13Z</time>
      </trkpt>
      <trkpt lat="43.1693" lon="-1.1884">
        <ele>197.2784</ele>
        <time>2021-07-05T12:47:24Z</time>
      </trkpt>
      <trkpt lat="43.16882" lon="-1.19116">
        <ele>207.3276</ele>
        <time>2021-07-05T12:47:35Z</time>
      </trkpt>
      <trkpt lat="43.16851" lon="-1.19426">
        <ele>206.7628</ele>
        <time>2021-07-05T12:47:46Z</time>
      </trkpt>
      <trkpt lat="43.16833" lon="-1.19749">
        <ele>198.9492</ele>
        <time>2021-07-05T12:47:57Z</time>
      </trkpt>
      <trkpt lat="43.16768" lon="-1.20023">
        <ele>198.811</ele>
        <time>2021-07-05T12:48:08Z</time>
      </trkpt>
      <trkpt lat="43.16702" lon="-1.20267">
        <ele>191.9491</ele>
        <time>2021-07-05T12:48:19Z</time>
      </trkpt>
      <trkpt lat="43.16619" lon="-1.20377">
        <ele>185.7857</ele>
        <time>2021-07-05T12:48:30Z</time>
      </trkpt>
      <trkpt lat="43.1662" lon="-1.20514">
        <ele>184.8203</ele>
        <time>2021-07-05T12:48:41Z</time>
      </trkpt>
      <trkpt lat="43.16642" lon="-1.20704">
        <ele>186.8499</ele>
        <time>2021-07-05T12:48:52Z</time>
      </trkpt>
      <trkpt lat="43.16666" lon="-1.20932">
        <ele>188.8022</ele>
        <time>2021-07-05T12:49:03Z</time>
      </trkpt>
      <trkpt lat="43.16691" lon="-1.21169">
        <ele>184.4119</ele>
        <time>2021-07-05T12:49:14Z</time>
      </trkpt>
      <trkpt lat="43.16715" lon="-1.21394">
        <ele>180.8234</ele>
        <time>2021-07-05T12:49:25Z</time>
      </trkpt>
      <trkpt lat="43.1674" lon="-1.216">
        <ele>175.6646</ele>
        <time>2021-07-05T12:49:36Z</time>
      </trkpt>
      <trkpt lat="43.16759" lon="-1.21796">
        <ele>176.4527</ele>
        <time>2021-07-05T12:49:47Z</time>
      </trkpt>
      <trkpt lat="43.16785" lon="-1.22025">
        <ele>175.0684</ele>
        <time>2021-07-05T12:49:58Z</time>
      </trkpt>
      <trkpt lat="43.16812" lon="-1.22267">
        <ele>173.0219</ele>
        <time>2021-07-05T12:50:09Z</time>
      </trkpt>
      <trkpt lat="43.16835" lon="-1.22474">
        <ele>173.1025</ele>
        <time>2021-07-05T12:50:20Z</time>
      </trkpt>
      <trkpt lat="43.16857" lon="-1.22652">
        <ele>170.6865</ele>
        <time>2021-07-05T12:50:31Z</time>
      </trkpt>
      <trkpt lat="43.16874" lon="-1.22811">
        <ele>171.0922</ele>
        <time>2021-07-05T12:50:42Z</time>
      </trkpt>
      <trkpt lat="43.16839" lon="-1.228">
        <ele>172.8528</ele>
        <time>2021-07-05T12:50:53Z</time>
      </trkpt>
      <trkpt lat="43.16845" lon="-1.22799">
        <ele>172.8343</ele>
        <time>2021-07-05T12:51:04Z</time>
      </trkpt>
      <trkpt lat="43.16847" lon="-1.22795">
        <ele>172.4655</ele>
        <time>2021-07-05T12:51:15Z</time>
      </trkpt>
      <trkpt lat="43.16848" lon="-1.22799">
        <ele>175.6859</ele>
        <time>2021-07-05T12:52:15Z</time>
      </trkpt>
      <trkpt lat="43.16845" lon="-1.22796">
        <ele>174.2579</ele>
        <time>2021-07-05T12:52:42Z</time>
      </trkpt>
      <trkpt lat="43.16847" lon="-1.22797">
        <ele>178.9307</ele>
        <time>2021-07-05T12:53:41Z</time>
      </trkpt>
      <trkpt lat="43.1685" lon="-1.22801">
        <ele>176.6375</ele>
        <time>2021-07-05T12:53:52Z</time>
      </trkpt>
      <trkpt lat="43.16849" lon="-1.22798">
        <ele>173.2594</ele>
        <time>2021-07-05T12:54:52Z</time>
      </trkpt>
      <trkpt lat="43.1685" lon="-1.228">
        <ele>169.5353</ele>
        <time>2021-07-05T12:55:51Z</time>
      </trkpt>
      <trkpt lat="43.16852" lon="-1.22805">
        <ele>173.809</ele>
        <time>2021-07-05T12:56:21Z</time>
      </trkpt>
      <trkpt lat="43.16862" lon="-1.22813">
        <ele>173.9202</ele>
        <time>2021-07-05T12:56:32Z</time>
      </trkpt>
      <trkpt lat="43.16889" lon="-1.22952">
        <ele>171.676</ele>
        <time>2021-07-05T12:56:43Z</time>
      </trkpt>
      <trkpt lat="43.16892" lon="-1.23152">
        <ele>169.5534</ele>
        <time>2021-07-05T12:56:54Z</time>
      </trkpt>
      <trkpt lat="43.16833" lon="-1.23279">
        <ele>164.6488</ele>
        <time>2021-07-05T12:57:05Z</time>
      </trkpt>
      <trkpt lat="43.16705" lon="-1.23329">
        <ele>164.3739</ele>
        <time>2021-07-05T12:57:16Z</time>
      </trkpt>
      <trkpt lat="43.16596" lon="-1.23377">
        <ele>164.9073</ele>
        <time>2021-07-05T12:57:27Z</time>
      </trkpt>
      <trkpt lat="43.16509" lon="-1.23409">
        <ele>166.9163</ele>
        <time>2021-07-05T12:57:38Z</time>
      </trkpt>
      <trkpt lat="43.1643" lon="-1.23497">
        <ele>172.421</ele>
        <time>2021-07-05T12:57:49Z</time>
      </trkpt>
      <trkpt lat="43.16412" lon="-1.23601">
        <ele>176.4375</ele>
        <time>2021-07-05T12:58:00Z</time>
      </trkpt>
      <trkpt lat="43.16401" lon="-1.23623">
        <ele>177.1568</ele>
        <time>2021-07-05T12:58:11Z</time>
      </trkpt>
      <trkpt lat="43.16379" lon="-1.23685">
        <ele>180.5348</ele>
        <time>2021-07-05T12:58:22Z</time>
      </trkpt>
      <trkpt lat="43.1634" lon="-1.23739">
        <ele>178.0317</ele>
        <time>2021-07-05T12:58:33Z</time>
      </trkpt>
      <trkpt lat="43.16259" lon="-1.23826">
        <ele>171.5866</ele>
        <time>2021-07-05T12:58:44Z</time>
      </trkpt>
      <trkpt lat="43.16202" lon="-1.23878">
        <ele>174.9001</ele>
        <time>2021-07-05T12:58:55Z</time>
      </trkpt>
      <trkpt lat="43.16227" lon="-1.23919">
        <ele>177.495</ele>
        <time>2021-07-05T12:59:06Z</time>
      </trkpt>
      <trkpt lat="43.16281" lon="-1.23985">
        <ele>170.0826</ele>
        <time>2021-07-05T12:59:17Z</time>
      </trkpt>
      <trkpt lat="43.16302" lon="-1.24039">
        <ele>170.655</ele>
        <time>2021-07-05T12:59:28Z</time>
      </trkpt>
      <trkpt lat="43.16345" lon="-1.24163">
        <ele>171.0882</ele>
        <time>2021-07-05T12:59:39Z</time>
      </trkpt>
      <trkpt lat="43.16305" lon="-1.24346">
        <ele>178.7949</ele>
        <time>2021-07-05T12:59:50Z</time>
      </trkpt>
      <trkpt lat="43.16225" lon="-1.24478">
        <ele>185.1874</ele>
        <time>2021-07-05T13:00:01Z</time>
      </trkpt>
      <trkpt lat="43.16071" lon="-1.24458">
        <ele>189.8875</ele>
        <time>2021-07-05T13:00:12Z</time>
      </trkpt>
      <trkpt lat="43.15919" lon="-1.24535">
        <ele>192.7411</ele>
        <time>2021-07-05T13:00:23Z</time>
      </trkpt>
      <trkpt lat="43.15844" lon="-1.24724">
        <ele>190.3906</ele>
        <time>2021-07-05T13:00:34Z</time>
      </trkpt>
      <trkpt lat="43.15769" lon="-1.24874">
        <ele>185.6173</ele>
        <time>2021-07-05T13:00:45Z</time>
      </trkpt>
      <trkpt lat="43.15634" lon="-1.24925">
        <ele>179.4682</ele>
        <time>2021-07-05T13:00:56Z</time>
      </trkpt>
      <trkpt lat="43.15494" lon="-1.24927">
        <ele>173.4614</ele>
        <time>2021-07-05T13:01:07Z</time>
      </trkpt>
      <trkpt lat="43.15345" lon="-1.25005">
        <ele>173.508</ele>
        <time>2021-07-05T13:01:18Z</time>
      </trkpt>
      <trkpt lat="43.1519" lon="-1.25174">
        <ele>175.8603</ele>
        <time>2021-07-05T13:01:29Z</time>
      </trkpt>
      <trkpt lat="43.15058" lon="-1.25314">
        <ele>180.4816</ele>
        <time>2021-07-05T13:01:40Z</time>
      </trkpt>
      <trkpt lat="43.14934" lon="-1.25383">
        <ele>184.2269</ele>
        <time>2021-07-05T13:01:51Z</time>
      </trkpt>
      <trkpt lat="43.14778" lon="-1.25474">
        <ele>183.1774</ele>
        <time>2021-07-05T13:02:02Z</time>
      </trkpt>
      <trkpt lat="43.14643" lon="-1.25599">
        <ele>189.3536</ele>
        <time>2021-07-05T13:02:13Z</time>
      </trkpt>
      <trkpt lat="43.14535" lon="-1.2571">
        <ele>189.9779</ele>
        <time>2021-07-05T13:02:24Z</time>
      </trkpt>
      <trkpt lat="43.14497" lon="-1.25903">
        <ele>186.26</ele>
        <time>2021-07-05T13:02:35Z</time>
      </trkpt>
      <trkpt lat="43.14403" lon="-1.26053">
        <ele>190.9978</ele>
        <time>2021-07-05T13:02:46Z</time>
      </trkpt>
      <trkpt lat="43.14201" lon="-1.26195">
        <ele>192.354</ele>
        <time>2021-07-05T13:02:57Z</time>
      </trkpt>
      <trkpt lat="43.1398" lon="-1.26166">
        <ele>199.4096</ele>
        <time>2021-07-05T13:03:08Z</time>
      </trkpt>
      <trkpt lat="43.13787" lon="-1.26312">
        <ele>199.4858</ele>
        <time>2021-07-05T13:03:19Z</time>
      </trkpt>
      <trkpt lat="43.13602" lon="-1.26449">
        <ele>203.2018</ele>
        <time>2021-07-05T13:03:30Z</time>
      </trkpt>
      <trkpt lat="43.13485" lon="-1.26607">
        <ele>215.7363</ele>
        <time>2021-07-05T13:03:41Z</time>
      </trkpt>
      <trkpt lat="43.13328" lon="-1.26685">
        <ele>217.0232</ele>
        <time>2021-07-05T13:03:52Z</time>
      </trkpt>
      <trkpt lat="43.13123" lon="-1.26658">
        <ele>212.4701</ele>
        <time>2021-07-05T13:04:03Z</time>
      </trkpt>
      <trkpt lat="43.12972" lon="-1.2669">
        <ele>215.7518</ele>
        <time>2021-07-05T13:04:14Z</time>
      </trkpt>
      <trkpt lat="43.12848" lon="-1.26806">
        <ele>212.0387</ele>
        <time>2021-07-05T13:04:25Z</time>
      </trkpt>
      <trkpt lat="43.12696" lon="-1.26857">
        <ele>214.249</ele>
        <time>2021-07-05T13:04:36Z</time>
      </trkpt>
      <trkpt lat="43.12546" lon="-1.26923">
        <ele>216.8621</ele>
        <time>2021-07-05T13:04:47Z</time>
      </trkpt>
      <trkpt lat="43.12393" lon="-1.26983">
        <ele>222.6447</ele>
        <time>2021-07-05T13:04:58Z</time>
      </trkpt>
      <trkpt lat="43.12248" lon="-1.27024">
        <ele>223.5969</ele>
        <time>2021-07-05T13:05:09Z</time>
      </trkpt>
      <trkpt lat="43.12101" lon="-1.2696">
        <ele>224.8146</ele>
        <time>2021-07-05T13:05:20Z</time>
      </trkpt>
      <trkpt lat="43.11959" lon="-1.26954">
        <ele>226.1087</ele>
        <time>2021-07-05T13:05:31Z</time>
      </trkpt>
      <trkpt lat="43.11808" lon="-1.26977">
        <ele>224.6225</ele>
        <time>2021-07-05T13:05:42Z</time>
      </trkpt>
      <trkpt lat="43.11686" lon="-1.27023">
        <ele>225.9776</ele>
        <time>2021-07-05T13:05:53Z</time>
      </trkpt>
      <trkpt lat="43.11597" lon="-1.27195">
        <ele>231.0792</ele>
        <time>2021-07-05T13:06:04Z</time>
      </trkpt>
      <trkpt lat="43.1147" lon="-1.27308">
        <ele>236.5542</ele>
        <time>2021-07-05T13:06:15Z</time>
      </trkpt>
      <trkpt lat="43.1134" lon="-1.27413">
        <ele>242.8951</ele>
        <time>2021-07-05T13:06:26Z</time>
      </trkpt>
      <trkpt lat="43.11294" lon="-1.27611">
        <ele>241.5995</ele>
        <time>2021-07-05T13:06:37Z</time>
      </trkpt>
      <trkpt lat="43.11195" lon="-1.2776">
        <ele>242.9393</ele>
        <time>2021-07-05T13:06:48Z</time>
      </trkpt>
      <trkpt lat="43.1108" lon="-1.27879">
        <ele>237.1896</ele>
        <time>2021-07-05T13:06:59Z</time>
      </trkpt>
      <trkpt lat="43.11026" lon="-1.27995">
        <ele>242.2309</ele>
        <time>2021-07-05T13:07:10Z</time>
      </trkpt>
      <trkpt lat="43.10981" lon="-1.28075">
        <ele>245.178</ele>
        <time>2021-07-05T13:07:21Z</time>
      </trkpt>
      <trkpt lat="43.10946" lon="-1.28203">
        <ele>244.4441</ele>
        <time>2021-07-05T13:07:32Z</time>
      </trkpt>
      <trkpt lat="43.10898" lon="-1.28307">
        <ele>251.0455</ele>
        <time>2021-07-05T13:07:43Z</time>
      </trkpt>
      <trkpt lat="43.10745" lon="-1.28497">
        <ele>266.3873</ele>
        <time>2021-07-05T13:07:54Z</time>
      </trkpt>
      <trkpt lat="43.10552" lon="-1.28673">
        <ele>281.6893</ele>
        <time>2021-07-05T13:08:05Z</time>
      </trkpt>
      <trkpt lat="43.10425" lon="-1.28965">
        <ele>290.8864</ele>
        <time>2021-07-05T13:08:16Z</time>
      </trkpt>
      <trkpt lat="43.10223" lon="-1.29076">
        <ele>292.094</ele>
        <time>2021-07-05T13:08:27Z</time>
      </trkpt>
      <trkpt lat="43.10116" lon="-1.29271">
        <ele>295.4593</ele>
        <time>2021-07-05T13:08:38Z</time>
      </trkpt>
      <trkpt lat="43.09932" lon="-1.29337">
        <ele>301.2229</ele>
        <time>2021-07-05T13:08:49Z</time>
      </trkpt>
      <trkpt lat="43.09748" lon="-1.29514">
        <ele>292.1476</ele>
        <time>2021-07-05T13:09:00Z</time>
      </trkpt>
      <trkpt lat="43.09794" lon="-1.29683">
        <ele>288.0385</ele>
        <time>2021-07-05T13:09:11Z</time>
      </trkpt>
      <trkpt lat="43.09678" lon="-1.29647">
        <ele>302.0444</ele>
        <time>2021-07-05T13:09:22Z</time>
      </trkpt>
      <trkpt lat="43.09641" lon="-1.29708">
        <ele>312.3796</ele>
        <time>2021-07-05T13:09:33Z</time>
      </trkpt>
      <trkpt lat="43.09663" lon="-1.29741">
        <ele>322.132</ele>
        <time>2021-07-05T13:09:44Z</time>
      </trkpt>
      <trkpt lat="43.09538" lon="-1.29832">
        <ele>331.0779</ele>
        <time>2021-07-05T13:09:55Z</time>
      </trkpt>
      <trkpt lat="43.09423" lon="-1.29899">
        <ele>339.2299</ele>
        <time>2021-07-05T13:10:06Z</time>
      </trkpt>
      <trkpt lat="43.09352" lon="-1.30031">
        <ele>346.08</ele>
        <time>2021-07-05T13:10:17Z</time>
      </trkpt>
      <trkpt lat="43.09292" lon="-1.30182">
        <ele>359.4155</ele>
        <time>2021-07-05T13:10:28Z</time>
      </trkpt>
      <trkpt lat="43.09182" lon="-1.30272">
        <ele>365.8427</ele>
        <time>2021-07-05T13:10:39Z</time>
      </trkpt>
      <trkpt lat="43.09113" lon="-1.30353">
        <ele>370.2786</ele>
        <time>2021-07-05T13:10:50Z</time>
      </trkpt>
      <trkpt lat="43.09015" lon="-1.30277">
        <ele>377.1731</ele>
        <time>2021-07-05T13:11:01Z</time>
      </trkpt>
      <trkpt lat="43.08897" lon="-1.30314">
        <ele>384.0844</ele>
        <time>2021-07-05T13:11:12Z</time>
      </trkpt>
      <trkpt lat="43.08744" lon="-1.30402">
        <ele>392.5187</ele>
        <time>2021-07-05T13:11:23Z</time>
      </trkpt>
      <trkpt lat="43.08567" lon="-1.30424">
        <ele>396.5225</ele>
        <time>2021-07-05T13:11:34Z</time>
      </trkpt>
      <trkpt lat="43.0838" lon="-1.30564">
        <ele>400.0093</ele>
        <time>2021-07-05T13:11:45Z</time>
      </trkpt>
      <trkpt lat="43.08222" lon="-1.30635">
        <ele>395.6861</ele>
        <time>2021-07-05T13:11:56Z</time>
      </trkpt>
      <trkpt lat="43.08065" lon="-1.30647">
        <ele>383.041</ele>
        <time>2021-07-05T13:12:07Z</time>
      </trkpt>
      <trkpt lat="43.07874" lon="-1.306">
        <ele>375.8304</ele>
        <time>2021-07-05T13:12:18Z</time>
      </trkpt>
      <trkpt lat="43.07664" lon="-1.30651">
        <ele>384.5562</ele>
        <time>2021-07-05T13:12:29Z</time>
      </trkpt>
      <trkpt lat="43.07499" lon="-1.30783">
        <ele>397.2428</ele>
        <time>2021-07-05T13:12:40Z</time>
      </trkpt>
      <trkpt lat="43.07307" lon="-1.30946">
        <ele>415.8178</ele>
        <time>2021-07-05T13:12:51Z</time>
      </trkpt>
      <trkpt lat="43.07091" lon="-1.30999">
        <ele>430.1032</ele>
        <time>2021-07-05T13:13:02Z</time>
      </trkpt>
      <trkpt lat="43.06922" lon="-1.31074">
        <ele>440.0819</ele>
        <time>2021-07-05T13:13:13Z</time>
      </trkpt>
      <trkpt lat="43.0675" lon="-1.31069">
        <ele>446.2984</ele>
        <time>2021-07-05T13:13:24Z</time>
      </trkpt>
      <trkpt lat="43.0669" lon="-1.30903">
        <ele>447.7439</ele>
        <time>2021-07-05T13:13:35Z</time>
      </trkpt>
      <trkpt lat="43.06562" lon="-1.3077">
        <ele>446.8674</ele>
        <time>2021-07-05T13:13:46Z</time>
      </trkpt>
      <trkpt lat="43.06383" lon="-1.30786">
        <ele>441.5568</ele>
        <time>2021-07-05T13:13:57Z</time>
      </trkpt>
      <trkpt lat="43.06231" lon="-1.3072">
        <ele>444.6669</ele>
        <time>2021-07-05T13:14:08Z</time>
      </trkpt>
      <trkpt lat="43.06078" lon="-1.30859">
        <ele>446.6447</ele>
        <time>2021-07-05T13:14:19Z</time>
      </trkpt>
      <trkpt lat="43.05916" lon="-1.30982">
        <ele>455.5818</ele>
        <time>2021-07-05T13:14:30Z</time>
      </trkpt>
      <trkpt lat="43.05731" lon="-1.31048">
        <ele>468.964</ele>
        <time>2021-07-05T13:14:41Z</time>
      </trkpt>
      <trkpt lat="43.05618" lon="-1.31168">
        <ele>473.615</ele>
        <time>2021-07-05T13:14:52Z</time>
      </trkpt>
      <trkpt lat="43.05483" lon="-1.31191">
        <ele>487.7925</ele>
        <time>2021-07-05T13:15:03Z</time>
      </trkpt>
      <trkpt lat="43.05378" lon="-1.31443">
        <ele>499.2081</ele>
        <time>2021-07-05T13:15:14Z</time>
      </trkpt>
      <trkpt lat="43.05208" lon="-1.3155">
        <ele>516.8222</ele>
        <time>2021-07-05T13:15:25Z</time>
      </trkpt>
      <trkpt lat="43.05129" lon="-1.3177">
        <ele>527.8627</ele>
        <time>2021-07-05T13:15:36Z</time>
      </trkpt>
      <trkpt lat="43.05059" lon="-1.31961">
        <ele>539.8356</ele>
        <time>2021-07-05T13:15:47Z</time>
      </trkpt>
      <trkpt lat="43.04926" lon="-1.32039">
        <ele>548.1855</ele>
        <time>2021-07-05T13:15:58Z</time>
      </trkpt>
      <trkpt lat="43.04849" lon="-1.32079">
        <ele>556.5869</ele>
        <time>2021-07-05T13:16:09Z</time>
      </trkpt>
      <trkpt lat="43.04721" lon="-1.32178">
        <ele>565.7668</ele>
        <time>2021-07-05T13:16:20Z</time>
      </trkpt>
      <trkpt lat="43.04611" lon="-1.32295">
        <ele>575.4549</ele>
        <time>2021-07-05T13:16:31Z</time>
      </trkpt>
      <trkpt lat="43.04534" lon="-1.32445">
        <ele>583.8654</ele>
        <time>2021-07-05T13:16:42Z</time>
      </trkpt>
      <trkpt lat="43.04468" lon="-1.32631">
        <ele>591.1582</ele>
        <time>2021-07-05T13:16:53Z</time>
      </trkpt>
      <trkpt lat="43.04436" lon="-1.32698">
        <ele>594.7</ele>
        <time>2021-07-05T13:17:04Z</time>
      </trkpt>
      <trkpt lat="43.04434" lon="-1.32693">
        <ele>594.617</ele>
        <time>2021-07-05T13:17:16Z</time>
      </trkpt>
      <trkpt lat="43.04443" lon="-1.32686">
        <ele>600.7518</ele>
        <time>2021-07-05T13:17:27Z</time>
      </trkpt>
      <trkpt lat="43.0444" lon="-1.32681">
        <ele>605.6584</ele>
        <time>2021-07-05T13:17:38Z</time>
      </trkpt>
      <trkpt lat="43.04443" lon="-1.32679">
        <ele>602.8602</ele>
        <time>2021-07-05T13:17:55Z</time>
      </trkpt>
      <trkpt lat="43.0445" lon="-1.32676">
        <ele>603.8044</ele>
        <time>2021-07-05T13:18:06Z</time>
      </trkpt>
      <trkpt lat="43.04446" lon="-1.32678">
        <ele>605.696</ele>
        <time>2021-07-05T13:18:17Z</time>
      </trkpt>
      <trkpt lat="43.04438" lon="-1.32682">
        <ele>600.4129</ele>
        <time>2021-07-05T13:18:28Z</time>
      </trkpt>
      <trkpt lat="43.04436" lon="-1.32686">
        <ele>595.5128</ele>
        <time>2021-07-05T13:18:51Z</time>
      </trkpt>
      <trkpt lat="43.04441" lon="-1.32684">
        <ele>599.8148</ele>
        <time>2021-07-05T13:19:04Z</time>
      </trkpt>
      <trkpt lat="43.04444" lon="-1.3268">
        <ele>604.6701</ele>
        <time>2021-07-05T13:19:15Z</time>
      </trkpt>
      <trkpt lat="43.04446" lon="-1.32681">
        <ele>606.514</ele>
        <time>2021-07-05T13:20:14Z</time>
      </trkpt>
      <trkpt lat="43.04442" lon="-1.3268">
        <ele>606.6004</ele>
        <time>2021-07-05T13:21:05Z</time>
      </trkpt>
      <trkpt lat="43.04444" lon="-1.32675">
        <ele>609.0716</ele>
        <time>2021-07-05T13:21:18Z</time>
      </trkpt>
      <trkpt lat="43.04409" lon="-1.32621">
        <ele>608.751</ele>
        <time>2021-07-05T13:21:29Z</time>
      </trkpt>
      <trkpt lat="43.04273" lon="-1.32742">
        <ele>605.5477</ele>
        <time>2021-07-05T13:21:40Z</time>
      </trkpt>
      <trkpt lat="43.04087" lon="-1.32802">
        <ele>616.6033</ele>
        <time>2021-07-05T13:21:51Z</time>
      </trkpt>
      <trkpt lat="43.03926" lon="-1.32941">
        <ele>632.6589</ele>
        <time>2021-07-05T13:22:02Z</time>
      </trkpt>
      <trkpt lat="43.03812" lon="-1.33019">
        <ele>643.7563</ele>
        <time>2021-07-05T13:22:13Z</time>
      </trkpt>
      <trkpt lat="43.03912" lon="-1.33045">
        <ele>645.9214</ele>
        <time>2021-07-05T13:22:24Z</time>
      </trkpt>
      <trkpt lat="43.04042" lon="-1.32897">
        <ele>658.3406</ele>
        <time>2021-07-05T13:22:35Z</time>
      </trkpt>
      <trkpt lat="43.04251" lon="-1.32904">
        <ele>671.9458</ele>
        <time>2021-07-05T13:22:46Z</time>
      </trkpt>
      <trkpt lat="43.04339" lon="-1.32946">
        <ele>681.3561</ele>
        <time>2021-07-05T13:22:57Z</time>
      </trkpt>
      <trkpt lat="43.04165" lon="-1.32975">
        <ele>692.2317</ele>
        <time>2021-07-05T13:23:08Z</time>
      </trkpt>
      <trkpt lat="43.03965" lon="-1.33141">
        <ele>708.2047</ele>
        <time>2021-07-05T13:23:19Z</time>
      </trkpt>
      <trkpt lat="43.03923" lon="-1.33349">
        <ele>722.7214</ele>
        <time>2021-07-05T13:23:30Z</time>
      </trkpt>
      <trkpt lat="43.0385" lon="-1.33427">
        <ele>735.2616</ele>
        <time>2021-07-05T13:23:41Z</time>
      </trkpt>
      <trkpt lat="43.0377" lon="-1.33524">
        <ele>748.3593</ele>
        <time>2021-07-05T13:23:52Z</time>
      </trkpt>
      <trkpt lat="43.03634" lon="-1.33636">
        <ele>762.5367</ele>
        <time>2021-07-05T13:24:03Z</time>
      </trkpt>
      <trkpt lat="43.0349" lon="-1.3383">
        <ele>778.549</ele>
        <time>2021-07-05T13:24:14Z</time>
      </trkpt>
      <trkpt lat="43.03347" lon="-1.34024">
        <ele>793.3742</ele>
        <time>2021-07-05T13:24:25Z</time>
      </trkpt>
      <trkpt lat="43.03343" lon="-1.34237">
        <ele>805.2198</ele>
        <time>2021-07-05T13:24:36Z</time>
      </trkpt>
      <trkpt lat="43.03236" lon="-1.34192">
        <ele>817.9352</ele>
        <time>2021-07-05T13:24:47Z</time>
      </trkpt>
      <trkpt lat="43.03145" lon="-1.34261">
        <ele>827.1999</ele>
        <time>2021-07-05T13:24:58Z</time>
      </trkpt>
      <trkpt lat="43.03132" lon="-1.34054">
        <ele>837.3476</ele>
        <time>2021-07-05T13:25:09Z</time>
      </trkpt>
      <trkpt lat="43.03119" lon="-1.3384">
        <ele>852.8708</ele>
        <time>2021-07-05T13:25:20Z</time>
      </trkpt>
      <trkpt lat="43.03023" lon="-1.33633">
        <ele>863.017</ele>
        <time>2021-07-05T13:25:31Z</time>
      </trkpt>
      <trkpt lat="43.02909" lon="-1.3347">
        <ele>870.9699</ele>
        <time>2021-07-05T13:25:42Z</time>
      </trkpt>
      <trkpt lat="43.02933" lon="-1.33366">
        <ele>878.0033</ele>
        <time>2021-07-05T13:25:53Z</time>
      </trkpt>
      <trkpt lat="43.02901" lon="-1.33427">
        <ele>882.7402</ele>
        <time>2021-07-05T13:26:04Z</time>
      </trkpt>
      <trkpt lat="43.02873" lon="-1.33539">
        <ele>894.7838</ele>
        <time>2021-07-05T13:26:15Z</time>
      </trkpt>
      <trkpt lat="43.02906" lon="-1.33708">
        <ele>910.751</ele>
        <time>2021-07-05T13:26:26Z</time>
      </trkpt>
      <trkpt lat="43.03004" lon="-1.33903">
        <ele>924.2046</ele>
        <time>2021-07-05T13:26:37Z</time>
      </trkpt>
      <trkpt lat="43.03018" lon="-1.34129">
        <ele>931.2487</ele>
        <time>2021-07-05T13:26:48Z</time>
      </trkpt>
      <trkpt lat="43.02977" lon="-1.33978">
        <ele>936.2272</ele>
        <time>2021-07-05T13:26:59Z</time>
      </trkpt>
      <trkpt lat="43.02897" lon="-1.33795">
        <ele>946.3429</ele>
        <time>2021-07-05T13:27:10Z</time>
      </trkpt>
      <trkpt lat="43.0277" lon="-1.33611">
        <ele>961.4377</ele>
        <time>2021-07-05T13:27:21Z</time>
      </trkpt>
      <trkpt lat="43.02691" lon="-1.33443">
        <ele>972.4101</ele>
        <time>2021-07-05T13:27:32Z</time>
      </trkpt>
      <trkpt lat="43.02639" lon="-1.33228">
        <ele>985.0845</ele>
        <time>2021-07-05T13:27:43Z</time>
      </trkpt>
      <trkpt lat="43.02453" lon="-1.33027">
        <ele>998.6259</ele>
        <time>2021-07-05T13:27:54Z</time>
      </trkpt>
      <trkpt lat="43.02284" lon="-1.33025">
        <ele>1008.636</ele>
        <time>2021-07-05T13:28:05Z</time>
      </trkpt>
      <trkpt lat="43.02292" lon="-1.3277">
        <ele>1022.756</ele>
        <time>2021-07-05T13:28:16Z</time>
      </trkpt>
      <trkpt lat="43.02129" lon="-1.32562">
        <ele>1038.07</ele>
        <time>2021-07-05T13:28:27Z</time>
      </trkpt>
      <trkpt lat="43.01996" lon="-1.3242">
        <ele>1050.691</ele>
        <time>2021-07-05T13:28:38Z</time>
      </trkpt>
      <trkpt lat="43.01813" lon="-1.32341">
        <ele>1038.343</ele>
        <time>2021-07-05T13:28:49Z</time>
      </trkpt>
      <trkpt lat="43.01639" lon="-1.32189">
        <ele>1021.471</ele>
        <time>2021-07-05T13:29:00Z</time>
      </trkpt>
      <trkpt lat="43.01493" lon="-1.31969">
        <ele>1000.168</ele>
        <time>2021-07-05T13:29:11Z</time>
      </trkpt>
      <trkpt lat="43.01302" lon="-1.31934">
        <ele>985.012</ele>
        <time>2021-07-05T13:29:22Z</time>
      </trkpt>
      <trkpt lat="43.01095" lon="-1.31961">
        <ele>973.0852</ele>
        <time>2021-07-05T13:29:33Z</time>
      </trkpt>
      <trkpt lat="43.00976" lon="-1.3211">
        <ele>964.864</ele>
        <time>2021-07-05T13:29:44Z</time>
      </trkpt>
      <trkpt lat="43.00947" lon="-1.32213">
        <ele>961.294</ele>
        <time>2021-07-05T13:29:55Z</time>
      </trkpt>
      <trkpt lat="43.00918" lon="-1.32051">
        <ele>955.6464</ele>
        <time>2021-07-05T13:30:06Z</time>
      </trkpt>
      <trkpt lat="43.00828" lon="-1.31963">
        <ele>946.3055</ele>
        <time>2021-07-05T13:30:17Z</time>
      </trkpt>
      <trkpt lat="43.00659" lon="-1.31927">
        <ele>939.3941</ele>
        <time>2021-07-05T13:30:28Z</time>
      </trkpt>
      <trkpt lat="43.0044" lon="-1.31951">
        <ele>932.1622</ele>
        <time>2021-07-05T13:30:39Z</time>
      </trkpt>
      <trkpt lat="43.00226" lon="-1.32138">
        <ele>925.6309</ele>
        <time>2021-07-05T13:30:50Z</time>
      </trkpt>
      <trkpt lat="43.00052" lon="-1.3231">
        <ele>919.9597</ele>
        <time>2021-07-05T13:31:01Z</time>
      </trkpt>
      <trkpt lat="42.99884" lon="-1.32476">
        <ele>916.4986</ele>
        <time>2021-07-05T13:31:12Z</time>
      </trkpt>
      <trkpt lat="42.99733" lon="-1.32623">
        <ele>913.3777</ele>
        <time>2021-07-05T13:31:23Z</time>
      </trkpt>
      <trkpt lat="42.99573" lon="-1.32782">
        <ele>904.6626</ele>
        <time>2021-07-05T13:31:34Z</time>
      </trkpt>
      <trkpt lat="42.99433" lon="-1.32918">
        <ele>901.6025</ele>
        <time>2021-07-05T13:31:45Z</time>
      </trkpt>
      <trkpt lat="42.99317" lon="-1.33033">
        <ele>899.0057</ele>
        <time>2021-07-05T13:31:56Z</time>
      </trkpt>
      <trkpt lat="42.99205" lon="-1.33189">
        <ele>893.6421</ele>
        <time>2021-07-05T13:32:07Z</time>
      </trkpt>
      <trkpt lat="42.99129" lon="-1.33369">
        <ele>894.3665</ele>
        <time>2021-07-05T13:32:18Z</time>
      </trkpt>
      <trkpt lat="42.99059" lon="-1.33496">
        <ele>893.8012</ele>
        <time>2021-07-05T13:32:29Z</time>
      </trkpt>
      <trkpt lat="42.98949" lon="-1.33582">
        <ele>893.888</ele>
        <time>2021-07-05T13:32:40Z</time>
      </trkpt>
      <trkpt lat="42.9884" lon="-1.33655">
        <ele>892.578</ele>
        <time>2021-07-05T13:32:51Z</time>
      </trkpt>
      <trkpt lat="42.98723" lon="-1.33712">
        <ele>889.602</ele>
        <time>2021-07-05T13:33:02Z</time>
      </trkpt>
      <trkpt lat="42.98594" lon="-1.33833">
        <ele>886.4619</ele>
        <time>2021-07-05T13:33:13Z</time>
      </trkpt>
      <trkpt lat="42.98455" lon="-1.34003">
        <ele>878.6225</ele>
        <time>2021-07-05T13:33:24Z</time>
      </trkpt>
      <trkpt lat="42.98303" lon="-1.34189">
        <ele>876.6213</ele>
        <time>2021-07-05T13:33:35Z</time>
      </trkpt>
      <trkpt lat="42.98126" lon="-1.34404">
        <ele>881.234</ele>
        <time>2021-07-05T13:33:46Z</time>
      </trkpt>
      <trkpt lat="42.97955" lon="-1.34592">
        <ele>876.0199</ele>
        <time>2021-07-05T13:33:57Z</time>
      </trkpt>
      <trkpt lat="42.9779" lon="-1.34774">
        <ele>871.8706</ele>
        <time>2021-07-05T13:34:08Z</time>
      </trkpt>
      <trkpt lat="42.9762" lon="-1.34958">
        <ele>867.2684</ele>
        <time>2021-07-05T13:34:19Z</time>
      </trkpt>
      <trkpt lat="42.97453" lon="-1.35143">
        <ele>868.8696</ele>
        <time>2021-07-05T13:34:30Z</time>
      </trkpt>
      <trkpt lat="42.97286" lon="-1.35327">
        <ele>870.2817</ele>
        <time>2021-07-05T13:34:41Z</time>
      </trkpt>
      <trkpt lat="42.97343" lon="-1.35533">
        <ele>878.4209</ele>
        <time>2021-07-05T13:34:52Z</time>
      </trkpt>
      <trkpt lat="42.97499" lon="-1.35725">
        <ele>866.7085</ele>
        <time>2021-07-05T13:35:03Z</time>
      </trkpt>
      <trkpt lat="42.97619" lon="-1.35994">
        <ele>853.5602</ele>
        <time>2021-07-05T13:35:14Z</time>
      </trkpt>
      <trkpt lat="42.97731" lon="-1.36256">
        <ele>860.0989</ele>
        <time>2021-07-05T13:35:25Z</time>
      </trkpt>
      <trkpt lat="42.97827" lon="-1.3649">
        <ele>873.813</ele>
        <time>2021-07-05T13:35:36Z</time>
      </trkpt>
      <trkpt lat="42.97873" lon="-1.36678">
        <ele>875.0949</ele>
        <time>2021-07-05T13:35:47Z</time>
      </trkpt>
      <trkpt lat="42.9789" lon="-1.36839">
        <ele>870.1685</ele>
        <time>2021-07-05T13:35:58Z</time>
      </trkpt>
      <trkpt lat="42.97919" lon="-1.36978">
        <ele>867.7682</ele>
        <time>2021-07-05T13:36:09Z</time>
      </trkpt>
      <trkpt lat="42.97949" lon="-1.37093">
        <ele>869.2059</ele>
        <time>2021-07-05T13:36:20Z</time>
      </trkpt>
      <trkpt lat="42.97979" lon="-1.37199">
        <ele>872.0343</ele>
        <time>2021-07-05T13:36:31Z</time>
      </trkpt>
      <trkpt lat="42.98016" lon="-1.37311">
        <ele>875.1125</ele>
        <time>2021-07-05T13:36:42Z</time>
      </trkpt>
      <trkpt lat="42.98102" lon="-1.37416">
        <ele>872.7279</ele>
        <time>2021-07-05T13:36:53Z</time>
      </trkpt>
      <trkpt lat="42.98194" lon="-1.37518">
        <ele>873.3009</ele>
        <time>2021-07-05T13:37:04Z</time>
      </trkpt>
      <trkpt lat="42.98188" lon="-1.37701">
        <ele>874.9969</ele>
        <time>2021-07-05T13:37:15Z</time>
      </trkpt>
      <trkpt lat="42.98166" lon="-1.37974">
        <ele>874.2973</ele>
        <time>2021-07-05T13:37:26Z</time>
      </trkpt>
      <trkpt lat="42.98196" lon="-1.38187">
        <ele>882.9063</ele>
        <time>2021-07-05T13:37:37Z</time>
      </trkpt>
      <trkpt lat="42.98156" lon="-1.38376">
        <ele>893.6535</ele>
        <time>2021-07-05T13:37:48Z</time>
      </trkpt>
      <trkpt lat="42.98074" lon="-1.38558">
        <ele>902.5095</ele>
        <time>2021-07-05T13:37:59Z</time>
      </trkpt>
      <trkpt lat="42.9818" lon="-1.38636">
        <ele>909.9155</ele>
        <time>2021-07-05T13:38:10Z</time>
      </trkpt>
      <trkpt lat="42.98036" lon="-1.38637">
        <ele>916.8088</ele>
        <time>2021-07-05T13:38:21Z</time>
      </trkpt>
      <trkpt lat="42.97978" lon="-1.38719">
        <ele>919.4917</ele>
        <time>2021-07-05T13:38:32Z</time>
      </trkpt>
      <trkpt lat="42.9799" lon="-1.38784">
        <ele>919.0774</ele>
        <time>2021-07-05T13:38:43Z</time>
      </trkpt>
      <trkpt lat="42.97807" lon="-1.38777">
        <ele>903.5508</ele>
        <time>2021-07-05T13:38:54Z</time>
      </trkpt>
      <trkpt lat="42.97646" lon="-1.38741">
        <ele>888.6754</ele>
        <time>2021-07-05T13:39:05Z</time>
      </trkpt>
      <trkpt lat="42.97597" lon="-1.38755">
        <ele>879.6504</ele>
        <time>2021-07-05T13:39:16Z</time>
      </trkpt>
      <trkpt lat="42.97715" lon="-1.38874">
        <ele>869.0483</ele>
        <time>2021-07-05T13:39:27Z</time>
      </trkpt>
      <trkpt lat="42.97772" lon="-1.39071">
        <ele>862.1057</ele>
        <time>2021-07-05T13:39:38Z</time>
      </trkpt>
      <trkpt lat="42.97797" lon="-1.39227">
        <ele>848.9683</ele>
        <time>2021-07-05T13:39:49Z</time>
      </trkpt>
      <trkpt lat="42.97745" lon="-1.39461">
        <ele>833.9129</ele>
        <time>2021-07-05T13:40:00Z</time>
      </trkpt>
      <trkpt lat="42.97681" lon="-1.39693">
        <ele>822.5358</ele>
        <time>2021-07-05T13:40:11Z</time>
      </trkpt>
      <trkpt lat="42.97665" lon="-1.39852">
        <ele>812.6665</ele>
        <time>2021-07-05T13:40:22Z</time>
      </trkpt>
      <trkpt lat="42.97537" lon="-1.39882">
        <ele>807.8966</ele>
        <time>2021-07-05T13:40:33Z</time>
      </trkpt>
      <trkpt lat="42.97366" lon="-1.4001">
        <ele>790.0979</ele>
        <time>2021-07-05T13:40:44Z</time>
      </trkpt>
      <trkpt lat="42.97134" lon="-1.40094">
        <ele>775.7793</ele>
        <time>2021-07-05T13:40:55Z</time>
      </trkpt>
      <trkpt lat="42.96966" lon="-1.40071">
        <ele>764.732</ele>
        <time>2021-07-05T13:41:06Z</time>
      </trkpt>
      <trkpt lat="42.96851" lon="-1.4023">
        <ele>761.2273</ele>
        <time>2021-07-05T13:41:17Z</time>
      </trkpt>
      <trkpt lat="42.96947" lon="-1.40457">
        <ele>755.596</ele>
        <time>2021-07-05T13:41:28Z</time>
      </trkpt>
      <trkpt lat="42.97076" lon="-1.40631">
        <ele>749.7737</ele>
        <time>2021-07-05T13:41:39Z</time>
      </trkpt>
      <trkpt lat="42.9709" lon="-1.40886">
        <ele>760.7332</ele>
        <time>2021-07-05T13:41:50Z</time>
      </trkpt>
      <trkpt lat="42.96965" lon="-1.41081">
        <ele>772.0985</ele>
        <time>2021-07-05T13:42:01Z</time>
      </trkpt>
      <trkpt lat="42.9701" lon="-1.41196">
        <ele>779.3862</ele>
        <time>2021-07-05T13:42:12Z</time>
      </trkpt>
      <trkpt lat="42.96967" lon="-1.41409">
        <ele>777.2611</ele>
        <time>2021-07-05T13:42:23Z</time>
      </trkpt>
      <trkpt lat="42.96876" lon="-1.41635">
        <ele>771.7963</ele>
        <time>2021-07-05T13:42:34Z</time>
      </trkpt>
      <trkpt lat="42.96801" lon="-1.4185">
        <ele>776.1067</ele>
        <time>2021-07-05T13:42:45Z</time>
      </trkpt>
      <trkpt lat="42.96824" lon="-1.4205">
        <ele>771.7597</ele>
        <time>2021-07-05T13:42:56Z</time>
      </trkpt>
      <trkpt lat="42.96754" lon="-1.42249">
        <ele>779.2053</ele>
        <time>2021-07-05T13:43:07Z</time>
      </trkpt>
      <trkpt lat="42.96749" lon="-1.42453">
        <ele>773.243</ele>
        <time>2021-07-05T13:43:18Z</time>
      </trkpt>
      <trkpt lat="42.96689" lon="-1.42696">
        <ele>761.73</ele>
        <time>2021-07-05T13:43:29Z</time>
      </trkpt>
      <trkpt lat="42.96555" lon="-1.42928">
        <ele>751.4402</ele>
        <time>2021-07-05T13:43:40Z</time>
      </trkpt>
      <trkpt lat="42.96404" lon="-1.43151">
        <ele>739.0756</ele>
        <time>2021-07-05T13:43:51Z</time>
      </trkpt>
      <trkpt lat="42.96198" lon="-1.43258">
        <ele>727.7411</ele>
        <time>2021-07-05T13:44:02Z</time>
      </trkpt>
      <trkpt lat="42.95993" lon="-1.43343">
        <ele>720.8746</ele>
        <time>2021-07-05T13:44:13Z</time>
      </trkpt>
      <trkpt lat="42.95786" lon="-1.43355">
        <ele>715.8315</ele>
        <time>2021-07-05T13:44:24Z</time>
      </trkpt>
      <trkpt lat="42.95576" lon="-1.43206">
        <ele>710.5373</ele>
        <time>2021-07-05T13:44:35Z</time>
      </trkpt>
      <trkpt lat="42.95378" lon="-1.43102">
        <ele>708.4961</ele>
        <time>2021-07-05T13:44:46Z</time>
      </trkpt>
      <trkpt lat="42.95151" lon="-1.43116">
        <ele>706.0489</ele>
        <time>2021-07-05T13:44:57Z</time>
      </trkpt>
      <trkpt lat="42.94971" lon="-1.43237">
        <ele>693.3302</ele>
        <time>2021-07-05T13:45:08Z</time>
      </trkpt>
      <trkpt lat="42.94844" lon="-1.43502">
        <ele>690.15</ele>
        <time>2021-07-05T13:45:19Z</time>
      </trkpt>
      <trkpt lat="42.94624" lon="-1.43662">
        <ele>688.3286</ele>
        <time>2021-07-05T13:45:30Z</time>
      </trkpt>
      <trkpt lat="42.94493" lon="-1.43931">
        <ele>676.8562</ele>
        <time>2021-07-05T13:45:41Z</time>
      </trkpt>
      <trkpt lat="42.94392" lon="-1.44182">
        <ele>681.4146</ele>
        <time>2021-07-05T13:45:52Z</time>
      </trkpt>
      <trkpt lat="42.94316" lon="-1.44422">
        <ele>671.6351</ele>
        <time>2021-07-05T13:46:03Z</time>
      </trkpt>
      <trkpt lat="42.94262" lon="-1.44639">
        <ele>663.6483</ele>
        <time>2021-07-05T13:46:14Z</time>
      </trkpt>
      <trkpt lat="42.94246" lon="-1.44839">
        <ele>656.5647</ele>
        <time>2021-07-05T13:46:25Z</time>
      </trkpt>
      <trkpt lat="42.94164" lon="-1.4492">
        <ele>665.1016</ele>
        <time>2021-07-05T13:46:36Z</time>
      </trkpt>
      <trkpt lat="42.94071" lon="-1.44993">
        <ele>667.3967</ele>
        <time>2021-07-05T13:46:47Z</time>
      </trkpt>
      <trkpt lat="42.94142" lon="-1.45169">
        <ele>663.9152</ele>
        <time>2021-07-05T13:46:58Z</time>
      </trkpt>
      <trkpt lat="42.94061" lon="-1.45347">
        <ele>670.613</ele>
        <time>2021-07-05T13:47:09Z</time>
      </trkpt>
      <trkpt lat="42.93923" lon="-1.45502">
        <ele>679.2989</ele>
        <time>2021-07-05T13:47:20Z</time>
      </trkpt>
      <trkpt lat="42.93911" lon="-1.45598">
        <ele>688.5894</ele>
        <time>2021-07-05T13:47:31Z</time>
      </trkpt>
      <trkpt lat="42.93876" lon="-1.45827">
        <ele>701.7946</ele>
        <time>2021-07-05T13:47:42Z</time>
      </trkpt>
      <trkpt lat="42.93843" lon="-1.45943">
        <ele>710.9787</ele>
        <time>2021-07-05T13:47:53Z</time>
      </trkpt>
      <trkpt lat="42.93976" lon="-1.46067">
        <ele>720.149</ele>
        <time>2021-07-05T13:48:04Z</time>
      </trkpt>
      <trkpt lat="42.94173" lon="-1.46153">
        <ele>732.9916</ele>
        <time>2021-07-05T13:48:15Z</time>
      </trkpt>
      <trkpt lat="42.942" lon="-1.46252">
        <ele>741.4496</ele>
        <time>2021-07-05T13:48:26Z</time>
      </trkpt>
      <trkpt lat="42.94132" lon="-1.46424">
        <ele>752.294</ele>
        <time>2021-07-05T13:48:37Z</time>
      </trkpt>
      <trkpt lat="42.94352" lon="-1.46502">
        <ele>763.0904</ele>
        <time>2021-07-05T13:48:48Z</time>
      </trkpt>
      <trkpt lat="42.94406" lon="-1.46659">
        <ele>768.7393</ele>
        <time>2021-07-05T13:48:59Z</time>
      </trkpt>
      <trkpt lat="42.94376" lon="-1.46822">
        <ele>784.1074</ele>
        <time>2021-07-05T13:49:10Z</time>
      </trkpt>
      <trkpt lat="42.94195" lon="-1.46845">
        <ele>791.7512</ele>
        <time>2021-07-05T13:49:21Z</time>
      </trkpt>
      <trkpt lat="42.9416" lon="-1.47058">
        <ele>801.1911</ele>
        <time>2021-07-05T13:49:32Z</time>
      </trkpt>
      <trkpt lat="42.94338" lon="-1.4706">
        <ele>789.1596</ele>
        <time>2021-07-05T13:49:43Z</time>
      </trkpt>
      <trkpt lat="42.94512" lon="-1.47023">
        <ele>773.5441</ele>
        <time>2021-07-05T13:49:54Z</time>
      </trkpt>
      <trkpt lat="42.9467" lon="-1.46987">
        <ele>765.2533</ele>
        <time>2021-07-05T13:50:05Z</time>
      </trkpt>
      <trkpt lat="42.94764" lon="-1.47084">
        <ele>758.2363</ele>
        <time>2021-07-05T13:50:16Z</time>
      </trkpt>
      <trkpt lat="42.94696" lon="-1.47319">
        <ele>745.5424</ele>
        <time>2021-07-05T13:50:27Z</time>
      </trkpt>
      <trkpt lat="42.94655" lon="-1.47519">
        <ele>733.1083</ele>
        <time>2021-07-05T13:50:38Z</time>
      </trkpt>
      <trkpt lat="42.94578" lon="-1.47684">
        <ele>725.2287</ele>
        <time>2021-07-05T13:50:49Z</time>
      </trkpt>
      <trkpt lat="42.94661" lon="-1.47814">
        <ele>716.9469</ele>
        <time>2021-07-05T13:51:00Z</time>
      </trkpt>
      <trkpt lat="42.94563" lon="-1.47783">
        <ele>713.4241</ele>
        <time>2021-07-05T13:51:11Z</time>
      </trkpt>
      <trkpt lat="42.94532" lon="-1.47732">
        <ele>705.8005</ele>
        <time>2021-07-05T13:51:22Z</time>
      </trkpt>
      <trkpt lat="42.94652" lon="-1.47882">
        <ele>696.6736</ele>
        <time>2021-07-05T13:51:33Z</time>
      </trkpt>
      <trkpt lat="42.94786" lon="-1.4788">
        <ele>686.3639</ele>
        <time>2021-07-05T13:51:44Z</time>
      </trkpt>
      <trkpt lat="42.94915" lon="-1.47794">
        <ele>676.1716</ele>
        <time>2021-07-05T13:51:55Z</time>
      </trkpt>
      <trkpt lat="42.94974" lon="-1.47865">
        <ele>667.5621</ele>
        <time>2021-07-05T13:52:06Z</time>
      </trkpt>
      <trkpt lat="42.94989" lon="-1.48105">
        <ele>655.0578</ele>
        <time>2021-07-05T13:52:17Z</time>
      </trkpt>
      <trkpt lat="42.9489" lon="-1.48292">
        <ele>643.2934</ele>
        <time>2021-07-05T13:52:28Z</time>
      </trkpt>
      <trkpt lat="42.94802" lon="-1.48405">
        <ele>634.9938</ele>
        <time>2021-07-05T13:52:39Z</time>
      </trkpt>
      <trkpt lat="42.94808" lon="-1.48504">
        <ele>622.2252</ele>
        <time>2021-07-05T13:52:50Z</time>
      </trkpt>
      <trkpt lat="42.9478" lon="-1.48671">
        <ele>613.6477</ele>
        <time>2021-07-05T13:53:01Z</time>
      </trkpt>
      <trkpt lat="42.94641" lon="-1.48728">
        <ele>602.9588</ele>
        <time>2021-07-05T13:53:12Z</time>
      </trkpt>
      <trkpt lat="42.94634" lon="-1.48865">
        <ele>594.4983</ele>
        <time>2021-07-05T13:53:23Z</time>
      </trkpt>
      <trkpt lat="42.9455" lon="-1.48936">
        <ele>590.0373</ele>
        <time>2021-07-05T13:53:34Z</time>
      </trkpt>
      <trkpt lat="42.94565" lon="-1.49111">
        <ele>581.1096</ele>
        <time>2021-07-05T13:53:45Z</time>
      </trkpt>
      <trkpt lat="42.94447" lon="-1.49299">
        <ele>570.4727</ele>
        <time>2021-07-05T13:53:56Z</time>
      </trkpt>
      <trkpt lat="42.94343" lon="-1.49466">
        <ele>566.6514</ele>
        <time>2021-07-05T13:54:07Z</time>
      </trkpt>
      <trkpt lat="42.9415" lon="-1.49499">
        <ele>560.5042</ele>
        <time>2021-07-05T13:54:18Z</time>
      </trkpt>
      <trkpt lat="42.94014" lon="-1.49602">
        <ele>546.2857</ele>
        <time>2021-07-05T13:54:29Z</time>
      </trkpt>
      <trkpt lat="42.93849" lon="-1.49845">
        <ele>539.6405</ele>
        <time>2021-07-05T13:54:40Z</time>
      </trkpt>
      <trkpt lat="42.93739" lon="-1.50056">
        <ele>531.9517</ele>
        <time>2021-07-05T13:54:51Z</time>
      </trkpt>
      <trkpt lat="42.93646" lon="-1.50232">
        <ele>529.4045</ele>
        <time>2021-07-05T13:55:02Z</time>
      </trkpt>
      <trkpt lat="42.93524" lon="-1.50346">
        <ele>527.7698</ele>
        <time>2021-07-05T13:55:13Z</time>
      </trkpt>
      <trkpt lat="42.93387" lon="-1.50377">
        <ele>529.2961</ele>
        <time>2021-07-05T13:55:24Z</time>
      </trkpt>
      <trkpt lat="42.93262" lon="-1.50405">
        <ele>527.8691</ele>
        <time>2021-07-05T13:55:35Z</time>
      </trkpt>
      <trkpt lat="42.9318" lon="-1.50424">
        <ele>525.5206</ele>
        <time>2021-07-05T13:55:46Z</time>
      </trkpt>
      <trkpt lat="42.93096" lon="-1.50445">
        <ele>531.693</ele>
        <time>2021-07-05T13:55:57Z</time>
      </trkpt>
      <trkpt lat="42.93005" lon="-1.50485">
        <ele>529.7904</ele>
        <time>2021-07-05T13:56:08Z</time>
      </trkpt>
      <trkpt lat="42.92892" lon="-1.50546">
        <ele>527.4485</ele>
        <time>2021-07-05T13:56:19Z</time>
      </trkpt>
      <trkpt lat="42.92782" lon="-1.50606">
        <ele>526.4929</ele>
        <time>2021-07-05T13:56:30Z</time>
      </trkpt>
      <trkpt lat="42.92658" lon="-1.5071">
        <ele>526.6008</ele>
        <time>2021-07-05T13:56:41Z</time>
      </trkpt>
      <trkpt lat="42.92529" lon="-1.50819">
        <ele>524.8129</ele>
        <time>2021-07-05T13:56:52Z</time>
      </trkpt>
      <trkpt lat="42.92379" lon="-1.50937">
        <ele>524.9811</ele>
        <time>2021-07-05T13:57:03Z</time>
      </trkpt>
      <trkpt lat="42.92222" lon="-1.51108">
        <ele>526.7313</ele>
        <time>2021-07-05T13:57:14Z</time>
      </trkpt>
      <trkpt lat="42.92075" lon="-1.51303">
        <ele>522.4375</ele>
        <time>2021-07-05T13:57:25Z</time>
      </trkpt>
      <trkpt lat="42.91951" lon="-1.51501">
        <ele>516.7908</ele>
        <time>2021-07-05T13:57:36Z</time>
      </trkpt>
      <trkpt lat="42.91799" lon="-1.51667">
        <ele>515.1116</ele>
        <time>2021-07-05T13:57:47Z</time>
      </trkpt>
      <trkpt lat="42.91645" lon="-1.51794">
        <ele>514.5621</ele>
        <time>2021-07-05T13:57:58Z</time>
      </trkpt>
      <trkpt lat="42.91503" lon="-1.51947">
        <ele>513.4291</ele>
        <time>2021-07-05T13:58:09Z</time>
      </trkpt>
      <trkpt lat="42.91399" lon="-1.52147">
        <ele>510.1453</ele>
        <time>2021-07-05T13:58:20Z</time>
      </trkpt>
      <trkpt lat="42.91245" lon="-1.52276">
        <ele>508.9608</ele>
        <time>2021-07-05T13:58:31Z</time>
      </trkpt>
      <trkpt lat="42.91124" lon="-1.5246">
        <ele>507.2021</ele>
        <time>2021-07-05T13:58:42Z</time>
      </trkpt>
      <trkpt lat="42.91099" lon="-1.52721">
        <ele>507.9135</ele>
        <time>2021-07-05T13:58:53Z</time>
      </trkpt>
      <trkpt lat="42.91035" lon="-1.52977">
        <ele>505.3398</ele>
        <time>2021-07-05T13:59:04Z</time>
      </trkpt>
      <trkpt lat="42.90965" lon="-1.53224">
        <ele>502.3231</ele>
        <time>2021-07-05T13:59:15Z</time>
      </trkpt>
      <trkpt lat="42.90878" lon="-1.53446">
        <ele>499.1918</ele>
        <time>2021-07-05T13:59:26Z</time>
      </trkpt>
      <trkpt lat="42.90706" lon="-1.53549">
        <ele>498.9895</ele>
        <time>2021-07-05T13:59:37Z</time>
      </trkpt>
      <trkpt lat="42.90556" lon="-1.53651">
        <ele>497.0287</ele>
        <time>2021-07-05T13:59:48Z</time>
      </trkpt>
      <trkpt lat="42.90431" lon="-1.53804">
        <ele>496.8928</ele>
        <time>2021-07-05T13:59:59Z</time>
      </trkpt>
      <trkpt lat="42.90352" lon="-1.53994">
        <ele>497.6939</ele>
        <time>2021-07-05T14:00:10Z</time>
      </trkpt>
      <trkpt lat="42.90278" lon="-1.54236">
        <ele>499.277</ele>
        <time>2021-07-05T14:00:21Z</time>
      </trkpt>
      <trkpt lat="42.90136" lon="-1.54407">
        <ele>495.3932</ele>
        <time>2021-07-05T14:00:32Z</time>
      </trkpt>
      <trkpt lat="42.9005" lon="-1.54639">
        <ele>493.0705</ele>
        <time>2021-07-05T14:00:43Z</time>
      </trkpt>
      <trkpt lat="42.89979" lon="-1.54887">
        <ele>491.7889</ele>
        <time>2021-07-05T14:00:54Z</time>
      </trkpt>
      <trkpt lat="42.89848" lon="-1.55085">
        <ele>490.7703</ele>
        <time>2021-07-05T14:01:05Z</time>
      </trkpt>
      <trkpt lat="42.89724" lon="-1.55287">
        <ele>488.2659</ele>
        <time>2021-07-05T14:01:16Z</time>
      </trkpt>
      <trkpt lat="42.89564" lon="-1.55428">
        <ele>485.9564</ele>
        <time>2021-07-05T14:01:27Z</time>
      </trkpt>
      <trkpt lat="42.89392" lon="-1.55545">
        <ele>482.0494</ele>
        <time>2021-07-05T14:01:38Z</time>
      </trkpt>
      <trkpt lat="42.89229" lon="-1.55685">
        <ele>484.0125</ele>
        <time>2021-07-05T14:01:49Z</time>
      </trkpt>
      <trkpt lat="42.89075" lon="-1.55866">
        <ele>484.7806</ele>
        <time>2021-07-05T14:02:00Z</time>
      </trkpt>
      <trkpt lat="42.88866" lon="-1.56115">
        <ele>483.0503</ele>
        <time>2021-07-05T14:02:11Z</time>
      </trkpt>
      <trkpt lat="42.8866" lon="-1.56347">
        <ele>476.0746</ele>
        <time>2021-07-05T14:02:22Z</time>
      </trkpt>
      <trkpt lat="42.88395" lon="-1.56383">
        <ele>481.8804</ele>
        <time>2021-07-05T14:02:33Z</time>
      </trkpt>
      <trkpt lat="42.88139" lon="-1.56447">
        <ele>478.1262</ele>
        <time>2021-07-05T14:02:44Z</time>
      </trkpt>
      <trkpt lat="42.87969" lon="-1.56552">
        <ele>476.864</ele>
        <time>2021-07-05T14:02:55Z</time>
      </trkpt>
      <trkpt lat="42.87814" lon="-1.5665">
        <ele>476.7367</ele>
        <time>2021-07-05T14:03:06Z</time>
      </trkpt>
      <trkpt lat="42.87655" lon="-1.56751">
        <ele>474.3333</ele>
        <time>2021-07-05T14:03:17Z</time>
      </trkpt>
      <trkpt lat="42.87482" lon="-1.56865">
        <ele>472.2728</ele>
        <time>2021-07-05T14:03:28Z</time>
      </trkpt>
      <trkpt lat="42.87296" lon="-1.56991">
        <ele>478.3211</ele>
        <time>2021-07-05T14:03:39Z</time>
      </trkpt>
      <trkpt lat="42.8707" lon="-1.57117">
        <ele>491.8524</ele>
        <time>2021-07-05T14:03:50Z</time>
      </trkpt>
      <trkpt lat="42.86821" lon="-1.57165">
        <ele>486.1227</ele>
        <time>2021-07-05T14:04:01Z</time>
      </trkpt>
      <trkpt lat="42.86562" lon="-1.57266">
        <ele>476.772</ele>
        <time>2021-07-05T14:04:12Z</time>
      </trkpt>
      <trkpt lat="42.86356" lon="-1.57314">
        <ele>471.7401</ele>
        <time>2021-07-05T14:04:23Z</time>
      </trkpt>
      <trkpt lat="42.86255" lon="-1.57345">
        <ele>470.4016</ele>
        <time>2021-07-05T14:04:34Z</time>
      </trkpt>
      <trkpt lat="42.861" lon="-1.57452">
        <ele>469.4278</ele>
        <time>2021-07-05T14:04:45Z</time>
      </trkpt>
      <trkpt lat="42.85918" lon="-1.57617">
        <ele>467.6021</ele>
        <time>2021-07-05T14:04:56Z</time>
      </trkpt>
      <trkpt lat="42.85741" lon="-1.57838">
        <ele>474.4203</ele>
        <time>2021-07-05T14:05:07Z</time>
      </trkpt>
      <trkpt lat="42.8559" lon="-1.58016">
        <ele>476.8484</ele>
        <time>2021-07-05T14:05:18Z</time>
      </trkpt>
      <trkpt lat="42.85425" lon="-1.58193">
        <ele>468.6318</ele>
        <time>2021-07-05T14:05:29Z</time>
      </trkpt>
      <trkpt lat="42.85222" lon="-1.5834">
        <ele>453.9746</ele>
        <time>2021-07-05T14:05:40Z</time>
      </trkpt>
      <trkpt lat="42.84988" lon="-1.5842">
        <ele>452.9305</ele>
        <time>2021-07-05T14:05:51Z</time>
      </trkpt>
      <trkpt lat="42.84757" lon="-1.58496">
        <ele>452.6014</ele>
        <time>2021-07-05T14:06:02Z</time>
      </trkpt>
      <trkpt lat="42.8454" lon="-1.58592">
        <ele>449.3376</ele>
        <time>2021-07-05T14:06:13Z</time>
      </trkpt>
      <trkpt lat="42.84319" lon="-1.58653">
        <ele>446.9118</ele>
        <time>2021-07-05T14:06:24Z</time>
      </trkpt>
      <trkpt lat="42.84104" lon="-1.58686">
        <ele>446.5294</ele>
        <time>2021-07-05T14:06:35Z</time>
      </trkpt>
      <trkpt lat="42.83996" lon="-1.58678">
        <ele>445.2004</ele>
        <time>2021-07-05T14:06:46Z</time>
      </trkpt>
      <trkpt lat="42.83902" lon="-1.58739">
        <ele>443.4243</ele>
        <time>2021-07-05T14:06:57Z</time>
      </trkpt>
      <trkpt lat="42.83975" lon="-1.59001">
        <ele>460.0887</ele>
        <time>2021-07-05T14:07:08Z</time>
      </trkpt>
      <trkpt lat="42.83883" lon="-1.59306">
        <ele>476.5931</ele>
        <time>2021-07-05T14:07:19Z</time>
      </trkpt>
      <trkpt lat="42.83867" lon="-1.59601">
        <ele>477.9426</ele>
        <time>2021-07-05T14:07:30Z</time>
      </trkpt>
      <trkpt lat="42.83903" lon="-1.59844">
        <ele>466.217</ele>
        <time>2021-07-05T14:07:41Z</time>
      </trkpt>
      <trkpt lat="42.83892" lon="-1.60123">
        <ele>450.3423</ele>
        <time>2021-07-05T14:07:52Z</time>
      </trkpt>
      <trkpt lat="42.83859" lon="-1.60408">
        <ele>438.1673</ele>
        <time>2021-07-05T14:08:03Z</time>
      </trkpt>
      <trkpt lat="42.83869" lon="-1.6065">
        <ele>436.8676</ele>
        <time>2021-07-05T14:08:14Z</time>
      </trkpt>
      <trkpt lat="42.83897" lon="-1.60782">
        <ele>443.0102</ele>
        <time>2021-07-05T14:08:25Z</time>
      </trkpt>
      <trkpt lat="42.83926" lon="-1.60859">
        <ele>442.6615</ele>
        <time>2021-07-05T14:08:36Z</time>
      </trkpt>
      <trkpt lat="42.83949" lon="-1.60983">
        <ele>444.869</ele>
        <time>2021-07-05T14:08:47Z</time>
      </trkpt>
      <trkpt lat="42.84" lon="-1.61096">
        <ele>452.2815</ele>
        <time>2021-07-05T14:08:58Z</time>
      </trkpt>
      <trkpt lat="42.84055" lon="-1.61221">
        <ele>456.0049</ele>
        <time>2021-07-05T14:09:09Z</time>
      </trkpt>
      <trkpt lat="42.84105" lon="-1.61371">
        <ele>458.0675</ele>
        <time>2021-07-05T14:09:20Z</time>
      </trkpt>
      <trkpt lat="42.8414" lon="-1.61565">
        <ele>456.5712</ele>
        <time>2021-07-05T14:09:31Z</time>
      </trkpt>
      <trkpt lat="42.84181" lon="-1.61777">
        <ele>451.2494</ele>
        <time>2021-07-05T14:09:42Z</time>
      </trkpt>
      <trkpt lat="42.84263" lon="-1.61974">
        <ele>444.9563</ele>
        <time>2021-07-05T14:09:53Z</time>
      </trkpt>
      <trkpt lat="42.84439" lon="-1.6214">
        <ele>440.452</ele>
        <time>2021-07-05T14:10:04Z</time>
      </trkpt>
      <trkpt lat="42.84464" lon="-1.62264">
        <ele>440.9704</ele>
        <time>2021-07-05T14:10:15Z</time>
      </trkpt>
      <trkpt lat="42.84308" lon="-1.6219">
        <ele>443.085</ele>
        <time>2021-07-05T14:10:26Z</time>
      </trkpt>
      <trkpt lat="42.84092" lon="-1.62099">
        <ele>438.8556</ele>
        <time>2021-07-05T14:10:37Z</time>
      </trkpt>
      <trkpt lat="42.83874" lon="-1.61979">
        <ele>439.6483</ele>
        <time>2021-07-05T14:10:48Z</time>
      </trkpt>
      <trkpt lat="42.83663" lon="-1.61869">
        <ele>449.8197</ele>
        <time>2021-07-05T14:11:00Z</time>
      </trkpt>
      <trkpt lat="42.83496" lon="-1.61811">
        <ele>427.753</ele>
        <time>2021-07-05T14:11:11Z</time>
      </trkpt>
      <trkpt lat="42.83539" lon="-1.62015">
        <ele>431.4633</ele>
        <time>2021-07-05T14:11:22Z</time>
      </trkpt>
      <trkpt lat="42.83632" lon="-1.62257">
        <ele>433.9659</ele>
        <time>2021-07-05T14:11:33Z</time>
      </trkpt>
      <trkpt lat="42.83646" lon="-1.62474">
        <ele>436.0948</ele>
        <time>2021-07-05T14:11:44Z</time>
      </trkpt>
      <trkpt lat="42.8364" lon="-1.62586">
        <ele>433.8854</ele>
        <time>2021-07-05T14:11:55Z</time>
      </trkpt>
      <trkpt lat="42.8367" lon="-1.62851">
        <ele>438.176</ele>
        <time>2021-07-05T14:12:06Z</time>
      </trkpt>
      <trkpt lat="42.83664" lon="-1.6318">
        <ele>433.4203</ele>
        <time>2021-07-05T14:12:17Z</time>
      </trkpt>
      <trkpt lat="42.83648" lon="-1.63473">
        <ele>425.8595</ele>
        <time>2021-07-05T14:12:28Z</time>
      </trkpt>
      <trkpt lat="42.83651" lon="-1.63681">
        <ele>419.5372</ele>
        <time>2021-07-05T14:12:39Z</time>
      </trkpt>
      <trkpt lat="42.83669" lon="-1.63988">
        <ele>425.343</ele>
        <time>2021-07-05T14:12:50Z</time>
      </trkpt>
      <trkpt lat="42.83676" lon="-1.64306">
        <ele>428.9897</ele>
        <time>2021-07-05T14:13:01Z</time>
      </trkpt>
      <trkpt lat="42.8363" lon="-1.64519">
        <ele>432.0987</ele>
        <time>2021-07-05T14:13:12Z</time>
      </trkpt>
      <trkpt lat="42.83564" lon="-1.64744">
        <ele>430.9186</ele>
        <time>2021-07-05T14:13:23Z</time>
      </trkpt>
      <trkpt lat="42.83604" lon="-1.65071">
        <ele>434.7044</ele>
        <time>2021-07-05T14:13:34Z</time>
      </trkpt>
      <trkpt lat="42.83655" lon="-1.653">
        <ele>438.2266</ele>
        <time>2021-07-05T14:13:45Z</time>
      </trkpt>
      <trkpt lat="42.83666" lon="-1.6545">
        <ele>438.0769</ele>
        <time>2021-07-05T14:13:56Z</time>
      </trkpt>
      <trkpt lat="42.83705" lon="-1.65754">
        <ele>435.6846</ele>
        <time>2021-07-05T14:14:07Z</time>
      </trkpt>
      <trkpt lat="42.83691" lon="-1.66035">
        <ele>438.1865</ele>
        <time>2021-07-05T14:14:18Z</time>
      </trkpt>
      <trkpt lat="42.83578" lon="-1.66257">
        <ele>430.3428</ele>
        <time>2021-07-05T14:14:29Z</time>
      </trkpt>
      <trkpt lat="42.83463" lon="-1.66421">
        <ele>422.6535</ele>
        <time>2021-07-05T14:14:40Z</time>
      </trkpt>
      <trkpt lat="42.83387" lon="-1.66531">
        <ele>424.5121</ele>
        <time>2021-07-05T14:14:51Z</time>
      </trkpt>
      <trkpt lat="42.83308" lon="-1.66645">
        <ele>423.5826</ele>
        <time>2021-07-05T14:15:02Z</time>
      </trkpt>
      <trkpt lat="42.83247" lon="-1.66759">
        <ele>423.2671</ele>
        <time>2021-07-05T14:15:13Z</time>
      </trkpt>
      <trkpt lat="42.83121" lon="-1.66896">
        <ele>427.2675</ele>
        <time>2021-07-05T14:15:24Z</time>
      </trkpt>
      <trkpt lat="42.8312" lon="-1.67025">
        <ele>430.551</ele>
        <time>2021-07-05T14:15:35Z</time>
      </trkpt>
      <trkpt lat="42.83105" lon="-1.67203">
        <ele>433.4259</ele>
        <time>2021-07-05T14:15:46Z</time>
      </trkpt>
      <trkpt lat="42.82992" lon="-1.67094">
        <ele>432.0005</ele>
        <time>2021-07-05T14:15:57Z</time>
      </trkpt>
      <trkpt lat="42.82771" lon="-1.67002">
        <ele>421.2462</ele>
        <time>2021-07-05T14:16:08Z</time>
      </trkpt>
      <trkpt lat="42.82559" lon="-1.67004">
        <ele>414.77</ele>
        <time>2021-07-05T14:16:19Z</time>
      </trkpt>
      <trkpt lat="42.82466" lon="-1.67137">
        <ele>414.8178</ele>
        <time>2021-07-05T14:16:30Z</time>
      </trkpt>
      <trkpt lat="42.82389" lon="-1.67413">
        <ele>420.451</ele>
        <time>2021-07-05T14:16:41Z</time>
      </trkpt>
      <trkpt lat="42.82356" lon="-1.67724">
        <ele>423.9607</ele>
        <time>2021-07-05T14:16:52Z</time>
      </trkpt>
      <trkpt lat="42.82275" lon="-1.68034">
        <ele>426.1756</ele>
        <time>2021-07-05T14:17:03Z</time>
      </trkpt>
      <trkpt lat="42.82182" lon="-1.68255">
        <ele>419.3534</ele>
        <time>2021-07-05T14:17:14Z</time>
      </trkpt>
      <trkpt lat="42.82112" lon="-1.68424">
        <ele>412.0112</ele>
        <time>2021-07-05T14:17:25Z</time>
      </trkpt>
      <trkpt lat="42.82053" lon="-1.68553">
        <ele>411.2361</ele>
        <time>2021-07-05T14:17:36Z</time>
      </trkpt>
      <trkpt lat="42.81993" lon="-1.68702">
        <ele>414.4498</ele>
        <time>2021-07-05T14:17:47Z</time>
      </trkpt>
      <trkpt lat="42.81908" lon="-1.68876">
        <ele>415.858</ele>
        <time>2021-07-05T14:17:58Z</time>
      </trkpt>
      <trkpt lat="42.81861" lon="-1.69041">
        <ele>418.0863</ele>
        <time>2021-07-05T14:18:09Z</time>
      </trkpt>
      <trkpt lat="42.81904" lon="-1.69341">
        <ele>425.9187</ele>
        <time>2021-07-05T14:18:20Z</time>
      </trkpt>
      <trkpt lat="42.81942" lon="-1.69575">
        <ele>429.8231</ele>
        <time>2021-07-05T14:18:31Z</time>
      </trkpt>
      <trkpt lat="42.81981" lon="-1.69893">
        <ele>439.0226</ele>
        <time>2021-07-05T14:18:42Z</time>
      </trkpt>
      <trkpt lat="42.82032" lon="-1.70245">
        <ele>442.9315</ele>
        <time>2021-07-05T14:18:53Z</time>
      </trkpt>
      <trkpt lat="42.82073" lon="-1.7063">
        <ele>425.8795</ele>
        <time>2021-07-05T14:19:04Z</time>
      </trkpt>
      <trkpt lat="42.8211" lon="-1.7086">
        <ele>415.1829</ele>
        <time>2021-07-05T14:19:15Z</time>
      </trkpt>
      <trkpt lat="42.82034" lon="-1.70966">
        <ele>412.9672</ele>
        <time>2021-07-05T14:19:26Z</time>
      </trkpt>
      <trkpt lat="42.81944" lon="-1.71165">
        <ele>411.3492</ele>
        <time>2021-07-05T14:19:37Z</time>
      </trkpt>
      <trkpt lat="42.81879" lon="-1.714">
        <ele>404.6746</ele>
        <time>2021-07-05T14:19:48Z</time>
      </trkpt>
      <trkpt lat="42.81857" lon="-1.71624">
        <ele>400.8707</ele>
        <time>2021-07-05T14:19:59Z</time>
      </trkpt>
      <trkpt lat="42.81846" lon="-1.71751">
        <ele>397.5038</ele>
        <time>2021-07-05T14:20:10Z</time>
      </trkpt>
      <trkpt lat="42.81831" lon="-1.71909">
        <ele>399.223</ele>
        <time>2021-07-05T14:20:21Z</time>
      </trkpt>
      <trkpt lat="42.81824" lon="-1.72054">
        <ele>396.7265</ele>
        <time>2021-07-05T14:20:32Z</time>
      </trkpt>
      <trkpt lat="42.81847" lon="-1.72256">
        <ele>397.2611</ele>
        <time>2021-07-05T14:20:43Z</time>
      </trkpt>
      <trkpt lat="42.81875" lon="-1.72526">
        <ele>393.368</ele>
        <time>2021-07-05T14:20:54Z</time>
      </trkpt>
      <trkpt lat="42.81879" lon="-1.72832">
        <ele>393.7749</ele>
        <time>2021-07-05T14:21:05Z</time>
      </trkpt>
      <trkpt lat="42.81883" lon="-1.73151">
        <ele>390.5139</ele>
        <time>2021-07-05T14:21:16Z</time>
      </trkpt>
      <trkpt lat="42.81887" lon="-1.73479">
        <ele>390.004</ele>
        <time>2021-07-05T14:21:27Z</time>
      </trkpt>
      <trkpt lat="42.81891" lon="-1.73806">
        <ele>392.2019</ele>
        <time>2021-07-05T14:21:38Z</time>
      </trkpt>
      <trkpt lat="42.81853" lon="-1.74154">
        <ele>399.5485</ele>
        <time>2021-07-05T14:21:49Z</time>
      </trkpt>
      <trkpt lat="42.81782" lon="-1.74448">
        <ele>399.5678</ele>
        <time>2021-07-05T14:22:00Z</time>
      </trkpt>
      <trkpt lat="42.81758" lon="-1.74595">
        <ele>396.9423</ele>
        <time>2021-07-05T14:22:11Z</time>
      </trkpt>
      <trkpt lat="42.81723" lon="-1.74691">
        <ele>398.3145</ele>
        <time>2021-07-05T14:22:22Z</time>
      </trkpt>
      <trkpt lat="42.81671" lon="-1.74768">
        <ele>395.8796</ele>
        <time>2021-07-05T14:22:33Z</time>
      </trkpt>
      <trkpt lat="42.81593" lon="-1.74762">
        <ele>396.6522</ele>
        <time>2021-07-05T14:22:44Z</time>
      </trkpt>
      <trkpt lat="42.81544" lon="-1.74828">
        <ele>392.014</ele>
        <time>2021-07-05T14:22:55Z</time>
      </trkpt>
      <trkpt lat="42.81499" lon="-1.74954">
        <ele>390.6328</ele>
        <time>2021-07-05T14:23:06Z</time>
      </trkpt>
      <trkpt lat="42.81433" lon="-1.75176">
        <ele>387.7695</ele>
        <time>2021-07-05T14:23:17Z</time>
      </trkpt>
      <trkpt lat="42.81363" lon="-1.75451">
        <ele>386.6108</ele>
        <time>2021-07-05T14:23:28Z</time>
      </trkpt>
      <trkpt lat="42.81309" lon="-1.75718">
        <ele>383.0545</ele>
        <time>2021-07-05T14:23:39Z</time>
      </trkpt>
      <trkpt lat="42.81255" lon="-1.75973">
        <ele>383.017</ele>
        <time>2021-07-05T14:23:50Z</time>
      </trkpt>
      <trkpt lat="42.81147" lon="-1.76307">
        <ele>380.8609</ele>
        <time>2021-07-05T14:24:01Z</time>
      </trkpt>
      <trkpt lat="42.8099" lon="-1.76589">
        <ele>379.6142</ele>
        <time>2021-07-05T14:24:12Z</time>
      </trkpt>
      <trkpt lat="42.80841" lon="-1.76847">
        <ele>385.4249</ele>
        <time>2021-07-05T14:24:23Z</time>
      </trkpt>
      <trkpt lat="42.80702" lon="-1.77111">
        <ele>382.6644</ele>
        <time>2021-07-05T14:24:34Z</time>
      </trkpt>
      <trkpt lat="42.8055" lon="-1.77356">
        <ele>390.1253</ele>
        <time>2021-07-05T14:24:45Z</time>
      </trkpt>
      <trkpt lat="42.80418" lon="-1.77502">
        <ele>386.8249</ele>
        <time>2021-07-05T14:24:56Z</time>
      </trkpt>
      <trkpt lat="42.80412" lon="-1.77647">
        <ele>386.568</ele>
        <time>2021-07-05T14:25:07Z</time>
      </trkpt>
      <trkpt lat="42.80566" lon="-1.777">
        <ele>382.2603</ele>
        <time>2021-07-05T14:25:18Z</time>
      </trkpt>
      <trkpt lat="42.80584" lon="-1.77893">
        <ele>384.6208</ele>
        <time>2021-07-05T14:25:29Z</time>
      </trkpt>
      <trkpt lat="42.80443" lon="-1.77955">
        <ele>386.0656</ele>
        <time>2021-07-05T14:25:40Z</time>
      </trkpt>
      <trkpt lat="42.8021" lon="-1.77882">
        <ele>390.1007</ele>
        <time>2021-07-05T14:25:51Z</time>
      </trkpt>
      <trkpt lat="42.79996" lon="-1.77989">
        <ele>407.7834</ele>
        <time>2021-07-05T14:26:02Z</time>
      </trkpt>
      <trkpt lat="42.79818" lon="-1.78091">
        <ele>423.3317</ele>
        <time>2021-07-05T14:26:13Z</time>
      </trkpt>
      <trkpt lat="42.79735" lon="-1.78288">
        <ele>420.441</ele>
        <time>2021-07-05T14:26:24Z</time>
      </trkpt>
      <trkpt lat="42.79631" lon="-1.78573">
        <ele>411.3499</ele>
        <time>2021-07-05T14:26:35Z</time>
      </trkpt>
      <trkpt lat="42.79578" lon="-1.78711">
        <ele>412.6711</ele>
        <time>2021-07-05T14:26:46Z</time>
      </trkpt>
      <trkpt lat="42.79549" lon="-1.78779">
        <ele>417.1116</ele>
        <time>2021-07-05T14:26:57Z</time>
      </trkpt>
      <trkpt lat="42.79485" lon="-1.78954">
        <ele>415.3885</ele>
        <time>2021-07-05T14:27:08Z</time>
      </trkpt>
      <trkpt lat="42.79437" lon="-1.79116">
        <ele>412.9007</ele>
        <time>2021-07-05T14:27:19Z</time>
      </trkpt>
      <trkpt lat="42.79421" lon="-1.79313">
        <ele>408.8795</ele>
        <time>2021-07-05T14:27:30Z</time>
      </trkpt>
      <trkpt lat="42.79413" lon="-1.79509">
        <ele>404.2727</ele>
        <time>2021-07-05T14:27:41Z</time>
      </trkpt>
      <trkpt lat="42.79423" lon="-1.79792">
        <ele>412.21</ele>
        <time>2021-07-05T14:27:52Z</time>
      </trkpt>
      <trkpt lat="42.79511" lon="-1.80068">
        <ele>426.583</ele>
        <time>2021-07-05T14:28:03Z</time>
      </trkpt>
      <trkpt lat="42.79531" lon="-1.80363">
        <ele>446.6795</ele>
        <time>2021-07-05T14:28:14Z</time>
      </trkpt>
      <trkpt lat="42.79562" lon="-1.80625">
        <ele>463.3773</ele>
        <time>2021-07-05T14:28:25Z</time>
      </trkpt>
      <trkpt lat="42.79649" lon="-1.808">
        <ele>476.0739</ele>
        <time>2021-07-05T14:28:36Z</time>
      </trkpt>
      <trkpt lat="42.79608" lon="-1.81">
        <ele>490.2786</ele>
        <time>2021-07-05T14:28:47Z</time>
      </trkpt>
      <trkpt lat="42.79619" lon="-1.8127">
        <ele>505.8105</ele>
        <time>2021-07-05T14:28:58Z</time>
      </trkpt>
      <trkpt lat="42.79594" lon="-1.8144">
        <ele>517.2287</ele>
        <time>2021-07-05T14:29:09Z</time>
      </trkpt>
      <trkpt lat="42.79569" lon="-1.81767">
        <ele>539.4004</ele>
        <time>2021-07-05T14:29:20Z</time>
      </trkpt>
      <trkpt lat="42.79581" lon="-1.82042">
        <ele>554.561</ele>
        <time>2021-07-05T14:29:31Z</time>
      </trkpt>
      <trkpt lat="42.7966" lon="-1.82358">
        <ele>574.1125</ele>
        <time>2021-07-05T14:29:42Z</time>
      </trkpt>
      <trkpt lat="42.79665" lon="-1.82682">
        <ele>592.927</ele>
        <time>2021-07-05T14:29:53Z</time>
      </trkpt>
      <trkpt lat="42.79681" lon="-1.83004">
        <ele>613.0467</ele>
        <time>2021-07-05T14:30:04Z</time>
      </trkpt>
      <trkpt lat="42.79694" lon="-1.83343">
        <ele>632.0756</ele>
        <time>2021-07-05T14:30:15Z</time>
      </trkpt>
      <trkpt lat="42.79598" lon="-1.83642">
        <ele>651.4315</ele>
        <time>2021-07-05T14:30:26Z</time>
      </trkpt>
      <trkpt lat="42.79525" lon="-1.83942">
        <ele>667.5313</ele>
        <time>2021-07-05T14:30:37Z</time>
      </trkpt>
      <trkpt lat="42.79466" lon="-1.84187">
        <ele>678.1507</ele>
        <time>2021-07-05T14:30:48Z</time>
      </trkpt>
      <trkpt lat="42.79527" lon="-1.84075">
        <ele>683.5708</ele>
        <time>2021-07-05T14:30:59Z</time>
      </trkpt>
      <trkpt lat="42.79639" lon="-1.83802">
        <ele>696.4219</ele>
        <time>2021-07-05T14:31:10Z</time>
      </trkpt>
      <trkpt lat="42.79752" lon="-1.83587">
        <ele>710.4803</ele>
        <time>2021-07-05T14:31:21Z</time>
      </trkpt>
      <trkpt lat="42.79795" lon="-1.83503">
        <ele>718.2876</ele>
        <time>2021-07-05T14:31:32Z</time>
      </trkpt>
      <trkpt lat="42.79799" lon="-1.8351">
        <ele>713.1546</ele>
        <time>2021-07-05T14:31:43Z</time>
      </trkpt>
      <trkpt lat="42.79795" lon="-1.83507">
        <ele>722.0426</ele>
        <time>2021-07-05T14:31:57Z</time>
      </trkpt>
      <trkpt lat="42.79799" lon="-1.83509">
        <ele>719.6806</ele>
        <time>2021-07-05T14:32:08Z</time>
      </trkpt>
      <trkpt lat="42.79801" lon="-1.83514">
        <ele>716.5292</ele>
        <time>2021-07-05T14:32:20Z</time>
      </trkpt>
      <trkpt lat="42.79804" lon="-1.8351">
        <ele>714.098</ele>
        <time>2021-07-05T14:32:33Z</time>
      </trkpt>
      <trkpt lat="42.79807" lon="-1.83514">
        <ele>711.667</ele>
        <time>2021-07-05T14:32:55Z</time>
      </trkpt>
      <trkpt lat="42.79811" lon="-1.83514">
        <ele>705.7789</ele>
        <time>2021-07-05T14:33:15Z</time>
      </trkpt>
      <trkpt lat="42.79806" lon="-1.83512">
        <ele>712.412</ele>
        <time>2021-07-05T14:33:41Z</time>
      </trkpt>
      <trkpt lat="42.79803" lon="-1.83509">
        <ele>710.1951</ele>
        <time>2021-07-05T14:34:31Z</time>
      </trkpt>
      <trkpt lat="42.79764" lon="-1.83615">
        <ele>718.5212</ele>
        <time>2021-07-05T14:34:42Z</time>
      </trkpt>
      <trkpt lat="42.7971" lon="-1.83803">
        <ele>736.4942</ele>
        <time>2021-07-05T14:34:53Z</time>
      </trkpt>
      <trkpt lat="42.79658" lon="-1.84071">
        <ele>751.0322</ele>
        <time>2021-07-05T14:35:04Z</time>
      </trkpt>
      <trkpt lat="42.79608" lon="-1.84342">
        <ele>763.8334</ele>
        <time>2021-07-05T14:35:15Z</time>
      </trkpt>
      <trkpt lat="42.79487" lon="-1.84444">
        <ele>773.5998</ele>
        <time>2021-07-05T14:35:26Z</time>
      </trkpt>
      <trkpt lat="42.79323" lon="-1.84379">
        <ele>784.33</ele>
        <time>2021-07-05T14:35:37Z</time>
      </trkpt>
      <trkpt lat="42.79143" lon="-1.84378">
        <ele>792.4487</ele>
        <time>2021-07-05T14:35:48Z</time>
      </trkpt>
      <trkpt lat="42.78929" lon="-1.84285">
        <ele>807.3842</ele>
        <time>2021-07-05T14:35:59Z</time>
      </trkpt>
      <trkpt lat="42.78742" lon="-1.84294">
        <ele>819.9566</ele>
        <time>2021-07-05T14:36:10Z</time>
      </trkpt>
      <trkpt lat="42.78596" lon="-1.84337">
        <ele>831.483</ele>
        <time>2021-07-05T14:36:21Z</time>
      </trkpt>
      <trkpt lat="42.7866" lon="-1.84504">
        <ele>833.7628</ele>
        <time>2021-07-05T14:36:32Z</time>
      </trkpt>
      <trkpt lat="42.78791" lon="-1.84673">
        <ele>822.3459</ele>
        <time>2021-07-05T14:36:43Z</time>
      </trkpt>
      <trkpt lat="42.78826" lon="-1.84736">
        <ele>813.7142</ele>
        <time>2021-07-05T14:36:54Z</time>
      </trkpt>
      <trkpt lat="42.78685" lon="-1.84731">
        <ele>805.4078</ele>
        <time>2021-07-05T14:37:05Z</time>
      </trkpt>
      <trkpt lat="42.78687" lon="-1.84942">
        <ele>793.4396</ele>
        <time>2021-07-05T14:37:16Z</time>
      </trkpt>
      <trkpt lat="42.78606" lon="-1.85095">
        <ele>783.9212</ele>
        <time>2021-07-05T14:37:27Z</time>
      </trkpt>
      <trkpt lat="42.78767" lon="-1.85214">
        <ele>770.7642</ele>
        <time>2021-07-05T14:37:38Z</time>
      </trkpt>
      <trkpt lat="42.78747" lon="-1.85441">
        <ele>764.3087</ele>
        <time>2021-07-05T14:37:49Z</time>
      </trkpt>
      <trkpt lat="42.78606" lon="-1.85716">
        <ele>749.0305</ele>
        <time>2021-07-05T14:38:00Z</time>
      </trkpt>
      <trkpt lat="42.78485" lon="-1.85966">
        <ele>733.4938</ele>
        <time>2021-07-05T14:38:11Z</time>
      </trkpt>
      <trkpt lat="42.78364" lon="-1.86162">
        <ele>726.477</ele>
        <time>2021-07-05T14:38:22Z</time>
      </trkpt>
      <trkpt lat="42.78233" lon="-1.86333">
        <ele>722.5499</ele>
        <time>2021-07-05T14:38:33Z</time>
      </trkpt>
      <trkpt lat="42.78218" lon="-1.86551">
        <ele>721.5395</ele>
        <time>2021-07-05T14:38:44Z</time>
      </trkpt>
      <trkpt lat="42.78156" lon="-1.86736">
        <ele>710.9659</ele>
        <time>2021-07-05T14:38:55Z</time>
      </trkpt>
      <trkpt lat="42.78139" lon="-1.86859">
        <ele>699.0484</ele>
        <time>2021-07-05T14:39:06Z</time>
      </trkpt>
      <trkpt lat="42.7821" lon="-1.87013">
        <ele>691.6901</ele>
        <time>2021-07-05T14:39:17Z</time>
      </trkpt>
      <trkpt lat="42.78279" lon="-1.8719">
        <ele>677.9929</ele>
        <time>2021-07-05T14:39:28Z</time>
      </trkpt>
      <trkpt lat="42.78264" lon="-1.87203">
        <ele>673.0315</ele>
        <time>2021-07-05T14:39:39Z</time>
      </trkpt>
      <trkpt lat="42.78185" lon="-1.87136">
        <ele>658.8658</ele>
        <time>2021-07-05T14:39:50Z</time>
      </trkpt>
      <trkpt lat="42.78276" lon="-1.87367">
        <ele>647.9214</ele>
        <time>2021-07-05T14:40:01Z</time>
      </trkpt>
      <trkpt lat="42.7836" lon="-1.87519">
        <ele>640.748</ele>
        <time>2021-07-05T14:40:12Z</time>
      </trkpt>
      <trkpt lat="42.78239" lon="-1.87794">
        <ele>635.9248</ele>
        <time>2021-07-05T14:40:23Z</time>
      </trkpt>
      <trkpt lat="42.78082" lon="-1.8797">
        <ele>637.7251</ele>
        <time>2021-07-05T14:40:34Z</time>
      </trkpt>
      <trkpt lat="42.7791" lon="-1.88161">
        <ele>644.5437</ele>
        <time>2021-07-05T14:40:45Z</time>
      </trkpt>
      <trkpt lat="42.77767" lon="-1.88284">
        <ele>647.9893</ele>
        <time>2021-07-05T14:40:56Z</time>
      </trkpt>
      <trkpt lat="42.7763" lon="-1.88356">
        <ele>651.4269</ele>
        <time>2021-07-05T14:41:07Z</time>
      </trkpt>
      <trkpt lat="42.77521" lon="-1.88524">
        <ele>658.5428</ele>
        <time>2021-07-05T14:41:18Z</time>
      </trkpt>
      <trkpt lat="42.77536" lon="-1.88733">
        <ele>663.281</ele>
        <time>2021-07-05T14:41:29Z</time>
      </trkpt>
      <trkpt lat="42.77445" lon="-1.88872">
        <ele>658.6651</ele>
        <time>2021-07-05T14:41:40Z</time>
      </trkpt>
      <trkpt lat="42.77408" lon="-1.8904">
        <ele>656.1584</ele>
        <time>2021-07-05T14:41:51Z</time>
      </trkpt>
      <trkpt lat="42.77435" lon="-1.89229">
        <ele>648.6357</ele>
        <time>2021-07-05T14:42:02Z</time>
      </trkpt>
      <trkpt lat="42.77245" lon="-1.89279">
        <ele>637.8894</ele>
        <time>2021-07-05T14:42:13Z</time>
      </trkpt>
      <trkpt lat="42.77104" lon="-1.89417">
        <ele>631.2654</ele>
        <time>2021-07-05T14:42:24Z</time>
      </trkpt>
      <trkpt lat="42.77003" lon="-1.89538">
        <ele>627.0162</ele>
        <time>2021-07-05T14:42:35Z</time>
      </trkpt>
      <trkpt lat="42.76969" lon="-1.89702">
        <ele>617.9004</ele>
        <time>2021-07-05T14:42:46Z</time>
      </trkpt>
      <trkpt lat="42.76829" lon="-1.89867">
        <ele>610.9694</ele>
        <time>2021-07-05T14:42:57Z</time>
      </trkpt>
      <trkpt lat="42.76739" lon="-1.90025">
        <ele>602.2187</ele>
        <time>2021-07-05T14:43:08Z</time>
      </trkpt>
      <trkpt lat="42.76654" lon="-1.90159">
        <ele>595.0314</ele>
        <time>2021-07-05T14:43:19Z</time>
      </trkpt>
      <trkpt lat="42.76557" lon="-1.90379">
        <ele>594.1225</ele>
        <time>2021-07-05T14:43:30Z</time>
      </trkpt>
      <trkpt lat="42.76599" lon="-1.9055">
        <ele>586.3103</ele>
        <time>2021-07-05T14:43:41Z</time>
      </trkpt>
      <trkpt lat="42.76619" lon="-1.90707">
        <ele>576.5475</ele>
        <time>2021-07-05T14:43:52Z</time>
      </trkpt>
      <trkpt lat="42.76506" lon="-1.90924">
        <ele>575.0367</ele>
        <time>2021-07-05T14:44:03Z</time>
      </trkpt>
      <trkpt lat="42.76427" lon="-1.91148">
        <ele>570.8879</ele>
        <time>2021-07-05T14:44:14Z</time>
      </trkpt>
      <trkpt lat="42.7648" lon="-1.91357">
        <ele>557.8738</ele>
        <time>2021-07-05T14:44:25Z</time>
      </trkpt>
      <trkpt lat="42.76425" lon="-1.91554">
        <ele>545.4617</ele>
        <time>2021-07-05T14:44:36Z</time>
      </trkpt>
      <trkpt lat="42.76278" lon="-1.91684">
        <ele>532.1414</ele>
        <time>2021-07-05T14:44:47Z</time>
      </trkpt>
      <trkpt lat="42.76302" lon="-1.91702">
        <ele>528.349</ele>
        <time>2021-07-05T14:44:58Z</time>
      </trkpt>
      <trkpt lat="42.76317" lon="-1.91757">
        <ele>519.6808</ele>
        <time>2021-07-05T14:45:09Z</time>
      </trkpt>
      <trkpt lat="42.76174" lon="-1.91982">
        <ele>512.3236</ele>
        <time>2021-07-05T14:45:20Z</time>
      </trkpt>
      <trkpt lat="42.75989" lon="-1.92184">
        <ele>507.9623</ele>
        <time>2021-07-05T14:45:31Z</time>
      </trkpt>
      <trkpt lat="42.75804" lon="-1.92393">
        <ele>508.0601</ele>
        <time>2021-07-05T14:45:42Z</time>
      </trkpt>
      <trkpt lat="42.7564" lon="-1.92628">
        <ele>513.1409</ele>
        <time>2021-07-05T14:45:53Z</time>
      </trkpt>
      <trkpt lat="42.75562" lon="-1.92889">
        <ele>522.2009</ele>
        <time>2021-07-05T14:46:04Z</time>
      </trkpt>
      <trkpt lat="42.75585" lon="-1.93124">
        <ele>510.2764</ele>
        <time>2021-07-05T14:46:15Z</time>
      </trkpt>
      <trkpt lat="42.75441" lon="-1.93227">
        <ele>511.8563</ele>
        <time>2021-07-05T14:46:26Z</time>
      </trkpt>
      <trkpt lat="42.75285" lon="-1.93318">
        <ele>508.9337</ele>
        <time>2021-07-05T14:46:37Z</time>
      </trkpt>
      <trkpt lat="42.75256" lon="-1.93453">
        <ele>499.4528</ele>
        <time>2021-07-05T14:46:48Z</time>
      </trkpt>
      <trkpt lat="42.75353" lon="-1.93657">
        <ele>486.6354</ele>
        <time>2021-07-05T14:46:59Z</time>
      </trkpt>
      <trkpt lat="42.75264" lon="-1.93847">
        <ele>470.5751</ele>
        <time>2021-07-05T14:47:10Z</time>
      </trkpt>
      <trkpt lat="42.7518" lon="-1.93924">
        <ele>466.4578</ele>
        <time>2021-07-05T14:47:21Z</time>
      </trkpt>
      <trkpt lat="42.75238" lon="-1.94044">
        <ele>470.7533</ele>
        <time>2021-07-05T14:47:32Z</time>
      </trkpt>
      <trkpt lat="42.75291" lon="-1.94283">
        <ele>472.3564</ele>
        <time>2021-07-05T14:47:43Z</time>
      </trkpt>
      <trkpt lat="42.75356" lon="-1.94587">
        <ele>475.2252</ele>
        <time>2021-07-05T14:47:54Z</time>
      </trkpt>
      <trkpt lat="42.75408" lon="-1.94891">
        <ele>472.788</ele>
        <time>2021-07-05T14:48:05Z</time>
      </trkpt>
      <trkpt lat="42.75508" lon="-1.95182">
        <ele>483.0045</ele>
        <time>2021-07-05T14:48:16Z</time>
      </trkpt>
      <trkpt lat="42.7542" lon="-1.95428">
        <ele>498.4083</ele>
        <time>2021-07-05T14:48:27Z</time>
      </trkpt>
      <trkpt lat="42.75257" lon="-1.95719">
        <ele>509.8632</ele>
        <time>2021-07-05T14:48:38Z</time>
      </trkpt>
      <trkpt lat="42.75142" lon="-1.95987">
        <ele>509.8624</ele>
        <time>2021-07-05T14:48:49Z</time>
      </trkpt>
      <trkpt lat="42.752" lon="-1.96229">
        <ele>515.1924</ele>
        <time>2021-07-05T14:49:00Z</time>
      </trkpt>
      <trkpt lat="42.75161" lon="-1.96527">
        <ele>524.3742</ele>
        <time>2021-07-05T14:49:11Z</time>
      </trkpt>
      <trkpt lat="42.7507" lon="-1.96844">
        <ele>528.6046</ele>
        <time>2021-07-05T14:49:22Z</time>
      </trkpt>
      <trkpt lat="42.7492" lon="-1.97125">
        <ele>534.8795</ele>
        <time>2021-07-05T14:49:33Z</time>
      </trkpt>
      <trkpt lat="42.74743" lon="-1.9741">
        <ele>545.9163</ele>
        <time>2021-07-05T14:49:44Z</time>
      </trkpt>
      <trkpt lat="42.74577" lon="-1.97644">
        <ele>556.4623</ele>
        <time>2021-07-05T14:49:55Z</time>
      </trkpt>
      <trkpt lat="42.74397" lon="-1.97767">
        <ele>554.1165</ele>
        <time>2021-07-05T14:50:06Z</time>
      </trkpt>
      <trkpt lat="42.74181" lon="-1.97877">
        <ele>549.0878</ele>
        <time>2021-07-05T14:50:17Z</time>
      </trkpt>
      <trkpt lat="42.73942" lon="-1.98012">
        <ele>540.7619</ele>
        <time>2021-07-05T14:50:28Z</time>
      </trkpt>
      <trkpt lat="42.73743" lon="-1.98217">
        <ele>529.3549</ele>
        <time>2021-07-05T14:50:39Z</time>
      </trkpt>
      <trkpt lat="42.73542" lon="-1.98444">
        <ele>521.8525</ele>
        <time>2021-07-05T14:50:50Z</time>
      </trkpt>
      <trkpt lat="42.73333" lon="-1.98649">
        <ele>526.3217</ele>
        <time>2021-07-05T14:51:01Z</time>
      </trkpt>
      <trkpt lat="42.73154" lon="-1.98874">
        <ele>524.1097</ele>
        <time>2021-07-05T14:51:12Z</time>
      </trkpt>
      <trkpt lat="42.72973" lon="-1.99125">
        <ele>519.5881</ele>
        <time>2021-07-05T14:51:23Z</time>
      </trkpt>
      <trkpt lat="42.72814" lon="-1.9934">
        <ele>529.18</ele>
        <time>2021-07-05T14:51:34Z</time>
      </trkpt>
      <trkpt lat="42.72671" lon="-1.99582">
        <ele>521.4931</ele>
        <time>2021-07-05T14:51:45Z</time>
      </trkpt>
      <trkpt lat="42.72539" lon="-1.99801">
        <ele>514.8457</ele>
        <time>2021-07-05T14:51:56Z</time>
      </trkpt>
      <trkpt lat="42.72466" lon="-1.99826">
        <ele>517.2662</ele>
        <time>2021-07-05T14:52:07Z</time>
      </trkpt>
      <trkpt lat="42.72326" lon="-1.99751">
        <ele>512.7837</ele>
        <time>2021-07-05T14:52:18Z</time>
      </trkpt>
      <trkpt lat="42.72241" lon="-1.99633">
        <ele>509.2868</ele>
        <time>2021-07-05T14:52:29Z</time>
      </trkpt>
      <trkpt lat="42.72248" lon="-1.99631">
        <ele>510.2839</ele>
        <time>2021-07-05T14:52:40Z</time>
      </trkpt>
      <trkpt lat="42.72332" lon="-1.99753">
        <ele>513.21</ele>
        <time>2021-07-05T14:52:51Z</time>
      </trkpt>
      <trkpt lat="42.72474" lon="-1.99825">
        <ele>516.7128</ele>
        <time>2021-07-05T14:53:02Z</time>
      </trkpt>
      <trkpt lat="42.72502" lon="-1.9985">
        <ele>518.9231</ele>
        <time>2021-07-05T14:53:13Z</time>
      </trkpt>
      <trkpt lat="42.72325" lon="-1.99967">
        <ele>510.9106</ele>
        <time>2021-07-05T14:53:24Z</time>
      </trkpt>
      <trkpt lat="42.72107" lon="-1.99987">
        <ele>515.243</ele>
        <time>2021-07-05T14:53:35Z</time>
      </trkpt>
      <trkpt lat="42.7188" lon="-2.00131">
        <ele>510.7731</ele>
        <time>2021-07-05T14:53:46Z</time>
      </trkpt>
      <trkpt lat="42.71674" lon="-2.0025">
        <ele>511.6044</ele>
        <time>2021-07-05T14:53:57Z</time>
      </trkpt>
      <trkpt lat="42.71491" lon="-2.00182">
        <ele>522.6861</ele>
        <time>2021-07-05T14:54:08Z</time>
      </trkpt>
      <trkpt lat="42.71255" lon="-2.00144">
        <ele>520.5396</ele>
        <time>2021-07-05T14:54:19Z</time>
      </trkpt>
      <trkpt lat="42.71083" lon="-2.00117">
        <ele>515.3236</ele>
        <time>2021-07-05T14:54:30Z</time>
      </trkpt>
      <trkpt lat="42.7095" lon="-2.00095">
        <ele>510.2816</ele>
        <time>2021-07-05T14:54:41Z</time>
      </trkpt>
      <trkpt lat="42.70932" lon="-2.00218">
        <ele>501.8026</ele>
        <time>2021-07-05T14:54:52Z</time>
      </trkpt>
      <trkpt lat="42.70998" lon="-2.00411">
        <ele>502.9887</ele>
        <time>2021-07-05T14:55:03Z</time>
      </trkpt>
      <trkpt lat="42.70908" lon="-2.0047">
        <ele>495.562</ele>
        <time>2021-07-05T14:55:14Z</time>
      </trkpt>
      <trkpt lat="42.70757" lon="-2.00571">
        <ele>503.9638</ele>
        <time>2021-07-05T14:55:25Z</time>
      </trkpt>
      <trkpt lat="42.70609" lon="-2.00603">
        <ele>514.1636</ele>
        <time>2021-07-05T14:55:36Z</time>
      </trkpt>
      <trkpt lat="42.70439" lon="-2.00805">
        <ele>529.4568</ele>
        <time>2021-07-05T14:55:47Z</time>
      </trkpt>
      <trkpt lat="42.7035" lon="-2.01003">
        <ele>536.8361</ele>
        <time>2021-07-05T14:55:58Z</time>
      </trkpt>
      <trkpt lat="42.70268" lon="-2.01226">
        <ele>544.8857</ele>
        <time>2021-07-05T14:56:09Z</time>
      </trkpt>
      <trkpt lat="42.70075" lon="-2.01418">
        <ele>563.9898</ele>
        <time>2021-07-05T14:56:20Z</time>
      </trkpt>
      <trkpt lat="42.69868" lon="-2.01507">
        <ele>580.0995</ele>
        <time>2021-07-05T14:56:31Z</time>
      </trkpt>
      <trkpt lat="42.6972" lon="-2.01442">
        <ele>588.4227</ele>
        <time>2021-07-05T14:56:42Z</time>
      </trkpt>
      <trkpt lat="42.69716" lon="-2.0143">
        <ele>589.1987</ele>
        <time>2021-07-05T14:56:53Z</time>
      </trkpt>
      <trkpt lat="42.69717" lon="-2.01431">
        <ele>589.4075</ele>
        <time>2021-07-05T14:57:53Z</time>
      </trkpt>
      <trkpt lat="42.69719" lon="-2.01432">
        <ele>590.4714</ele>
        <time>2021-07-05T14:58:53Z</time>
      </trkpt>
      <trkpt lat="42.69713" lon="-2.01432">
        <ele>590.8909</ele>
        <time>2021-07-05T14:59:26Z</time>
      </trkpt>
      <trkpt lat="42.69756" lon="-2.0156">
        <ele>595.3984</ele>
        <time>2021-07-05T14:59:37Z</time>
      </trkpt>
      <trkpt lat="42.69716" lon="-2.01811">
        <ele>592.5176</ele>
        <time>2021-07-05T14:59:48Z</time>
      </trkpt>
      <trkpt lat="42.69802" lon="-2.02043">
        <ele>585.8657</ele>
        <time>2021-07-05T14:59:59Z</time>
      </trkpt>
      <trkpt lat="42.69911" lon="-2.02212">
        <ele>574.6352</ele>
        <time>2021-07-05T15:00:10Z</time>
      </trkpt>
      <trkpt lat="42.69932" lon="-2.02262">
        <ele>574.7936</ele>
        <time>2021-07-05T15:00:21Z</time>
      </trkpt>
      <trkpt lat="42.69826" lon="-2.02468">
        <ele>561.4493</ele>
        <time>2021-07-05T15:00:32Z</time>
      </trkpt>
      <trkpt lat="42.69611" lon="-2.0255">
        <ele>545.3915</ele>
        <time>2021-07-05T15:00:43Z</time>
      </trkpt>
      <trkpt lat="42.69387" lon="-2.02595">
        <ele>527.9721</ele>
        <time>2021-07-05T15:00:54Z</time>
      </trkpt>
      <trkpt lat="42.69168" lon="-2.02589">
        <ele>509.1865</ele>
        <time>2021-07-05T15:01:05Z</time>
      </trkpt>
      <trkpt lat="42.69" lon="-2.02799">
        <ele>492.1745</ele>
        <time>2021-07-05T15:01:16Z</time>
      </trkpt>
      <trkpt lat="42.68812" lon="-2.02902">
        <ele>480.8274</ele>
        <time>2021-07-05T15:01:27Z</time>
      </trkpt>
      <trkpt lat="42.68624" lon="-2.02927">
        <ele>472.9388</ele>
        <time>2021-07-05T15:01:38Z</time>
      </trkpt>
      <trkpt lat="42.68465" lon="-2.02988">
        <ele>466.3455</ele>
        <time>2021-07-05T15:01:49Z</time>
      </trkpt>
      <trkpt lat="42.68313" lon="-2.03086">
        <ele>460.1755</ele>
        <time>2021-07-05T15:02:00Z</time>
      </trkpt>
      <trkpt lat="42.68182" lon="-2.03177">
        <ele>451.9638</ele>
        <time>2021-07-05T15:02:11Z</time>
      </trkpt>
      <trkpt lat="42.68108" lon="-2.03236">
        <ele>448.7491</ele>
        <time>2021-07-05T15:02:22Z</time>
      </trkpt>
      <trkpt lat="42.68025" lon="-2.03323">
        <ele>446.4617</ele>
        <time>2021-07-05T15:02:33Z</time>
      </trkpt>
      <trkpt lat="42.67939" lon="-2.03475">
        <ele>438.7968</ele>
        <time>2021-07-05T15:02:44Z</time>
      </trkpt>
      <trkpt lat="42.67858" lon="-2.0356">
        <ele>435.5371</ele>
        <time>2021-07-05T15:02:55Z</time>
      </trkpt>
      <trkpt lat="42.67781" lon="-2.03563">
        <ele>430.6977</ele>
        <time>2021-07-05T15:03:06Z</time>
      </trkpt>
      <trkpt lat="42.67796" lon="-2.03644">
        <ele>428.3613</ele>
        <time>2021-07-05T15:03:17Z</time>
      </trkpt>
      <trkpt lat="42.67885" lon="-2.03735">
        <ele>425.8998</ele>
        <time>2021-07-05T15:03:28Z</time>
      </trkpt>
      <trkpt lat="42.67967" lon="-2.03808">
        <ele>427.8267</ele>
        <time>2021-07-05T15:03:39Z</time>
      </trkpt>
      <trkpt lat="42.68006" lon="-2.0386">
        <ele>428.8679</ele>
        <time>2021-07-05T15:03:50Z</time>
      </trkpt>
      <trkpt lat="42.68033" lon="-2.04039">
        <ele>428.4063</ele>
        <time>2021-07-05T15:04:01Z</time>
      </trkpt>
      <trkpt lat="42.68056" lon="-2.04277">
        <ele>431.0089</ele>
        <time>2021-07-05T15:04:12Z</time>
      </trkpt>
      <trkpt lat="42.68078" lon="-2.04512">
        <ele>426.6825</ele>
        <time>2021-07-05T15:04:23Z</time>
      </trkpt>
      <trkpt lat="42.68152" lon="-2.04714">
        <ele>430.503</ele>
        <time>2021-07-05T15:04:34Z</time>
      </trkpt>
      <trkpt lat="42.68307" lon="-2.04748">
        <ele>428.2413</ele>
        <time>2021-07-05T15:04:45Z</time>
      </trkpt>
      <trkpt lat="42.68345" lon="-2.04806">
        <ele>429.4698</ele>
        <time>2021-07-05T15:04:56Z</time>
      </trkpt>
      <trkpt lat="42.68276" lon="-2.0499">
        <ele>431.4975</ele>
        <time>2021-07-05T15:05:07Z</time>
      </trkpt>
      <trkpt lat="42.68259" lon="-2.0521">
        <ele>427.8647</ele>
        <time>2021-07-05T15:05:18Z</time>
      </trkpt>
      <trkpt lat="42.68277" lon="-2.05435">
        <ele>433.099</ele>
        <time>2021-07-05T15:05:29Z</time>
      </trkpt>
      <trkpt lat="42.68222" lon="-2.05615">
        <ele>429.5464</ele>
        <time>2021-07-05T15:05:40Z</time>
      </trkpt>
      <trkpt lat="42.68254" lon="-2.05822">
        <ele>433.276</ele>
        <time>2021-07-05T15:05:51Z</time>
      </trkpt>
      <trkpt lat="42.68148" lon="-2.05993">
        <ele>432.8768</ele>
        <time>2021-07-05T15:06:02Z</time>
      </trkpt>
      <trkpt lat="42.67997" lon="-2.06088">
        <ele>434.7488</ele>
        <time>2021-07-05T15:06:13Z</time>
      </trkpt>
      <trkpt lat="42.67918" lon="-2.06306">
        <ele>434.2409</ele>
        <time>2021-07-05T15:06:24Z</time>
      </trkpt>
      <trkpt lat="42.6783" lon="-2.06551">
        <ele>439.0109</ele>
        <time>2021-07-05T15:06:35Z</time>
      </trkpt>
      <trkpt lat="42.67806" lon="-2.06777">
        <ele>441.6034</ele>
        <time>2021-07-05T15:06:46Z</time>
      </trkpt>
      <trkpt lat="42.67643" lon="-2.07038">
        <ele>434.8274</ele>
        <time>2021-07-05T15:06:57Z</time>
      </trkpt>
      <trkpt lat="42.67471" lon="-2.07313">
        <ele>434.7021</ele>
        <time>2021-07-05T15:07:08Z</time>
      </trkpt>
      <trkpt lat="42.67301" lon="-2.07572">
        <ele>436.0503</ele>
        <time>2021-07-05T15:07:19Z</time>
      </trkpt>
      <trkpt lat="42.67081" lon="-2.07768">
        <ele>436.2359</ele>
        <time>2021-07-05T15:07:30Z</time>
      </trkpt>
      <trkpt lat="42.66861" lon="-2.07948">
        <ele>437.4549</ele>
        <time>2021-07-05T15:07:41Z</time>
      </trkpt>
      <trkpt lat="42.66643" lon="-2.08127">
        <ele>440.126</ele>
        <time>2021-07-05T15:07:52Z</time>
      </trkpt>
      <trkpt lat="42.66455" lon="-2.08344">
        <ele>441.0581</ele>
        <time>2021-07-05T15:08:03Z</time>
      </trkpt>
      <trkpt lat="42.66269" lon="-2.08574">
        <ele>439.3691</ele>
        <time>2021-07-05T15:08:14Z</time>
      </trkpt>
      <trkpt lat="42.66102" lon="-2.08817">
        <ele>440.8018</ele>
        <time>2021-07-05T15:08:25Z</time>
      </trkpt>
      <trkpt lat="42.66025" lon="-2.09143">
        <ele>443.4426</ele>
        <time>2021-07-05T15:08:36Z</time>
      </trkpt>
      <trkpt lat="42.65951" lon="-2.09475">
        <ele>445.1314</ele>
        <time>2021-07-05T15:08:47Z</time>
      </trkpt>
      <trkpt lat="42.65868" lon="-2.09799">
        <ele>445.084</ele>
        <time>2021-07-05T15:08:58Z</time>
      </trkpt>
      <trkpt lat="42.6579" lon="-2.10109">
        <ele>446.1763</ele>
        <time>2021-07-05T15:09:09Z</time>
      </trkpt>
      <trkpt lat="42.65764" lon="-2.10419">
        <ele>449.7247</ele>
        <time>2021-07-05T15:09:20Z</time>
      </trkpt>
      <trkpt lat="42.65914" lon="-2.10687">
        <ele>450.6597</ele>
        <time>2021-07-05T15:09:31Z</time>
      </trkpt>
      <trkpt lat="42.65974" lon="-2.11002">
        <ele>451.0432</ele>
        <time>2021-07-05T15:09:42Z</time>
      </trkpt>
      <trkpt lat="42.65961" lon="-2.11331">
        <ele>450.3034</ele>
        <time>2021-07-05T15:09:53Z</time>
      </trkpt>
      <trkpt lat="42.65911" lon="-2.11664">
        <ele>450.6918</ele>
        <time>2021-07-05T15:10:04Z</time>
      </trkpt>
      <trkpt lat="42.65808" lon="-2.11991">
        <ele>451.2392</ele>
        <time>2021-07-05T15:10:15Z</time>
      </trkpt>
      <trkpt lat="42.657" lon="-2.12319">
        <ele>452.8922</ele>
        <time>2021-07-05T15:10:26Z</time>
      </trkpt>
      <trkpt lat="42.65605" lon="-2.12642">
        <ele>454.7435</ele>
        <time>2021-07-05T15:10:37Z</time>
      </trkpt>
      <trkpt lat="42.65657" lon="-2.1296">
        <ele>455.7546</ele>
        <time>2021-07-05T15:10:48Z</time>
      </trkpt>
      <trkpt lat="42.65644" lon="-2.13318">
        <ele>455.7392</ele>
        <time>2021-07-05T15:10:59Z</time>
      </trkpt>
      <trkpt lat="42.65632" lon="-2.13656">
        <ele>456.5387</ele>
        <time>2021-07-05T15:11:10Z</time>
      </trkpt>
      <trkpt lat="42.65618" lon="-2.14004">
        <ele>456.0078</ele>
        <time>2021-07-05T15:11:21Z</time>
      </trkpt>
      <trkpt lat="42.65578" lon="-2.1434">
        <ele>457.1422</ele>
        <time>2021-07-05T15:11:32Z</time>
      </trkpt>
      <trkpt lat="42.65532" lon="-2.14669">
        <ele>457.6271</ele>
        <time>2021-07-05T15:11:43Z</time>
      </trkpt>
      <trkpt lat="42.65556" lon="-2.14975">
        <ele>459.4345</ele>
        <time>2021-07-05T15:11:54Z</time>
      </trkpt>
      <trkpt lat="42.65573" lon="-2.15196">
        <ele>460.9124</ele>
        <time>2021-07-05T15:12:05Z</time>
      </trkpt>
      <trkpt lat="42.65584" lon="-2.15382">
        <ele>460.7855</ele>
        <time>2021-07-05T15:12:16Z</time>
      </trkpt>
      <trkpt lat="42.656" lon="-2.15575">
        <ele>464.0376</ele>
        <time>2021-07-05T15:12:27Z</time>
      </trkpt>
      <trkpt lat="42.65621" lon="-2.15801">
        <ele>465.7104</ele>
        <time>2021-07-05T15:12:38Z</time>
      </trkpt>
      <trkpt lat="42.65653" lon="-2.16124">
        <ele>464.1578</ele>
        <time>2021-07-05T15:12:49Z</time>
      </trkpt>
      <trkpt lat="42.65683" lon="-2.16465">
        <ele>463.9738</ele>
        <time>2021-07-05T15:13:00Z</time>
      </trkpt>
      <trkpt lat="42.65715" lon="-2.16816">
        <ele>464.0073</ele>
        <time>2021-07-05T15:13:11Z</time>
      </trkpt>
      <trkpt lat="42.65745" lon="-2.17165">
        <ele>464.99</ele>
        <time>2021-07-05T15:13:22Z</time>
      </trkpt>
      <trkpt lat="42.65777" lon="-2.17512">
        <ele>465.3378</ele>
        <time>2021-07-05T15:13:33Z</time>
      </trkpt>
      <trkpt lat="42.65804" lon="-2.17852">
        <ele>466.6551</ele>
        <time>2021-07-05T15:13:44Z</time>
      </trkpt>
      <trkpt lat="42.65838" lon="-2.18178">
        <ele>470.0443</ele>
        <time>2021-07-05T15:13:55Z</time>
      </trkpt>
      <trkpt lat="42.65839" lon="-2.18495">
        <ele>475.1355</ele>
        <time>2021-07-05T15:14:06Z</time>
      </trkpt>
      <trkpt lat="42.65846" lon="-2.18703">
        <ele>476.2734</ele>
        <time>2021-07-05T15:14:17Z</time>
      </trkpt>
      <trkpt lat="42.65846" lon="-2.18872">
        <ele>477.2117</ele>
        <time>2021-07-05T15:14:28Z</time>
      </trkpt>
      <trkpt lat="42.65847" lon="-2.1907">
        <ele>476.7091</ele>
        <time>2021-07-05T15:14:39Z</time>
      </trkpt>
      <trkpt lat="42.65848" lon="-2.19244">
        <ele>480.0811</ele>
        <time>2021-07-05T15:14:50Z</time>
      </trkpt>
      <trkpt lat="42.65871" lon="-2.19518">
        <ele>475.7493</ele>
        <time>2021-07-05T15:15:01Z</time>
      </trkpt>
      <trkpt lat="42.65913" lon="-2.19853">
        <ele>475.9745</ele>
        <time>2021-07-05T15:15:12Z</time>
      </trkpt>
      <trkpt lat="42.65952" lon="-2.20166">
        <ele>482.3658</ele>
        <time>2021-07-05T15:15:23Z</time>
      </trkpt>
      <trkpt lat="42.65988" lon="-2.20468">
        <ele>488.2511</ele>
        <time>2021-07-05T15:15:34Z</time>
      </trkpt>
      <trkpt lat="42.66036" lon="-2.20793">
        <ele>482.078</ele>
        <time>2021-07-05T15:15:45Z</time>
      </trkpt>
      <trkpt lat="42.66135" lon="-2.2111">
        <ele>483.4492</ele>
        <time>2021-07-05T15:15:56Z</time>
      </trkpt>
      <trkpt lat="42.66295" lon="-2.2139">
        <ele>478.9358</ele>
        <time>2021-07-05T15:16:07Z</time>
      </trkpt>
      <trkpt lat="42.66451" lon="-2.21662">
        <ele>480.5964</ele>
        <time>2021-07-05T15:16:18Z</time>
      </trkpt>
      <trkpt lat="42.66479" lon="-2.21969">
        <ele>488.3517</ele>
        <time>2021-07-05T15:16:29Z</time>
      </trkpt>
      <trkpt lat="42.66471" lon="-2.22308">
        <ele>498.711</ele>
        <time>2021-07-05T15:16:40Z</time>
      </trkpt>
      <trkpt lat="42.66418" lon="-2.22642">
        <ele>509.1221</ele>
        <time>2021-07-05T15:16:51Z</time>
      </trkpt>
      <trkpt lat="42.66333" lon="-2.22984">
        <ele>514.406</ele>
        <time>2021-07-05T15:17:02Z</time>
      </trkpt>
      <trkpt lat="42.66268" lon="-2.23324">
        <ele>512.3821</ele>
        <time>2021-07-05T15:17:13Z</time>
      </trkpt>
      <trkpt lat="42.66339" lon="-2.2367">
        <ele>511.0014</ele>
        <time>2021-07-05T15:17:24Z</time>
      </trkpt>
      <trkpt lat="42.66419" lon="-2.2402">
        <ele>515.5713</ele>
        <time>2021-07-05T15:17:35Z</time>
      </trkpt>
      <trkpt lat="42.66492" lon="-2.24335">
        <ele>519.2171</ele>
        <time>2021-07-05T15:17:46Z</time>
      </trkpt>
      <trkpt lat="42.66546" lon="-2.24571">
        <ele>522.4987</ele>
        <time>2021-07-05T15:17:57Z</time>
      </trkpt>
      <trkpt lat="42.66593" lon="-2.24776">
        <ele>522.9102</ele>
        <time>2021-07-05T15:18:08Z</time>
      </trkpt>
      <trkpt lat="42.66635" lon="-2.24984">
        <ele>530.7965</ele>
        <time>2021-07-05T15:18:19Z</time>
      </trkpt>
      <trkpt lat="42.66706" lon="-2.25211">
        <ele>538.3361</ele>
        <time>2021-07-05T15:18:30Z</time>
      </trkpt>
      <trkpt lat="42.66818" lon="-2.25497">
        <ele>542.9855</ele>
        <time>2021-07-05T15:18:41Z</time>
      </trkpt>
      <trkpt lat="42.66922" lon="-2.25822">
        <ele>545.3217</ele>
        <time>2021-07-05T15:18:52Z</time>
      </trkpt>
      <trkpt lat="42.67029" lon="-2.26147">
        <ele>558.0617</ele>
        <time>2021-07-05T15:19:03Z</time>
      </trkpt>
      <trkpt lat="42.67146" lon="-2.26446">
        <ele>572.7103</ele>
        <time>2021-07-05T15:19:14Z</time>
      </trkpt>
      <trkpt lat="42.67391" lon="-2.26432">
        <ele>563.4846</ele>
        <time>2021-07-05T15:19:25Z</time>
      </trkpt>
      <trkpt lat="42.67653" lon="-2.26358">
        <ele>553.395</ele>
        <time>2021-07-05T15:19:36Z</time>
      </trkpt>
      <trkpt lat="42.67904" lon="-2.26335">
        <ele>541.9089</ele>
        <time>2021-07-05T15:19:47Z</time>
      </trkpt>
      <trkpt lat="42.67996" lon="-2.26513">
        <ele>530.6698</ele>
        <time>2021-07-05T15:19:58Z</time>
      </trkpt>
      <trkpt lat="42.68141" lon="-2.26802">
        <ele>519.2359</ele>
        <time>2021-07-05T15:20:09Z</time>
      </trkpt>
      <trkpt lat="42.68337" lon="-2.26927">
        <ele>518.5393</ele>
        <time>2021-07-05T15:20:20Z</time>
      </trkpt>
      <trkpt lat="42.6843" lon="-2.27105">
        <ele>522.3831</ele>
        <time>2021-07-05T15:20:31Z</time>
      </trkpt>
      <trkpt lat="42.68259" lon="-2.27186">
        <ele>524.5449</ele>
        <time>2021-07-05T15:20:42Z</time>
      </trkpt>
      <trkpt lat="42.68157" lon="-2.27437">
        <ele>521.9321</ele>
        <time>2021-07-05T15:20:53Z</time>
      </trkpt>
      <trkpt lat="42.67997" lon="-2.27559">
        <ele>522.604</ele>
        <time>2021-07-05T15:21:04Z</time>
      </trkpt>
      <trkpt lat="42.68085" lon="-2.27784">
        <ele>522.7512</ele>
        <time>2021-07-05T15:21:15Z</time>
      </trkpt>
      <trkpt lat="42.68206" lon="-2.27967">
        <ele>522.3647</ele>
        <time>2021-07-05T15:21:26Z</time>
      </trkpt>
      <trkpt lat="42.68195" lon="-2.28245">
        <ele>521.7564</ele>
        <time>2021-07-05T15:21:37Z</time>
      </trkpt>
      <trkpt lat="42.68182" lon="-2.28551">
        <ele>529.4741</ele>
        <time>2021-07-05T15:21:48Z</time>
      </trkpt>
      <trkpt lat="42.68355" lon="-2.28767">
        <ele>530.2064</ele>
        <time>2021-07-05T15:21:59Z</time>
      </trkpt>
      <trkpt lat="42.68519" lon="-2.29009">
        <ele>535.7752</ele>
        <time>2021-07-05T15:22:10Z</time>
      </trkpt>
      <trkpt lat="42.68592" lon="-2.29338">
        <ele>539.7079</ele>
        <time>2021-07-05T15:22:21Z</time>
      </trkpt>
      <trkpt lat="42.68801" lon="-2.29505">
        <ele>547.4575</ele>
        <time>2021-07-05T15:22:32Z</time>
      </trkpt>
      <trkpt lat="42.68826" lon="-2.29807">
        <ele>549.6718</ele>
        <time>2021-07-05T15:22:43Z</time>
      </trkpt>
      <trkpt lat="42.68728" lon="-2.30152">
        <ele>554.1426</ele>
        <time>2021-07-05T15:22:54Z</time>
      </trkpt>
      <trkpt lat="42.6863" lon="-2.30489">
        <ele>556.4872</ele>
        <time>2021-07-05T15:23:05Z</time>
      </trkpt>
      <trkpt lat="42.68526" lon="-2.30815">
        <ele>551.8839</ele>
        <time>2021-07-05T15:23:16Z</time>
      </trkpt>
      <trkpt lat="42.68395" lon="-2.3112">
        <ele>552.6147</ele>
        <time>2021-07-05T15:23:27Z</time>
      </trkpt>
      <trkpt lat="42.68264" lon="-2.3142">
        <ele>556.565</ele>
        <time>2021-07-05T15:23:38Z</time>
      </trkpt>
      <trkpt lat="42.68162" lon="-2.31744">
        <ele>553.9881</ele>
        <time>2021-07-05T15:23:49Z</time>
      </trkpt>
      <trkpt lat="42.68077" lon="-2.32057">
        <ele>551.4135</ele>
        <time>2021-07-05T15:24:00Z</time>
      </trkpt>
      <trkpt lat="42.67993" lon="-2.32367">
        <ele>547.433</ele>
        <time>2021-07-05T15:24:11Z</time>
      </trkpt>
      <trkpt lat="42.67908" lon="-2.32676">
        <ele>544.3124</ele>
        <time>2021-07-05T15:24:22Z</time>
      </trkpt>
      <trkpt lat="42.67829" lon="-2.32964">
        <ele>546.6207</ele>
        <time>2021-07-05T15:24:33Z</time>
      </trkpt>
      <trkpt lat="42.67755" lon="-2.33237">
        <ele>544.6543</ele>
        <time>2021-07-05T15:24:44Z</time>
      </trkpt>
      <trkpt lat="42.67669" lon="-2.33551">
        <ele>541.27</ele>
        <time>2021-07-05T15:24:55Z</time>
      </trkpt>
      <trkpt lat="42.67587" lon="-2.33851">
        <ele>542.926</ele>
        <time>2021-07-05T15:25:06Z</time>
      </trkpt>
      <trkpt lat="42.675" lon="-2.34173">
        <ele>543.955</ele>
        <time>2021-07-05T15:25:17Z</time>
      </trkpt>
      <trkpt lat="42.67419" lon="-2.34468">
        <ele>545.8463</ele>
        <time>2021-07-05T15:25:28Z</time>
      </trkpt>
      <trkpt lat="42.67298" lon="-2.34727">
        <ele>546.8669</ele>
        <time>2021-07-05T15:25:39Z</time>
      </trkpt>
      <trkpt lat="42.67169" lon="-2.34883">
        <ele>548.8566</ele>
        <time>2021-07-05T15:25:50Z</time>
      </trkpt>
      <trkpt lat="42.67091" lon="-2.35091">
        <ele>552.2043</ele>
        <time>2021-07-05T15:26:01Z</time>
      </trkpt>
      <trkpt lat="42.67059" lon="-2.35311">
        <ele>553.1335</ele>
        <time>2021-07-05T15:26:12Z</time>
      </trkpt>
      <trkpt lat="42.67032" lon="-2.35507">
        <ele>553.7001</ele>
        <time>2021-07-05T15:26:23Z</time>
      </trkpt>
      <trkpt lat="42.67017" lon="-2.35701">
        <ele>561.4539</ele>
        <time>2021-07-05T15:26:34Z</time>
      </trkpt>
      <trkpt lat="42.66994" lon="-2.35857">
        <ele>561.9928</ele>
        <time>2021-07-05T15:26:45Z</time>
      </trkpt>
      <trkpt lat="42.66962" lon="-2.36177">
        <ele>563.8963</ele>
        <time>2021-07-05T15:26:56Z</time>
      </trkpt>
      <trkpt lat="42.66847" lon="-2.36481">
        <ele>563.3021</ele>
        <time>2021-07-05T15:27:07Z</time>
      </trkpt>
      <trkpt lat="42.66723" lon="-2.36787">
        <ele>566.0465</ele>
        <time>2021-07-05T15:27:18Z</time>
      </trkpt>
      <trkpt lat="42.66606" lon="-2.37131">
        <ele>565.0158</ele>
        <time>2021-07-05T15:27:29Z</time>
      </trkpt>
      <trkpt lat="42.66497" lon="-2.37467">
        <ele>567.3499</ele>
        <time>2021-07-05T15:27:40Z</time>
      </trkpt>
      <trkpt lat="42.66348" lon="-2.37779">
        <ele>570.851</ele>
        <time>2021-07-05T15:27:51Z</time>
      </trkpt>
      <trkpt lat="42.66165" lon="-2.38012">
        <ele>573.7316</ele>
        <time>2021-07-05T15:28:02Z</time>
      </trkpt>
      <trkpt lat="42.65944" lon="-2.38222">
        <ele>581.8227</ele>
        <time>2021-07-05T15:28:13Z</time>
      </trkpt>
      <trkpt lat="42.65699" lon="-2.38416">
        <ele>585.6519</ele>
        <time>2021-07-05T15:28:24Z</time>
      </trkpt>
      <trkpt lat="42.65456" lon="-2.38547">
        <ele>589.171</ele>
        <time>2021-07-05T15:28:35Z</time>
      </trkpt>
      <trkpt lat="42.65197" lon="-2.3866">
        <ele>601.4849</ele>
        <time>2021-07-05T15:28:46Z</time>
      </trkpt>
      <trkpt lat="42.64936" lon="-2.38772">
        <ele>612.1908</ele>
        <time>2021-07-05T15:28:57Z</time>
      </trkpt>
      <trkpt lat="42.64718" lon="-2.38823">
        <ele>618.5047</ele>
        <time>2021-07-05T15:29:08Z</time>
      </trkpt>
      <trkpt lat="42.6457" lon="-2.38894">
        <ele>619.1155</ele>
        <time>2021-07-05T15:29:19Z</time>
      </trkpt>
      <trkpt lat="42.64439" lon="-2.38922">
        <ele>625.3667</ele>
        <time>2021-07-05T15:29:30Z</time>
      </trkpt>
      <trkpt lat="42.64282" lon="-2.38937">
        <ele>628.0981</ele>
        <time>2021-07-05T15:29:41Z</time>
      </trkpt>
      <trkpt lat="42.64154" lon="-2.39192">
        <ele>636.2194</ele>
        <time>2021-07-05T15:29:52Z</time>
      </trkpt>
      <trkpt lat="42.64038" lon="-2.39443">
        <ele>642.5148</ele>
        <time>2021-07-05T15:30:03Z</time>
      </trkpt>
      <trkpt lat="42.63929" lon="-2.39573">
        <ele>650.6776</ele>
        <time>2021-07-05T15:30:14Z</time>
      </trkpt>
      <trkpt lat="42.63738" lon="-2.39722">
        <ele>665.1898</ele>
        <time>2021-07-05T15:30:25Z</time>
      </trkpt>
      <trkpt lat="42.63671" lon="-2.39953">
        <ele>669.4138</ele>
        <time>2021-07-05T15:30:36Z</time>
      </trkpt>
      <trkpt lat="42.6353" lon="-2.40068">
        <ele>679.061</ele>
        <time>2021-07-05T15:30:47Z</time>
      </trkpt>
      <trkpt lat="42.63356" lon="-2.40191">
        <ele>687.5585</ele>
        <time>2021-07-05T15:30:58Z</time>
      </trkpt>
      <trkpt lat="42.63173" lon="-2.40282">
        <ele>697.5744</ele>
        <time>2021-07-05T15:31:09Z</time>
      </trkpt>
      <trkpt lat="42.63009" lon="-2.40468">
        <ele>712.8214</ele>
        <time>2021-07-05T15:31:20Z</time>
      </trkpt>
      <trkpt lat="42.62908" lon="-2.40693">
        <ele>727.1907</ele>
        <time>2021-07-05T15:31:31Z</time>
      </trkpt>
      <trkpt lat="42.62817" lon="-2.40952">
        <ele>739.6034</ele>
        <time>2021-07-05T15:31:42Z</time>
      </trkpt>
      <trkpt lat="42.62723" lon="-2.41189">
        <ele>747.5176</ele>
        <time>2021-07-05T15:31:53Z</time>
      </trkpt>
      <trkpt lat="42.62558" lon="-2.41345">
        <ele>759.4339</ele>
        <time>2021-07-05T15:32:04Z</time>
      </trkpt>
      <trkpt lat="42.62453" lon="-2.41518">
        <ele>767.8608</ele>
        <time>2021-07-05T15:32:15Z</time>
      </trkpt>
      <trkpt lat="42.62344" lon="-2.4137">
        <ele>778.6054</ele>
        <time>2021-07-05T15:32:26Z</time>
      </trkpt>
      <trkpt lat="42.62232" lon="-2.41383">
        <ele>785.8129</ele>
        <time>2021-07-05T15:32:37Z</time>
      </trkpt>
      <trkpt lat="42.62095" lon="-2.41317">
        <ele>789.6053</ele>
        <time>2021-07-05T15:32:48Z</time>
      </trkpt>
      <trkpt lat="42.61948" lon="-2.41443">
        <ele>787.6435</ele>
        <time>2021-07-05T15:32:59Z</time>
      </trkpt>
      <trkpt lat="42.61842" lon="-2.41694">
        <ele>790.4485</ele>
        <time>2021-07-05T15:33:10Z</time>
      </trkpt>
      <trkpt lat="42.61696" lon="-2.4193">
        <ele>806.5817</ele>
        <time>2021-07-05T15:33:21Z</time>
      </trkpt>
      <trkpt lat="42.61511" lon="-2.42094">
        <ele>819.2391</ele>
        <time>2021-07-05T15:33:32Z</time>
      </trkpt>
      <trkpt lat="42.61357" lon="-2.42136">
        <ele>833.4754</ele>
        <time>2021-07-05T15:33:43Z</time>
      </trkpt>
      <trkpt lat="42.61242" lon="-2.42013">
        <ele>834.9011</ele>
        <time>2021-07-05T15:33:54Z</time>
      </trkpt>
      <trkpt lat="42.61183" lon="-2.42198">
        <ele>841.5143</ele>
        <time>2021-07-05T15:34:05Z</time>
      </trkpt>
      <trkpt lat="42.61176" lon="-2.42422">
        <ele>858.823</ele>
        <time>2021-07-05T15:34:16Z</time>
      </trkpt>
      <trkpt lat="42.61174" lon="-2.4267">
        <ele>867.4638</ele>
        <time>2021-07-05T15:34:27Z</time>
      </trkpt>
      <trkpt lat="42.61208" lon="-2.42938">
        <ele>879.9441</ele>
        <time>2021-07-05T15:34:38Z</time>
      </trkpt>
      <trkpt lat="42.61202" lon="-2.4311">
        <ele>883.8758</ele>
        <time>2021-07-05T15:34:49Z</time>
      </trkpt>
      <trkpt lat="42.61084" lon="-2.43145">
        <ele>889.366</ele>
        <time>2021-07-05T15:35:00Z</time>
      </trkpt>
      <trkpt lat="42.61048" lon="-2.4335">
        <ele>893.4916</ele>
        <time>2021-07-05T15:35:11Z</time>
      </trkpt>
      <trkpt lat="42.61023" lon="-2.43535">
        <ele>905.8614</ele>
        <time>2021-07-05T15:35:22Z</time>
      </trkpt>
      <trkpt lat="42.60921" lon="-2.43698">
        <ele>900.5191</ele>
        <time>2021-07-05T15:35:33Z</time>
      </trkpt>
      <trkpt lat="42.60968" lon="-2.43937">
        <ele>901.3692</ele>
        <time>2021-07-05T15:35:44Z</time>
      </trkpt>
      <trkpt lat="42.61042" lon="-2.44225">
        <ele>906.3289</ele>
        <time>2021-07-05T15:35:55Z</time>
      </trkpt>
      <trkpt lat="42.6105" lon="-2.44493">
        <ele>917.1159</ele>
        <time>2021-07-05T15:36:06Z</time>
      </trkpt>
      <trkpt lat="42.60902" lon="-2.44672">
        <ele>926.1228</ele>
        <time>2021-07-05T15:36:17Z</time>
      </trkpt>
      <trkpt lat="42.60836" lon="-2.44826">
        <ele>930.0984</ele>
        <time>2021-07-05T15:36:28Z</time>
      </trkpt>
      <trkpt lat="42.60741" lon="-2.45041">
        <ele>926.5538</ele>
        <time>2021-07-05T15:36:39Z</time>
      </trkpt>
      <trkpt lat="42.60697" lon="-2.45359">
        <ele>931.854</ele>
        <time>2021-07-05T15:36:50Z</time>
      </trkpt>
      <trkpt lat="42.60569" lon="-2.45605">
        <ele>944.0451</ele>
        <time>2021-07-05T15:37:01Z</time>
      </trkpt>
      <trkpt lat="42.60488" lon="-2.45818">
        <ele>950.7725</ele>
        <time>2021-07-05T15:37:12Z</time>
      </trkpt>
      <trkpt lat="42.60463" lon="-2.45953">
        <ele>959.475</ele>
        <time>2021-07-05T15:37:23Z</time>
      </trkpt>
      <trkpt lat="42.60416" lon="-2.46087">
        <ele>957.158</ele>
        <time>2021-07-05T15:37:34Z</time>
      </trkpt>
      <trkpt lat="42.6038" lon="-2.46196">
        <ele>953.3943</ele>
        <time>2021-07-05T15:37:45Z</time>
      </trkpt>
      <trkpt lat="42.60316" lon="-2.46386">
        <ele>944.7062</ele>
        <time>2021-07-05T15:37:56Z</time>
      </trkpt>
      <trkpt lat="42.60266" lon="-2.46611">
        <ele>932.1829</ele>
        <time>2021-07-05T15:38:07Z</time>
      </trkpt>
      <trkpt lat="42.60254" lon="-2.46783">
        <ele>924.0365</ele>
        <time>2021-07-05T15:38:18Z</time>
      </trkpt>
      <trkpt lat="42.60167" lon="-2.46979">
        <ele>911.1367</ele>
        <time>2021-07-05T15:38:29Z</time>
      </trkpt>
      <trkpt lat="42.60218" lon="-2.47203">
        <ele>900.1524</ele>
        <time>2021-07-05T15:38:40Z</time>
      </trkpt>
      <trkpt lat="42.60311" lon="-2.47373">
        <ele>887.0204</ele>
        <time>2021-07-05T15:38:51Z</time>
      </trkpt>
      <trkpt lat="42.60288" lon="-2.47439">
        <ele>883.5977</ele>
        <time>2021-07-05T15:39:02Z</time>
      </trkpt>
      <trkpt lat="42.6022" lon="-2.47369">
        <ele>879.7892</ele>
        <time>2021-07-05T15:39:13Z</time>
      </trkpt>
      <trkpt lat="42.60273" lon="-2.4742">
        <ele>884.6524</ele>
        <time>2021-07-05T15:39:24Z</time>
      </trkpt>
      <trkpt lat="42.60288" lon="-2.47518">
        <ele>880.5607</ele>
        <time>2021-07-05T15:39:35Z</time>
      </trkpt>
      <trkpt lat="42.60249" lon="-2.478">
        <ele>871.9927</ele>
        <time>2021-07-05T15:39:46Z</time>
      </trkpt>
      <trkpt lat="42.60243" lon="-2.48046">
        <ele>871.3202</ele>
        <time>2021-07-05T15:39:57Z</time>
      </trkpt>
      <trkpt lat="42.60322" lon="-2.48206">
        <ele>861.0186</ele>
        <time>2021-07-05T15:40:08Z</time>
      </trkpt>
      <trkpt lat="42.60476" lon="-2.48176">
        <ele>851.7565</ele>
        <time>2021-07-05T15:40:19Z</time>
      </trkpt>
      <trkpt lat="42.60605" lon="-2.48178">
        <ele>845.674</ele>
        <time>2021-07-05T15:40:30Z</time>
      </trkpt>
      <trkpt lat="42.60615" lon="-2.48332">
        <ele>834.323</ele>
        <time>2021-07-05T15:40:41Z</time>
      </trkpt>
      <trkpt lat="42.60666" lon="-2.48532">
        <ele>827.809</ele>
        <time>2021-07-05T15:40:52Z</time>
      </trkpt>
      <trkpt lat="42.60703" lon="-2.48704">
        <ele>816.8026</ele>
        <time>2021-07-05T15:41:03Z</time>
      </trkpt>
      <trkpt lat="42.60641" lon="-2.48829">
        <ele>805.3845</ele>
        <time>2021-07-05T15:41:14Z</time>
      </trkpt>
      <trkpt lat="42.6065" lon="-2.49001">
        <ele>798.7039</ele>
        <time>2021-07-05T15:41:25Z</time>
      </trkpt>
      <trkpt lat="42.60591" lon="-2.49227">
        <ele>784.7479</ele>
        <time>2021-07-05T15:41:36Z</time>
      </trkpt>
      <trkpt lat="42.6045" lon="-2.49476">
        <ele>765.6235</ele>
        <time>2021-07-05T15:41:47Z</time>
      </trkpt>
      <trkpt lat="42.6036" lon="-2.49666">
        <ele>765.6687</ele>
        <time>2021-07-05T15:41:58Z</time>
      </trkpt>
      <trkpt lat="42.60325" lon="-2.49828">
        <ele>760.5154</ele>
        <time>2021-07-05T15:42:09Z</time>
      </trkpt>
      <trkpt lat="42.6024" lon="-2.49847">
        <ele>754.3233</ele>
        <time>2021-07-05T15:42:20Z</time>
      </trkpt>
      <trkpt lat="42.60169" lon="-2.49938">
        <ele>745.0197</ele>
        <time>2021-07-05T15:42:31Z</time>
      </trkpt>
      <trkpt lat="42.60039" lon="-2.50062">
        <ele>742.7859</ele>
        <time>2021-07-05T15:42:42Z</time>
      </trkpt>
      <trkpt lat="42.59955" lon="-2.5028">
        <ele>730.7705</ele>
        <time>2021-07-05T15:42:53Z</time>
      </trkpt>
      <trkpt lat="42.59828" lon="-2.5044">
        <ele>723.7791</ele>
        <time>2021-07-05T15:43:04Z</time>
      </trkpt>
      <trkpt lat="42.59681" lon="-2.50559">
        <ele>723.67</ele>
        <time>2021-07-05T15:43:15Z</time>
      </trkpt>
      <trkpt lat="42.59738" lon="-2.50728">
        <ele>714.0014</ele>
        <time>2021-07-05T15:43:26Z</time>
      </trkpt>
      <trkpt lat="42.59828" lon="-2.50904">
        <ele>703.7185</ele>
        <time>2021-07-05T15:43:37Z</time>
      </trkpt>
      <trkpt lat="42.59716" lon="-2.50958">
        <ele>702.8687</ele>
        <time>2021-07-05T15:43:48Z</time>
      </trkpt>
      <trkpt lat="42.59648" lon="-2.51059">
        <ele>700.9044</ele>
        <time>2021-07-05T15:43:59Z</time>
      </trkpt>
      <trkpt lat="42.59509" lon="-2.5111">
        <ele>700.3542</ele>
        <time>2021-07-05T15:44:10Z</time>
      </trkpt>
      <trkpt lat="42.5941" lon="-2.51278">
        <ele>698.7372</ele>
        <time>2021-07-05T15:44:21Z</time>
      </trkpt>
      <trkpt lat="42.59398" lon="-2.51402">
        <ele>702.673</ele>
        <time>2021-07-05T15:44:32Z</time>
      </trkpt>
      <trkpt lat="42.59409" lon="-2.51501">
        <ele>702.9807</ele>
        <time>2021-07-05T15:44:43Z</time>
      </trkpt>
      <trkpt lat="42.59438" lon="-2.51604">
        <ele>697.9302</ele>
        <time>2021-07-05T15:44:54Z</time>
      </trkpt>
      <trkpt lat="42.59542" lon="-2.51702">
        <ele>685.1925</ele>
        <time>2021-07-05T15:45:05Z</time>
      </trkpt>
      <trkpt lat="42.59609" lon="-2.51867">
        <ele>675.5996</ele>
        <time>2021-07-05T15:45:16Z</time>
      </trkpt>
      <trkpt lat="42.59474" lon="-2.52115">
        <ele>686.395</ele>
        <time>2021-07-05T15:45:27Z</time>
      </trkpt>
      <trkpt lat="42.59489" lon="-2.52438">
        <ele>674.9213</ele>
        <time>2021-07-05T15:45:38Z</time>
      </trkpt>
      <trkpt lat="42.59531" lon="-2.52708">
        <ele>667.1894</ele>
        <time>2021-07-05T15:45:49Z</time>
      </trkpt>
      <trkpt lat="42.59485" lon="-2.52969">
        <ele>660.9163</ele>
        <time>2021-07-05T15:46:00Z</time>
      </trkpt>
      <trkpt lat="42.593" lon="-2.5303">
        <ele>671.8558</ele>
        <time>2021-07-05T15:46:11Z</time>
      </trkpt>
      <trkpt lat="42.5913" lon="-2.53132">
        <ele>653.2403</ele>
        <time>2021-07-05T15:46:22Z</time>
      </trkpt>
      <trkpt lat="42.58885" lon="-2.53124">
        <ele>642.7584</ele>
        <time>2021-07-05T15:46:33Z</time>
      </trkpt>
      <trkpt lat="42.58665" lon="-2.53208">
        <ele>650.6329</ele>
        <time>2021-07-05T15:46:44Z</time>
      </trkpt>
      <trkpt lat="42.58459" lon="-2.53381">
        <ele>648.8179</ele>
        <time>2021-07-05T15:46:55Z</time>
      </trkpt>
      <trkpt lat="42.58213" lon="-2.53513">
        <ele>637.1456</ele>
        <time>2021-07-05T15:47:06Z</time>
      </trkpt>
      <trkpt lat="42.57971" lon="-2.53655">
        <ele>643.6496</ele>
        <time>2021-07-05T15:47:17Z</time>
      </trkpt>
      <trkpt lat="42.57747" lon="-2.5381">
        <ele>618.9596</ele>
        <time>2021-07-05T15:47:28Z</time>
      </trkpt>
      <trkpt lat="42.57521" lon="-2.53965">
        <ele>594.7802</ele>
        <time>2021-07-05T15:47:39Z</time>
      </trkpt>
      <trkpt lat="42.57339" lon="-2.54124">
        <ele>586.6521</ele>
        <time>2021-07-05T15:47:50Z</time>
      </trkpt>
      <trkpt lat="42.5713" lon="-2.5417">
        <ele>578.588</ele>
        <time>2021-07-05T15:48:01Z</time>
      </trkpt>
      <trkpt lat="42.56905" lon="-2.54177">
        <ele>561.0014</ele>
        <time>2021-07-05T15:48:12Z</time>
      </trkpt>
      <trkpt lat="42.56698" lon="-2.54182">
        <ele>559.6175</ele>
        <time>2021-07-05T15:48:23Z</time>
      </trkpt>
      <trkpt lat="42.56649" lon="-2.54273">
        <ele>562.211</ele>
        <time>2021-07-05T15:48:34Z</time>
      </trkpt>
      <trkpt lat="42.56746" lon="-2.54504">
        <ele>554.9967</ele>
        <time>2021-07-05T15:48:45Z</time>
      </trkpt>
      <trkpt lat="42.56819" lon="-2.5472">
        <ele>544.1044</ele>
        <time>2021-07-05T15:48:56Z</time>
      </trkpt>
      <trkpt lat="42.56778" lon="-2.54833">
        <ele>542.7706</ele>
        <time>2021-07-05T15:49:07Z</time>
      </trkpt>
      <trkpt lat="42.56628" lon="-2.54625">
        <ele>544.7478</ele>
        <time>2021-07-05T15:49:18Z</time>
      </trkpt>
      <trkpt lat="42.56417" lon="-2.54495">
        <ele>550.5228</ele>
        <time>2021-07-05T15:49:29Z</time>
      </trkpt>
      <trkpt lat="42.56256" lon="-2.54556">
        <ele>558.9307</ele>
        <time>2021-07-05T15:49:40Z</time>
      </trkpt>
      <trkpt lat="42.56268" lon="-2.54878">
        <ele>553.407</ele>
        <time>2021-07-05T15:49:51Z</time>
      </trkpt>
      <trkpt lat="42.56296" lon="-2.55175">
        <ele>554.8125</ele>
        <time>2021-07-05T15:50:02Z</time>
      </trkpt>
      <trkpt lat="42.56336" lon="-2.55439">
        <ele>558.3886</ele>
        <time>2021-07-05T15:50:13Z</time>
      </trkpt>
      <trkpt lat="42.56489" lon="-2.55716">
        <ele>537.5527</ele>
        <time>2021-07-05T15:50:24Z</time>
      </trkpt>
      <trkpt lat="42.56627" lon="-2.55971">
        <ele>531.1966</ele>
        <time>2021-07-05T15:50:35Z</time>
      </trkpt>
      <trkpt lat="42.56566" lon="-2.56025">
        <ele>538.6326</ele>
        <time>2021-07-05T15:50:46Z</time>
      </trkpt>
      <trkpt lat="42.56421" lon="-2.5598">
        <ele>550.2154</ele>
        <time>2021-07-05T15:50:57Z</time>
      </trkpt>
      <trkpt lat="42.56342" lon="-2.56214">
        <ele>567.9489</ele>
        <time>2021-07-05T15:51:08Z</time>
      </trkpt>
      <trkpt lat="42.56267" lon="-2.56482">
        <ele>563.536</ele>
        <time>2021-07-05T15:51:19Z</time>
      </trkpt>
      <trkpt lat="42.56266" lon="-2.56784">
        <ele>549.2659</ele>
        <time>2021-07-05T15:51:30Z</time>
      </trkpt>
      <trkpt lat="42.56174" lon="-2.56973">
        <ele>550.3423</ele>
        <time>2021-07-05T15:51:41Z</time>
      </trkpt>
      <trkpt lat="42.55983" lon="-2.57078">
        <ele>561.683</ele>
        <time>2021-07-05T15:51:52Z</time>
      </trkpt>
      <trkpt lat="42.55926" lon="-2.57372">
        <ele>571.3819</ele>
        <time>2021-07-05T15:52:03Z</time>
      </trkpt>
      <trkpt lat="42.55899" lon="-2.57669">
        <ele>573.2215</ele>
        <time>2021-07-05T15:52:14Z</time>
      </trkpt>
      <trkpt lat="42.55856" lon="-2.57947">
        <ele>570.7677</ele>
        <time>2021-07-05T15:52:25Z</time>
      </trkpt>
      <trkpt lat="42.55796" lon="-2.58231">
        <ele>583.886</ele>
        <time>2021-07-05T15:52:36Z</time>
      </trkpt>
      <trkpt lat="42.55829" lon="-2.58493">
        <ele>599.3329</ele>
        <time>2021-07-05T15:52:47Z</time>
      </trkpt>
      <trkpt lat="42.55829" lon="-2.58623">
        <ele>600.6122</ele>
        <time>2021-07-05T15:52:58Z</time>
      </trkpt>
      <trkpt lat="42.55913" lon="-2.58833">
        <ele>589.9005</ele>
        <time>2021-07-05T15:53:09Z</time>
      </trkpt>
      <trkpt lat="42.56042" lon="-2.59131">
        <ele>578.8531</ele>
        <time>2021-07-05T15:53:20Z</time>
      </trkpt>
      <trkpt lat="42.56174" lon="-2.59439">
        <ele>571.1919</ele>
        <time>2021-07-05T15:53:31Z</time>
      </trkpt>
      <trkpt lat="42.56304" lon="-2.59743">
        <ele>581.1947</ele>
        <time>2021-07-05T15:53:42Z</time>
      </trkpt>
      <trkpt lat="42.5644" lon="-2.60062">
        <ele>584.5483</ele>
        <time>2021-07-05T15:53:53Z</time>
      </trkpt>
      <trkpt lat="42.56581" lon="-2.6039">
        <ele>586.7943</ele>
        <time>2021-07-05T15:54:04Z</time>
      </trkpt>
      <trkpt lat="42.56721" lon="-2.60717">
        <ele>583.8652</ele>
        <time>2021-07-05T15:54:15Z</time>
      </trkpt>
      <trkpt lat="42.56853" lon="-2.61027">
        <ele>596.0164</ele>
        <time>2021-07-05T15:54:26Z</time>
      </trkpt>
      <trkpt lat="42.56953" lon="-2.61305">
        <ele>602.2214</ele>
        <time>2021-07-05T15:54:37Z</time>
      </trkpt>
      <trkpt lat="42.57081" lon="-2.6161">
        <ele>593.1275</ele>
        <time>2021-07-05T15:54:48Z</time>
      </trkpt>
      <trkpt lat="42.57243" lon="-2.61875">
        <ele>598.2115</ele>
        <time>2021-07-05T15:54:59Z</time>
      </trkpt>
      <trkpt lat="42.57403" lon="-2.62129">
        <ele>609.7362</ele>
        <time>2021-07-05T15:55:10Z</time>
      </trkpt>
      <trkpt lat="42.57403" lon="-2.62468">
        <ele>609.6228</ele>
        <time>2021-07-05T15:55:21Z</time>
      </trkpt>
      <trkpt lat="42.57446" lon="-2.62831">
        <ele>601.3943</ele>
        <time>2021-07-05T15:55:32Z</time>
      </trkpt>
      <trkpt lat="42.57513" lon="-2.63131">
        <ele>597.5948</ele>
        <time>2021-07-05T15:55:43Z</time>
      </trkpt>
      <trkpt lat="42.5757" lon="-2.6339">
        <ele>604.7663</ele>
        <time>2021-07-05T15:55:54Z</time>
      </trkpt>
      <trkpt lat="42.57628" lon="-2.63648">
        <ele>612.0707</ele>
        <time>2021-07-05T15:56:05Z</time>
      </trkpt>
      <trkpt lat="42.57684" lon="-2.63903">
        <ele>621.0974</ele>
        <time>2021-07-05T15:56:16Z</time>
      </trkpt>
      <trkpt lat="42.57742" lon="-2.64166">
        <ele>631.1263</ele>
        <time>2021-07-05T15:56:27Z</time>
      </trkpt>
      <trkpt lat="42.57764" lon="-2.64446">
        <ele>633.392</ele>
        <time>2021-07-05T15:56:38Z</time>
      </trkpt>
      <trkpt lat="42.57681" lon="-2.64772">
        <ele>625.187</ele>
        <time>2021-07-05T15:56:49Z</time>
      </trkpt>
      <trkpt lat="42.57559" lon="-2.65066">
        <ele>627.54</ele>
        <time>2021-07-05T15:57:00Z</time>
      </trkpt>
      <trkpt lat="42.57398" lon="-2.65341">
        <ele>626.6389</ele>
        <time>2021-07-05T15:57:11Z</time>
      </trkpt>
      <trkpt lat="42.57232" lon="-2.65627">
        <ele>616.8842</ele>
        <time>2021-07-05T15:57:22Z</time>
      </trkpt>
      <trkpt lat="42.57149" lon="-2.65961">
        <ele>597.4386</ele>
        <time>2021-07-05T15:57:33Z</time>
      </trkpt>
      <trkpt lat="42.57183" lon="-2.66338">
        <ele>579.1028</ele>
        <time>2021-07-05T15:57:44Z</time>
      </trkpt>
      <trkpt lat="42.57088" lon="-2.66685">
        <ele>577.3463</ele>
        <time>2021-07-05T15:57:55Z</time>
      </trkpt>
      <trkpt lat="42.57014" lon="-2.67051">
        <ele>574.2542</ele>
        <time>2021-07-05T15:58:06Z</time>
      </trkpt>
      <trkpt lat="42.56951" lon="-2.67374">
        <ele>572.0018</ele>
        <time>2021-07-05T15:58:17Z</time>
      </trkpt>
      <trkpt lat="42.5695" lon="-2.67635">
        <ele>572.1287</ele>
        <time>2021-07-05T15:58:28Z</time>
      </trkpt>
      <trkpt lat="42.57" lon="-2.67879">
        <ele>579.4464</ele>
        <time>2021-07-05T15:58:39Z</time>
      </trkpt>
      <trkpt lat="42.56932" lon="-2.68093">
        <ele>581.4744</ele>
        <time>2021-07-05T15:58:50Z</time>
      </trkpt>
      <trkpt lat="42.56784" lon="-2.68256">
        <ele>571.6396</ele>
        <time>2021-07-05T15:59:01Z</time>
      </trkpt>
      <trkpt lat="42.56692" lon="-2.68472">
        <ele>579.6925</ele>
        <time>2021-07-05T15:59:12Z</time>
      </trkpt>
      <trkpt lat="42.56652" lon="-2.68725">
        <ele>581.4425</ele>
        <time>2021-07-05T15:59:23Z</time>
      </trkpt>
      <trkpt lat="42.56706" lon="-2.69025">
        <ele>577.6393</ele>
        <time>2021-07-05T15:59:34Z</time>
      </trkpt>
      <trkpt lat="42.56686" lon="-2.69369">
        <ele>593.2778</ele>
        <time>2021-07-05T15:59:45Z</time>
      </trkpt>
      <trkpt lat="42.56622" lon="-2.69748">
        <ele>609.5721</ele>
        <time>2021-07-05T15:59:56Z</time>
      </trkpt>
      <trkpt lat="42.568" lon="-2.70005">
        <ele>609.2395</ele>
        <time>2021-07-05T16:00:07Z</time>
      </trkpt>
      <trkpt lat="42.56997" lon="-2.70234">
        <ele>601.1125</ele>
        <time>2021-07-05T16:00:18Z</time>
      </trkpt>
      <trkpt lat="42.57146" lon="-2.70519">
        <ele>596.6891</ele>
        <time>2021-07-05T16:00:29Z</time>
      </trkpt>
      <trkpt lat="42.57179" lon="-2.70743">
        <ele>592.495</ele>
        <time>2021-07-05T16:00:40Z</time>
      </trkpt>
      <trkpt lat="42.57155" lon="-2.70846">
        <ele>593.6546</ele>
        <time>2021-07-05T16:00:51Z</time>
      </trkpt>
      <trkpt lat="42.57106" lon="-2.7103">
        <ele>586.065</ele>
        <time>2021-07-05T16:01:02Z</time>
      </trkpt>
      <trkpt lat="42.57056" lon="-2.71212">
        <ele>578.0565</ele>
        <time>2021-07-05T16:01:13Z</time>
      </trkpt>
      <trkpt lat="42.57086" lon="-2.71411">
        <ele>565.3007</ele>
        <time>2021-07-05T16:01:24Z</time>
      </trkpt>
      <trkpt lat="42.56979" lon="-2.7164">
        <ele>559.2265</ele>
        <time>2021-07-05T16:01:35Z</time>
      </trkpt>
      <trkpt lat="42.56953" lon="-2.7198">
        <ele>546.9621</ele>
        <time>2021-07-05T16:01:46Z</time>
      </trkpt>
      <trkpt lat="42.56896" lon="-2.72358">
        <ele>532.5251</ele>
        <time>2021-07-05T16:01:57Z</time>
      </trkpt>
      <trkpt lat="42.56838" lon="-2.72695">
        <ele>535.3373</ele>
        <time>2021-07-05T16:02:08Z</time>
      </trkpt>
      <trkpt lat="42.56682" lon="-2.72974">
        <ele>546.4348</ele>
        <time>2021-07-05T16:02:19Z</time>
      </trkpt>
      <trkpt lat="42.56631" lon="-2.73325">
        <ele>545.7563</ele>
        <time>2021-07-05T16:02:30Z</time>
      </trkpt>
      <trkpt lat="42.5666" lon="-2.73678">
        <ele>542.0262</ele>
        <time>2021-07-05T16:02:41Z</time>
      </trkpt>
      <trkpt lat="42.5664" lon="-2.74025">
        <ele>533.1824</ele>
        <time>2021-07-05T16:02:52Z</time>
      </trkpt>
      <trkpt lat="42.56631" lon="-2.7437">
        <ele>520.1591</ele>
        <time>2021-07-05T16:03:03Z</time>
      </trkpt>
      <trkpt lat="42.56727" lon="-2.74668">
        <ele>504.5342</ele>
        <time>2021-07-05T16:03:14Z</time>
      </trkpt>
      <trkpt lat="42.56785" lon="-2.74817">
        <ele>498.9686</ele>
        <time>2021-07-05T16:03:25Z</time>
      </trkpt>
      <trkpt lat="42.56664" lon="-2.74995">
        <ele>497.6502</ele>
        <time>2021-07-05T16:03:36Z</time>
      </trkpt>
      <trkpt lat="42.56563" lon="-2.75172">
        <ele>500.4595</ele>
        <time>2021-07-05T16:03:47Z</time>
      </trkpt>
      <trkpt lat="42.56512" lon="-2.75348">
        <ele>487.6216</ele>
        <time>2021-07-05T16:03:58Z</time>
      </trkpt>
      <trkpt lat="42.56416" lon="-2.75497">
        <ele>475.4946</ele>
        <time>2021-07-05T16:04:09Z</time>
      </trkpt>
      <trkpt lat="42.56397" lon="-2.75609">
        <ele>483.3335</ele>
        <time>2021-07-05T16:04:20Z</time>
      </trkpt>
      <trkpt lat="42.56346" lon="-2.75712">
        <ele>491.8093</ele>
        <time>2021-07-05T16:04:31Z</time>
      </trkpt>
      <trkpt lat="42.5631" lon="-2.75762">
        <ele>499.3746</ele>
        <time>2021-07-05T16:04:42Z</time>
      </trkpt>
      <trkpt lat="42.56291" lon="-2.75862">
        <ele>506.7392</ele>
        <time>2021-07-05T16:04:53Z</time>
      </trkpt>
      <trkpt lat="42.56345" lon="-2.75896">
        <ele>497.7895</ele>
        <time>2021-07-05T16:05:04Z</time>
      </trkpt>
      <trkpt lat="42.56348" lon="-2.75971">
        <ele>498.2781</ele>
        <time>2021-07-05T16:05:15Z</time>
      </trkpt>
      <trkpt lat="42.56379" lon="-2.7609">
        <ele>491.9369</ele>
        <time>2021-07-05T16:05:26Z</time>
      </trkpt>
      <trkpt lat="42.56408" lon="-2.7622">
        <ele>484.272</ele>
        <time>2021-07-05T16:05:37Z</time>
      </trkpt>
      <trkpt lat="42.56378" lon="-2.76143">
        <ele>476.4387</ele>
        <time>2021-07-05T16:05:48Z</time>
      </trkpt>
      <trkpt lat="42.56397" lon="-2.76261">
        <ele>464.6253</ele>
        <time>2021-07-05T16:05:59Z</time>
      </trkpt>
      <trkpt lat="42.56329" lon="-2.762">
        <ele>459.0029</ele>
        <time>2021-07-05T16:06:10Z</time>
      </trkpt>
      <trkpt lat="42.56149" lon="-2.76045">
        <ele>443.2376</ele>
        <time>2021-07-05T16:06:21Z</time>
      </trkpt>
      <trkpt lat="42.55945" lon="-2.75959">
        <ele>433.2583</ele>
        <time>2021-07-05T16:06:32Z</time>
      </trkpt>
      <trkpt lat="42.55731" lon="-2.76103">
        <ele>437.3287</ele>
        <time>2021-07-05T16:06:43Z</time>
      </trkpt>
      <trkpt lat="42.5556" lon="-2.76304">
        <ele>446.6218</ele>
        <time>2021-07-05T16:06:54Z</time>
      </trkpt>
      <trkpt lat="42.55386" lon="-2.76584">
        <ele>457.8392</ele>
        <time>2021-07-05T16:07:05Z</time>
      </trkpt>
      <trkpt lat="42.5521" lon="-2.76868">
        <ele>468.5058</ele>
        <time>2021-07-05T16:07:16Z</time>
      </trkpt>
      <trkpt lat="42.55042" lon="-2.77126">
        <ele>470.6366</ele>
        <time>2021-07-05T16:07:27Z</time>
      </trkpt>
      <trkpt lat="42.54882" lon="-2.77383">
        <ele>467.6514</ele>
        <time>2021-07-05T16:07:38Z</time>
      </trkpt>
      <trkpt lat="42.54688" lon="-2.77595">
        <ele>456.1164</ele>
        <time>2021-07-05T16:07:49Z</time>
      </trkpt>
      <trkpt lat="42.54627" lon="-2.77911">
        <ele>447.9666</ele>
        <time>2021-07-05T16:08:00Z</time>
      </trkpt>
      <trkpt lat="42.54585" lon="-2.7815">
        <ele>452.8369</ele>
        <time>2021-07-05T16:08:11Z</time>
      </trkpt>
      <trkpt lat="42.54511" lon="-2.78074">
        <ele>454.6907</ele>
        <time>2021-07-05T16:08:22Z</time>
      </trkpt>
      <trkpt lat="42.54408" lon="-2.78051">
        <ele>453.3188</ele>
        <time>2021-07-05T16:08:33Z</time>
      </trkpt>
      <trkpt lat="42.54255" lon="-2.78111">
        <ele>457.0393</ele>
        <time>2021-07-05T16:08:44Z</time>
      </trkpt>
      <trkpt lat="42.5412" lon="-2.78166">
        <ele>460.5767</ele>
        <time>2021-07-05T16:08:55Z</time>
      </trkpt>
      <trkpt lat="42.54057" lon="-2.78245">
        <ele>460.9458</ele>
        <time>2021-07-05T16:09:06Z</time>
      </trkpt>
      <trkpt lat="42.54057" lon="-2.78263">
        <ele>462.3147</ele>
        <time>2021-07-05T16:09:17Z</time>
      </trkpt>
      <trkpt lat="42.54125" lon="-2.78457">
        <ele>472.0501</ele>
        <time>2021-07-05T16:09:28Z</time>
      </trkpt>
      <trkpt lat="42.54185" lon="-2.78743">
        <ele>483.4895</ele>
        <time>2021-07-05T16:09:39Z</time>
      </trkpt>
      <trkpt lat="42.54302" lon="-2.79006">
        <ele>481.0736</ele>
        <time>2021-07-05T16:09:50Z</time>
      </trkpt>
      <trkpt lat="42.54441" lon="-2.79294">
        <ele>460.7673</ele>
        <time>2021-07-05T16:10:01Z</time>
      </trkpt>
      <trkpt lat="42.54588" lon="-2.79622">
        <ele>451.9662</ele>
        <time>2021-07-05T16:10:12Z</time>
      </trkpt>
      <trkpt lat="42.54731" lon="-2.79941">
        <ele>466.0808</ele>
        <time>2021-07-05T16:10:23Z</time>
      </trkpt>
      <trkpt lat="42.54822" lon="-2.80297">
        <ele>468.8588</ele>
        <time>2021-07-05T16:10:34Z</time>
      </trkpt>
      <trkpt lat="42.54886" lon="-2.80676">
        <ele>478.0653</ele>
        <time>2021-07-05T16:10:45Z</time>
      </trkpt>
      <trkpt lat="42.54911" lon="-2.8106">
        <ele>485.4326</ele>
        <time>2021-07-05T16:10:56Z</time>
      </trkpt>
      <trkpt lat="42.54898" lon="-2.81459">
        <ele>484.2964</ele>
        <time>2021-07-05T16:11:07Z</time>
      </trkpt>
      <trkpt lat="42.54837" lon="-2.81839">
        <ele>485.4884</ele>
        <time>2021-07-05T16:11:18Z</time>
      </trkpt>
      <trkpt lat="42.5472" lon="-2.82152">
        <ele>482.428</ele>
        <time>2021-07-05T16:11:29Z</time>
      </trkpt>
      <trkpt lat="42.54737" lon="-2.82476">
        <ele>476.0617</ele>
        <time>2021-07-05T16:11:40Z</time>
      </trkpt>
      <trkpt lat="42.54796" lon="-2.82745">
        <ele>484.0818</ele>
        <time>2021-07-05T16:11:51Z</time>
      </trkpt>
      <trkpt lat="42.54809" lon="-2.82808">
        <ele>485.9183</ele>
        <time>2021-07-05T16:12:02Z</time>
      </trkpt>
      <trkpt lat="42.54809" lon="-2.82807">
        <ele>487.4935</ele>
        <time>2021-07-05T16:13:01Z</time>
      </trkpt>
      <trkpt lat="42.54827" lon="-2.82909">
        <ele>491.2446</ele>
        <time>2021-07-05T16:13:12Z</time>
      </trkpt>
      <trkpt lat="42.54888" lon="-2.83128">
        <ele>497.7549</ele>
        <time>2021-07-05T16:13:23Z</time>
      </trkpt>
      <trkpt lat="42.54814" lon="-2.83229">
        <ele>497.4529</ele>
        <time>2021-07-05T16:13:34Z</time>
      </trkpt>
      <trkpt lat="42.54691" lon="-2.83459">
        <ele>497.9401</ele>
        <time>2021-07-05T16:13:45Z</time>
      </trkpt>
      <trkpt lat="42.5463" lon="-2.83789">
        <ele>500.194</ele>
        <time>2021-07-05T16:13:56Z</time>
      </trkpt>
      <trkpt lat="42.54565" lon="-2.84145">
        <ele>498.1855</ele>
        <time>2021-07-05T16:14:07Z</time>
      </trkpt>
      <trkpt lat="42.54499" lon="-2.845">
        <ele>499.2778</ele>
        <time>2021-07-05T16:14:18Z</time>
      </trkpt>
      <trkpt lat="42.5443" lon="-2.84852">
        <ele>513.3222</ele>
        <time>2021-07-05T16:14:29Z</time>
      </trkpt>
      <trkpt lat="42.54389" lon="-2.85205">
        <ele>531.7616</ele>
        <time>2021-07-05T16:14:40Z</time>
      </trkpt>
      <trkpt lat="42.54348" lon="-2.85592">
        <ele>537.4688</ele>
        <time>2021-07-05T16:14:51Z</time>
      </trkpt>
      <trkpt lat="42.54352" lon="-2.85975">
        <ele>539.7055</ele>
        <time>2021-07-05T16:15:02Z</time>
      </trkpt>
      <trkpt lat="42.54357" lon="-2.86355">
        <ele>541.2965</ele>
        <time>2021-07-05T16:15:13Z</time>
      </trkpt>
      <trkpt lat="42.5436" lon="-2.867">
        <ele>546.6689</ele>
        <time>2021-07-05T16:15:24Z</time>
      </trkpt>
      <trkpt lat="42.54364" lon="-2.87071">
        <ele>547.9199</ele>
        <time>2021-07-05T16:15:35Z</time>
      </trkpt>
      <trkpt lat="42.54366" lon="-2.87425">
        <ele>549.5295</ele>
        <time>2021-07-05T16:15:46Z</time>
      </trkpt>
      <trkpt lat="42.54369" lon="-2.87768">
        <ele>547.1015</ele>
        <time>2021-07-05T16:15:57Z</time>
      </trkpt>
      <trkpt lat="42.54384" lon="-2.88114">
        <ele>540.502</ele>
        <time>2021-07-05T16:16:08Z</time>
      </trkpt>
      <trkpt lat="42.54454" lon="-2.88442">
        <ele>530.9835</ele>
        <time>2021-07-05T16:16:19Z</time>
      </trkpt>
      <trkpt lat="42.54575" lon="-2.88732">
        <ele>521.7971</ele>
        <time>2021-07-05T16:16:30Z</time>
      </trkpt>
      <trkpt lat="42.54752" lon="-2.88992">
        <ele>512.4088</ele>
        <time>2021-07-05T16:16:41Z</time>
      </trkpt>
      <trkpt lat="42.54943" lon="-2.89205">
        <ele>504.2828</ele>
        <time>2021-07-05T16:16:52Z</time>
      </trkpt>
      <trkpt lat="42.55136" lon="-2.89416">
        <ele>501.2059</ele>
        <time>2021-07-05T16:17:03Z</time>
      </trkpt>
      <trkpt lat="42.55323" lon="-2.89608">
        <ele>499.6678</ele>
        <time>2021-07-05T16:17:14Z</time>
      </trkpt>
      <trkpt lat="42.5548" lon="-2.89705">
        <ele>491.4185</ele>
        <time>2021-07-05T16:17:25Z</time>
      </trkpt>
      <trkpt lat="42.55521" lon="-2.89855">
        <ele>494.645</ele>
        <time>2021-07-05T16:17:36Z</time>
      </trkpt>
      <trkpt lat="42.55393" lon="-2.89976">
        <ele>496.2917</ele>
        <time>2021-07-05T16:17:47Z</time>
      </trkpt>
      <trkpt lat="42.55272" lon="-2.90166">
        <ele>498.5373</ele>
        <time>2021-07-05T16:17:58Z</time>
      </trkpt>
      <trkpt lat="42.55131" lon="-2.90292">
        <ele>500.2686</ele>
        <time>2021-07-05T16:18:09Z</time>
      </trkpt>
      <trkpt lat="42.55008" lon="-2.90387">
        <ele>501.1864</ele>
        <time>2021-07-05T16:18:20Z</time>
      </trkpt>
      <trkpt lat="42.54835" lon="-2.90391">
        <ele>501.3579</ele>
        <time>2021-07-05T16:18:31Z</time>
      </trkpt>
      <trkpt lat="42.54658" lon="-2.9041">
        <ele>502.8821</ele>
        <time>2021-07-05T16:18:42Z</time>
      </trkpt>
      <trkpt lat="42.54509" lon="-2.90464">
        <ele>504.1996</ele>
        <time>2021-07-05T16:18:53Z</time>
      </trkpt>
      <trkpt lat="42.54367" lon="-2.90567">
        <ele>505.5341</ele>
        <time>2021-07-05T16:19:04Z</time>
      </trkpt>
      <trkpt lat="42.54265" lon="-2.90682">
        <ele>507.7339</ele>
        <time>2021-07-05T16:19:15Z</time>
      </trkpt>
      <trkpt lat="42.54166" lon="-2.90851">
        <ele>507.9864</ele>
        <time>2021-07-05T16:19:26Z</time>
      </trkpt>
      <trkpt lat="42.54059" lon="-2.91083">
        <ele>505.5004</ele>
        <time>2021-07-05T16:19:37Z</time>
      </trkpt>
      <trkpt lat="42.5394" lon="-2.91322">
        <ele>505.4165</ele>
        <time>2021-07-05T16:19:48Z</time>
      </trkpt>
      <trkpt lat="42.5378" lon="-2.9153">
        <ele>512.0743</ele>
        <time>2021-07-05T16:19:59Z</time>
      </trkpt>
      <trkpt lat="42.53593" lon="-2.91645">
        <ele>516.535</ele>
        <time>2021-07-05T16:20:10Z</time>
      </trkpt>
      <trkpt lat="42.53377" lon="-2.91693">
        <ele>515.4835</ele>
        <time>2021-07-05T16:20:21Z</time>
      </trkpt>
      <trkpt lat="42.5313" lon="-2.91739">
        <ele>512.7834</ele>
        <time>2021-07-05T16:20:32Z</time>
      </trkpt>
      <trkpt lat="42.5287" lon="-2.91788">
        <ele>516.5706</ele>
        <time>2021-07-05T16:20:43Z</time>
      </trkpt>
      <trkpt lat="42.52592" lon="-2.91839">
        <ele>519.8811</ele>
        <time>2021-07-05T16:20:54Z</time>
      </trkpt>
      <trkpt lat="42.52331" lon="-2.91887">
        <ele>524.1911</ele>
        <time>2021-07-05T16:21:05Z</time>
      </trkpt>
      <trkpt lat="42.5209" lon="-2.91919">
        <ele>526.4294</ele>
        <time>2021-07-05T16:21:16Z</time>
      </trkpt>
      <trkpt lat="42.51815" lon="-2.91926">
        <ele>529.2425</ele>
        <time>2021-07-05T16:21:27Z</time>
      </trkpt>
      <trkpt lat="42.51539" lon="-2.91902">
        <ele>531.8846</ele>
        <time>2021-07-05T16:21:38Z</time>
      </trkpt>
      <trkpt lat="42.51265" lon="-2.91869">
        <ele>539.3037</ele>
        <time>2021-07-05T16:21:49Z</time>
      </trkpt>
      <trkpt lat="42.50993" lon="-2.91887">
        <ele>545.6756</ele>
        <time>2021-07-05T16:22:00Z</time>
      </trkpt>
      <trkpt lat="42.50737" lon="-2.91986">
        <ele>545.1828</ele>
        <time>2021-07-05T16:22:11Z</time>
      </trkpt>
      <trkpt lat="42.50507" lon="-2.92153">
        <ele>544.8515</ele>
        <time>2021-07-05T16:22:22Z</time>
      </trkpt>
      <trkpt lat="42.5031" lon="-2.92382">
        <ele>547.1322</ele>
        <time>2021-07-05T16:22:33Z</time>
      </trkpt>
      <trkpt lat="42.50145" lon="-2.92639">
        <ele>548.7234</ele>
        <time>2021-07-05T16:22:44Z</time>
      </trkpt>
      <trkpt lat="42.49984" lon="-2.92897">
        <ele>553.3526</ele>
        <time>2021-07-05T16:22:55Z</time>
      </trkpt>
      <trkpt lat="42.49822" lon="-2.93154">
        <ele>554.8579</ele>
        <time>2021-07-05T16:23:06Z</time>
      </trkpt>
      <trkpt lat="42.49668" lon="-2.93399">
        <ele>559.4746</ele>
        <time>2021-07-05T16:23:17Z</time>
      </trkpt>
      <trkpt lat="42.49495" lon="-2.93611">
        <ele>562.7764</ele>
        <time>2021-07-05T16:23:28Z</time>
      </trkpt>
      <trkpt lat="42.49301" lon="-2.93769">
        <ele>569.2019</ele>
        <time>2021-07-05T16:23:39Z</time>
      </trkpt>
      <trkpt lat="42.49124" lon="-2.93874">
        <ele>571.8473</ele>
        <time>2021-07-05T16:23:50Z</time>
      </trkpt>
      <trkpt lat="42.49025" lon="-2.93948">
        <ele>568.804</ele>
        <time>2021-07-05T16:24:01Z</time>
      </trkpt>
      <trkpt lat="42.48994" lon="-2.94021">
        <ele>570.3226</ele>
        <time>2021-07-05T16:24:12Z</time>
      </trkpt>
      <trkpt lat="42.48952" lon="-2.94184">
        <ele>572.2181</ele>
        <time>2021-07-05T16:24:23Z</time>
      </trkpt>
      <trkpt lat="42.48934" lon="-2.94425">
        <ele>572.4793</ele>
        <time>2021-07-05T16:24:34Z</time>
      </trkpt>
      <trkpt lat="42.4889" lon="-2.94684">
        <ele>572.6023</ele>
        <time>2021-07-05T16:24:45Z</time>
      </trkpt>
      <trkpt lat="42.48887" lon="-2.94943">
        <ele>572.1087</ele>
        <time>2021-07-05T16:24:56Z</time>
      </trkpt>
      <trkpt lat="42.4896" lon="-2.95224">
        <ele>572.2018</ele>
        <time>2021-07-05T16:25:07Z</time>
      </trkpt>
      <trkpt lat="42.49065" lon="-2.95484">
        <ele>569.7319</ele>
        <time>2021-07-05T16:25:18Z</time>
      </trkpt>
      <trkpt lat="42.49209" lon="-2.95728">
        <ele>571.428</ele>
        <time>2021-07-05T16:25:29Z</time>
      </trkpt>
      <trkpt lat="42.49278" lon="-2.95878">
        <ele>573.3003</ele>
        <time>2021-07-05T16:25:40Z</time>
      </trkpt>
      <trkpt lat="42.4921" lon="-2.95976">
        <ele>575.6622</ele>
        <time>2021-07-05T16:25:51Z</time>
      </trkpt>
      <trkpt lat="42.4918" lon="-2.9612">
        <ele>578.6352</ele>
        <time>2021-07-05T16:26:02Z</time>
      </trkpt>
      <trkpt lat="42.49136" lon="-2.96275">
        <ele>584.0867</ele>
        <time>2021-07-05T16:26:13Z</time>
      </trkpt>
      <trkpt lat="42.49081" lon="-2.96389">
        <ele>580.823</ele>
        <time>2021-07-05T16:26:24Z</time>
      </trkpt>
      <trkpt lat="42.4903" lon="-2.96521">
        <ele>579.8659</ele>
        <time>2021-07-05T16:26:35Z</time>
      </trkpt>
      <trkpt lat="42.48984" lon="-2.96708">
        <ele>582.6471</ele>
        <time>2021-07-05T16:26:46Z</time>
      </trkpt>
      <trkpt lat="42.4892" lon="-2.96904">
        <ele>577.3374</ele>
        <time>2021-07-05T16:26:57Z</time>
      </trkpt>
      <trkpt lat="42.48752" lon="-2.97121">
        <ele>580.4925</ele>
        <time>2021-07-05T16:27:08Z</time>
      </trkpt>
      <trkpt lat="42.4862" lon="-2.97409">
        <ele>582.9526</ele>
        <time>2021-07-05T16:27:19Z</time>
      </trkpt>
      <trkpt lat="42.48499" lon="-2.97694">
        <ele>576.2262</ele>
        <time>2021-07-05T16:27:30Z</time>
      </trkpt>
      <trkpt lat="42.48374" lon="-2.97945">
        <ele>575.5629</ele>
        <time>2021-07-05T16:27:41Z</time>
      </trkpt>
      <trkpt lat="42.48223" lon="-2.98122">
        <ele>572.8973</ele>
        <time>2021-07-05T16:27:52Z</time>
      </trkpt>
      <trkpt lat="42.48116" lon="-2.9838">
        <ele>577.5166</ele>
        <time>2021-07-05T16:28:03Z</time>
      </trkpt>
      <trkpt lat="42.48017" lon="-2.98647">
        <ele>583.2098</ele>
        <time>2021-07-05T16:28:14Z</time>
      </trkpt>
      <trkpt lat="42.479" lon="-2.98905">
        <ele>586.185</ele>
        <time>2021-07-05T16:28:25Z</time>
      </trkpt>
      <trkpt lat="42.47769" lon="-2.99114">
        <ele>589.4951</ele>
        <time>2021-07-05T16:28:36Z</time>
      </trkpt>
      <trkpt lat="42.47677" lon="-2.99305">
        <ele>596.3304</ele>
        <time>2021-07-05T16:28:47Z</time>
      </trkpt>
      <trkpt lat="42.47666" lon="-2.99339">
        <ele>606.2161</ele>
        <time>2021-07-05T16:28:58Z</time>
      </trkpt>
      <trkpt lat="42.47665" lon="-2.99338">
        <ele>597.9133</ele>
        <time>2021-07-05T16:29:57Z</time>
      </trkpt>
      <trkpt lat="42.47659" lon="-2.99348">
        <ele>596.8386</ele>
        <time>2021-07-05T16:30:40Z</time>
      </trkpt>
      <trkpt lat="42.47551" lon="-2.99519">
        <ele>598.1483</ele>
        <time>2021-07-05T16:30:51Z</time>
      </trkpt>
      <trkpt lat="42.47432" lon="-2.99712">
        <ele>600.2751</ele>
        <time>2021-07-05T16:31:02Z</time>
      </trkpt>
      <trkpt lat="42.4735" lon="-2.99865">
        <ele>602.6722</ele>
        <time>2021-07-05T16:31:13Z</time>
      </trkpt>
      <trkpt lat="42.47235" lon="-3.00063">
        <ele>604.9407</ele>
        <time>2021-07-05T16:31:24Z</time>
      </trkpt>
      <trkpt lat="42.47108" lon="-3.003">
        <ele>602.695</ele>
        <time>2021-07-05T16:31:35Z</time>
      </trkpt>
      <trkpt lat="42.4699" lon="-3.00546">
        <ele>600.972</ele>
        <time>2021-07-05T16:31:46Z</time>
      </trkpt>
      <trkpt lat="42.46881" lon="-3.00797">
        <ele>612.3195</ele>
        <time>2021-07-05T16:31:57Z</time>
      </trkpt>
      <trkpt lat="42.46807" lon="-3.01067">
        <ele>626.8704</ele>
        <time>2021-07-05T16:32:08Z</time>
      </trkpt>
      <trkpt lat="42.46718" lon="-3.01269">
        <ele>641.5425</ele>
        <time>2021-07-05T16:32:19Z</time>
      </trkpt>
      <trkpt lat="42.4671" lon="-3.01561">
        <ele>651.8237</ele>
        <time>2021-07-05T16:32:30Z</time>
      </trkpt>
      <trkpt lat="42.46675" lon="-3.0183">
        <ele>656.7574</ele>
        <time>2021-07-05T16:32:41Z</time>
      </trkpt>
      <trkpt lat="42.46578" lon="-3.02024">
        <ele>656.3663</ele>
        <time>2021-07-05T16:32:52Z</time>
      </trkpt>
      <trkpt lat="42.46469" lon="-3.02131">
        <ele>657.1389</ele>
        <time>2021-07-05T16:33:03Z</time>
      </trkpt>
      <trkpt lat="42.46266" lon="-3.02215">
        <ele>661.1655</ele>
        <time>2021-07-05T16:33:14Z</time>
      </trkpt>
      <trkpt lat="42.46043" lon="-3.02355">
        <ele>668.4942</ele>
        <time>2021-07-05T16:33:25Z</time>
      </trkpt>
      <trkpt lat="42.45854" lon="-3.02414">
        <ele>672.2714</ele>
        <time>2021-07-05T16:33:36Z</time>
      </trkpt>
      <trkpt lat="42.45715" lon="-3.02534">
        <ele>678.6159</ele>
        <time>2021-07-05T16:33:47Z</time>
      </trkpt>
      <trkpt lat="42.45724" lon="-3.0269">
        <ele>681.1173</ele>
        <time>2021-07-05T16:33:58Z</time>
      </trkpt>
      <trkpt lat="42.45709" lon="-3.0296">
        <ele>675.0849</ele>
        <time>2021-07-05T16:34:09Z</time>
      </trkpt>
      <trkpt lat="42.45625" lon="-3.03299">
        <ele>673.8716</ele>
        <time>2021-07-05T16:34:20Z</time>
      </trkpt>
      <trkpt lat="42.45499" lon="-3.03614">
        <ele>677.5372</ele>
        <time>2021-07-05T16:34:31Z</time>
      </trkpt>
      <trkpt lat="42.45331" lon="-3.03906">
        <ele>680.8308</ele>
        <time>2021-07-05T16:34:42Z</time>
      </trkpt>
      <trkpt lat="42.45177" lon="-3.04175">
        <ele>684.8175</ele>
        <time>2021-07-05T16:34:53Z</time>
      </trkpt>
      <trkpt lat="42.45008" lon="-3.04468">
        <ele>688.7373</ele>
        <time>2021-07-05T16:35:04Z</time>
      </trkpt>
      <trkpt lat="42.44839" lon="-3.04758">
        <ele>694.5243</ele>
        <time>2021-07-05T16:35:15Z</time>
      </trkpt>
      <trkpt lat="42.44653" lon="-3.05022">
        <ele>699.7165</ele>
        <time>2021-07-05T16:35:26Z</time>
      </trkpt>
      <trkpt lat="42.44447" lon="-3.05299">
        <ele>706.0779</ele>
        <time>2021-07-05T16:35:37Z</time>
      </trkpt>
      <trkpt lat="42.4425" lon="-3.05562">
        <ele>712.9344</ele>
        <time>2021-07-05T16:35:48Z</time>
      </trkpt>
      <trkpt lat="42.44066" lon="-3.05847">
        <ele>720.4566</ele>
        <time>2021-07-05T16:35:59Z</time>
      </trkpt>
      <trkpt lat="42.43939" lon="-3.06136">
        <ele>725.5285</ele>
        <time>2021-07-05T16:36:10Z</time>
      </trkpt>
      <trkpt lat="42.43855" lon="-3.0633">
        <ele>728.9014</ele>
        <time>2021-07-05T16:36:21Z</time>
      </trkpt>
      <trkpt lat="42.43762" lon="-3.06528">
        <ele>737.1147</ele>
        <time>2021-07-05T16:36:32Z</time>
      </trkpt>
      <trkpt lat="42.43729" lon="-3.06746">
        <ele>741.7132</ele>
        <time>2021-07-05T16:36:43Z</time>
      </trkpt>
      <trkpt lat="42.43727" lon="-3.07058">
        <ele>746.34</ele>
        <time>2021-07-05T16:36:54Z</time>
      </trkpt>
      <trkpt lat="42.43743" lon="-3.07437">
        <ele>756.0211</ele>
        <time>2021-07-05T16:37:05Z</time>
      </trkpt>
      <trkpt lat="42.43767" lon="-3.07814">
        <ele>753.9754</ele>
        <time>2021-07-05T16:37:16Z</time>
      </trkpt>
      <trkpt lat="42.43791" lon="-3.08167">
        <ele>764.0275</ele>
        <time>2021-07-05T16:37:27Z</time>
      </trkpt>
      <trkpt lat="42.43801" lon="-3.08441">
        <ele>764.4911</ele>
        <time>2021-07-05T16:37:38Z</time>
      </trkpt>
      <trkpt lat="42.43731" lon="-3.08639">
        <ele>758.3147</ele>
        <time>2021-07-05T16:37:49Z</time>
      </trkpt>
      <trkpt lat="42.43565" lon="-3.08819">
        <ele>751.1128</ele>
        <time>2021-07-05T16:38:01Z</time>
      </trkpt>
      <trkpt lat="42.43469" lon="-3.09129">
        <ele>752.7306</ele>
        <time>2021-07-05T16:38:12Z</time>
      </trkpt>
      <trkpt lat="42.43393" lon="-3.09428">
        <ele>763.8174</ele>
        <time>2021-07-05T16:38:23Z</time>
      </trkpt>
      <trkpt lat="42.4332" lon="-3.09738">
        <ele>756.9338</ele>
        <time>2021-07-05T16:38:34Z</time>
      </trkpt>
      <trkpt lat="42.43246" lon="-3.10073">
        <ele>747.0802</ele>
        <time>2021-07-05T16:38:45Z</time>
      </trkpt>
      <trkpt lat="42.4321" lon="-3.1046">
        <ele>742.03</ele>
        <time>2021-07-05T16:38:56Z</time>
      </trkpt>
      <trkpt lat="42.43176" lon="-3.10853">
        <ele>743.8327</ele>
        <time>2021-07-05T16:39:07Z</time>
      </trkpt>
      <trkpt lat="42.43143" lon="-3.11229">
        <ele>755.4075</ele>
        <time>2021-07-05T16:39:18Z</time>
      </trkpt>
      <trkpt lat="42.43112" lon="-3.11591">
        <ele>765.969</ele>
        <time>2021-07-05T16:39:29Z</time>
      </trkpt>
      <trkpt lat="42.43081" lon="-3.11959">
        <ele>776.5922</ele>
        <time>2021-07-05T16:39:40Z</time>
      </trkpt>
      <trkpt lat="42.43059" lon="-3.12315">
        <ele>782.2075</ele>
        <time>2021-07-05T16:39:51Z</time>
      </trkpt>
      <trkpt lat="42.43107" lon="-3.12673">
        <ele>777.547</ele>
        <time>2021-07-05T16:40:02Z</time>
      </trkpt>
      <trkpt lat="42.43108" lon="-3.12986">
        <ele>787.4251</ele>
        <time>2021-07-05T16:40:13Z</time>
      </trkpt>
      <trkpt lat="42.42988" lon="-3.13205">
        <ele>783.9445</ele>
        <time>2021-07-05T16:40:24Z</time>
      </trkpt>
      <trkpt lat="42.42873" lon="-3.13432">
        <ele>776.2843</ele>
        <time>2021-07-05T16:40:35Z</time>
      </trkpt>
      <trkpt lat="42.428" lon="-3.13651">
        <ele>781.1173</ele>
        <time>2021-07-05T16:40:46Z</time>
      </trkpt>
      <trkpt lat="42.42724" lon="-3.13882">
        <ele>784.0278</ele>
        <time>2021-07-05T16:40:57Z</time>
      </trkpt>
      <trkpt lat="42.42625" lon="-3.14187">
        <ele>785.8655</ele>
        <time>2021-07-05T16:41:08Z</time>
      </trkpt>
      <trkpt lat="42.42514" lon="-3.14523">
        <ele>795.1497</ele>
        <time>2021-07-05T16:41:19Z</time>
      </trkpt>
      <trkpt lat="42.42413" lon="-3.14833">
        <ele>801.9775</ele>
        <time>2021-07-05T16:41:30Z</time>
      </trkpt>
      <trkpt lat="42.42326" lon="-3.15099">
        <ele>806.3451</ele>
        <time>2021-07-05T16:41:41Z</time>
      </trkpt>
      <trkpt lat="42.42236" lon="-3.15375">
        <ele>811.9623</ele>
        <time>2021-07-05T16:41:52Z</time>
      </trkpt>
      <trkpt lat="42.42143" lon="-3.15657">
        <ele>817.4808</ele>
        <time>2021-07-05T16:42:03Z</time>
      </trkpt>
      <trkpt lat="42.42047" lon="-3.15971">
        <ele>819.9564</ele>
        <time>2021-07-05T16:42:14Z</time>
      </trkpt>
      <trkpt lat="42.41952" lon="-3.16299">
        <ele>821.8291</ele>
        <time>2021-07-05T16:42:25Z</time>
      </trkpt>
      <trkpt lat="42.41879" lon="-3.16617">
        <ele>820.7562</ele>
        <time>2021-07-05T16:42:36Z</time>
      </trkpt>
      <trkpt lat="42.41787" lon="-3.16991">
        <ele>815.3152</ele>
        <time>2021-07-05T16:42:47Z</time>
      </trkpt>
      <trkpt lat="42.41695" lon="-3.17351">
        <ele>808.812</ele>
        <time>2021-07-05T16:42:58Z</time>
      </trkpt>
      <trkpt lat="42.4161" lon="-3.17681">
        <ele>801.5691</ele>
        <time>2021-07-05T16:43:09Z</time>
      </trkpt>
      <trkpt lat="42.41606" lon="-3.17982">
        <ele>795.4773</ele>
        <time>2021-07-05T16:43:20Z</time>
      </trkpt>
      <trkpt lat="42.41664" lon="-3.18213">
        <ele>790.4338</ele>
        <time>2021-07-05T16:43:31Z</time>
      </trkpt>
      <trkpt lat="42.41727" lon="-3.18437">
        <ele>784.3629</ele>
        <time>2021-07-05T16:43:42Z</time>
      </trkpt>
      <trkpt lat="42.41784" lon="-3.1864">
        <ele>778.7392</ele>
        <time>2021-07-05T16:43:53Z</time>
      </trkpt>
      <trkpt lat="42.41837" lon="-3.18814">
        <ele>774.6286</ele>
        <time>2021-07-05T16:44:04Z</time>
      </trkpt>
      <trkpt lat="42.41911" lon="-3.18964">
        <ele>770.5622</ele>
        <time>2021-07-05T16:44:15Z</time>
      </trkpt>
      <trkpt lat="42.41923" lon="-3.19052">
        <ele>771.9478</ele>
        <time>2021-07-05T16:44:26Z</time>
      </trkpt>
      <trkpt lat="42.41925" lon="-3.19057">
        <ele>784.2351</ele>
        <time>2021-07-05T16:44:48Z</time>
      </trkpt>
      <trkpt lat="42.41902" lon="-3.19165">
        <ele>783.0494</ele>
        <time>2021-07-05T16:44:59Z</time>
      </trkpt>
      <trkpt lat="42.41871" lon="-3.19316">
        <ele>787.4032</ele>
        <time>2021-07-05T16:45:10Z</time>
      </trkpt>
      <trkpt lat="42.41838" lon="-3.19491">
        <ele>791.4423</ele>
        <time>2021-07-05T16:45:21Z</time>
      </trkpt>
      <trkpt lat="42.41806" lon="-3.19689">
        <ele>789.1742</ele>
        <time>2021-07-05T16:45:32Z</time>
      </trkpt>
      <trkpt lat="42.4177" lon="-3.19911">
        <ele>777.4316</ele>
        <time>2021-07-05T16:45:43Z</time>
      </trkpt>
      <trkpt lat="42.41777" lon="-3.20126">
        <ele>768.1995</ele>
        <time>2021-07-05T16:45:54Z</time>
      </trkpt>
      <trkpt lat="42.41847" lon="-3.20288">
        <ele>766.4536</ele>
        <time>2021-07-05T16:46:05Z</time>
      </trkpt>
      <trkpt lat="42.41842" lon="-3.2049">
        <ele>767.7039</ele>
        <time>2021-07-05T16:46:16Z</time>
      </trkpt>
      <trkpt lat="42.41763" lon="-3.20662">
        <ele>770.3137</ele>
        <time>2021-07-05T16:46:27Z</time>
      </trkpt>
      <trkpt lat="42.41692" lon="-3.20814">
        <ele>772.3361</ele>
        <time>2021-07-05T16:46:38Z</time>
      </trkpt>
      <trkpt lat="42.41664" lon="-3.20909">
        <ele>772.7746</ele>
        <time>2021-07-05T16:46:49Z</time>
      </trkpt>
      <trkpt lat="42.41709" lon="-3.20773">
        <ele>771.9734</ele>
        <time>2021-07-05T16:47:00Z</time>
      </trkpt>
      <trkpt lat="42.41735" lon="-3.20671">
        <ele>770.9119</ele>
        <time>2021-07-05T16:47:11Z</time>
      </trkpt>
      <trkpt lat="42.41736" lon="-3.20669">
        <ele>777.6847</ele>
        <time>2021-07-05T16:48:10Z</time>
      </trkpt>
      <trkpt lat="42.41735" lon="-3.2067">
        <ele>773.5637</ele>
        <time>2021-07-05T16:49:01Z</time>
      </trkpt>
      <trkpt lat="42.41734" lon="-3.20665">
        <ele>773.8057</ele>
        <time>2021-07-05T16:49:22Z</time>
      </trkpt>
      <trkpt lat="42.41736" lon="-3.20661">
        <ele>774.6227</ele>
        <time>2021-07-05T16:49:40Z</time>
      </trkpt>
      <trkpt lat="42.4174" lon="-3.20667">
        <ele>767.2894</ele>
        <time>2021-07-05T16:49:59Z</time>
      </trkpt>
      <trkpt lat="42.41739" lon="-3.20664">
        <ele>759.2643</ele>
        <time>2021-07-05T16:50:58Z</time>
      </trkpt>
      <trkpt lat="42.41735" lon="-3.20664">
        <ele>754.4389</ele>
        <time>2021-07-05T16:51:25Z</time>
      </trkpt>
      <trkpt lat="42.41738" lon="-3.20655">
        <ele>754.6034</ele>
        <time>2021-07-05T16:51:36Z</time>
      </trkpt>
      <trkpt lat="42.41741" lon="-3.20652">
        <ele>756.9025</ele>
        <time>2021-07-05T16:52:11Z</time>
      </trkpt>
      <trkpt lat="42.41744" lon="-3.20643">
        <ele>759.353</ele>
        <time>2021-07-05T16:52:22Z</time>
      </trkpt>
      <trkpt lat="42.41744" lon="-3.20647">
        <ele>765.2582</ele>
        <time>2021-07-05T16:53:22Z</time>
      </trkpt>
      <trkpt lat="42.41744" lon="-3.20646">
        <ele>766.9399</ele>
        <time>2021-07-05T16:54:22Z</time>
      </trkpt>
      <trkpt lat="42.41744" lon="-3.20646">
        <ele>766.9399</ele>
        <time>2021-07-05T16:55:22Z</time>
      </trkpt>
      <trkpt lat="42.41744" lon="-3.20646">
        <ele>766.9399</ele>
        <time>2021-07-05T16:56:22Z</time>
      </trkpt>
      <trkpt lat="42.41745" lon="-3.20644">
        <ele>769.0321</ele>
        <time>2021-07-05T16:57:22Z</time>
      </trkpt>
      <trkpt lat="42.41746" lon="-3.20645">
        <ele>768.0861</ele>
        <time>2021-07-05T16:58:22Z</time>
      </trkpt>
      <trkpt lat="42.41745" lon="-3.20645">
        <ele>769.3441</ele>
        <time>2021-07-05T16:59:22Z</time>
      </trkpt>
      <trkpt lat="42.41743" lon="-3.20641">
        <ele>769.8524</ele>
        <time>2021-07-05T16:59:59Z</time>
      </trkpt>
      <trkpt lat="42.41743" lon="-3.2064">
        <ele>769.7889</ele>
        <time>2021-07-05T17:00:59Z</time>
      </trkpt>
      <trkpt lat="42.41744" lon="-3.2064">
        <ele>774.2141</ele>
        <time>2021-07-05T17:01:59Z</time>
      </trkpt>
      <trkpt lat="42.41745" lon="-3.20642">
        <ele>769.8855</ele>
        <time>2021-07-05T17:02:59Z</time>
      </trkpt>
      <trkpt lat="42.41745" lon="-3.20644">
        <ele>769.7931</ele>
        <time>2021-07-05T17:03:58Z</time>
      </trkpt>
      <trkpt lat="42.41749" lon="-3.20645">
        <ele>769.519</ele>
        <time>2021-07-05T17:04:44Z</time>
      </trkpt>
      <trkpt lat="42.41759" lon="-3.20653">
        <ele>769.4075</ele>
        <time>2021-07-05T17:04:55Z</time>
      </trkpt>
      <trkpt lat="42.4176" lon="-3.2066">
        <ele>770.6397</ele>
        <time>2021-07-05T17:05:13Z</time>
      </trkpt>
      <trkpt lat="42.41703" lon="-3.20791">
        <ele>773.0812</ele>
        <time>2021-07-05T17:05:24Z</time>
      </trkpt>
      <trkpt lat="42.41689" lon="-3.20891">
        <ele>773.128</ele>
        <time>2021-07-05T17:05:35Z</time>
      </trkpt>
      <trkpt lat="42.41642" lon="-3.21024">
        <ele>775.8978</ele>
        <time>2021-07-05T17:05:46Z</time>
      </trkpt>
      <trkpt lat="42.41608" lon="-3.21201">
        <ele>778.3608</ele>
        <time>2021-07-05T17:05:57Z</time>
      </trkpt>
      <trkpt lat="42.41568" lon="-3.21406">
        <ele>779.5729</ele>
        <time>2021-07-05T17:06:08Z</time>
      </trkpt>
      <trkpt lat="42.41513" lon="-3.21685">
        <ele>782.6782</ele>
        <time>2021-07-05T17:06:19Z</time>
      </trkpt>
      <trkpt lat="42.4146" lon="-3.21961">
        <ele>785.6557</ele>
        <time>2021-07-05T17:06:30Z</time>
      </trkpt>
      <trkpt lat="42.4141" lon="-3.22217">
        <ele>788.2555</ele>
        <time>2021-07-05T17:06:41Z</time>
      </trkpt>
      <trkpt lat="42.4136" lon="-3.22475">
        <ele>791.3947</ele>
        <time>2021-07-05T17:06:52Z</time>
      </trkpt>
      <trkpt lat="42.41311" lon="-3.22729">
        <ele>795.6362</ele>
        <time>2021-07-05T17:07:03Z</time>
      </trkpt>
      <trkpt lat="42.41308" lon="-3.22994">
        <ele>800.5795</ele>
        <time>2021-07-05T17:07:14Z</time>
      </trkpt>
      <trkpt lat="42.41332" lon="-3.2325">
        <ele>803.5794</ele>
        <time>2021-07-05T17:07:25Z</time>
      </trkpt>
      <trkpt lat="42.41358" lon="-3.23517">
        <ele>806.0395</ele>
        <time>2021-07-05T17:07:36Z</time>
      </trkpt>
      <trkpt lat="42.41386" lon="-3.23799">
        <ele>808.707</ele>
        <time>2021-07-05T17:07:47Z</time>
      </trkpt>
      <trkpt lat="42.41409" lon="-3.24038">
        <ele>812.6787</ele>
        <time>2021-07-05T17:07:58Z</time>
      </trkpt>
      <trkpt lat="42.41408" lon="-3.24232">
        <ele>816.5967</ele>
        <time>2021-07-05T17:08:09Z</time>
      </trkpt>
      <trkpt lat="42.41361" lon="-3.24441">
        <ele>821.3545</ele>
        <time>2021-07-05T17:08:20Z</time>
      </trkpt>
      <trkpt lat="42.41294" lon="-3.24664">
        <ele>824.2091</ele>
        <time>2021-07-05T17:08:31Z</time>
      </trkpt>
      <trkpt lat="42.41208" lon="-3.24933">
        <ele>824.8465</ele>
        <time>2021-07-05T17:08:42Z</time>
      </trkpt>
      <trkpt lat="42.41135" lon="-3.25172">
        <ele>828.8689</ele>
        <time>2021-07-05T17:08:53Z</time>
      </trkpt>
      <trkpt lat="42.41053" lon="-3.2544">
        <ele>833.0534</ele>
        <time>2021-07-05T17:09:04Z</time>
      </trkpt>
      <trkpt lat="42.40971" lon="-3.25714">
        <ele>836.4267</ele>
        <time>2021-07-05T17:09:15Z</time>
      </trkpt>
      <trkpt lat="42.40892" lon="-3.25976">
        <ele>842.8265</ele>
        <time>2021-07-05T17:09:26Z</time>
      </trkpt>
      <trkpt lat="42.40842" lon="-3.26253">
        <ele>845.2625</ele>
        <time>2021-07-05T17:09:37Z</time>
      </trkpt>
      <trkpt lat="42.40799" lon="-3.26548">
        <ele>854.8362</ele>
        <time>2021-07-05T17:09:48Z</time>
      </trkpt>
      <trkpt lat="42.40759" lon="-3.26824">
        <ele>863.3013</ele>
        <time>2021-07-05T17:09:59Z</time>
      </trkpt>
      <trkpt lat="42.40721" lon="-3.27063">
        <ele>871.7777</ele>
        <time>2021-07-05T17:10:10Z</time>
      </trkpt>
      <trkpt lat="42.40619" lon="-3.27266">
        <ele>871.7684</ele>
        <time>2021-07-05T17:10:21Z</time>
      </trkpt>
      <trkpt lat="42.40556" lon="-3.27525">
        <ele>880.2266</ele>
        <time>2021-07-05T17:10:32Z</time>
      </trkpt>
      <trkpt lat="42.40507" lon="-3.27747">
        <ele>890.9176</ele>
        <time>2021-07-05T17:10:43Z</time>
      </trkpt>
      <trkpt lat="42.40459" lon="-3.27971">
        <ele>898.9264</ele>
        <time>2021-07-05T17:10:54Z</time>
      </trkpt>
      <trkpt lat="42.40411" lon="-3.2818">
        <ele>908.4896</ele>
        <time>2021-07-05T17:11:05Z</time>
      </trkpt>
      <trkpt lat="42.40328" lon="-3.28363">
        <ele>907.8963</ele>
        <time>2021-07-05T17:11:16Z</time>
      </trkpt>
      <trkpt lat="42.40213" lon="-3.286">
        <ele>906.0086</ele>
        <time>2021-07-05T17:11:27Z</time>
      </trkpt>
      <trkpt lat="42.40188" lon="-3.28908">
        <ele>914.399</ele>
        <time>2021-07-05T17:11:38Z</time>
      </trkpt>
      <trkpt lat="42.40156" lon="-3.29236">
        <ele>930.4917</ele>
        <time>2021-07-05T17:11:49Z</time>
      </trkpt>
      <trkpt lat="42.40091" lon="-3.29542">
        <ele>937.0296</ele>
        <time>2021-07-05T17:12:00Z</time>
      </trkpt>
      <trkpt lat="42.40015" lon="-3.29828">
        <ele>945.1106</ele>
        <time>2021-07-05T17:12:11Z</time>
      </trkpt>
      <trkpt lat="42.39828" lon="-3.30008">
        <ele>934.3947</ele>
        <time>2021-07-05T17:12:22Z</time>
      </trkpt>
      <trkpt lat="42.39578" lon="-3.30215">
        <ele>934.2797</ele>
        <time>2021-07-05T17:12:33Z</time>
      </trkpt>
      <trkpt lat="42.39326" lon="-3.30428">
        <ele>936.1927</ele>
        <time>2021-07-05T17:12:44Z</time>
      </trkpt>
      <trkpt lat="42.3912" lon="-3.30615">
        <ele>932.9384</ele>
        <time>2021-07-05T17:12:55Z</time>
      </trkpt>
      <trkpt lat="42.39037" lon="-3.30778">
        <ele>934.4497</ele>
        <time>2021-07-05T17:13:06Z</time>
      </trkpt>
      <trkpt lat="42.38964" lon="-3.30837">
        <ele>937.2642</ele>
        <time>2021-07-05T17:13:17Z</time>
      </trkpt>
      <trkpt lat="42.38851" lon="-3.30872">
        <ele>946.3867</ele>
        <time>2021-07-05T17:13:28Z</time>
      </trkpt>
      <trkpt lat="42.38691" lon="-3.30898">
        <ele>949.4853</ele>
        <time>2021-07-05T17:13:39Z</time>
      </trkpt>
      <trkpt lat="42.38556" lon="-3.30897">
        <ele>952.8572</ele>
        <time>2021-07-05T17:13:50Z</time>
      </trkpt>
      <trkpt lat="42.3851" lon="-3.30894">
        <ele>952.6475</ele>
        <time>2021-07-05T17:14:01Z</time>
      </trkpt>
      <trkpt lat="42.38485" lon="-3.30899">
        <ele>950.4829</ele>
        <time>2021-07-05T17:14:12Z</time>
      </trkpt>
      <trkpt lat="42.38364" lon="-3.3089">
        <ele>956.7673</ele>
        <time>2021-07-05T17:14:23Z</time>
      </trkpt>
      <trkpt lat="42.38198" lon="-3.30923">
        <ele>959.1371</ele>
        <time>2021-07-05T17:14:34Z</time>
      </trkpt>
      <trkpt lat="42.38036" lon="-3.30967">
        <ele>970.7419</ele>
        <time>2021-07-05T17:14:45Z</time>
      </trkpt>
      <trkpt lat="42.37899" lon="-3.30987">
        <ele>980.7464</ele>
        <time>2021-07-05T17:14:56Z</time>
      </trkpt>
      <trkpt lat="42.3794" lon="-3.31162">
        <ele>991.2044</ele>
        <time>2021-07-05T17:15:07Z</time>
      </trkpt>
      <trkpt lat="42.37951" lon="-3.31529">
        <ele>1010.13</ele>
        <time>2021-07-05T17:15:18Z</time>
      </trkpt>
      <trkpt lat="42.37915" lon="-3.31904">
        <ele>1031.666</ele>
        <time>2021-07-05T17:15:29Z</time>
      </trkpt>
      <trkpt lat="42.37813" lon="-3.32167">
        <ele>1044.811</ele>
        <time>2021-07-05T17:15:40Z</time>
      </trkpt>
      <trkpt lat="42.37736" lon="-3.3245">
        <ele>1062.863</ele>
        <time>2021-07-05T17:15:51Z</time>
      </trkpt>
      <trkpt lat="42.37697" lon="-3.32755">
        <ele>1076.98</ele>
        <time>2021-07-05T17:16:02Z</time>
      </trkpt>
      <trkpt lat="42.37561" lon="-3.33025">
        <ele>1090.553</ele>
        <time>2021-07-05T17:16:13Z</time>
      </trkpt>
      <trkpt lat="42.37476" lon="-3.33309">
        <ele>1109.886</ele>
        <time>2021-07-05T17:16:24Z</time>
      </trkpt>
      <trkpt lat="42.37366" lon="-3.3361">
        <ele>1125.097</ele>
        <time>2021-07-05T17:16:35Z</time>
      </trkpt>
      <trkpt lat="42.37324" lon="-3.33958">
        <ele>1141.371</ele>
        <time>2021-07-05T17:16:46Z</time>
      </trkpt>
      <trkpt lat="42.37219" lon="-3.34259">
        <ele>1138.627</ele>
        <time>2021-07-05T17:16:57Z</time>
      </trkpt>
      <trkpt lat="42.3707" lon="-3.34544">
        <ele>1124.911</ele>
        <time>2021-07-05T17:17:08Z</time>
      </trkpt>
      <trkpt lat="42.36921" lon="-3.34783">
        <ele>1132.969</ele>
        <time>2021-07-05T17:17:19Z</time>
      </trkpt>
      <trkpt lat="42.36729" lon="-3.34919">
        <ele>1141.991</ele>
        <time>2021-07-05T17:17:30Z</time>
      </trkpt>
      <trkpt lat="42.36586" lon="-3.35133">
        <ele>1153.424</ele>
        <time>2021-07-05T17:17:41Z</time>
      </trkpt>
      <trkpt lat="42.36532" lon="-3.3538">
        <ele>1157.668</ele>
        <time>2021-07-05T17:17:52Z</time>
      </trkpt>
      <trkpt lat="42.36471" lon="-3.35671">
        <ele>1156.667</ele>
        <time>2021-07-05T17:18:03Z</time>
      </trkpt>
      <trkpt lat="42.36411" lon="-3.35942">
        <ele>1152.279</ele>
        <time>2021-07-05T17:18:14Z</time>
      </trkpt>
      <trkpt lat="42.36367" lon="-3.36276">
        <ele>1135.629</ele>
        <time>2021-07-05T17:18:25Z</time>
      </trkpt>
      <trkpt lat="42.36397" lon="-3.36597">
        <ele>1121.685</ele>
        <time>2021-07-05T17:18:36Z</time>
      </trkpt>
      <trkpt lat="42.36411" lon="-3.36921">
        <ele>1108.428</ele>
        <time>2021-07-05T17:18:47Z</time>
      </trkpt>
      <trkpt lat="42.36346" lon="-3.37271">
        <ele>1109.461</ele>
        <time>2021-07-05T17:18:58Z</time>
      </trkpt>
      <trkpt lat="42.36289" lon="-3.37593">
        <ele>1115.99</ele>
        <time>2021-07-05T17:19:09Z</time>
      </trkpt>
      <trkpt lat="42.36231" lon="-3.37912">
        <ele>1122.169</ele>
        <time>2021-07-05T17:19:20Z</time>
      </trkpt>
      <trkpt lat="42.36099" lon="-3.3819">
        <ele>1117.37</ele>
        <time>2021-07-05T17:19:31Z</time>
      </trkpt>
      <trkpt lat="42.35998" lon="-3.38522">
        <ele>1119.25</ele>
        <time>2021-07-05T17:19:42Z</time>
      </trkpt>
      <trkpt lat="42.3584" lon="-3.38771">
        <ele>1110.512</ele>
        <time>2021-07-05T17:19:53Z</time>
      </trkpt>
      <trkpt lat="42.35742" lon="-3.39078">
        <ele>1120.379</ele>
        <time>2021-07-05T17:20:04Z</time>
      </trkpt>
      <trkpt lat="42.35646" lon="-3.39373">
        <ele>1118.445</ele>
        <time>2021-07-05T17:20:15Z</time>
      </trkpt>
      <trkpt lat="42.35553" lon="-3.39661">
        <ele>1115.556</ele>
        <time>2021-07-05T17:20:26Z</time>
      </trkpt>
      <trkpt lat="42.3545" lon="-3.39976">
        <ele>1111.292</ele>
        <time>2021-07-05T17:20:37Z</time>
      </trkpt>
      <trkpt lat="42.35345" lon="-3.40292">
        <ele>1110.602</ele>
        <time>2021-07-05T17:20:48Z</time>
      </trkpt>
      <trkpt lat="42.35224" lon="-3.40622">
        <ele>1090.022</ele>
        <time>2021-07-05T17:20:59Z</time>
      </trkpt>
      <trkpt lat="42.35104" lon="-3.40944">
        <ele>1077.196</ele>
        <time>2021-07-05T17:21:10Z</time>
      </trkpt>
      <trkpt lat="42.35089" lon="-3.41291">
        <ele>1081.778</ele>
        <time>2021-07-05T17:21:21Z</time>
      </trkpt>
      <trkpt lat="42.35089" lon="-3.41614">
        <ele>1086.024</ele>
        <time>2021-07-05T17:21:32Z</time>
      </trkpt>
      <trkpt lat="42.35088" lon="-3.41993">
        <ele>1077.84</ele>
        <time>2021-07-05T17:21:43Z</time>
      </trkpt>
      <trkpt lat="42.35088" lon="-3.42366">
        <ele>1066.254</ele>
        <time>2021-07-05T17:21:54Z</time>
      </trkpt>
      <trkpt lat="42.35089" lon="-3.42738">
        <ele>1063.509</ele>
        <time>2021-07-05T17:22:05Z</time>
      </trkpt>
      <trkpt lat="42.3509" lon="-3.43046">
        <ele>1062.681</ele>
        <time>2021-07-05T17:22:16Z</time>
      </trkpt>
      <trkpt lat="42.35088" lon="-3.43383">
        <ele>1058.677</ele>
        <time>2021-07-05T17:22:27Z</time>
      </trkpt>
      <trkpt lat="42.3498" lon="-3.43675">
        <ele>1056.912</ele>
        <time>2021-07-05T17:22:38Z</time>
      </trkpt>
      <trkpt lat="42.34928" lon="-3.43986">
        <ele>1054.026</ele>
        <time>2021-07-05T17:22:49Z</time>
      </trkpt>
      <trkpt lat="42.34927" lon="-3.44315">
        <ele>1047.181</ele>
        <time>2021-07-05T17:23:00Z</time>
      </trkpt>
      <trkpt lat="42.3489" lon="-3.4469">
        <ele>1029.338</ele>
        <time>2021-07-05T17:23:11Z</time>
      </trkpt>
      <trkpt lat="42.34876" lon="-3.45128">
        <ele>1011.89</ele>
        <time>2021-07-05T17:23:22Z</time>
      </trkpt>
      <trkpt lat="42.34958" lon="-3.45532">
        <ele>995.7317</ele>
        <time>2021-07-05T17:23:33Z</time>
      </trkpt>
      <trkpt lat="42.35041" lon="-3.4594">
        <ele>996.3811</ele>
        <time>2021-07-05T17:23:44Z</time>
      </trkpt>
      <trkpt lat="42.35043" lon="-3.46336">
        <ele>1003.877</ele>
        <time>2021-07-05T17:23:55Z</time>
      </trkpt>
      <trkpt lat="42.3499" lon="-3.46728">
        <ele>1003.145</ele>
        <time>2021-07-05T17:24:06Z</time>
      </trkpt>
      <trkpt lat="42.34935" lon="-3.47134">
        <ele>993.711</ele>
        <time>2021-07-05T17:24:17Z</time>
      </trkpt>
      <trkpt lat="42.3488" lon="-3.47545">
        <ele>993.6849</ele>
        <time>2021-07-05T17:24:28Z</time>
      </trkpt>
      <trkpt lat="42.34826" lon="-3.47955">
        <ele>999.7461</ele>
        <time>2021-07-05T17:24:39Z</time>
      </trkpt>
      <trkpt lat="42.34765" lon="-3.48355">
        <ele>991.1078</ele>
        <time>2021-07-05T17:24:50Z</time>
      </trkpt>
      <trkpt lat="42.34671" lon="-3.48661">
        <ele>992.1438</ele>
        <time>2021-07-05T17:25:01Z</time>
      </trkpt>
      <trkpt lat="42.34567" lon="-3.48967">
        <ele>985.6768</ele>
        <time>2021-07-05T17:25:12Z</time>
      </trkpt>
      <trkpt lat="42.34437" lon="-3.49312">
        <ele>980.4636</ele>
        <time>2021-07-05T17:25:23Z</time>
      </trkpt>
      <trkpt lat="42.34305" lon="-3.49659">
        <ele>976.983</ele>
        <time>2021-07-05T17:25:34Z</time>
      </trkpt>
      <trkpt lat="42.34163" lon="-3.50044">
        <ele>976.1718</ele>
        <time>2021-07-05T17:25:45Z</time>
      </trkpt>
      <trkpt lat="42.34056" lon="-3.50435">
        <ele>969.7768</ele>
        <time>2021-07-05T17:25:56Z</time>
      </trkpt>
      <trkpt lat="42.33919" lon="-3.50791">
        <ele>966.5624</ele>
        <time>2021-07-05T17:26:07Z</time>
      </trkpt>
      <trkpt lat="42.33702" lon="-3.5106">
        <ele>960.4041</ele>
        <time>2021-07-05T17:26:18Z</time>
      </trkpt>
      <trkpt lat="42.33594" lon="-3.51432">
        <ele>958.4163</ele>
        <time>2021-07-05T17:26:29Z</time>
      </trkpt>
      <trkpt lat="42.33498" lon="-3.51776">
        <ele>955.5279</ele>
        <time>2021-07-05T17:26:40Z</time>
      </trkpt>
      <trkpt lat="42.33394" lon="-3.52133">
        <ele>951.5432</ele>
        <time>2021-07-05T17:26:51Z</time>
      </trkpt>
      <trkpt lat="42.33299" lon="-3.52462">
        <ele>946.5254</ele>
        <time>2021-07-05T17:27:02Z</time>
      </trkpt>
      <trkpt lat="42.33227" lon="-3.52763">
        <ele>938.9273</ele>
        <time>2021-07-05T17:27:13Z</time>
      </trkpt>
      <trkpt lat="42.33194" lon="-3.53025">
        <ele>934.1184</ele>
        <time>2021-07-05T17:27:24Z</time>
      </trkpt>
      <trkpt lat="42.33177" lon="-3.53211">
        <ele>931.0752</ele>
        <time>2021-07-05T17:27:35Z</time>
      </trkpt>
      <trkpt lat="42.33168" lon="-3.5336">
        <ele>931.7471</ele>
        <time>2021-07-05T17:27:46Z</time>
      </trkpt>
      <trkpt lat="42.3317" lon="-3.53476">
        <ele>933.6667</ele>
        <time>2021-07-05T17:27:57Z</time>
      </trkpt>
      <trkpt lat="42.3317" lon="-3.53595">
        <ele>935.4366</ele>
        <time>2021-07-05T17:28:08Z</time>
      </trkpt>
      <trkpt lat="42.33178" lon="-3.53761">
        <ele>935.3682</ele>
        <time>2021-07-05T17:28:19Z</time>
      </trkpt>
      <trkpt lat="42.33192" lon="-3.53963">
        <ele>933.3598</ele>
        <time>2021-07-05T17:28:30Z</time>
      </trkpt>
      <trkpt lat="42.33204" lon="-3.54167">
        <ele>933.9247</ele>
        <time>2021-07-05T17:28:41Z</time>
      </trkpt>
      <trkpt lat="42.33219" lon="-3.54432">
        <ele>929.0514</ele>
        <time>2021-07-05T17:28:52Z</time>
      </trkpt>
      <trkpt lat="42.33236" lon="-3.547">
        <ele>926.4477</ele>
        <time>2021-07-05T17:29:03Z</time>
      </trkpt>
      <trkpt lat="42.33253" lon="-3.54997">
        <ele>926.5264</ele>
        <time>2021-07-05T17:29:14Z</time>
      </trkpt>
      <trkpt lat="42.33271" lon="-3.55296">
        <ele>924.0897</ele>
        <time>2021-07-05T17:29:25Z</time>
      </trkpt>
      <trkpt lat="42.3329" lon="-3.55588">
        <ele>922.6499</ele>
        <time>2021-07-05T17:29:36Z</time>
      </trkpt>
      <trkpt lat="42.33306" lon="-3.55862">
        <ele>922.1547</ele>
        <time>2021-07-05T17:29:47Z</time>
      </trkpt>
      <trkpt lat="42.33323" lon="-3.56145">
        <ele>920.0595</ele>
        <time>2021-07-05T17:29:58Z</time>
      </trkpt>
      <trkpt lat="42.33341" lon="-3.56444">
        <ele>919.8611</ele>
        <time>2021-07-05T17:30:09Z</time>
      </trkpt>
      <trkpt lat="42.3336" lon="-3.56743">
        <ele>916.612</ele>
        <time>2021-07-05T17:30:20Z</time>
      </trkpt>
      <trkpt lat="42.33402" lon="-3.57037">
        <ele>912.7532</ele>
        <time>2021-07-05T17:30:31Z</time>
      </trkpt>
      <trkpt lat="42.33459" lon="-3.57344">
        <ele>910.7105</ele>
        <time>2021-07-05T17:30:42Z</time>
      </trkpt>
      <trkpt lat="42.33506" lon="-3.57632">
        <ele>907.8094</ele>
        <time>2021-07-05T17:30:53Z</time>
      </trkpt>
      <trkpt lat="42.3356" lon="-3.57934">
        <ele>904.4682</ele>
        <time>2021-07-05T17:31:04Z</time>
      </trkpt>
      <trkpt lat="42.33617" lon="-3.5825">
        <ele>902.3302</ele>
        <time>2021-07-05T17:31:15Z</time>
      </trkpt>
      <trkpt lat="42.33673" lon="-3.58563">
        <ele>900.9892</ele>
        <time>2021-07-05T17:31:26Z</time>
      </trkpt>
      <trkpt lat="42.33733" lon="-3.58901">
        <ele>900.0447</ele>
        <time>2021-07-05T17:31:37Z</time>
      </trkpt>
      <trkpt lat="42.33788" lon="-3.59204">
        <ele>897.6098</ele>
        <time>2021-07-05T17:31:48Z</time>
      </trkpt>
      <trkpt lat="42.33846" lon="-3.59506">
        <ele>896.5903</ele>
        <time>2021-07-05T17:31:59Z</time>
      </trkpt>
      <trkpt lat="42.33901" lon="-3.59817">
        <ele>893.8814</ele>
        <time>2021-07-05T17:32:10Z</time>
      </trkpt>
      <trkpt lat="42.33943" lon="-3.60072">
        <ele>894.4298</ele>
        <time>2021-07-05T17:32:21Z</time>
      </trkpt>
      <trkpt lat="42.33987" lon="-3.60316">
        <ele>894.2004</ele>
        <time>2021-07-05T17:32:32Z</time>
      </trkpt>
      <trkpt lat="42.34036" lon="-3.60591">
        <ele>890.8399</ele>
        <time>2021-07-05T17:32:43Z</time>
      </trkpt>
      <trkpt lat="42.34079" lon="-3.60832">
        <ele>891.2552</ele>
        <time>2021-07-05T17:32:54Z</time>
      </trkpt>
      <trkpt lat="42.34121" lon="-3.6107">
        <ele>890.4987</ele>
        <time>2021-07-05T17:33:05Z</time>
      </trkpt>
      <trkpt lat="42.3416" lon="-3.61287">
        <ele>894.2836</ele>
        <time>2021-07-05T17:33:16Z</time>
      </trkpt>
      <trkpt lat="42.34205" lon="-3.61541">
        <ele>890.3021</ele>
        <time>2021-07-05T17:33:27Z</time>
      </trkpt>
      <trkpt lat="42.34246" lon="-3.61769">
        <ele>891.0338</ele>
        <time>2021-07-05T17:33:38Z</time>
      </trkpt>
      <trkpt lat="42.34277" lon="-3.61958">
        <ele>903.8456</ele>
        <time>2021-07-05T17:33:49Z</time>
      </trkpt>
      <trkpt lat="42.34315" lon="-3.6216">
        <ele>902.7612</ele>
        <time>2021-07-05T17:34:00Z</time>
      </trkpt>
      <trkpt lat="42.34347" lon="-3.62336">
        <ele>900.8338</ele>
        <time>2021-07-05T17:34:11Z</time>
      </trkpt>
      <trkpt lat="42.34377" lon="-3.62506">
        <ele>896.8545</ele>
        <time>2021-07-05T17:34:22Z</time>
      </trkpt>
      <trkpt lat="42.34386" lon="-3.6265">
        <ele>895.8976</ele>
        <time>2021-07-05T17:34:33Z</time>
      </trkpt>
      <trkpt lat="42.34379" lon="-3.62813">
        <ele>889.5178</ele>
        <time>2021-07-05T17:34:44Z</time>
      </trkpt>
      <trkpt lat="42.34388" lon="-3.63002">
        <ele>888.4911</ele>
        <time>2021-07-05T17:34:55Z</time>
      </trkpt>
      <trkpt lat="42.34401" lon="-3.63211">
        <ele>885.9563</ele>
        <time>2021-07-05T17:35:06Z</time>
      </trkpt>
      <trkpt lat="42.3441" lon="-3.63416">
        <ele>883.7115</ele>
        <time>2021-07-05T17:35:17Z</time>
      </trkpt>
      <trkpt lat="42.34423" lon="-3.63631">
        <ele>881.9433</ele>
        <time>2021-07-05T17:35:28Z</time>
      </trkpt>
      <trkpt lat="42.3451" lon="-3.6373">
        <ele>878.8242</ele>
        <time>2021-07-05T17:35:39Z</time>
      </trkpt>
      <trkpt lat="42.34472" lon="-3.63891">
        <ele>878.4177</ele>
        <time>2021-07-05T17:35:50Z</time>
      </trkpt>
      <trkpt lat="42.34447" lon="-3.64117">
        <ele>879.7448</ele>
        <time>2021-07-05T17:36:01Z</time>
      </trkpt>
      <trkpt lat="42.34465" lon="-3.64392">
        <ele>879.3148</ele>
        <time>2021-07-05T17:36:12Z</time>
      </trkpt>
      <trkpt lat="42.34488" lon="-3.64639">
        <ele>880.1718</ele>
        <time>2021-07-05T17:36:23Z</time>
      </trkpt>
      <trkpt lat="42.34498" lon="-3.64855">
        <ele>881.009</ele>
        <time>2021-07-05T17:36:34Z</time>
      </trkpt>
      <trkpt lat="42.34505" lon="-3.65032">
        <ele>881.8571</ele>
        <time>2021-07-05T17:36:45Z</time>
      </trkpt>
      <trkpt lat="42.34506" lon="-3.65045">
        <ele>883.5417</ele>
        <time>2021-07-05T17:36:56Z</time>
      </trkpt>
      <trkpt lat="42.34504" lon="-3.6507">
        <ele>886.8941</ele>
        <time>2021-07-05T17:37:07Z</time>
      </trkpt>
      <trkpt lat="42.34524" lon="-3.65276">
        <ele>893.9192</ele>
        <time>2021-07-05T17:37:18Z</time>
      </trkpt>
      <trkpt lat="42.3456" lon="-3.65504">
        <ele>886.197</ele>
        <time>2021-07-05T17:37:29Z</time>
      </trkpt>
      <trkpt lat="42.34593" lon="-3.65736">
        <ele>881.9566</ele>
        <time>2021-07-05T17:37:40Z</time>
      </trkpt>
      <trkpt lat="42.34606" lon="-3.65837">
        <ele>878.9298</ele>
        <time>2021-07-05T17:37:51Z</time>
      </trkpt>
      <trkpt lat="42.34633" lon="-3.66004">
        <ele>880.5508</ele>
        <time>2021-07-05T17:38:02Z</time>
      </trkpt>
      <trkpt lat="42.34671" lon="-3.66221">
        <ele>877.7164</ele>
        <time>2021-07-05T17:38:13Z</time>
      </trkpt>
      <trkpt lat="42.3468" lon="-3.66275">
        <ele>875.6374</ele>
        <time>2021-07-05T17:38:24Z</time>
      </trkpt>
      <trkpt lat="42.34637" lon="-3.66351">
        <ele>875.569</ele>
        <time>2021-07-05T17:38:35Z</time>
      </trkpt>
      <trkpt lat="42.34507" lon="-3.66467">
        <ele>873.8023</ele>
        <time>2021-07-05T17:38:46Z</time>
      </trkpt>
      <trkpt lat="42.34367" lon="-3.66599">
        <ele>876.6387</ele>
        <time>2021-07-05T17:38:57Z</time>
      </trkpt>
      <trkpt lat="42.34226" lon="-3.66748">
        <ele>869.5245</ele>
        <time>2021-07-05T17:39:08Z</time>
      </trkpt>
      <trkpt lat="42.34147" lon="-3.66936">
        <ele>870.9811</ele>
        <time>2021-07-05T17:39:19Z</time>
      </trkpt>
      <trkpt lat="42.34111" lon="-3.67079">
        <ele>869.3416</ele>
        <time>2021-07-05T17:39:30Z</time>
      </trkpt>
      <trkpt lat="42.34106" lon="-3.67297">
        <ele>870.7188</ele>
        <time>2021-07-05T17:39:41Z</time>
      </trkpt>
      <trkpt lat="42.34105" lon="-3.67539">
        <ele>870.0788</ele>
        <time>2021-07-05T17:39:52Z</time>
      </trkpt>
      <trkpt lat="42.34098" lon="-3.67735">
        <ele>867.7646</ele>
        <time>2021-07-05T17:40:03Z</time>
      </trkpt>
      <trkpt lat="42.34088" lon="-3.67924">
        <ele>866.2086</ele>
        <time>2021-07-05T17:40:14Z</time>
      </trkpt>
      <trkpt lat="42.34072" lon="-3.68139">
        <ele>867.3853</ele>
        <time>2021-07-05T17:40:25Z</time>
      </trkpt>
      <trkpt lat="42.3404" lon="-3.68347">
        <ele>864.6572</ele>
        <time>2021-07-05T17:40:36Z</time>
      </trkpt>
      <trkpt lat="42.34016" lon="-3.68424">
        <ele>867.3095</ele>
        <time>2021-07-05T17:40:47Z</time>
      </trkpt>
      <trkpt lat="42.34017" lon="-3.6842">
        <ele>873.4798</ele>
        <time>2021-07-05T17:41:19Z</time>
      </trkpt>
      <trkpt lat="42.34015" lon="-3.68427">
        <ele>875.2874</ele>
        <time>2021-07-05T17:41:32Z</time>
      </trkpt>
      <trkpt lat="42.33973" lon="-3.68548">
        <ele>871.2948</ele>
        <time>2021-07-05T17:41:43Z</time>
      </trkpt>
      <trkpt lat="42.33901" lon="-3.68732">
        <ele>869.185</ele>
        <time>2021-07-05T17:41:54Z</time>
      </trkpt>
      <trkpt lat="42.33837" lon="-3.68889">
        <ele>870.9629</ele>
        <time>2021-07-05T17:42:05Z</time>
      </trkpt>
      <trkpt lat="42.33767" lon="-3.69065">
        <ele>873.0992</ele>
        <time>2021-07-05T17:42:16Z</time>
      </trkpt>
      <trkpt lat="42.33714" lon="-3.69235">
        <ele>874.4608</ele>
        <time>2021-07-05T17:42:27Z</time>
      </trkpt>
      <trkpt lat="42.33675" lon="-3.69419">
        <ele>874.3114</ele>
        <time>2021-07-05T17:42:38Z</time>
      </trkpt>
      <trkpt lat="42.3365" lon="-3.69595">
        <ele>867.6137</ele>
        <time>2021-07-05T17:42:49Z</time>
      </trkpt>
      <trkpt lat="42.33629" lon="-3.69671">
        <ele>869.9735</ele>
        <time>2021-07-05T17:43:00Z</time>
      </trkpt>
      <trkpt lat="42.33607" lon="-3.69774">
        <ele>874.3582</ele>
        <time>2021-07-05T17:43:11Z</time>
      </trkpt>
      <trkpt lat="42.33587" lon="-3.69893">
        <ele>877.7749</ele>
        <time>2021-07-05T17:43:22Z</time>
      </trkpt>
      <trkpt lat="42.3357" lon="-3.69978">
        <ele>877.3878</ele>
        <time>2021-07-05T17:43:33Z</time>
      </trkpt>
      <trkpt lat="42.33569" lon="-3.69987">
        <ele>884.5531</ele>
        <time>2021-07-05T17:43:44Z</time>
      </trkpt>
      <trkpt lat="42.33571" lon="-3.69992">
        <ele>896.8948</ele>
        <time>2021-07-05T17:44:13Z</time>
      </trkpt>
      <trkpt lat="42.3357" lon="-3.69997">
        <ele>900.5315</ele>
        <time>2021-07-05T17:44:25Z</time>
      </trkpt>
      <trkpt lat="42.33563" lon="-3.70021">
        <ele>900.6103</ele>
        <time>2021-07-05T17:44:36Z</time>
      </trkpt>
      <trkpt lat="42.33532" lon="-3.70183">
        <ele>890.7059</ele>
        <time>2021-07-05T17:44:47Z</time>
      </trkpt>
      <trkpt lat="42.33504" lon="-3.7034">
        <ele>893.4405</ele>
        <time>2021-07-05T17:44:58Z</time>
      </trkpt>
      <trkpt lat="42.33471" lon="-3.70519">
        <ele>880.427</ele>
        <time>2021-07-05T17:45:09Z</time>
      </trkpt>
      <trkpt lat="42.33427" lon="-3.70709">
        <ele>869.423</ele>
        <time>2021-07-05T17:45:20Z</time>
      </trkpt>
      <trkpt lat="42.33358" lon="-3.70898">
        <ele>862.4151</ele>
        <time>2021-07-05T17:45:31Z</time>
      </trkpt>
      <trkpt lat="42.33322" lon="-3.71084">
        <ele>860.0694</ele>
        <time>2021-07-05T17:45:42Z</time>
      </trkpt>
      <trkpt lat="42.33304" lon="-3.71315">
        <ele>860.8138</ele>
        <time>2021-07-05T17:45:53Z</time>
      </trkpt>
      <trkpt lat="42.33299" lon="-3.7154">
        <ele>859.2065</ele>
        <time>2021-07-05T17:46:04Z</time>
      </trkpt>
      <trkpt lat="42.33301" lon="-3.71676">
        <ele>864.0001</ele>
        <time>2021-07-05T17:46:15Z</time>
      </trkpt>
      <trkpt lat="42.33301" lon="-3.71834">
        <ele>864.8035</ele>
        <time>2021-07-05T17:46:26Z</time>
      </trkpt>
      <trkpt lat="42.33333" lon="-3.72026">
        <ele>859.1448</ele>
        <time>2021-07-05T17:46:37Z</time>
      </trkpt>
      <trkpt lat="42.33398" lon="-3.72189">
        <ele>856.2834</ele>
        <time>2021-07-05T17:46:48Z</time>
      </trkpt>
      <trkpt lat="42.3347" lon="-3.7237">
        <ele>854.7514</ele>
        <time>2021-07-05T17:46:59Z</time>
      </trkpt>
      <trkpt lat="42.33539" lon="-3.72541">
        <ele>853.5281</ele>
        <time>2021-07-05T17:47:10Z</time>
      </trkpt>
      <trkpt lat="42.33623" lon="-3.72745">
        <ele>852.9621</ele>
        <time>2021-07-05T17:47:21Z</time>
      </trkpt>
      <trkpt lat="42.33725" lon="-3.72992">
        <ele>850.5313</ele>
        <time>2021-07-05T17:47:32Z</time>
      </trkpt>
      <trkpt lat="42.33821" lon="-3.73168">
        <ele>849.108</ele>
        <time>2021-07-05T17:47:43Z</time>
      </trkpt>
      <trkpt lat="42.33971" lon="-3.73081">
        <ele>854.728</ele>
        <time>2021-07-05T17:47:54Z</time>
      </trkpt>
      <trkpt lat="42.34144" lon="-3.7296">
        <ele>854.9746</ele>
        <time>2021-07-05T17:48:05Z</time>
      </trkpt>
      <trkpt lat="42.34224" lon="-3.72883">
        <ele>853.6521</ele>
        <time>2021-07-05T17:48:16Z</time>
      </trkpt>
      <trkpt lat="42.34231" lon="-3.73067">
        <ele>854.1698</ele>
        <time>2021-07-05T17:48:27Z</time>
      </trkpt>
      <trkpt lat="42.34254" lon="-3.7328">
        <ele>855.1279</ele>
        <time>2021-07-05T17:48:38Z</time>
      </trkpt>
      <trkpt lat="42.34266" lon="-3.73454">
        <ele>858.6036</ele>
        <time>2021-07-05T17:48:49Z</time>
      </trkpt>
      <trkpt lat="42.34288" lon="-3.73676">
        <ele>856.1641</ele>
        <time>2021-07-05T17:49:00Z</time>
      </trkpt>
      <trkpt lat="42.34213" lon="-3.73877">
        <ele>851.5359</ele>
        <time>2021-07-05T17:49:11Z</time>
      </trkpt>
      <trkpt lat="42.34142" lon="-3.741">
        <ele>849.6849</ele>
        <time>2021-07-05T17:49:22Z</time>
      </trkpt>
      <trkpt lat="42.34083" lon="-3.74332">
        <ele>849.1533</ele>
        <time>2021-07-05T17:49:33Z</time>
      </trkpt>
      <trkpt lat="42.34062" lon="-3.74668">
        <ele>857.3781</ele>
        <time>2021-07-05T17:49:44Z</time>
      </trkpt>
      <trkpt lat="42.34066" lon="-3.75014">
        <ele>855.6482</ele>
        <time>2021-07-05T17:49:55Z</time>
      </trkpt>
      <trkpt lat="42.34071" lon="-3.75341">
        <ele>854.0725</ele>
        <time>2021-07-05T17:50:06Z</time>
      </trkpt>
      <trkpt lat="42.34077" lon="-3.75708">
        <ele>860.514</ele>
        <time>2021-07-05T17:50:17Z</time>
      </trkpt>
      <trkpt lat="42.34082" lon="-3.76004">
        <ele>866.6303</ele>
        <time>2021-07-05T17:50:28Z</time>
      </trkpt>
      <trkpt lat="42.34084" lon="-3.76186">
        <ele>868.0837</ele>
        <time>2021-07-05T17:50:39Z</time>
      </trkpt>
      <trkpt lat="42.34086" lon="-3.76419">
        <ele>874.7349</ele>
        <time>2021-07-05T17:50:50Z</time>
      </trkpt>
      <trkpt lat="42.34094" lon="-3.76698">
        <ele>885.476</ele>
        <time>2021-07-05T17:51:01Z</time>
      </trkpt>
      <trkpt lat="42.3416" lon="-3.77023">
        <ele>882.0362</ele>
        <time>2021-07-05T17:51:12Z</time>
      </trkpt>
      <trkpt lat="42.34223" lon="-3.77299">
        <ele>873.6761</ele>
        <time>2021-07-05T17:51:23Z</time>
      </trkpt>
      <trkpt lat="42.34253" lon="-3.77512">
        <ele>866.7804</ele>
        <time>2021-07-05T17:51:34Z</time>
      </trkpt>
      <trkpt lat="42.34387" lon="-3.77772">
        <ele>852.9414</ele>
        <time>2021-07-05T17:51:45Z</time>
      </trkpt>
      <trkpt lat="42.34526" lon="-3.7795">
        <ele>849.6019</ele>
        <time>2021-07-05T17:51:56Z</time>
      </trkpt>
      <trkpt lat="42.34636" lon="-3.78147">
        <ele>839.2067</ele>
        <time>2021-07-05T17:52:07Z</time>
      </trkpt>
      <trkpt lat="42.34697" lon="-3.78426">
        <ele>841.255</ele>
        <time>2021-07-05T17:52:18Z</time>
      </trkpt>
      <trkpt lat="42.34766" lon="-3.78737">
        <ele>839.4933</ele>
        <time>2021-07-05T17:52:29Z</time>
      </trkpt>
      <trkpt lat="42.3484" lon="-3.79065">
        <ele>831.294</ele>
        <time>2021-07-05T17:52:40Z</time>
      </trkpt>
      <trkpt lat="42.34904" lon="-3.79307">
        <ele>830.5292</ele>
        <time>2021-07-05T17:52:51Z</time>
      </trkpt>
      <trkpt lat="42.3496" lon="-3.79472">
        <ele>832.0215</ele>
        <time>2021-07-05T17:53:02Z</time>
      </trkpt>
      <trkpt lat="42.34896" lon="-3.79579">
        <ele>827.9057</ele>
        <time>2021-07-05T17:53:13Z</time>
      </trkpt>
      <trkpt lat="42.35007" lon="-3.79789">
        <ele>831.073</ele>
        <time>2021-07-05T17:53:24Z</time>
      </trkpt>
      <trkpt lat="42.34946" lon="-3.80127">
        <ele>831.1957</ele>
        <time>2021-07-05T17:53:35Z</time>
      </trkpt>
      <trkpt lat="42.34808" lon="-3.80412">
        <ele>830.0276</ele>
        <time>2021-07-05T17:53:46Z</time>
      </trkpt>
      <trkpt lat="42.34775" lon="-3.8078">
        <ele>832.3204</ele>
        <time>2021-07-05T17:53:57Z</time>
      </trkpt>
      <trkpt lat="42.34813" lon="-3.81121">
        <ele>832.0083</ele>
        <time>2021-07-05T17:54:08Z</time>
      </trkpt>
      <trkpt lat="42.3486" lon="-3.81361">
        <ele>830.9216</ele>
        <time>2021-07-05T17:54:19Z</time>
      </trkpt>
      <trkpt lat="42.34948" lon="-3.81557">
        <ele>833.3123</ele>
        <time>2021-07-05T17:54:30Z</time>
      </trkpt>
      <trkpt lat="42.3507" lon="-3.8175">
        <ele>833.8315</ele>
        <time>2021-07-05T17:54:41Z</time>
      </trkpt>
      <trkpt lat="42.35246" lon="-3.81931">
        <ele>831.5199</ele>
        <time>2021-07-05T17:54:52Z</time>
      </trkpt>
      <trkpt lat="42.35492" lon="-3.82101">
        <ele>827.8067</ele>
        <time>2021-07-05T17:55:03Z</time>
      </trkpt>
      <trkpt lat="42.35746" lon="-3.8228">
        <ele>826.8727</ele>
        <time>2021-07-05T17:55:14Z</time>
      </trkpt>
      <trkpt lat="42.36021" lon="-3.82471">
        <ele>826.7235</ele>
        <time>2021-07-05T17:55:25Z</time>
      </trkpt>
      <trkpt lat="42.36276" lon="-3.82647">
        <ele>826.452</ele>
        <time>2021-07-05T17:55:36Z</time>
      </trkpt>
      <trkpt lat="42.36527" lon="-3.82823">
        <ele>829.7697</ele>
        <time>2021-07-05T17:55:47Z</time>
      </trkpt>
      <trkpt lat="42.36708" lon="-3.83097">
        <ele>829.6466</ele>
        <time>2021-07-05T17:55:58Z</time>
      </trkpt>
      <trkpt lat="42.36863" lon="-3.83414">
        <ele>831.5218</ele>
        <time>2021-07-05T17:56:09Z</time>
      </trkpt>
      <trkpt lat="42.36993" lon="-3.83707">
        <ele>837.6505</ele>
        <time>2021-07-05T17:56:20Z</time>
      </trkpt>
      <trkpt lat="42.3707" lon="-3.84021">
        <ele>836.0632</ele>
        <time>2021-07-05T17:56:31Z</time>
      </trkpt>
      <trkpt lat="42.37125" lon="-3.84269">
        <ele>839.3708</ele>
        <time>2021-07-05T17:56:42Z</time>
      </trkpt>
      <trkpt lat="42.37178" lon="-3.84503">
        <ele>844.5332</ele>
        <time>2021-07-05T17:56:53Z</time>
      </trkpt>
      <trkpt lat="42.3723" lon="-3.84741">
        <ele>850.1334</ele>
        <time>2021-07-05T17:57:04Z</time>
      </trkpt>
      <trkpt lat="42.37257" lon="-3.85076">
        <ele>855.2639</ele>
        <time>2021-07-05T17:57:15Z</time>
      </trkpt>
      <trkpt lat="42.3728" lon="-3.85475">
        <ele>864.6408</ele>
        <time>2021-07-05T17:57:26Z</time>
      </trkpt>
      <trkpt lat="42.37297" lon="-3.85858">
        <ele>877.9967</ele>
        <time>2021-07-05T17:57:37Z</time>
      </trkpt>
      <trkpt lat="42.37221" lon="-3.86236">
        <ele>878.2681</ele>
        <time>2021-07-05T17:57:48Z</time>
      </trkpt>
      <trkpt lat="42.37183" lon="-3.8659">
        <ele>881.7044</ele>
        <time>2021-07-05T17:57:59Z</time>
      </trkpt>
      <trkpt lat="42.37142" lon="-3.86978">
        <ele>888.1511</ele>
        <time>2021-07-05T17:58:10Z</time>
      </trkpt>
      <trkpt lat="42.37154" lon="-3.87367">
        <ele>901.6003</ele>
        <time>2021-07-05T17:58:21Z</time>
      </trkpt>
      <trkpt lat="42.37163" lon="-3.87746">
        <ele>915.6177</ele>
        <time>2021-07-05T17:58:32Z</time>
      </trkpt>
      <trkpt lat="42.37128" lon="-3.88137">
        <ele>923.2058</ele>
        <time>2021-07-05T17:58:43Z</time>
      </trkpt>
      <trkpt lat="42.37092" lon="-3.88529">
        <ele>921.1449</ele>
        <time>2021-07-05T17:58:54Z</time>
      </trkpt>
      <trkpt lat="42.37091" lon="-3.8893">
        <ele>911.7529</ele>
        <time>2021-07-05T17:59:05Z</time>
      </trkpt>
      <trkpt lat="42.37135" lon="-3.89326">
        <ele>902.4345</ele>
        <time>2021-07-05T17:59:16Z</time>
      </trkpt>
      <trkpt lat="42.37295" lon="-3.89675">
        <ele>891.1855</ele>
        <time>2021-07-05T17:59:27Z</time>
      </trkpt>
      <trkpt lat="42.37486" lon="-3.90044">
        <ele>882.976</ele>
        <time>2021-07-05T17:59:38Z</time>
      </trkpt>
      <trkpt lat="42.37658" lon="-3.90376">
        <ele>874.4663</ele>
        <time>2021-07-05T17:59:49Z</time>
      </trkpt>
      <trkpt lat="42.37832" lon="-3.90695">
        <ele>864.8991</ele>
        <time>2021-07-05T18:00:00Z</time>
      </trkpt>
      <trkpt lat="42.38034" lon="-3.90961">
        <ele>858.4234</ele>
        <time>2021-07-05T18:00:11Z</time>
      </trkpt>
      <trkpt lat="42.38094" lon="-3.91282">
        <ele>848.6409</ele>
        <time>2021-07-05T18:00:22Z</time>
      </trkpt>
      <trkpt lat="42.3802" lon="-3.91639">
        <ele>839.075</ele>
        <time>2021-07-05T18:00:33Z</time>
      </trkpt>
      <trkpt lat="42.37955" lon="-3.92004">
        <ele>840.044</ele>
        <time>2021-07-05T18:00:44Z</time>
      </trkpt>
      <trkpt lat="42.37889" lon="-3.92367">
        <ele>843.8792</ele>
        <time>2021-07-05T18:00:55Z</time>
      </trkpt>
      <trkpt lat="42.37935" lon="-3.92717">
        <ele>839.5981</ele>
        <time>2021-07-05T18:01:06Z</time>
      </trkpt>
      <trkpt lat="42.3804" lon="-3.92976">
        <ele>837.6398</ele>
        <time>2021-07-05T18:01:17Z</time>
      </trkpt>
      <trkpt lat="42.38123" lon="-3.93181">
        <ele>839.8686</ele>
        <time>2021-07-05T18:01:28Z</time>
      </trkpt>
      <trkpt lat="42.38206" lon="-3.93386">
        <ele>844.7155</ele>
        <time>2021-07-05T18:01:39Z</time>
      </trkpt>
      <trkpt lat="42.38277" lon="-3.93629">
        <ele>846.5127</ele>
        <time>2021-07-05T18:01:50Z</time>
      </trkpt>
      <trkpt lat="42.38257" lon="-3.93979">
        <ele>850.3591</ele>
        <time>2021-07-05T18:02:01Z</time>
      </trkpt>
      <trkpt lat="42.38203" lon="-3.94341">
        <ele>854.2921</ele>
        <time>2021-07-05T18:02:12Z</time>
      </trkpt>
      <trkpt lat="42.38189" lon="-3.94721">
        <ele>861.3858</ele>
        <time>2021-07-05T18:02:23Z</time>
      </trkpt>
      <trkpt lat="42.38183" lon="-3.95105">
        <ele>870.9833</ele>
        <time>2021-07-05T18:02:34Z</time>
      </trkpt>
      <trkpt lat="42.38217" lon="-3.95481">
        <ele>876.6543</ele>
        <time>2021-07-05T18:02:45Z</time>
      </trkpt>
      <trkpt lat="42.38293" lon="-3.95854">
        <ele>881.9763</ele>
        <time>2021-07-05T18:02:56Z</time>
      </trkpt>
      <trkpt lat="42.38358" lon="-3.96229">
        <ele>884.4658</ele>
        <time>2021-07-05T18:03:07Z</time>
      </trkpt>
      <trkpt lat="42.38456" lon="-3.96592">
        <ele>892.9416</ele>
        <time>2021-07-05T18:03:18Z</time>
      </trkpt>
      <trkpt lat="42.38613" lon="-3.9691">
        <ele>902.5331</ele>
        <time>2021-07-05T18:03:29Z</time>
      </trkpt>
      <trkpt lat="42.38737" lon="-3.97235">
        <ele>911.6117</ele>
        <time>2021-07-05T18:03:40Z</time>
      </trkpt>
      <trkpt lat="42.38869" lon="-3.97585">
        <ele>921.642</ele>
        <time>2021-07-05T18:03:51Z</time>
      </trkpt>
      <trkpt lat="42.38846" lon="-3.97948">
        <ele>929.2327</ele>
        <time>2021-07-05T18:04:02Z</time>
      </trkpt>
      <trkpt lat="42.38942" lon="-3.98316">
        <ele>934.0993</ele>
        <time>2021-07-05T18:04:13Z</time>
      </trkpt>
      <trkpt lat="42.39024" lon="-3.98714">
        <ele>934.9316</ele>
        <time>2021-07-05T18:04:24Z</time>
      </trkpt>
      <trkpt lat="42.39098" lon="-3.99072">
        <ele>936.6025</ele>
        <time>2021-07-05T18:04:35Z</time>
      </trkpt>
      <trkpt lat="42.39225" lon="-3.99433">
        <ele>926.6676</ele>
        <time>2021-07-05T18:04:46Z</time>
      </trkpt>
      <trkpt lat="42.39336" lon="-3.99802">
        <ele>907.9497</ele>
        <time>2021-07-05T18:04:57Z</time>
      </trkpt>
      <trkpt lat="42.39435" lon="-4.00176">
        <ele>891.8633</ele>
        <time>2021-07-05T18:05:08Z</time>
      </trkpt>
      <trkpt lat="42.39523" lon="-4.00557">
        <ele>873.3532</ele>
        <time>2021-07-05T18:05:19Z</time>
      </trkpt>
      <trkpt lat="42.39503" lon="-4.00952">
        <ele>860.5144</ele>
        <time>2021-07-05T18:05:30Z</time>
      </trkpt>
      <trkpt lat="42.39472" lon="-4.01335">
        <ele>855.081</ele>
        <time>2021-07-05T18:05:41Z</time>
      </trkpt>
      <trkpt lat="42.39502" lon="-4.01712">
        <ele>851.0699</ele>
        <time>2021-07-05T18:05:52Z</time>
      </trkpt>
      <trkpt lat="42.39633" lon="-4.0206">
        <ele>853.1708</ele>
        <time>2021-07-05T18:06:03Z</time>
      </trkpt>
      <trkpt lat="42.39602" lon="-4.02485">
        <ele>843.325</ele>
        <time>2021-07-05T18:06:14Z</time>
      </trkpt>
      <trkpt lat="42.39651" lon="-4.02876">
        <ele>833.5423</ele>
        <time>2021-07-05T18:06:25Z</time>
      </trkpt>
      <trkpt lat="42.39749" lon="-4.03213">
        <ele>828.361</ele>
        <time>2021-07-05T18:06:36Z</time>
      </trkpt>
      <trkpt lat="42.39857" lon="-4.03524">
        <ele>824.5654</ele>
        <time>2021-07-05T18:06:47Z</time>
      </trkpt>
      <trkpt lat="42.3993" lon="-4.03734">
        <ele>825.3349</ele>
        <time>2021-07-05T18:06:58Z</time>
      </trkpt>
      <trkpt lat="42.39906" lon="-4.04028">
        <ele>820.0624</ele>
        <time>2021-07-05T18:07:09Z</time>
      </trkpt>
      <trkpt lat="42.39863" lon="-4.04389">
        <ele>815.657</ele>
        <time>2021-07-05T18:07:20Z</time>
      </trkpt>
      <trkpt lat="42.39815" lon="-4.04779">
        <ele>818.4588</ele>
        <time>2021-07-05T18:07:31Z</time>
      </trkpt>
      <trkpt lat="42.39765" lon="-4.05181">
        <ele>816.7642</ele>
        <time>2021-07-05T18:07:42Z</time>
      </trkpt>
      <trkpt lat="42.39714" lon="-4.05587">
        <ele>814.2072</ele>
        <time>2021-07-05T18:07:53Z</time>
      </trkpt>
      <trkpt lat="42.39664" lon="-4.05997">
        <ele>808.3457</ele>
        <time>2021-07-05T18:08:04Z</time>
      </trkpt>
      <trkpt lat="42.39611" lon="-4.06437">
        <ele>804.8607</ele>
        <time>2021-07-05T18:08:15Z</time>
      </trkpt>
      <trkpt lat="42.39507" lon="-4.06798">
        <ele>803.0082</ele>
        <time>2021-07-05T18:08:26Z</time>
      </trkpt>
      <trkpt lat="42.39344" lon="-4.07069">
        <ele>801.1527</ele>
        <time>2021-07-05T18:08:37Z</time>
      </trkpt>
      <trkpt lat="42.39288" lon="-4.0744">
        <ele>800.4</ele>
        <time>2021-07-05T18:08:48Z</time>
      </trkpt>
      <trkpt lat="42.3927" lon="-4.07832">
        <ele>800.4553</ele>
        <time>2021-07-05T18:08:59Z</time>
      </trkpt>
      <trkpt lat="42.3914" lon="-4.08177">
        <ele>798.0825</ele>
        <time>2021-07-05T18:09:10Z</time>
      </trkpt>
      <trkpt lat="42.3895" lon="-4.08468">
        <ele>796.2953</ele>
        <time>2021-07-05T18:09:21Z</time>
      </trkpt>
      <trkpt lat="42.38752" lon="-4.08763">
        <ele>795.3311</ele>
        <time>2021-07-05T18:09:32Z</time>
      </trkpt>
      <trkpt lat="42.38548" lon="-4.09066">
        <ele>794.6607</ele>
        <time>2021-07-05T18:09:43Z</time>
      </trkpt>
      <trkpt lat="42.38347" lon="-4.09366">
        <ele>794.2695</ele>
        <time>2021-07-05T18:09:54Z</time>
      </trkpt>
      <trkpt lat="42.38147" lon="-4.09664">
        <ele>793.3524</ele>
        <time>2021-07-05T18:10:05Z</time>
      </trkpt>
      <trkpt lat="42.3793" lon="-4.09986">
        <ele>793.3485</ele>
        <time>2021-07-05T18:10:16Z</time>
      </trkpt>
      <trkpt lat="42.37734" lon="-4.10277">
        <ele>794.5754</ele>
        <time>2021-07-05T18:10:28Z</time>
      </trkpt>
      <trkpt lat="42.37598" lon="-4.10556">
        <ele>795.1193</ele>
        <time>2021-07-05T18:10:39Z</time>
      </trkpt>
      <trkpt lat="42.37578" lon="-4.10863">
        <ele>796.8116</ele>
        <time>2021-07-05T18:10:50Z</time>
      </trkpt>
      <trkpt lat="42.37634" lon="-4.11208">
        <ele>799.7954</ele>
        <time>2021-07-05T18:11:01Z</time>
      </trkpt>
      <trkpt lat="42.37765" lon="-4.11559">
        <ele>802.057</ele>
        <time>2021-07-05T18:11:12Z</time>
      </trkpt>
      <trkpt lat="42.37893" lon="-4.11913">
        <ele>803.0126</ele>
        <time>2021-07-05T18:11:23Z</time>
      </trkpt>
      <trkpt lat="42.38025" lon="-4.12278">
        <ele>804.0888</ele>
        <time>2021-07-05T18:11:34Z</time>
      </trkpt>
      <trkpt lat="42.38158" lon="-4.12649">
        <ele>805.3027</ele>
        <time>2021-07-05T18:11:45Z</time>
      </trkpt>
      <trkpt lat="42.38291" lon="-4.13019">
        <ele>809.3758</ele>
        <time>2021-07-05T18:11:56Z</time>
      </trkpt>
      <trkpt lat="42.38447" lon="-4.13366">
        <ele>808.9569</ele>
        <time>2021-07-05T18:12:07Z</time>
      </trkpt>
      <trkpt lat="42.38624" lon="-4.13709">
        <ele>807.0409</ele>
        <time>2021-07-05T18:12:18Z</time>
      </trkpt>
      <trkpt lat="42.38815" lon="-4.14078">
        <ele>807.312</ele>
        <time>2021-07-05T18:12:29Z</time>
      </trkpt>
      <trkpt lat="42.38973" lon="-4.14385">
        <ele>807.7351</ele>
        <time>2021-07-05T18:12:40Z</time>
      </trkpt>
      <trkpt lat="42.39145" lon="-4.14716">
        <ele>808.0225</ele>
        <time>2021-07-05T18:12:51Z</time>
      </trkpt>
      <trkpt lat="42.39313" lon="-4.15042">
        <ele>808.2791</ele>
        <time>2021-07-05T18:13:02Z</time>
      </trkpt>
      <trkpt lat="42.3947" lon="-4.15345">
        <ele>811.0838</ele>
        <time>2021-07-05T18:13:13Z</time>
      </trkpt>
      <trkpt lat="42.39638" lon="-4.15671">
        <ele>807.9042</ele>
        <time>2021-07-05T18:13:24Z</time>
      </trkpt>
      <trkpt lat="42.39808" lon="-4.16001">
        <ele>806.1609</ele>
        <time>2021-07-05T18:13:35Z</time>
      </trkpt>
      <trkpt lat="42.39983" lon="-4.1634">
        <ele>804.609</ele>
        <time>2021-07-05T18:13:46Z</time>
      </trkpt>
      <trkpt lat="42.40159" lon="-4.16677">
        <ele>803.3144</ele>
        <time>2021-07-05T18:13:57Z</time>
      </trkpt>
      <trkpt lat="42.4034" lon="-4.17029">
        <ele>801.3579</ele>
        <time>2021-07-05T18:14:08Z</time>
      </trkpt>
      <trkpt lat="42.40513" lon="-4.1736">
        <ele>801.0949</ele>
        <time>2021-07-05T18:14:19Z</time>
      </trkpt>
      <trkpt lat="42.40619" lon="-4.1767">
        <ele>800.6159</ele>
        <time>2021-07-05T18:14:30Z</time>
      </trkpt>
      <trkpt lat="42.40591" lon="-4.17927">
        <ele>803.4736</ele>
        <time>2021-07-05T18:14:41Z</time>
      </trkpt>
      <trkpt lat="42.40542" lon="-4.18299">
        <ele>806.5224</ele>
        <time>2021-07-05T18:14:52Z</time>
      </trkpt>
      <trkpt lat="42.40489" lon="-4.18694">
        <ele>809.0931</ele>
        <time>2021-07-05T18:15:03Z</time>
      </trkpt>
      <trkpt lat="42.40435" lon="-4.19092">
        <ele>810.2469</ele>
        <time>2021-07-05T18:15:14Z</time>
      </trkpt>
      <trkpt lat="42.40379" lon="-4.1949">
        <ele>801.6796</ele>
        <time>2021-07-05T18:15:25Z</time>
      </trkpt>
      <trkpt lat="42.40323" lon="-4.19894">
        <ele>802.6693</ele>
        <time>2021-07-05T18:15:36Z</time>
      </trkpt>
      <trkpt lat="42.40301" lon="-4.20305">
        <ele>802.0809</ele>
        <time>2021-07-05T18:15:47Z</time>
      </trkpt>
      <trkpt lat="42.4041" lon="-4.20688">
        <ele>803.1514</ele>
        <time>2021-07-05T18:15:58Z</time>
      </trkpt>
      <trkpt lat="42.40443" lon="-4.21089">
        <ele>804.2373</ele>
        <time>2021-07-05T18:16:09Z</time>
      </trkpt>
      <trkpt lat="42.40276" lon="-4.21408">
        <ele>807.6073</ele>
        <time>2021-07-05T18:16:20Z</time>
      </trkpt>
      <trkpt lat="42.40038" lon="-4.21642">
        <ele>810.0952</ele>
        <time>2021-07-05T18:16:31Z</time>
      </trkpt>
      <trkpt lat="42.39914" lon="-4.22005">
        <ele>809.9206</ele>
        <time>2021-07-05T18:16:42Z</time>
      </trkpt>
      <trkpt lat="42.40007" lon="-4.22384">
        <ele>804.5641</ele>
        <time>2021-07-05T18:16:53Z</time>
      </trkpt>
      <trkpt lat="42.40194" lon="-4.22715">
        <ele>802.0709</ele>
        <time>2021-07-05T18:17:04Z</time>
      </trkpt>
      <trkpt lat="42.40254" lon="-4.23115">
        <ele>798.5805</ele>
        <time>2021-07-05T18:17:15Z</time>
      </trkpt>
      <trkpt lat="42.40269" lon="-4.23485">
        <ele>798.6848</ele>
        <time>2021-07-05T18:17:26Z</time>
      </trkpt>
      <trkpt lat="42.40278" lon="-4.23744">
        <ele>803.4091</ele>
        <time>2021-07-05T18:17:37Z</time>
      </trkpt>
      <trkpt lat="42.40286" lon="-4.24006">
        <ele>811.196</ele>
        <time>2021-07-05T18:17:48Z</time>
      </trkpt>
      <trkpt lat="42.40295" lon="-4.24243">
        <ele>814.8975</ele>
        <time>2021-07-05T18:17:59Z</time>
      </trkpt>
      <trkpt lat="42.403" lon="-4.2429">
        <ele>817.0539</ele>
        <time>2021-07-05T18:18:10Z</time>
      </trkpt>
      <trkpt lat="42.40225" lon="-4.24414">
        <ele>813.9601</ele>
        <time>2021-07-05T18:18:21Z</time>
      </trkpt>
      <trkpt lat="42.40188" lon="-4.24611">
        <ele>815.672</ele>
        <time>2021-07-05T18:18:32Z</time>
      </trkpt>
      <trkpt lat="42.40217" lon="-4.24822">
        <ele>816.2549</ele>
        <time>2021-07-05T18:18:43Z</time>
      </trkpt>
      <trkpt lat="42.40243" lon="-4.25052">
        <ele>810.9705</ele>
        <time>2021-07-05T18:18:54Z</time>
      </trkpt>
      <trkpt lat="42.40157" lon="-4.25151">
        <ele>800.3291</ele>
        <time>2021-07-05T18:19:05Z</time>
      </trkpt>
      <trkpt lat="42.40259" lon="-4.25358">
        <ele>798.6634</ele>
        <time>2021-07-05T18:19:16Z</time>
      </trkpt>
      <trkpt lat="42.40329" lon="-4.25656">
        <ele>795.4676</ele>
        <time>2021-07-05T18:19:27Z</time>
      </trkpt>
      <trkpt lat="42.40395" lon="-4.26015">
        <ele>793.9982</ele>
        <time>2021-07-05T18:19:38Z</time>
      </trkpt>
      <trkpt lat="42.40462" lon="-4.2639">
        <ele>793.7742</ele>
        <time>2021-07-05T18:19:49Z</time>
      </trkpt>
      <trkpt lat="42.40532" lon="-4.26779">
        <ele>793.2776</ele>
        <time>2021-07-05T18:20:00Z</time>
      </trkpt>
      <trkpt lat="42.40603" lon="-4.27178">
        <ele>793.722</ele>
        <time>2021-07-05T18:20:11Z</time>
      </trkpt>
      <trkpt lat="42.40675" lon="-4.27584">
        <ele>794.2916</ele>
        <time>2021-07-05T18:20:22Z</time>
      </trkpt>
      <trkpt lat="42.40762" lon="-4.27958">
        <ele>802.9192</ele>
        <time>2021-07-05T18:20:33Z</time>
      </trkpt>
      <trkpt lat="42.40975" lon="-4.28228">
        <ele>810.4862</ele>
        <time>2021-07-05T18:20:44Z</time>
      </trkpt>
      <trkpt lat="42.41097" lon="-4.28597">
        <ele>805.2893</ele>
        <time>2021-07-05T18:20:55Z</time>
      </trkpt>
      <trkpt lat="42.41176" lon="-4.28997">
        <ele>804.2784</ele>
        <time>2021-07-05T18:21:06Z</time>
      </trkpt>
      <trkpt lat="42.41256" lon="-4.29398">
        <ele>805.4833</ele>
        <time>2021-07-05T18:21:17Z</time>
      </trkpt>
      <trkpt lat="42.41335" lon="-4.29792">
        <ele>806.4477</ele>
        <time>2021-07-05T18:21:28Z</time>
      </trkpt>
      <trkpt lat="42.41415" lon="-4.30197">
        <ele>807.6975</ele>
        <time>2021-07-05T18:21:39Z</time>
      </trkpt>
      <trkpt lat="42.41496" lon="-4.30607">
        <ele>808.4233</ele>
        <time>2021-07-05T18:21:50Z</time>
      </trkpt>
      <trkpt lat="42.41578" lon="-4.31018">
        <ele>809.2593</ele>
        <time>2021-07-05T18:22:01Z</time>
      </trkpt>
      <trkpt lat="42.41658" lon="-4.31421">
        <ele>810.4659</ele>
        <time>2021-07-05T18:22:12Z</time>
      </trkpt>
      <trkpt lat="42.41737" lon="-4.31823">
        <ele>811.0145</ele>
        <time>2021-07-05T18:22:23Z</time>
      </trkpt>
      <trkpt lat="42.41817" lon="-4.32229">
        <ele>807.5994</ele>
        <time>2021-07-05T18:22:34Z</time>
      </trkpt>
      <trkpt lat="42.41898" lon="-4.32636">
        <ele>805.9553</ele>
        <time>2021-07-05T18:22:45Z</time>
      </trkpt>
      <trkpt lat="42.41978" lon="-4.33039">
        <ele>804.314</ele>
        <time>2021-07-05T18:22:56Z</time>
      </trkpt>
      <trkpt lat="42.42056" lon="-4.33436">
        <ele>805.6955</ele>
        <time>2021-07-05T18:23:07Z</time>
      </trkpt>
      <trkpt lat="42.42137" lon="-4.33838">
        <ele>805.7155</ele>
        <time>2021-07-05T18:23:18Z</time>
      </trkpt>
      <trkpt lat="42.42213" lon="-4.34228">
        <ele>807.2306</ele>
        <time>2021-07-05T18:23:29Z</time>
      </trkpt>
      <trkpt lat="42.42288" lon="-4.34614">
        <ele>809.1949</ele>
        <time>2021-07-05T18:23:40Z</time>
      </trkpt>
      <trkpt lat="42.42348" lon="-4.34887">
        <ele>807.7507</ele>
        <time>2021-07-05T18:23:51Z</time>
      </trkpt>
      <trkpt lat="42.4235" lon="-4.34911">
        <ele>807.4613</ele>
        <time>2021-07-05T18:24:02Z</time>
      </trkpt>
      <trkpt lat="42.42348" lon="-4.34923">
        <ele>806.8771</ele>
        <time>2021-07-05T18:24:13Z</time>
      </trkpt>
      <trkpt lat="42.42182" lon="-4.34987">
        <ele>808.899</ele>
        <time>2021-07-05T18:24:24Z</time>
      </trkpt>
      <trkpt lat="42.41979" lon="-4.35075">
        <ele>806.9352</ele>
        <time>2021-07-05T18:24:35Z</time>
      </trkpt>
      <trkpt lat="42.4177" lon="-4.3516">
        <ele>807.1043</ele>
        <time>2021-07-05T18:24:46Z</time>
      </trkpt>
      <trkpt lat="42.41574" lon="-4.3524">
        <ele>806.6747</ele>
        <time>2021-07-05T18:24:57Z</time>
      </trkpt>
      <trkpt lat="42.41366" lon="-4.35327">
        <ele>806.7942</ele>
        <time>2021-07-05T18:25:08Z</time>
      </trkpt>
      <trkpt lat="42.41163" lon="-4.35412">
        <ele>805.7211</ele>
        <time>2021-07-05T18:25:19Z</time>
      </trkpt>
      <trkpt lat="42.40945" lon="-4.35502">
        <ele>805.7142</ele>
        <time>2021-07-05T18:25:30Z</time>
      </trkpt>
      <trkpt lat="42.40765" lon="-4.35611">
        <ele>812.1408</ele>
        <time>2021-07-05T18:25:41Z</time>
      </trkpt>
      <trkpt lat="42.40698" lon="-4.35787">
        <ele>817.1453</ele>
        <time>2021-07-05T18:25:52Z</time>
      </trkpt>
      <trkpt lat="42.40719" lon="-4.35979">
        <ele>817.9833</ele>
        <time>2021-07-05T18:26:03Z</time>
      </trkpt>
      <trkpt lat="42.40766" lon="-4.36197">
        <ele>816.7583</ele>
        <time>2021-07-05T18:26:14Z</time>
      </trkpt>
      <trkpt lat="42.40826" lon="-4.36451">
        <ele>816.2533</ele>
        <time>2021-07-05T18:26:25Z</time>
      </trkpt>
      <trkpt lat="42.40848" lon="-4.36745">
        <ele>820.0103</ele>
        <time>2021-07-05T18:26:36Z</time>
      </trkpt>
      <trkpt lat="42.40804" lon="-4.37089">
        <ele>819.3726</ele>
        <time>2021-07-05T18:26:47Z</time>
      </trkpt>
      <trkpt lat="42.40696" lon="-4.37472">
        <ele>818.3161</ele>
        <time>2021-07-05T18:26:58Z</time>
      </trkpt>
      <trkpt lat="42.40581" lon="-4.37855">
        <ele>816.2808</ele>
        <time>2021-07-05T18:27:09Z</time>
      </trkpt>
      <trkpt lat="42.40466" lon="-4.3824">
        <ele>817.7661</ele>
        <time>2021-07-05T18:27:20Z</time>
      </trkpt>
      <trkpt lat="42.40294" lon="-4.38576">
        <ele>825.5301</ele>
        <time>2021-07-05T18:27:31Z</time>
      </trkpt>
      <trkpt lat="42.40177" lon="-4.38959">
        <ele>828.3847</ele>
        <time>2021-07-05T18:27:42Z</time>
      </trkpt>
      <trkpt lat="42.40119" lon="-4.39355">
        <ele>825.2044</ele>
        <time>2021-07-05T18:27:53Z</time>
      </trkpt>
      <trkpt lat="42.40021" lon="-4.39746">
        <ele>826.0644</ele>
        <time>2021-07-05T18:28:04Z</time>
      </trkpt>
      <trkpt lat="42.39908" lon="-4.4013">
        <ele>827.8445</ele>
        <time>2021-07-05T18:28:15Z</time>
      </trkpt>
      <trkpt lat="42.39849" lon="-4.40532">
        <ele>831.0017</ele>
        <time>2021-07-05T18:28:26Z</time>
      </trkpt>
      <trkpt lat="42.39877" lon="-4.40946">
        <ele>832.8869</ele>
        <time>2021-07-05T18:28:37Z</time>
      </trkpt>
      <trkpt lat="42.39807" lon="-4.41351">
        <ele>818.8116</ele>
        <time>2021-07-05T18:28:48Z</time>
      </trkpt>
      <trkpt lat="42.39716" lon="-4.41754">
        <ele>812.4821</ele>
        <time>2021-07-05T18:28:59Z</time>
      </trkpt>
      <trkpt lat="42.39638" lon="-4.42155">
        <ele>816.3755</ele>
        <time>2021-07-05T18:29:10Z</time>
      </trkpt>
      <trkpt lat="42.3955" lon="-4.42543">
        <ele>809.7062</ele>
        <time>2021-07-05T18:29:21Z</time>
      </trkpt>
      <trkpt lat="42.3946" lon="-4.42933">
        <ele>810.5446</ele>
        <time>2021-07-05T18:29:32Z</time>
      </trkpt>
      <trkpt lat="42.39371" lon="-4.43323">
        <ele>813.0899</ele>
        <time>2021-07-05T18:29:43Z</time>
      </trkpt>
      <trkpt lat="42.3928" lon="-4.43718">
        <ele>818.0355</ele>
        <time>2021-07-05T18:29:54Z</time>
      </trkpt>
      <trkpt lat="42.39188" lon="-4.44113">
        <ele>822.3975</ele>
        <time>2021-07-05T18:30:05Z</time>
      </trkpt>
      <trkpt lat="42.39098" lon="-4.44501">
        <ele>823.4001</ele>
        <time>2021-07-05T18:30:16Z</time>
      </trkpt>
      <trkpt lat="42.39008" lon="-4.44889">
        <ele>823.52</ele>
        <time>2021-07-05T18:30:27Z</time>
      </trkpt>
      <trkpt lat="42.38917" lon="-4.4528">
        <ele>826.3503</ele>
        <time>2021-07-05T18:30:38Z</time>
      </trkpt>
      <trkpt lat="42.3884" lon="-4.45655">
        <ele>822.6237</ele>
        <time>2021-07-05T18:30:49Z</time>
      </trkpt>
      <trkpt lat="42.38831" lon="-4.45962">
        <ele>823.4003</ele>
        <time>2021-07-05T18:31:00Z</time>
      </trkpt>
      <trkpt lat="42.38807" lon="-4.46168">
        <ele>835.8061</ele>
        <time>2021-07-05T18:31:11Z</time>
      </trkpt>
      <trkpt lat="42.3877" lon="-4.46382">
        <ele>835.5095</ele>
        <time>2021-07-05T18:31:22Z</time>
      </trkpt>
      <trkpt lat="42.3875" lon="-4.46623">
        <ele>834.8708</ele>
        <time>2021-07-05T18:31:33Z</time>
      </trkpt>
      <trkpt lat="42.38691" lon="-4.46976">
        <ele>835.0587</ele>
        <time>2021-07-05T18:31:44Z</time>
      </trkpt>
      <trkpt lat="42.38588" lon="-4.47345">
        <ele>840.4756</ele>
        <time>2021-07-05T18:31:55Z</time>
      </trkpt>
      <trkpt lat="42.38481" lon="-4.47732">
        <ele>847.7634</ele>
        <time>2021-07-05T18:32:06Z</time>
      </trkpt>
      <trkpt lat="42.38374" lon="-4.48115">
        <ele>854.4817</ele>
        <time>2021-07-05T18:32:17Z</time>
      </trkpt>
      <trkpt lat="42.38267" lon="-4.48501">
        <ele>857.8793</ele>
        <time>2021-07-05T18:32:28Z</time>
      </trkpt>
      <trkpt lat="42.3816" lon="-4.48898">
        <ele>847.3406</ele>
        <time>2021-07-05T18:32:39Z</time>
      </trkpt>
      <trkpt lat="42.38054" lon="-4.4929">
        <ele>843.9671</ele>
        <time>2021-07-05T18:32:50Z</time>
      </trkpt>
      <trkpt lat="42.37949" lon="-4.49681">
        <ele>847.6123</ele>
        <time>2021-07-05T18:33:01Z</time>
      </trkpt>
      <trkpt lat="42.37844" lon="-4.50071">
        <ele>849.9781</ele>
        <time>2021-07-05T18:33:12Z</time>
      </trkpt>
      <trkpt lat="42.37739" lon="-4.50457">
        <ele>856.0276</ele>
        <time>2021-07-05T18:33:23Z</time>
      </trkpt>
      <trkpt lat="42.37634" lon="-4.50846">
        <ele>858.3908</ele>
        <time>2021-07-05T18:33:34Z</time>
      </trkpt>
      <trkpt lat="42.37528" lon="-4.51238">
        <ele>854.9376</ele>
        <time>2021-07-05T18:33:45Z</time>
      </trkpt>
      <trkpt lat="42.37417" lon="-4.51604">
        <ele>857.5809</ele>
        <time>2021-07-05T18:33:56Z</time>
      </trkpt>
      <trkpt lat="42.3729" lon="-4.51969">
        <ele>837.5919</ele>
        <time>2021-07-05T18:34:07Z</time>
      </trkpt>
      <trkpt lat="42.37177" lon="-4.52358">
        <ele>835.0623</ele>
        <time>2021-07-05T18:34:18Z</time>
      </trkpt>
      <trkpt lat="42.37063" lon="-4.52745">
        <ele>827.539</ele>
        <time>2021-07-05T18:34:29Z</time>
      </trkpt>
      <trkpt lat="42.36951" lon="-4.53132">
        <ele>821.7523</ele>
        <time>2021-07-05T18:34:40Z</time>
      </trkpt>
      <trkpt lat="42.36836" lon="-4.53527">
        <ele>818.265</ele>
        <time>2021-07-05T18:34:51Z</time>
      </trkpt>
      <trkpt lat="42.36723" lon="-4.53916">
        <ele>818.626</ele>
        <time>2021-07-05T18:35:02Z</time>
      </trkpt>
      <trkpt lat="42.36616" lon="-4.543">
        <ele>821.5257</ele>
        <time>2021-07-05T18:35:13Z</time>
      </trkpt>
      <trkpt lat="42.36513" lon="-4.54682">
        <ele>825.651</ele>
        <time>2021-07-05T18:35:24Z</time>
      </trkpt>
      <trkpt lat="42.36409" lon="-4.55069">
        <ele>829.7491</ele>
        <time>2021-07-05T18:35:35Z</time>
      </trkpt>
      <trkpt lat="42.36289" lon="-4.55456">
        <ele>817.9923</ele>
        <time>2021-07-05T18:35:46Z</time>
      </trkpt>
      <trkpt lat="42.36125" lon="-4.55803">
        <ele>813.3414</ele>
        <time>2021-07-05T18:35:57Z</time>
      </trkpt>
      <trkpt lat="42.35965" lon="-4.56143">
        <ele>810.9083</ele>
        <time>2021-07-05T18:36:08Z</time>
      </trkpt>
      <trkpt lat="42.35814" lon="-4.56465">
        <ele>814.8728</ele>
        <time>2021-07-05T18:36:19Z</time>
      </trkpt>
      <trkpt lat="42.35668" lon="-4.56776">
        <ele>821.2273</ele>
        <time>2021-07-05T18:36:30Z</time>
      </trkpt>
      <trkpt lat="42.35511" lon="-4.57107">
        <ele>830.1246</ele>
        <time>2021-07-05T18:36:41Z</time>
      </trkpt>
      <trkpt lat="42.35348" lon="-4.57452">
        <ele>838.2299</ele>
        <time>2021-07-05T18:36:52Z</time>
      </trkpt>
      <trkpt lat="42.35181" lon="-4.57807">
        <ele>848.545</ele>
        <time>2021-07-05T18:37:03Z</time>
      </trkpt>
      <trkpt lat="42.35056" lon="-4.58193">
        <ele>847.5988</ele>
        <time>2021-07-05T18:37:14Z</time>
      </trkpt>
      <trkpt lat="42.34913" lon="-4.58544">
        <ele>845.0426</ele>
        <time>2021-07-05T18:37:25Z</time>
      </trkpt>
      <trkpt lat="42.3475" lon="-4.58836">
        <ele>836.7742</ele>
        <time>2021-07-05T18:37:36Z</time>
      </trkpt>
      <trkpt lat="42.3457" lon="-4.59161">
        <ele>829.6698</ele>
        <time>2021-07-05T18:37:47Z</time>
      </trkpt>
      <trkpt lat="42.34418" lon="-4.59466">
        <ele>831.7112</ele>
        <time>2021-07-05T18:37:58Z</time>
      </trkpt>
      <trkpt lat="42.34367" lon="-4.59821">
        <ele>837.3779</ele>
        <time>2021-07-05T18:38:09Z</time>
      </trkpt>
      <trkpt lat="42.34427" lon="-4.60152">
        <ele>839.7583</ele>
        <time>2021-07-05T18:38:20Z</time>
      </trkpt>
      <trkpt lat="42.34513" lon="-4.6053">
        <ele>837.2768</ele>
        <time>2021-07-05T18:38:31Z</time>
      </trkpt>
      <trkpt lat="42.34497" lon="-4.60932">
        <ele>833.2339</ele>
        <time>2021-07-05T18:38:42Z</time>
      </trkpt>
      <trkpt lat="42.34468" lon="-4.61332">
        <ele>834.3316</ele>
        <time>2021-07-05T18:38:53Z</time>
      </trkpt>
      <trkpt lat="42.34412" lon="-4.61715">
        <ele>834.7435</ele>
        <time>2021-07-05T18:39:04Z</time>
      </trkpt>
      <trkpt lat="42.34232" lon="-4.62046">
        <ele>829.0678</ele>
        <time>2021-07-05T18:39:15Z</time>
      </trkpt>
      <trkpt lat="42.34031" lon="-4.62384">
        <ele>827.647</ele>
        <time>2021-07-05T18:39:26Z</time>
      </trkpt>
      <trkpt lat="42.3389" lon="-4.62721">
        <ele>826.8355</ele>
        <time>2021-07-05T18:39:37Z</time>
      </trkpt>
      <trkpt lat="42.33806" lon="-4.63034">
        <ele>826.3783</ele>
        <time>2021-07-05T18:39:48Z</time>
      </trkpt>
      <trkpt lat="42.33669" lon="-4.63397">
        <ele>825.8332</ele>
        <time>2021-07-05T18:39:59Z</time>
      </trkpt>
      <trkpt lat="42.33466" lon="-4.63714">
        <ele>826.6208</ele>
        <time>2021-07-05T18:40:10Z</time>
      </trkpt>
      <trkpt lat="42.33261" lon="-4.64029">
        <ele>827.1531</ele>
        <time>2021-07-05T18:40:21Z</time>
      </trkpt>
      <trkpt lat="42.33084" lon="-4.64362">
        <ele>825.2697</ele>
        <time>2021-07-05T18:40:32Z</time>
      </trkpt>
      <trkpt lat="42.32947" lon="-4.64666">
        <ele>825.726</ele>
        <time>2021-07-05T18:40:43Z</time>
      </trkpt>
      <trkpt lat="42.32904" lon="-4.64976">
        <ele>827.2539</ele>
        <time>2021-07-05T18:40:54Z</time>
      </trkpt>
      <trkpt lat="42.32887" lon="-4.65227">
        <ele>829.2355</ele>
        <time>2021-07-05T18:41:05Z</time>
      </trkpt>
      <trkpt lat="42.32829" lon="-4.65518">
        <ele>829.9234</ele>
        <time>2021-07-05T18:41:16Z</time>
      </trkpt>
      <trkpt lat="42.32755" lon="-4.6588">
        <ele>830.2612</ele>
        <time>2021-07-05T18:41:27Z</time>
      </trkpt>
      <trkpt lat="42.32668" lon="-4.66304">
        <ele>828.462</ele>
        <time>2021-07-05T18:41:38Z</time>
      </trkpt>
      <trkpt lat="42.32586" lon="-4.66708">
        <ele>827.571</ele>
        <time>2021-07-05T18:41:49Z</time>
      </trkpt>
      <trkpt lat="42.32503" lon="-4.67111">
        <ele>831.0684</ele>
        <time>2021-07-05T18:42:00Z</time>
      </trkpt>
      <trkpt lat="42.32419" lon="-4.67517">
        <ele>831.6372</ele>
        <time>2021-07-05T18:42:11Z</time>
      </trkpt>
      <trkpt lat="42.32337" lon="-4.67919">
        <ele>832.2304</ele>
        <time>2021-07-05T18:42:22Z</time>
      </trkpt>
      <trkpt lat="42.32254" lon="-4.68322">
        <ele>833.4822</ele>
        <time>2021-07-05T18:42:33Z</time>
      </trkpt>
      <trkpt lat="42.32178" lon="-4.68696">
        <ele>835.2945</ele>
        <time>2021-07-05T18:42:44Z</time>
      </trkpt>
      <trkpt lat="42.32093" lon="-4.69104">
        <ele>837.8012</ele>
        <time>2021-07-05T18:42:55Z</time>
      </trkpt>
      <trkpt lat="42.32009" lon="-4.6952">
        <ele>838.0961</ele>
        <time>2021-07-05T18:43:06Z</time>
      </trkpt>
      <trkpt lat="42.31923" lon="-4.69937">
        <ele>839.7037</ele>
        <time>2021-07-05T18:43:17Z</time>
      </trkpt>
      <trkpt lat="42.31822" lon="-4.70338">
        <ele>845.3708</ele>
        <time>2021-07-05T18:43:28Z</time>
      </trkpt>
      <trkpt lat="42.31684" lon="-4.70705">
        <ele>846.7342</ele>
        <time>2021-07-05T18:43:39Z</time>
      </trkpt>
      <trkpt lat="42.31546" lon="-4.71073">
        <ele>845.0279</ele>
        <time>2021-07-05T18:43:50Z</time>
      </trkpt>
      <trkpt lat="42.31408" lon="-4.71447">
        <ele>845.7595</ele>
        <time>2021-07-05T18:44:01Z</time>
      </trkpt>
      <trkpt lat="42.31269" lon="-4.71818">
        <ele>847.3639</ele>
        <time>2021-07-05T18:44:12Z</time>
      </trkpt>
      <trkpt lat="42.31127" lon="-4.72199">
        <ele>849.6196</ele>
        <time>2021-07-05T18:44:23Z</time>
      </trkpt>
      <trkpt lat="42.30986" lon="-4.72574">
        <ele>850.1188</ele>
        <time>2021-07-05T18:44:34Z</time>
      </trkpt>
      <trkpt lat="42.30845" lon="-4.72948">
        <ele>849.2217</ele>
        <time>2021-07-05T18:44:45Z</time>
      </trkpt>
      <trkpt lat="42.30702" lon="-4.73334">
        <ele>850.3621</ele>
        <time>2021-07-05T18:44:56Z</time>
      </trkpt>
      <trkpt lat="42.30557" lon="-4.73723">
        <ele>853.498</ele>
        <time>2021-07-05T18:45:07Z</time>
      </trkpt>
      <trkpt lat="42.30413" lon="-4.74111">
        <ele>854.1664</ele>
        <time>2021-07-05T18:45:18Z</time>
      </trkpt>
      <trkpt lat="42.30267" lon="-4.74501">
        <ele>854.619</ele>
        <time>2021-07-05T18:45:29Z</time>
      </trkpt>
      <trkpt lat="42.30128" lon="-4.74885">
        <ele>853.903</ele>
        <time>2021-07-05T18:45:40Z</time>
      </trkpt>
      <trkpt lat="42.29974" lon="-4.75305">
        <ele>855.1975</ele>
        <time>2021-07-05T18:45:51Z</time>
      </trkpt>
      <trkpt lat="42.29833" lon="-4.75693">
        <ele>855.5281</ele>
        <time>2021-07-05T18:46:02Z</time>
      </trkpt>
      <trkpt lat="42.29737" lon="-4.76079">
        <ele>842.8411</ele>
        <time>2021-07-05T18:46:13Z</time>
      </trkpt>
      <trkpt lat="42.2965" lon="-4.76471">
        <ele>834.8484</ele>
        <time>2021-07-05T18:46:24Z</time>
      </trkpt>
      <trkpt lat="42.29415" lon="-4.76661">
        <ele>839.9569</ele>
        <time>2021-07-05T18:46:35Z</time>
      </trkpt>
      <trkpt lat="42.29279" lon="-4.76896">
        <ele>841.5015</ele>
        <time>2021-07-05T18:46:46Z</time>
      </trkpt>
      <trkpt lat="42.29195" lon="-4.77145">
        <ele>852.0989</ele>
        <time>2021-07-05T18:46:57Z</time>
      </trkpt>
      <trkpt lat="42.29111" lon="-4.77388">
        <ele>859.5332</ele>
        <time>2021-07-05T18:47:08Z</time>
      </trkpt>
      <trkpt lat="42.29007" lon="-4.77689">
        <ele>861.344</ele>
        <time>2021-07-05T18:47:19Z</time>
      </trkpt>
      <trkpt lat="42.28909" lon="-4.77979">
        <ele>850.5268</ele>
        <time>2021-07-05T18:47:30Z</time>
      </trkpt>
      <trkpt lat="42.28907" lon="-4.78166">
        <ele>848.8548</ele>
        <time>2021-07-05T18:47:41Z</time>
      </trkpt>
      <trkpt lat="42.28766" lon="-4.7839">
        <ele>852.0405</ele>
        <time>2021-07-05T18:47:52Z</time>
      </trkpt>
      <trkpt lat="42.28642" lon="-4.78748">
        <ele>853.137</ele>
        <time>2021-07-05T18:48:03Z</time>
      </trkpt>
      <trkpt lat="42.28516" lon="-4.79117">
        <ele>854.6155</ele>
        <time>2021-07-05T18:48:14Z</time>
      </trkpt>
      <trkpt lat="42.28387" lon="-4.79492">
        <ele>858.1321</ele>
        <time>2021-07-05T18:48:25Z</time>
      </trkpt>
      <trkpt lat="42.28255" lon="-4.79874">
        <ele>859.4812</ele>
        <time>2021-07-05T18:48:36Z</time>
      </trkpt>
      <trkpt lat="42.28128" lon="-4.80249">
        <ele>863.831</ele>
        <time>2021-07-05T18:48:47Z</time>
      </trkpt>
      <trkpt lat="42.27998" lon="-4.8062">
        <ele>865.6174</ele>
        <time>2021-07-05T18:48:58Z</time>
      </trkpt>
      <trkpt lat="42.27878" lon="-4.80967">
        <ele>862.4389</ele>
        <time>2021-07-05T18:49:09Z</time>
      </trkpt>
      <trkpt lat="42.27748" lon="-4.81347">
        <ele>861.7324</ele>
        <time>2021-07-05T18:49:20Z</time>
      </trkpt>
      <trkpt lat="42.27617" lon="-4.81723">
        <ele>862.086</ele>
        <time>2021-07-05T18:49:31Z</time>
      </trkpt>
      <trkpt lat="42.27484" lon="-4.82101">
        <ele>855.0378</ele>
        <time>2021-07-05T18:49:42Z</time>
      </trkpt>
      <trkpt lat="42.27352" lon="-4.82482">
        <ele>846.1367</ele>
        <time>2021-07-05T18:49:53Z</time>
      </trkpt>
      <trkpt lat="42.27219" lon="-4.82865">
        <ele>842.8328</ele>
        <time>2021-07-05T18:50:04Z</time>
      </trkpt>
      <trkpt lat="42.27107" lon="-4.8319">
        <ele>841.0392</ele>
        <time>2021-07-05T18:50:15Z</time>
      </trkpt>
      <trkpt lat="42.27017" lon="-4.83534">
        <ele>832.6516</ele>
        <time>2021-07-05T18:50:26Z</time>
      </trkpt>
      <trkpt lat="42.26933" lon="-4.83872">
        <ele>825.68</ele>
        <time>2021-07-05T18:50:37Z</time>
      </trkpt>
      <trkpt lat="42.26848" lon="-4.84214">
        <ele>820.5848</ele>
        <time>2021-07-05T18:50:48Z</time>
      </trkpt>
      <trkpt lat="42.26763" lon="-4.84557">
        <ele>820.8542</ele>
        <time>2021-07-05T18:50:59Z</time>
      </trkpt>
      <trkpt lat="42.26686" lon="-4.84865">
        <ele>815.7679</ele>
        <time>2021-07-05T18:51:10Z</time>
      </trkpt>
      <trkpt lat="42.26603" lon="-4.85194">
        <ele>811.4007</ele>
        <time>2021-07-05T18:51:21Z</time>
      </trkpt>
      <trkpt lat="42.26533" lon="-4.85474">
        <ele>807.1945</ele>
        <time>2021-07-05T18:51:32Z</time>
      </trkpt>
      <trkpt lat="42.26485" lon="-4.85663">
        <ele>809.9179</ele>
        <time>2021-07-05T18:51:43Z</time>
      </trkpt>
      <trkpt lat="42.26432" lon="-4.85871">
        <ele>809.873</ele>
        <time>2021-07-05T18:51:54Z</time>
      </trkpt>
      <trkpt lat="42.26374" lon="-4.86115">
        <ele>810.3528</ele>
        <time>2021-07-05T18:52:05Z</time>
      </trkpt>
      <trkpt lat="42.26284" lon="-4.8648">
        <ele>813.5986</ele>
        <time>2021-07-05T18:52:16Z</time>
      </trkpt>
      <trkpt lat="42.26192" lon="-4.86852">
        <ele>816.0266</ele>
        <time>2021-07-05T18:52:27Z</time>
      </trkpt>
      <trkpt lat="42.26095" lon="-4.87242">
        <ele>818.0968</ele>
        <time>2021-07-05T18:52:38Z</time>
      </trkpt>
      <trkpt lat="42.26008" lon="-4.87591">
        <ele>821.6662</ele>
        <time>2021-07-05T18:52:49Z</time>
      </trkpt>
      <trkpt lat="42.25912" lon="-4.87976">
        <ele>825.993</ele>
        <time>2021-07-05T18:53:00Z</time>
      </trkpt>
      <trkpt lat="42.25831" lon="-4.88304">
        <ele>830.0961</ele>
        <time>2021-07-05T18:53:11Z</time>
      </trkpt>
      <trkpt lat="42.25754" lon="-4.8861">
        <ele>828.0793</ele>
        <time>2021-07-05T18:53:22Z</time>
      </trkpt>
      <trkpt lat="42.25685" lon="-4.88888">
        <ele>823.1357</ele>
        <time>2021-07-05T18:53:33Z</time>
      </trkpt>
      <trkpt lat="42.2561" lon="-4.89181">
        <ele>819.1623</ele>
        <time>2021-07-05T18:53:44Z</time>
      </trkpt>
      <trkpt lat="42.2556" lon="-4.89472">
        <ele>822.9234</ele>
        <time>2021-07-05T18:53:55Z</time>
      </trkpt>
      <trkpt lat="42.25528" lon="-4.89776">
        <ele>826.7483</ele>
        <time>2021-07-05T18:54:06Z</time>
      </trkpt>
      <trkpt lat="42.2549" lon="-4.90129">
        <ele>831.7442</ele>
        <time>2021-07-05T18:54:17Z</time>
      </trkpt>
      <trkpt lat="42.25448" lon="-4.90516">
        <ele>834.7037</ele>
        <time>2021-07-05T18:54:28Z</time>
      </trkpt>
      <trkpt lat="42.25406" lon="-4.90908">
        <ele>833.3675</ele>
        <time>2021-07-05T18:54:39Z</time>
      </trkpt>
      <trkpt lat="42.25364" lon="-4.91295">
        <ele>835.2923</ele>
        <time>2021-07-05T18:54:50Z</time>
      </trkpt>
      <trkpt lat="42.25323" lon="-4.91682">
        <ele>839.0511</ele>
        <time>2021-07-05T18:55:01Z</time>
      </trkpt>
      <trkpt lat="42.25286" lon="-4.92033">
        <ele>841.9957</ele>
        <time>2021-07-05T18:55:12Z</time>
      </trkpt>
      <trkpt lat="42.25259" lon="-4.92296">
        <ele>850.6915</ele>
        <time>2021-07-05T18:55:23Z</time>
      </trkpt>
      <trkpt lat="42.25227" lon="-4.92606">
        <ele>845.0827</ele>
        <time>2021-07-05T18:55:34Z</time>
      </trkpt>
      <trkpt lat="42.25192" lon="-4.92947">
        <ele>833.2228</ele>
        <time>2021-07-05T18:55:45Z</time>
      </trkpt>
      <trkpt lat="42.25154" lon="-4.93313">
        <ele>827.4792</ele>
        <time>2021-07-05T18:55:56Z</time>
      </trkpt>
      <trkpt lat="42.25116" lon="-4.93679">
        <ele>825.2658</ele>
        <time>2021-07-05T18:56:07Z</time>
      </trkpt>
      <trkpt lat="42.2508" lon="-4.94033">
        <ele>821.6063</ele>
        <time>2021-07-05T18:56:18Z</time>
      </trkpt>
      <trkpt lat="42.25044" lon="-4.94387">
        <ele>823.7646</ele>
        <time>2021-07-05T18:56:29Z</time>
      </trkpt>
      <trkpt lat="42.25006" lon="-4.94735">
        <ele>819.0022</ele>
        <time>2021-07-05T18:56:40Z</time>
      </trkpt>
      <trkpt lat="42.24971" lon="-4.95068">
        <ele>814.978</ele>
        <time>2021-07-05T18:56:51Z</time>
      </trkpt>
      <trkpt lat="42.24944" lon="-4.95362">
        <ele>799.9045</ele>
        <time>2021-07-05T18:57:02Z</time>
      </trkpt>
      <trkpt lat="42.24917" lon="-4.95594">
        <ele>802.9317</ele>
        <time>2021-07-05T18:57:13Z</time>
      </trkpt>
      <trkpt lat="42.24826" lon="-4.95609">
        <ele>801.6927</ele>
        <time>2021-07-05T18:57:24Z</time>
      </trkpt>
      <trkpt lat="42.24604" lon="-4.95658">
        <ele>802.2248</ele>
        <time>2021-07-05T18:57:35Z</time>
      </trkpt>
      <trkpt lat="42.24374" lon="-4.95762">
        <ele>800.9896</ele>
        <time>2021-07-05T18:57:46Z</time>
      </trkpt>
      <trkpt lat="42.24122" lon="-4.95883">
        <ele>794.7958</ele>
        <time>2021-07-05T18:57:57Z</time>
      </trkpt>
      <trkpt lat="42.23878" lon="-4.96072">
        <ele>793.5699</ele>
        <time>2021-07-05T18:58:08Z</time>
      </trkpt>
      <trkpt lat="42.23735" lon="-4.96404">
        <ele>794.4725</ele>
        <time>2021-07-05T18:58:19Z</time>
      </trkpt>
      <trkpt lat="42.23594" lon="-4.96717">
        <ele>797.2464</ele>
        <time>2021-07-05T18:58:30Z</time>
      </trkpt>
      <trkpt lat="42.23442" lon="-4.96858">
        <ele>790.8795</ele>
        <time>2021-07-05T18:58:41Z</time>
      </trkpt>
      <trkpt lat="42.2353" lon="-4.96847">
        <ele>791.4139</ele>
        <time>2021-07-05T18:58:52Z</time>
      </trkpt>
      <trkpt lat="42.23777" lon="-4.96761">
        <ele>792.5208</ele>
        <time>2021-07-05T18:59:03Z</time>
      </trkpt>
      <trkpt lat="42.24047" lon="-4.96811">
        <ele>793.9472</ele>
        <time>2021-07-05T18:59:14Z</time>
      </trkpt>
      <trkpt lat="42.24259" lon="-4.97052">
        <ele>793.6367</ele>
        <time>2021-07-05T18:59:25Z</time>
      </trkpt>
      <trkpt lat="42.24461" lon="-4.97345">
        <ele>794.3446</ele>
        <time>2021-07-05T18:59:36Z</time>
      </trkpt>
      <trkpt lat="42.24523" lon="-4.9772">
        <ele>797.3353</ele>
        <time>2021-07-05T18:59:47Z</time>
      </trkpt>
      <trkpt lat="42.2447" lon="-4.98131">
        <ele>798.8605</ele>
        <time>2021-07-05T18:59:58Z</time>
      </trkpt>
      <trkpt lat="42.2442" lon="-4.98533">
        <ele>801.2723</ele>
        <time>2021-07-05T19:00:09Z</time>
      </trkpt>
      <trkpt lat="42.24369" lon="-4.98916">
        <ele>804.859</ele>
        <time>2021-07-05T19:00:20Z</time>
      </trkpt>
      <trkpt lat="42.24326" lon="-4.99239">
        <ele>809.4</ele>
        <time>2021-07-05T19:00:31Z</time>
      </trkpt>
      <trkpt lat="42.24307" lon="-4.99388">
        <ele>811.8265</ele>
        <time>2021-07-05T19:00:42Z</time>
      </trkpt>
      <trkpt lat="42.24277" lon="-4.99623">
        <ele>814.1705</ele>
        <time>2021-07-05T19:00:53Z</time>
      </trkpt>
      <trkpt lat="42.24243" lon="-4.9989">
        <ele>818.1378</ele>
        <time>2021-07-05T19:01:04Z</time>
      </trkpt>
      <trkpt lat="42.24184" lon="-5.00156">
        <ele>817.1504</ele>
        <time>2021-07-05T19:01:15Z</time>
      </trkpt>
      <trkpt lat="42.24102" lon="-5.00494">
        <ele>820.53</ele>
        <time>2021-07-05T19:01:26Z</time>
      </trkpt>
      <trkpt lat="42.24029" lon="-5.00794">
        <ele>820.1723</ele>
        <time>2021-07-05T19:01:37Z</time>
      </trkpt>
      <trkpt lat="42.23969" lon="-5.01037">
        <ele>819.8202</ele>
        <time>2021-07-05T19:01:48Z</time>
      </trkpt>
      <trkpt lat="42.23936" lon="-5.0117">
        <ele>819.1419</ele>
        <time>2021-07-05T19:01:59Z</time>
      </trkpt>
      <trkpt lat="42.23936" lon="-5.01172">
        <ele>820.1625</ele>
        <time>2021-07-05T19:02:59Z</time>
      </trkpt>
      <trkpt lat="42.23936" lon="-5.01171">
        <ele>818.4398</ele>
        <time>2021-07-05T19:03:59Z</time>
      </trkpt>
      <trkpt lat="42.23936" lon="-5.01169">
        <ele>816.3978</ele>
        <time>2021-07-05T19:04:59Z</time>
      </trkpt>
      <trkpt lat="42.23936" lon="-5.01171">
        <ele>818.3138</ele>
        <time>2021-07-05T19:05:59Z</time>
      </trkpt>
      <trkpt lat="42.23936" lon="-5.01171">
        <ele>820.1585</ele>
        <time>2021-07-05T19:06:58Z</time>
      </trkpt>
      <trkpt lat="42.23935" lon="-5.01171">
        <ele>819.9049</ele>
        <time>2021-07-05T19:07:58Z</time>
      </trkpt>
      <trkpt lat="42.23939" lon="-5.01172">
        <ele>819.9643</ele>
        <time>2021-07-05T19:08:19Z</time>
      </trkpt>
      <trkpt lat="42.2394" lon="-5.01172">
        <ele>820.7019</ele>
        <time>2021-07-05T19:09:19Z</time>
      </trkpt>
      <trkpt lat="42.2394" lon="-5.01171">
        <ele>820.9312</ele>
        <time>2021-07-05T19:10:18Z</time>
      </trkpt>
      <trkpt lat="42.23939" lon="-5.01174">
        <ele>817.1736</ele>
        <time>2021-07-05T19:11:18Z</time>
      </trkpt>
      <trkpt lat="42.2394" lon="-5.01175">
        <ele>817.7767</ele>
        <time>2021-07-05T19:12:17Z</time>
      </trkpt>
      <trkpt lat="42.23938" lon="-5.01174">
        <ele>818.8576</ele>
        <time>2021-07-05T19:13:16Z</time>
      </trkpt>
      <trkpt lat="42.23893" lon="-5.01341">
        <ele>820.4829</ele>
        <time>2021-07-05T19:13:27Z</time>
      </trkpt>
      <trkpt lat="42.23813" lon="-5.01673">
        <ele>822.4825</ele>
        <time>2021-07-05T19:13:38Z</time>
      </trkpt>
      <trkpt lat="42.23734" lon="-5.0199">
        <ele>827.1567</ele>
        <time>2021-07-05T19:13:49Z</time>
      </trkpt>
      <trkpt lat="42.23667" lon="-5.02241">
        <ele>830.3021</ele>
        <time>2021-07-05T19:14:00Z</time>
      </trkpt>
      <trkpt lat="42.23624" lon="-5.0235">
        <ele>827.6083</ele>
        <time>2021-07-05T19:14:11Z</time>
      </trkpt>
      <trkpt lat="42.23472" lon="-5.02462">
        <ele>830.4836</ele>
        <time>2021-07-05T19:14:22Z</time>
      </trkpt>
      <trkpt lat="42.23274" lon="-5.02528">
        <ele>834.9538</ele>
        <time>2021-07-05T19:14:33Z</time>
      </trkpt>
      <trkpt lat="42.23216" lon="-5.02534">
        <ele>831.6314</ele>
        <time>2021-07-05T19:14:44Z</time>
      </trkpt>
      <trkpt lat="42.23152" lon="-5.0254">
        <ele>830.6976</ele>
        <time>2021-07-05T19:14:55Z</time>
      </trkpt>
      <trkpt lat="42.23108" lon="-5.02545">
        <ele>829.5401</ele>
        <time>2021-07-05T19:15:07Z</time>
      </trkpt>
      <trkpt lat="42.23057" lon="-5.02551">
        <ele>830.0252</ele>
        <time>2021-07-05T19:15:18Z</time>
      </trkpt>
      <trkpt lat="42.23052" lon="-5.02551">
        <ele>828.4707</ele>
        <time>2021-07-05T19:15:29Z</time>
      </trkpt>
      <trkpt lat="42.23178" lon="-5.02531">
        <ele>830.027</ele>
        <time>2021-07-05T19:15:40Z</time>
      </trkpt>
      <trkpt lat="42.23304" lon="-5.02517">
        <ele>831.9463</ele>
        <time>2021-07-05T19:15:51Z</time>
      </trkpt>
      <trkpt lat="42.23448" lon="-5.02471">
        <ele>830.9745</ele>
        <time>2021-07-05T19:16:02Z</time>
      </trkpt>
      <trkpt lat="42.23609" lon="-5.0234">
        <ele>829.3578</ele>
        <time>2021-07-05T19:16:13Z</time>
      </trkpt>
      <trkpt lat="42.23632" lon="-5.0237">
        <ele>831.1037</ele>
        <time>2021-07-05T19:16:24Z</time>
      </trkpt>
      <trkpt lat="42.23573" lon="-5.02627">
        <ele>831.7015</ele>
        <time>2021-07-05T19:16:35Z</time>
      </trkpt>
      <trkpt lat="42.23507" lon="-5.02881">
        <ele>826.8818</ele>
        <time>2021-07-05T19:16:46Z</time>
      </trkpt>
      <trkpt lat="42.23448" lon="-5.03104">
        <ele>824.4239</ele>
        <time>2021-07-05T19:16:57Z</time>
      </trkpt>
      <trkpt lat="42.23393" lon="-5.03306">
        <ele>827.5684</ele>
        <time>2021-07-05T19:17:08Z</time>
      </trkpt>
      <trkpt lat="42.23372" lon="-5.03379">
        <ele>827.3907</ele>
        <time>2021-07-05T19:17:19Z</time>
      </trkpt>
      <trkpt lat="42.23376" lon="-5.03362">
        <ele>827.637</ele>
        <time>2021-07-05T19:17:30Z</time>
      </trkpt>
      <trkpt lat="42.23373" lon="-5.03359">
        <ele>826.4696</ele>
        <time>2021-07-05T19:17:41Z</time>
      </trkpt>
      <trkpt lat="42.23298" lon="-5.03323">
        <ele>828.5817</ele>
        <time>2021-07-05T19:17:52Z</time>
      </trkpt>
      <trkpt lat="42.23231" lon="-5.03282">
        <ele>832.2287</ele>
        <time>2021-07-05T19:18:03Z</time>
      </trkpt>
      <trkpt lat="42.23221" lon="-5.03273">
        <ele>832.0408</ele>
        <time>2021-07-05T19:18:14Z</time>
      </trkpt>
      <trkpt lat="42.2325" lon="-5.03292">
        <ele>830.6302</ele>
        <time>2021-07-05T19:18:25Z</time>
      </trkpt>
      <trkpt lat="42.23312" lon="-5.03328">
        <ele>829.0046</ele>
        <time>2021-07-05T19:18:36Z</time>
      </trkpt>
      <trkpt lat="42.23361" lon="-5.03352">
        <ele>827.1763</ele>
        <time>2021-07-05T19:18:47Z</time>
      </trkpt>
      <trkpt lat="42.23372" lon="-5.03356">
        <ele>829.1764</ele>
        <time>2021-07-05T19:18:58Z</time>
      </trkpt>
      <trkpt lat="42.23377" lon="-5.03343">
        <ele>826.6524</ele>
        <time>2021-07-05T19:19:13Z</time>
      </trkpt>
      <trkpt lat="42.23448" lon="-5.03078">
        <ele>826.2347</ele>
        <time>2021-07-05T19:19:24Z</time>
      </trkpt>
      <trkpt lat="42.23552" lon="-5.02685">
        <ele>831.9157</ele>
        <time>2021-07-05T19:19:35Z</time>
      </trkpt>
      <trkpt lat="42.2362" lon="-5.02394">
        <ele>829.0418</ele>
        <time>2021-07-05T19:19:46Z</time>
      </trkpt>
      <trkpt lat="42.23675" lon="-5.02199">
        <ele>829.2484</ele>
        <time>2021-07-05T19:19:57Z</time>
      </trkpt>
      <trkpt lat="42.23726" lon="-5.02003">
        <ele>825.3372</ele>
        <time>2021-07-05T19:20:08Z</time>
      </trkpt>
      <trkpt lat="42.23743" lon="-5.02047">
        <ele>827.1095</ele>
        <time>2021-07-05T19:20:19Z</time>
      </trkpt>
      <trkpt lat="42.2376" lon="-5.02132">
        <ele>829.5172</ele>
        <time>2021-07-05T19:20:30Z</time>
      </trkpt>
      <trkpt lat="42.23794" lon="-5.02162">
        <ele>834.3295</ele>
        <time>2021-07-05T19:20:41Z</time>
      </trkpt>
      <trkpt lat="42.23851" lon="-5.0214">
        <ele>836.7483</ele>
        <time>2021-07-05T19:20:52Z</time>
      </trkpt>
      <trkpt lat="42.23924" lon="-5.02152">
        <ele>829.4016</ele>
        <time>2021-07-05T19:21:03Z</time>
      </trkpt>
      <trkpt lat="42.23934" lon="-5.02167">
        <ele>828.4262</ele>
        <time>2021-07-05T19:21:14Z</time>
      </trkpt>
      <trkpt lat="42.23934" lon="-5.02165">
        <ele>827.6767</ele>
        <time>2021-07-05T19:22:13Z</time>
      </trkpt>
      <trkpt lat="42.23933" lon="-5.02175">
        <ele>828.4987</ele>
        <time>2021-07-05T19:22:32Z</time>
      </trkpt>
      <trkpt lat="42.23896" lon="-5.02222">
        <ele>827.8416</ele>
        <time>2021-07-05T19:22:43Z</time>
      </trkpt>
      <trkpt lat="42.23888" lon="-5.02288">
        <ele>827.2473</ele>
        <time>2021-07-05T19:22:54Z</time>
      </trkpt>
      <trkpt lat="42.23882" lon="-5.02325">
        <ele>828.1113</ele>
        <time>2021-07-05T19:23:05Z</time>
      </trkpt>
      <trkpt lat="42.23833" lon="-5.02356">
        <ele>828.4979</ele>
        <time>2021-07-05T19:23:16Z</time>
      </trkpt>
      <trkpt lat="42.23839" lon="-5.02395">
        <ele>827.5427</ele>
        <time>2021-07-05T19:23:27Z</time>
      </trkpt>
      <trkpt lat="42.2386" lon="-5.0245">
        <ele>824.8377</ele>
        <time>2021-07-05T19:23:38Z</time>
      </trkpt>
      <trkpt lat="42.23876" lon="-5.02519">
        <ele>822.297</ele>
        <time>2021-07-05T19:23:49Z</time>
      </trkpt>
      <trkpt lat="42.23895" lon="-5.02605">
        <ele>818.0384</ele>
        <time>2021-07-05T19:24:00Z</time>
      </trkpt>
      <trkpt lat="42.23916" lon="-5.02698">
        <ele>815.652</ele>
        <time>2021-07-05T19:24:11Z</time>
      </trkpt>
      <trkpt lat="42.23941" lon="-5.02795">
        <ele>812.182</ele>
        <time>2021-07-05T19:24:22Z</time>
      </trkpt>
      <trkpt lat="42.23967" lon="-5.02876">
        <ele>810.8106</ele>
        <time>2021-07-05T19:24:33Z</time>
      </trkpt>
      <trkpt lat="42.23974" lon="-5.02957">
        <ele>808.8888</ele>
        <time>2021-07-05T19:24:44Z</time>
      </trkpt>
      <trkpt lat="42.23981" lon="-5.03028">
        <ele>806.4948</ele>
        <time>2021-07-05T19:24:55Z</time>
      </trkpt>
      <trkpt lat="42.23982" lon="-5.03043">
        <ele>808.4651</ele>
        <time>2021-07-05T19:25:06Z</time>
      </trkpt>
      <trkpt lat="42.23997" lon="-5.03135">
        <ele>805.9895</ele>
        <time>2021-07-05T19:25:17Z</time>
      </trkpt>
      <trkpt lat="42.24009" lon="-5.03202">
        <ele>806.9136</ele>
        <time>2021-07-05T19:25:28Z</time>
      </trkpt>
      <trkpt lat="42.24027" lon="-5.03308">
        <ele>804.4884</ele>
        <time>2021-07-05T19:25:39Z</time>
      </trkpt>
      <trkpt lat="42.24051" lon="-5.03381">
        <ele>802.9053</ele>
        <time>2021-07-05T19:25:50Z</time>
      </trkpt>
      <trkpt lat="42.2408" lon="-5.03458">
        <ele>801.7866</ele>
        <time>2021-07-05T19:26:01Z</time>
      </trkpt>
      <trkpt lat="42.2409" lon="-5.03482">
        <ele>801.7006</ele>
        <time>2021-07-05T19:26:12Z</time>
      </trkpt>
      <trkpt lat="42.24087" lon="-5.03473">
        <ele>801.3163</ele>
        <time>2021-07-05T19:26:25Z</time>
      </trkpt>
      <trkpt lat="42.24052" lon="-5.03387">
        <ele>803.9137</ele>
        <time>2021-07-05T19:26:36Z</time>
      </trkpt>
      <trkpt lat="42.24029" lon="-5.03324">
        <ele>801.8222</ele>
        <time>2021-07-05T19:26:47Z</time>
      </trkpt>
      <trkpt lat="42.24018" lon="-5.03258">
        <ele>804.8927</ele>
        <time>2021-07-05T19:26:58Z</time>
      </trkpt>
      <trkpt lat="42.24014" lon="-5.03226">
        <ele>806.1629</ele>
        <time>2021-07-05T19:27:09Z</time>
      </trkpt>
      <trkpt lat="42.24014" lon="-5.03226">
        <ele>806.2606</ele>
        <time>2021-07-05T19:28:08Z</time>
      </trkpt>
      <trkpt lat="42.24011" lon="-5.0323">
        <ele>806.1065</ele>
        <time>2021-07-05T19:28:58Z</time>
      </trkpt>
      <trkpt lat="42.24" lon="-5.03233">
        <ele>806.6359</ele>
        <time>2021-07-05T19:29:09Z</time>
      </trkpt>
      <trkpt lat="42.23996" lon="-5.0323">
        <ele>805.3828</ele>
        <time>2021-07-05T19:29:53Z</time>
      </trkpt>
    </trkseg>
  </trk>
</gpx>